﻿<?xml version="1.0" encoding="utf-8" standalone="yes"?>
<gpx version="1.0" creator="CanWay - http://www.canwaygps.com" xmlns:xsi="http://www.w3.org/2001/XMLSchema-instance" xmlns="http://www.topografix.com/GPX/1/0" xsi:schemaLocation="http://www.topografix.com/GPX/1/0 http://www.topografix.com/GPX/1/0/gpx.xsd">
<time>2023-05-14T21:28:04Z</time>
<bounds minlat="47.399933" minlon="8.277879" maxlat="47.445210" maxlon="8.310149" />
<trk>
<name>StettenAG_Fislisbach</name>
<trkseg>
<trkpt lat="47.400033" lon="8.310029">
<ele>390.5</ele>
<time>2003-03-28T08:47:55Z</time>
<speed>1.3</speed>
</trkpt>
<trkpt lat="47.399984" lon="8.309980">
<ele>391.4</ele>
<time>2003-03-28T08:48:00Z</time>
<speed>0.3</speed>
</trkpt>
<trkpt lat="47.399996" lon="8.309995">
<ele>391.5</ele>
<time>2003-03-28T08:48:05Z</time>
<speed>0.4</speed>
</trkpt>
<trkpt lat="47.399994" lon="8.310021">
<ele>391.7</ele>
<time>2003-03-28T08:48:10Z</time>
<speed>0.3</speed>
</trkpt>
<trkpt lat="47.399982" lon="8.310021">
<ele>390.3</ele>
<time>2003-03-28T08:48:15Z</time>
<speed>0.4</speed>
</trkpt>
<trkpt lat="47.399981" lon="8.310049">
<ele>389.1</ele>
<time>2003-03-28T08:48:20Z</time>
<speed>0.2</speed>
</trkpt>
<trkpt lat="47.399974" lon="8.310047">
<ele>389.7</ele>
<time>2003-03-28T08:48:25Z</time>
<speed>0.7</speed>
</trkpt>
<trkpt lat="47.399959" lon="8.310085">
<ele>390.0</ele>
<time>2003-03-28T08:48:30Z</time>
<speed>0.9</speed>
</trkpt>
<trkpt lat="47.399934" lon="8.310134">
<ele>380.3</ele>
<time>2003-03-28T08:48:35Z</time>
<speed>0.2</speed>
</trkpt>
<trkpt lat="47.399933" lon="8.310149">
<ele>379.0</ele>
<time>2003-03-28T08:48:40Z</time>
<speed>0.2</speed>
</trkpt>
<trkpt lat="47.399941" lon="8.310139">
<ele>376.8</ele>
<time>2003-03-28T08:48:45Z</time>
<speed>0.6</speed>
</trkpt>
<trkpt lat="47.399962" lon="8.310115">
<ele>377.4</ele>
<time>2003-03-28T08:48:50Z</time>
<speed>1.2</speed>
</trkpt>
<trkpt lat="47.400014" lon="8.310095">
<ele>378.9</ele>
<time>2003-03-28T08:48:55Z</time>
<speed>1.4</speed>
</trkpt>
<trkpt lat="47.400068" lon="8.310050">
<ele>378.8</ele>
<time>2003-03-28T08:49:00Z</time>
<speed>2.0</speed>
</trkpt>
<trkpt lat="47.400159" lon="8.310037">
<ele>379.0</ele>
<time>2003-03-28T08:49:05Z</time>
<speed>1.6</speed>
</trkpt>
<trkpt lat="47.400230" lon="8.310020">
<ele>379.9</ele>
<time>2003-03-28T08:49:10Z</time>
<speed>1.4</speed>
</trkpt>
<trkpt lat="47.400294" lon="8.310017">
<ele>380.1</ele>
<time>2003-03-28T08:49:15Z</time>
<speed>1.3</speed>
</trkpt>
<trkpt lat="47.400348" lon="8.310049">
<ele>382.7</ele>
<time>2003-03-28T08:49:20Z</time>
<speed>0.6</speed>
</trkpt>
<trkpt lat="47.400352" lon="8.310090">
<ele>382.4</ele>
<time>2003-03-28T08:49:25Z</time>
<speed>0.2</speed>
</trkpt>
<trkpt lat="47.400344" lon="8.310101">
<ele>383.1</ele>
<time>2003-03-28T08:49:30Z</time>
<speed>0.1</speed>
</trkpt>
<trkpt lat="47.400338" lon="8.310099">
<ele>383.8</ele>
<time>2003-03-28T08:49:35Z</time>
<speed>0.0</speed>
</trkpt>
<trkpt lat="47.400338" lon="8.310099">
<ele>383.8</ele>
<time>2003-03-28T08:49:40Z</time>
<speed>0.0</speed>
</trkpt>
<trkpt lat="47.400338" lon="8.310099">
<ele>383.8</ele>
<time>2003-03-28T08:49:45Z</time>
<speed>0.1</speed>
</trkpt>
<trkpt lat="47.400344" lon="8.310099">
<ele>384.5</ele>
<time>2003-03-28T08:49:50Z</time>
<speed>0.2</speed>
</trkpt>
<trkpt lat="47.400345" lon="8.310086">
<ele>384.4</ele>
<time>2003-03-28T08:49:55Z</time>
<speed>0.0</speed>
</trkpt>
<trkpt lat="47.400345" lon="8.310086">
<ele>384.4</ele>
<time>2003-03-28T08:50:00Z</time>
<speed>0.2</speed>
</trkpt>
<trkpt lat="47.400344" lon="8.310099">
<ele>384.5</ele>
<time>2003-03-28T08:50:05Z</time>
<speed>0.2</speed>
</trkpt>
<trkpt lat="47.400343" lon="8.310112">
<ele>384.6</ele>
<time>2003-03-28T08:50:10Z</time>
<speed>0.0</speed>
</trkpt>
<trkpt lat="47.400343" lon="8.310112">
<ele>384.6</ele>
<time>2003-03-28T08:50:15Z</time>
<speed>0.2</speed>
</trkpt>
<trkpt lat="47.400344" lon="8.310099">
<ele>384.5</ele>
<time>2003-03-28T08:50:20Z</time>
<speed>0.0</speed>
</trkpt>
<trkpt lat="47.400344" lon="8.310099">
<ele>384.5</ele>
<time>2003-03-28T08:50:25Z</time>
<speed>0.2</speed>
</trkpt>
<trkpt lat="47.400342" lon="8.310110">
<ele>386.0</ele>
<time>2003-03-28T08:50:30Z</time>
<speed>0.0</speed>
</trkpt>
<trkpt lat="47.400342" lon="8.310110">
<ele>386.0</ele>
<time>2003-03-28T08:50:35Z</time>
<speed>0.3</speed>
</trkpt>
<trkpt lat="47.400330" lon="8.310109">
<ele>386.0</ele>
<time>2003-03-28T08:50:40Z</time>
<speed>0.0</speed>
</trkpt>
<trkpt lat="47.400329" lon="8.310107">
<ele>387.4</ele>
<time>2003-03-28T08:50:45Z</time>
<speed>0.4</speed>
</trkpt>
<trkpt lat="47.400348" lon="8.310110">
<ele>386.8</ele>
<time>2003-03-28T08:50:50Z</time>
<speed>0.2</speed>
</trkpt>
<trkpt lat="47.400349" lon="8.310097">
<ele>386.7</ele>
<time>2003-03-28T08:50:55Z</time>
<speed>0.2</speed>
</trkpt>
<trkpt lat="47.400355" lon="8.310110">
<ele>387.5</ele>
<time>2003-03-28T08:51:00Z</time>
<speed>0.0</speed>
</trkpt>
<trkpt lat="47.400355" lon="8.310110">
<ele>387.5</ele>
<time>2003-03-28T08:51:05Z</time>
<speed>0.3</speed>
</trkpt>
<trkpt lat="47.400343" lon="8.310095">
<ele>387.3</ele>
<time>2003-03-28T08:51:10Z</time>
<speed>0.2</speed>
</trkpt>
<trkpt lat="47.400336" lon="8.310094">
<ele>388.0</ele>
<time>2003-03-28T08:51:15Z</time>
<speed>0.1</speed>
</trkpt>
<trkpt lat="47.400330" lon="8.310094">
<ele>387.3</ele>
<time>2003-03-28T08:51:20Z</time>
<speed>0.0</speed>
</trkpt>
<trkpt lat="47.400330" lon="8.310094">
<ele>387.3</ele>
<time>2003-03-28T08:51:25Z</time>
<speed>0.0</speed>
</trkpt>
<trkpt lat="47.400330" lon="8.310094">
<ele>387.3</ele>
<time>2003-03-28T08:51:30Z</time>
<speed>0.0</speed>
</trkpt>
<trkpt lat="47.400330" lon="8.310094">
<ele>387.3</ele>
<time>2003-03-28T08:51:35Z</time>
<speed>0.0</speed>
</trkpt>
<trkpt lat="47.400330" lon="8.310094">
<ele>387.3</ele>
<time>2003-03-28T08:51:40Z</time>
<speed>0.1</speed>
</trkpt>
<trkpt lat="47.400324" lon="8.310092">
<ele>387.9</ele>
<time>2003-03-28T08:51:45Z</time>
<speed>0.0</speed>
</trkpt>
<trkpt lat="47.400324" lon="8.310092">
<ele>387.9</ele>
<time>2003-03-28T08:51:50Z</time>
<speed>0.0</speed>
</trkpt>
<trkpt lat="47.400324" lon="8.310092">
<ele>387.9</ele>
<time>2003-03-28T08:51:55Z</time>
<speed>0.0</speed>
</trkpt>
<trkpt lat="47.400324" lon="8.310092">
<ele>387.9</ele>
<time>2003-03-28T08:52:00Z</time>
<speed>0.0</speed>
</trkpt>
<trkpt lat="47.400324" lon="8.310092">
<ele>387.9</ele>
<time>2003-03-28T08:52:05Z</time>
<speed>0.2</speed>
</trkpt>
<trkpt lat="47.400317" lon="8.310090">
<ele>388.6</ele>
<time>2003-03-28T08:52:10Z</time>
<speed>0.0</speed>
</trkpt>
<trkpt lat="47.400317" lon="8.310088">
<ele>390.0</ele>
<time>2003-03-28T08:52:15Z</time>
<speed>0.0</speed>
</trkpt>
<trkpt lat="47.400317" lon="8.310088">
<ele>390.0</ele>
<time>2003-03-28T08:52:20Z</time>
<speed>0.3</speed>
</trkpt>
<trkpt lat="47.400311" lon="8.310073">
<ele>390.6</ele>
<time>2003-03-28T08:52:25Z</time>
<speed>0.0</speed>
</trkpt>
<trkpt lat="47.400311" lon="8.310073">
<ele>390.6</ele>
<time>2003-03-28T08:52:30Z</time>
<speed>0.0</speed>
</trkpt>
<trkpt lat="47.400311" lon="8.310073">
<ele>390.6</ele>
<time>2003-03-28T08:52:35Z</time>
<speed>0.0</speed>
</trkpt>
<trkpt lat="47.400311" lon="8.310073">
<ele>390.6</ele>
<time>2003-03-28T08:52:40Z</time>
<speed>0.0</speed>
</trkpt>
<trkpt lat="47.400311" lon="8.310073">
<ele>390.6</ele>
<time>2003-03-28T08:52:45Z</time>
<speed>0.0</speed>
</trkpt>
<trkpt lat="47.400311" lon="8.310073">
<ele>390.6</ele>
<time>2003-03-28T08:52:50Z</time>
<speed>0.0</speed>
</trkpt>
<trkpt lat="47.400311" lon="8.310073">
<ele>390.6</ele>
<time>2003-03-28T08:52:55Z</time>
<speed>0.2</speed>
</trkpt>
<trkpt lat="47.400304" lon="8.310069">
<ele>392.7</ele>
<time>2003-03-28T08:53:00Z</time>
<speed>0.0</speed>
</trkpt>
<trkpt lat="47.400304" lon="8.310069">
<ele>392.7</ele>
<time>2003-03-28T08:53:05Z</time>
<speed>0.1</speed>
</trkpt>
<trkpt lat="47.400310" lon="8.310069">
<ele>393.4</ele>
<time>2003-03-28T08:53:10Z</time>
<speed>0.8</speed>
</trkpt>
<trkpt lat="47.400314" lon="8.310015">
<ele>394.4</ele>
<time>2003-03-28T08:53:15Z</time>
<speed>1.0</speed>
</trkpt>
<trkpt lat="47.400343" lon="8.309966">
<ele>394.2</ele>
<time>2003-03-28T08:53:20Z</time>
<speed>1.0</speed>
</trkpt>
<trkpt lat="47.400384" lon="8.309934">
<ele>392.7</ele>
<time>2003-03-28T08:53:25Z</time>
<speed>1.2</speed>
</trkpt>
<trkpt lat="47.400436" lon="8.309916">
<ele>392.7</ele>
<time>2003-03-28T08:53:30Z</time>
<speed>1.1</speed>
</trkpt>
<trkpt lat="47.400483" lon="8.309897">
<ele>392.1</ele>
<time>2003-03-28T08:53:35Z</time>
<speed>0.8</speed>
</trkpt>
<trkpt lat="47.400516" lon="8.309877">
<ele>391.3</ele>
<time>2003-03-28T08:53:40Z</time>
<speed>1.2</speed>
</trkpt>
<trkpt lat="47.400568" lon="8.309871">
<ele>391.5</ele>
<time>2003-03-28T08:53:45Z</time>
<speed>1.2</speed>
</trkpt>
<trkpt lat="47.400620" lon="8.309853">
<ele>391.6</ele>
<time>2003-03-28T08:53:50Z</time>
<speed>1.3</speed>
</trkpt>
<trkpt lat="47.400674" lon="8.309821">
<ele>391.5</ele>
<time>2003-03-28T08:53:55Z</time>
<speed>1.3</speed>
</trkpt>
<trkpt lat="47.400727" lon="8.309789">
<ele>391.5</ele>
<time>2003-03-28T08:54:00Z</time>
<speed>1.2</speed>
</trkpt>
<trkpt lat="47.400780" lon="8.309771">
<ele>391.6</ele>
<time>2003-03-28T08:54:05Z</time>
<speed>1.2</speed>
</trkpt>
<trkpt lat="47.400832" lon="8.309752">
<ele>391.6</ele>
<time>2003-03-28T08:54:10Z</time>
<speed>1.3</speed>
</trkpt>
<trkpt lat="47.400886" lon="8.309721">
<ele>391.6</ele>
<time>2003-03-28T08:54:15Z</time>
<speed>1.0</speed>
</trkpt>
<trkpt lat="47.400931" lon="8.309713">
<ele>392.5</ele>
<time>2003-03-28T08:54:20Z</time>
<speed>1.1</speed>
</trkpt>
<trkpt lat="47.400977" lon="8.309695">
<ele>391.8</ele>
<time>2003-03-28T08:54:25Z</time>
<speed>1.1</speed>
</trkpt>
<trkpt lat="47.401028" lon="8.309702">
<ele>392.1</ele>
<time>2003-03-28T08:54:30Z</time>
<speed>0.7</speed>
</trkpt>
<trkpt lat="47.401060" lon="8.309693">
<ele>392.8</ele>
<time>2003-03-28T08:54:35Z</time>
<speed>0.9</speed>
</trkpt>
<trkpt lat="47.401100" lon="8.309673">
<ele>392.8</ele>
<time>2003-03-28T08:54:40Z</time>
<speed>1.1</speed>
</trkpt>
<trkpt lat="47.401151" lon="8.309667">
<ele>393.0</ele>
<time>2003-03-28T08:54:45Z</time>
<speed>1.2</speed>
</trkpt>
<trkpt lat="47.401203" lon="8.309664">
<ele>391.8</ele>
<time>2003-03-28T08:54:50Z</time>
<speed>0.5</speed>
</trkpt>
<trkpt lat="47.401223" lon="8.309654">
<ele>391.1</ele>
<time>2003-03-28T08:54:55Z</time>
<speed>1.2</speed>
</trkpt>
<trkpt lat="47.401270" lon="8.309621">
<ele>391.7</ele>
<time>2003-03-28T08:55:00Z</time>
<speed>1.3</speed>
</trkpt>
<trkpt lat="47.401328" lon="8.309617">
<ele>391.2</ele>
<time>2003-03-28T08:55:05Z</time>
<speed>1.0</speed>
</trkpt>
<trkpt lat="47.401373" lon="8.309610">
<ele>392.0</ele>
<time>2003-03-28T08:55:10Z</time>
<speed>1.6</speed>
</trkpt>
<trkpt lat="47.401444" lon="8.309608">
<ele>391.6</ele>
<time>2003-03-28T08:55:15Z</time>
<speed>1.9</speed>
</trkpt>
<trkpt lat="47.401508" lon="8.309526">
<ele>390.5</ele>
<time>2003-03-28T08:55:20Z</time>
<speed>1.2</speed>
</trkpt>
<trkpt lat="47.401544" lon="8.309464">
<ele>390.9</ele>
<time>2003-03-28T08:55:25Z</time>
<speed>1.4</speed>
</trkpt>
<trkpt lat="47.401593" lon="8.309406">
<ele>389.9</ele>
<time>2003-03-28T08:55:30Z</time>
<speed>1.3</speed>
</trkpt>
<trkpt lat="47.401641" lon="8.309362">
<ele>389.1</ele>
<time>2003-03-28T08:55:35Z</time>
<speed>1.4</speed>
</trkpt>
<trkpt lat="47.401701" lon="8.309332">
<ele>388.4</ele>
<time>2003-03-28T08:55:40Z</time>
<speed>1.1</speed>
</trkpt>
<trkpt lat="47.401747" lon="8.309311">
<ele>389.1</ele>
<time>2003-03-28T08:55:45Z</time>
<speed>0.9</speed>
</trkpt>
<trkpt lat="47.401787" lon="8.309291">
<ele>389.1</ele>
<time>2003-03-28T08:55:50Z</time>
<speed>1.3</speed>
</trkpt>
<trkpt lat="47.401841" lon="8.309259">
<ele>389.1</ele>
<time>2003-03-28T08:55:55Z</time>
<speed>1.3</speed>
</trkpt>
<trkpt lat="47.401894" lon="8.309228">
<ele>389.1</ele>
<time>2003-03-28T08:56:00Z</time>
<speed>1.0</speed>
</trkpt>
<trkpt lat="47.401935" lon="8.309194">
<ele>389.0</ele>
<time>2003-03-28T08:56:05Z</time>
<speed>1.3</speed>
</trkpt>
<trkpt lat="47.401988" lon="8.309162">
<ele>388.9</ele>
<time>2003-03-28T08:56:10Z</time>
<speed>1.2</speed>
</trkpt>
<trkpt lat="47.402035" lon="8.309129">
<ele>389.6</ele>
<time>2003-03-28T08:56:15Z</time>
<speed>1.4</speed>
</trkpt>
<trkpt lat="47.402090" lon="8.309084">
<ele>389.5</ele>
<time>2003-03-28T08:56:20Z</time>
<speed>1.3</speed>
</trkpt>
<trkpt lat="47.402142" lon="8.309050">
<ele>390.8</ele>
<time>2003-03-28T08:56:25Z</time>
<speed>1.2</speed>
</trkpt>
<trkpt lat="47.402184" lon="8.309004">
<ele>390.6</ele>
<time>2003-03-28T08:56:30Z</time>
<speed>1.1</speed>
</trkpt>
<trkpt lat="47.402219" lon="8.308955">
<ele>391.1</ele>
<time>2003-03-28T08:56:35Z</time>
<speed>1.4</speed>
</trkpt>
<trkpt lat="47.402268" lon="8.308895">
<ele>391.6</ele>
<time>2003-03-28T08:56:40Z</time>
<speed>1.3</speed>
</trkpt>
<trkpt lat="47.402316" lon="8.308851">
<ele>390.7</ele>
<time>2003-03-28T08:56:45Z</time>
<speed>1.4</speed>
</trkpt>
<trkpt lat="47.402365" lon="8.308789">
<ele>392.6</ele>
<time>2003-03-28T08:56:50Z</time>
<speed>1.0</speed>
</trkpt>
<trkpt lat="47.402394" lon="8.308740">
<ele>392.3</ele>
<time>2003-03-28T08:56:55Z</time>
<speed>1.2</speed>
</trkpt>
<trkpt lat="47.402430" lon="8.308679">
<ele>392.7</ele>
<time>2003-03-28T08:57:00Z</time>
<speed>1.3</speed>
</trkpt>
<trkpt lat="47.402472" lon="8.308617">
<ele>393.8</ele>
<time>2003-03-28T08:57:05Z</time>
<speed>1.2</speed>
</trkpt>
<trkpt lat="47.402508" lon="8.308555">
<ele>394.2</ele>
<time>2003-03-28T08:57:10Z</time>
<speed>1.0</speed>
</trkpt>
<trkpt lat="47.402538" lon="8.308507">
<ele>393.9</ele>
<time>2003-03-28T08:57:15Z</time>
<speed>1.3</speed>
</trkpt>
<trkpt lat="47.402580" lon="8.308445">
<ele>395.0</ele>
<time>2003-03-28T08:57:20Z</time>
<speed>1.3</speed>
</trkpt>
<trkpt lat="47.402611" lon="8.308370">
<ele>394.6</ele>
<time>2003-03-28T08:57:25Z</time>
<speed>1.2</speed>
</trkpt>
<trkpt lat="47.402640" lon="8.308306">
<ele>395.6</ele>
<time>2003-03-28T08:57:30Z</time>
<speed>1.2</speed>
</trkpt>
<trkpt lat="47.402682" lon="8.308260">
<ele>395.4</ele>
<time>2003-03-28T08:57:35Z</time>
<speed>1.2</speed>
</trkpt>
<trkpt lat="47.402718" lon="8.308198">
<ele>395.8</ele>
<time>2003-03-28T08:57:40Z</time>
<speed>1.0</speed>
</trkpt>
<trkpt lat="47.402747" lon="8.308149">
<ele>395.6</ele>
<time>2003-03-28T08:57:45Z</time>
<speed>0.7</speed>
</trkpt>
<trkpt lat="47.402769" lon="8.308112">
<ele>396.1</ele>
<time>2003-03-28T08:57:50Z</time>
<speed>0.2</speed>
</trkpt>
<trkpt lat="47.402776" lon="8.308114">
<ele>395.4</ele>
<time>2003-03-28T08:57:55Z</time>
<speed>0.1</speed>
</trkpt>
<trkpt lat="47.402782" lon="8.308114">
<ele>396.1</ele>
<time>2003-03-28T08:58:00Z</time>
<speed>0.0</speed>
</trkpt>
<trkpt lat="47.402782" lon="8.308114">
<ele>396.1</ele>
<time>2003-03-28T08:58:05Z</time>
<speed>0.2</speed>
</trkpt>
<trkpt lat="47.402781" lon="8.308127">
<ele>396.2</ele>
<time>2003-03-28T08:58:10Z</time>
<speed>0.1</speed>
</trkpt>
<trkpt lat="47.402787" lon="8.308127">
<ele>397.0</ele>
<time>2003-03-28T08:58:15Z</time>
<speed>0.0</speed>
</trkpt>
<trkpt lat="47.402787" lon="8.308127">
<ele>397.0</ele>
<time>2003-03-28T08:58:20Z</time>
<speed>0.0</speed>
</trkpt>
<trkpt lat="47.402787" lon="8.308127">
<ele>397.0</ele>
<time>2003-03-28T08:58:25Z</time>
<speed>0.0</speed>
</trkpt>
<trkpt lat="47.402787" lon="8.308127">
<ele>397.0</ele>
<time>2003-03-28T08:58:30Z</time>
<speed>0.0</speed>
</trkpt>
<trkpt lat="47.402787" lon="8.308127">
<ele>397.0</ele>
<time>2003-03-28T08:58:35Z</time>
<speed>0.0</speed>
</trkpt>
<trkpt lat="47.402787" lon="8.308127">
<ele>397.0</ele>
<time>2003-03-28T08:58:40Z</time>
<speed>0.5</speed>
</trkpt>
<trkpt lat="47.402801" lon="8.308103">
<ele>396.8</ele>
<time>2003-03-28T08:58:45Z</time>
<speed>1.2</speed>
</trkpt>
<trkpt lat="47.402843" lon="8.308056">
<ele>396.6</ele>
<time>2003-03-28T08:58:50Z</time>
<speed>1.1</speed>
</trkpt>
<trkpt lat="47.402873" lon="8.307994">
<ele>396.3</ele>
<time>2003-03-28T08:58:55Z</time>
<speed>1.2</speed>
</trkpt>
<trkpt lat="47.402910" lon="8.307934">
<ele>395.3</ele>
<time>2003-03-28T08:59:00Z</time>
<speed>0.8</speed>
</trkpt>
<trkpt lat="47.402943" lon="8.307912">
<ele>395.9</ele>
<time>2003-03-28T08:59:05Z</time>
<speed>1.0</speed>
</trkpt>
<trkpt lat="47.402984" lon="8.307879">
<ele>395.8</ele>
<time>2003-03-28T08:59:10Z</time>
<speed>1.0</speed>
</trkpt>
<trkpt lat="47.403013" lon="8.307830">
<ele>395.6</ele>
<time>2003-03-28T08:59:15Z</time>
<speed>1.0</speed>
</trkpt>
<trkpt lat="47.403042" lon="8.307781">
<ele>395.3</ele>
<time>2003-03-28T08:59:20Z</time>
<speed>1.1</speed>
</trkpt>
<trkpt lat="47.403072" lon="8.307720">
<ele>395.0</ele>
<time>2003-03-28T08:59:25Z</time>
<speed>1.2</speed>
</trkpt>
<trkpt lat="47.403114" lon="8.307673">
<ele>394.8</ele>
<time>2003-03-28T08:59:30Z</time>
<speed>1.1</speed>
</trkpt>
<trkpt lat="47.403149" lon="8.307624">
<ele>395.3</ele>
<time>2003-03-28T08:59:35Z</time>
<speed>1.1</speed>
</trkpt>
<trkpt lat="47.403179" lon="8.307563">
<ele>394.9</ele>
<time>2003-03-28T08:59:40Z</time>
<speed>1.0</speed>
</trkpt>
<trkpt lat="47.403208" lon="8.307512">
<ele>396.0</ele>
<time>2003-03-28T08:59:45Z</time>
<speed>1.0</speed>
</trkpt>
<trkpt lat="47.403237" lon="8.307463">
<ele>395.8</ele>
<time>2003-03-28T08:59:50Z</time>
<speed>1.2</speed>
</trkpt>
<trkpt lat="47.403273" lon="8.307402">
<ele>396.2</ele>
<time>2003-03-28T08:59:55Z</time>
<speed>1.2</speed>
</trkpt>
<trkpt lat="47.403309" lon="8.307340">
<ele>396.5</ele>
<time>2003-03-28T09:00:00Z</time>
<speed>0.9</speed>
</trkpt>
<trkpt lat="47.403332" lon="8.307290">
<ele>397.0</ele>
<time>2003-03-28T09:00:05Z</time>
<speed>1.2</speed>
</trkpt>
<trkpt lat="47.403368" lon="8.307228">
<ele>397.3</ele>
<time>2003-03-28T09:00:10Z</time>
<speed>1.4</speed>
</trkpt>
<trkpt lat="47.403417" lon="8.307170">
<ele>396.4</ele>
<time>2003-03-28T09:00:15Z</time>
<speed>1.1</speed>
</trkpt>
<trkpt lat="47.403441" lon="8.307106">
<ele>396.7</ele>
<time>2003-03-28T09:00:20Z</time>
<speed>1.3</speed>
</trkpt>
<trkpt lat="47.403483" lon="8.307046">
<ele>396.4</ele>
<time>2003-03-28T09:00:25Z</time>
<speed>1.4</speed>
</trkpt>
<trkpt lat="47.403532" lon="8.306987">
<ele>396.8</ele>
<time>2003-03-28T09:00:30Z</time>
<speed>1.4</speed>
</trkpt>
<trkpt lat="47.403569" lon="8.306912">
<ele>397.1</ele>
<time>2003-03-28T09:00:35Z</time>
<speed>1.3</speed>
</trkpt>
<trkpt lat="47.403600" lon="8.306835">
<ele>398.1</ele>
<time>2003-03-28T09:00:40Z</time>
<speed>1.2</speed>
</trkpt>
<trkpt lat="47.403636" lon="8.306773">
<ele>398.5</ele>
<time>2003-03-28T09:00:45Z</time>
<speed>1.4</speed>
</trkpt>
<trkpt lat="47.403673" lon="8.306699">
<ele>398.7</ele>
<time>2003-03-28T09:00:50Z</time>
<speed>1.4</speed>
</trkpt>
<trkpt lat="47.403710" lon="8.306624">
<ele>399.0</ele>
<time>2003-03-28T09:00:55Z</time>
<speed>1.3</speed>
</trkpt>
<trkpt lat="47.403735" lon="8.306547">
<ele>399.2</ele>
<time>2003-03-28T09:01:00Z</time>
<speed>1.3</speed>
</trkpt>
<trkpt lat="47.403759" lon="8.306470">
<ele>399.5</ele>
<time>2003-03-28T09:01:05Z</time>
<speed>1.4</speed>
</trkpt>
<trkpt lat="47.403796" lon="8.306395">
<ele>399.7</ele>
<time>2003-03-28T09:01:10Z</time>
<speed>1.3</speed>
</trkpt>
<trkpt lat="47.403821" lon="8.306319">
<ele>400.0</ele>
<time>2003-03-28T09:01:15Z</time>
<speed>1.5</speed>
</trkpt>
<trkpt lat="47.403864" lon="8.306246">
<ele>399.6</ele>
<time>2003-03-28T09:01:20Z</time>
<speed>1.1</speed>
</trkpt>
<trkpt lat="47.403894" lon="8.306184">
<ele>399.2</ele>
<time>2003-03-28T09:01:25Z</time>
<speed>1.2</speed>
</trkpt>
<trkpt lat="47.403930" lon="8.306122">
<ele>399.6</ele>
<time>2003-03-28T09:01:30Z</time>
<speed>1.5</speed>
</trkpt>
<trkpt lat="47.403974" lon="8.306049">
<ele>399.2</ele>
<time>2003-03-28T09:01:35Z</time>
<speed>1.5</speed>
</trkpt>
<trkpt lat="47.404029" lon="8.305992">
<ele>399.0</ele>
<time>2003-03-28T09:01:40Z</time>
<speed>1.4</speed>
</trkpt>
<trkpt lat="47.404067" lon="8.305919">
<ele>397.9</ele>
<time>2003-03-28T09:01:45Z</time>
<speed>1.3</speed>
</trkpt>
<trkpt lat="47.404110" lon="8.305859">
<ele>397.6</ele>
<time>2003-03-28T09:01:50Z</time>
<speed>1.4</speed>
</trkpt>
<trkpt lat="47.404158" lon="8.305799">
<ele>398.0</ele>
<time>2003-03-28T09:01:55Z</time>
<speed>1.2</speed>
</trkpt>
<trkpt lat="47.404195" lon="8.305737">
<ele>398.4</ele>
<time>2003-03-28T09:02:00Z</time>
<speed>1.4</speed>
</trkpt>
<trkpt lat="47.404244" lon="8.305679">
<ele>397.4</ele>
<time>2003-03-28T09:02:05Z</time>
<speed>1.4</speed>
</trkpt>
<trkpt lat="47.404293" lon="8.305620">
<ele>397.9</ele>
<time>2003-03-28T09:02:10Z</time>
<speed>1.1</speed>
</trkpt>
<trkpt lat="47.404323" lon="8.305558">
<ele>397.5</ele>
<time>2003-03-28T09:02:15Z</time>
<speed>1.5</speed>
</trkpt>
<trkpt lat="47.404378" lon="8.305500">
<ele>397.3</ele>
<time>2003-03-28T09:02:20Z</time>
<speed>1.3</speed>
</trkpt>
<trkpt lat="47.404421" lon="8.305440">
<ele>397.0</ele>
<time>2003-03-28T09:02:25Z</time>
<speed>1.4</speed>
</trkpt>
<trkpt lat="47.404475" lon="8.305395">
<ele>396.9</ele>
<time>2003-03-28T09:02:30Z</time>
<speed>1.2</speed>
</trkpt>
<trkpt lat="47.404512" lon="8.305336">
<ele>395.9</ele>
<time>2003-03-28T09:02:35Z</time>
<speed>1.2</speed>
</trkpt>
<trkpt lat="47.404548" lon="8.305274">
<ele>396.2</ele>
<time>2003-03-28T09:02:40Z</time>
<speed>1.5</speed>
</trkpt>
<trkpt lat="47.404603" lon="8.305216">
<ele>396.0</ele>
<time>2003-03-28T09:02:45Z</time>
<speed>1.2</speed>
</trkpt>
<trkpt lat="47.404645" lon="8.305169">
<ele>395.8</ele>
<time>2003-03-28T09:02:50Z</time>
<speed>1.3</speed>
</trkpt>
<trkpt lat="47.404688" lon="8.305110">
<ele>395.5</ele>
<time>2003-03-28T09:02:55Z</time>
<speed>1.5</speed>
</trkpt>
<trkpt lat="47.404743" lon="8.305052">
<ele>395.3</ele>
<time>2003-03-28T09:03:00Z</time>
<speed>1.2</speed>
</trkpt>
<trkpt lat="47.404780" lon="8.304992">
<ele>394.3</ele>
<time>2003-03-28T09:03:05Z</time>
<speed>1.2</speed>
</trkpt>
<trkpt lat="47.404821" lon="8.304945">
<ele>394.1</ele>
<time>2003-03-28T09:03:10Z</time>
<speed>1.3</speed>
</trkpt>
<trkpt lat="47.404864" lon="8.304885">
<ele>393.8</ele>
<time>2003-03-28T09:03:15Z</time>
<speed>1.2</speed>
</trkpt>
<trkpt lat="47.404906" lon="8.304839">
<ele>393.6</ele>
<time>2003-03-28T09:03:20Z</time>
<speed>1.5</speed>
</trkpt>
<trkpt lat="47.404961" lon="8.304781">
<ele>393.4</ele>
<time>2003-03-28T09:03:25Z</time>
<speed>1.4</speed>
</trkpt>
<trkpt lat="47.405010" lon="8.304723">
<ele>392.4</ele>
<time>2003-03-28T09:03:30Z</time>
<speed>1.2</speed>
</trkpt>
<trkpt lat="47.405052" lon="8.304676">
<ele>392.2</ele>
<time>2003-03-28T09:03:35Z</time>
<speed>1.4</speed>
</trkpt>
<trkpt lat="47.405106" lon="8.304631">
<ele>392.1</ele>
<time>2003-03-28T09:03:40Z</time>
<speed>1.2</speed>
</trkpt>
<trkpt lat="47.405148" lon="8.304585">
<ele>391.9</ele>
<time>2003-03-28T09:03:45Z</time>
<speed>1.0</speed>
</trkpt>
<trkpt lat="47.405189" lon="8.304551">
<ele>391.8</ele>
<time>2003-03-28T09:03:50Z</time>
<speed>1.3</speed>
</trkpt>
<trkpt lat="47.405242" lon="8.304519">
<ele>391.8</ele>
<time>2003-03-28T09:03:55Z</time>
<speed>1.3</speed>
</trkpt>
<trkpt lat="47.405296" lon="8.304488">
<ele>391.8</ele>
<time>2003-03-28T09:04:00Z</time>
<speed>1.3</speed>
</trkpt>
<trkpt lat="47.405354" lon="8.304469">
<ele>392.6</ele>
<time>2003-03-28T09:04:05Z</time>
<speed>1.2</speed>
</trkpt>
<trkpt lat="47.405406" lon="8.304464">
<ele>392.8</ele>
<time>2003-03-28T09:04:10Z</time>
<speed>1.2</speed>
</trkpt>
<trkpt lat="47.405456" lon="8.304485">
<ele>393.1</ele>
<time>2003-03-28T09:04:15Z</time>
<speed>1.2</speed>
</trkpt>
<trkpt lat="47.405497" lon="8.304532">
<ele>392.9</ele>
<time>2003-03-28T09:04:20Z</time>
<speed>0.9</speed>
</trkpt>
<trkpt lat="47.405526" lon="8.304577">
<ele>392.7</ele>
<time>2003-03-28T09:04:25Z</time>
<speed>1.1</speed>
</trkpt>
<trkpt lat="47.405554" lon="8.304635">
<ele>392.5</ele>
<time>2003-03-28T09:04:30Z</time>
<speed>1.1</speed>
</trkpt>
<trkpt lat="47.405582" lon="8.304693">
<ele>392.4</ele>
<time>2003-03-28T09:04:35Z</time>
<speed>1.1</speed>
</trkpt>
<trkpt lat="47.405597" lon="8.304762">
<ele>392.3</ele>
<time>2003-03-28T09:04:40Z</time>
<speed>1.1</speed>
</trkpt>
<trkpt lat="47.405617" lon="8.304832">
<ele>392.9</ele>
<time>2003-03-28T09:04:45Z</time>
<speed>1.2</speed>
</trkpt>
<trkpt lat="47.405644" lon="8.304901">
<ele>394.3</ele>
<time>2003-03-28T09:04:50Z</time>
<speed>1.3</speed>
</trkpt>
<trkpt lat="47.405663" lon="8.304984">
<ele>395.0</ele>
<time>2003-03-28T09:04:55Z</time>
<speed>1.1</speed>
</trkpt>
<trkpt lat="47.405684" lon="8.305053">
<ele>395.6</ele>
<time>2003-03-28T09:05:00Z</time>
<speed>1.1</speed>
</trkpt>
<trkpt lat="47.405704" lon="8.305122">
<ele>396.2</ele>
<time>2003-03-28T09:05:05Z</time>
<speed>1.0</speed>
</trkpt>
<trkpt lat="47.405726" lon="8.305179">
<ele>396.8</ele>
<time>2003-03-28T09:05:10Z</time>
<speed>1.1</speed>
</trkpt>
<trkpt lat="47.405754" lon="8.305237">
<ele>396.6</ele>
<time>2003-03-28T09:05:15Z</time>
<speed>1.2</speed>
</trkpt>
<trkpt lat="47.405788" lon="8.305295">
<ele>397.2</ele>
<time>2003-03-28T09:05:20Z</time>
<speed>1.0</speed>
</trkpt>
<trkpt lat="47.405815" lon="8.305351">
<ele>398.5</ele>
<time>2003-03-28T09:05:25Z</time>
<speed>1.1</speed>
</trkpt>
<trkpt lat="47.405858" lon="8.305385">
<ele>398.2</ele>
<time>2003-03-28T09:05:30Z</time>
<speed>1.2</speed>
</trkpt>
<trkpt lat="47.405907" lon="8.305421">
<ele>397.2</ele>
<time>2003-03-28T09:05:35Z</time>
<speed>1.1</speed>
</trkpt>
<trkpt lat="47.405948" lon="8.305466">
<ele>398.5</ele>
<time>2003-03-28T09:05:40Z</time>
<speed>1.2</speed>
</trkpt>
<trkpt lat="47.405997" lon="8.305500">
<ele>398.9</ele>
<time>2003-03-28T09:05:45Z</time>
<speed>1.2</speed>
</trkpt>
<trkpt lat="47.406045" lon="8.305534">
<ele>399.4</ele>
<time>2003-03-28T09:05:50Z</time>
<speed>1.3</speed>
</trkpt>
<trkpt lat="47.406101" lon="8.305554">
<ele>400.5</ele>
<time>2003-03-28T09:05:55Z</time>
<speed>1.2</speed>
</trkpt>
<trkpt lat="47.406151" lon="8.305575">
<ele>400.9</ele>
<time>2003-03-28T09:06:00Z</time>
<speed>1.1</speed>
</trkpt>
<trkpt lat="47.406201" lon="8.305583">
<ele>401.1</ele>
<time>2003-03-28T09:06:05Z</time>
<speed>1.3</speed>
</trkpt>
<trkpt lat="47.406258" lon="8.305590">
<ele>402.1</ele>
<time>2003-03-28T09:06:10Z</time>
<speed>1.4</speed>
</trkpt>
<trkpt lat="47.406320" lon="8.305613">
<ele>402.6</ele>
<time>2003-03-28T09:06:15Z</time>
<speed>1.1</speed>
</trkpt>
<trkpt lat="47.406371" lon="8.305621">
<ele>402.8</ele>
<time>2003-03-28T09:06:20Z</time>
<speed>1.3</speed>
</trkpt>
<trkpt lat="47.406429" lon="8.305617">
<ele>402.3</ele>
<time>2003-03-28T09:06:25Z</time>
<speed>1.1</speed>
</trkpt>
<trkpt lat="47.406480" lon="8.305612">
<ele>402.5</ele>
<time>2003-03-28T09:06:30Z</time>
<speed>1.2</speed>
</trkpt>
<trkpt lat="47.406532" lon="8.305606">
<ele>402.7</ele>
<time>2003-03-28T09:06:35Z</time>
<speed>1.4</speed>
</trkpt>
<trkpt lat="47.406595" lon="8.305616">
<ele>403.0</ele>
<time>2003-03-28T09:06:40Z</time>
<speed>1.1</speed>
</trkpt>
<trkpt lat="47.406646" lon="8.305610">
<ele>403.2</ele>
<time>2003-03-28T09:06:45Z</time>
<speed>0.6</speed>
</trkpt>
<trkpt lat="47.406672" lon="8.305614">
<ele>403.3</ele>
<time>2003-03-28T09:06:50Z</time>
<speed>1.6</speed>
</trkpt>
<trkpt lat="47.406743" lon="8.305600">
<ele>402.8</ele>
<time>2003-03-28T09:06:55Z</time>
<speed>1.7</speed>
</trkpt>
<trkpt lat="47.406821" lon="8.305585">
<ele>403.0</ele>
<time>2003-03-28T09:07:00Z</time>
<speed>1.3</speed>
</trkpt>
<trkpt lat="47.406880" lon="8.305568">
<ele>402.4</ele>
<time>2003-03-28T09:07:05Z</time>
<speed>1.7</speed>
</trkpt>
<trkpt lat="47.406953" lon="8.305540">
<ele>401.7</ele>
<time>2003-03-28T09:07:10Z</time>
<speed>1.4</speed>
</trkpt>
<trkpt lat="47.407017" lon="8.305537">
<ele>402.0</ele>
<time>2003-03-28T09:07:15Z</time>
<speed>1.5</speed>
</trkpt>
<trkpt lat="47.407083" lon="8.305507">
<ele>402.0</ele>
<time>2003-03-28T09:07:20Z</time>
<speed>1.1</speed>
</trkpt>
<trkpt lat="47.407134" lon="8.305502">
<ele>402.2</ele>
<time>2003-03-28T09:07:25Z</time>
<speed>1.4</speed>
</trkpt>
<trkpt lat="47.407194" lon="8.305472">
<ele>401.5</ele>
<time>2003-03-28T09:07:30Z</time>
<speed>0.4</speed>
</trkpt>
<trkpt lat="47.407213" lon="8.305474">
<ele>402.3</ele>
<time>2003-03-28T09:07:35Z</time>
<speed>1.2</speed>
</trkpt>
<trkpt lat="47.407266" lon="8.305455">
<ele>402.3</ele>
<time>2003-03-28T09:07:40Z</time>
<speed>1.7</speed>
</trkpt>
<trkpt lat="47.407339" lon="8.305414">
<ele>401.6</ele>
<time>2003-03-28T09:07:45Z</time>
<speed>1.1</speed>
</trkpt>
<trkpt lat="47.407385" lon="8.305394">
<ele>402.4</ele>
<time>2003-03-28T09:07:50Z</time>
<speed>1.7</speed>
</trkpt>
<trkpt lat="47.407453" lon="8.305338">
<ele>402.2</ele>
<time>2003-03-28T09:07:55Z</time>
<speed>1.8</speed>
</trkpt>
<trkpt lat="47.407527" lon="8.305297">
<ele>401.5</ele>
<time>2003-03-28T09:08:00Z</time>
<speed>0.6</speed>
</trkpt>
<trkpt lat="47.407552" lon="8.305301">
<ele>401.6</ele>
<time>2003-03-28T09:08:05Z</time>
<speed>0.7</speed>
</trkpt>
<trkpt lat="47.407583" lon="8.305304">
<ele>402.5</ele>
<time>2003-03-28T09:08:10Z</time>
<speed>1.3</speed>
</trkpt>
<trkpt lat="47.407640" lon="8.305314">
<ele>402.1</ele>
<time>2003-03-28T09:08:15Z</time>
<speed>1.6</speed>
</trkpt>
<trkpt lat="47.407712" lon="8.305297">
<ele>402.9</ele>
<time>2003-03-28T09:08:20Z</time>
<speed>1.3</speed>
</trkpt>
<trkpt lat="47.407768" lon="8.305320">
<ele>402.6</ele>
<time>2003-03-28T09:08:25Z</time>
<speed>1.1</speed>
</trkpt>
<trkpt lat="47.407818" lon="8.305328">
<ele>402.9</ele>
<time>2003-03-28T09:08:30Z</time>
<speed>1.3</speed>
</trkpt>
<trkpt lat="47.407873" lon="8.305363">
<ele>402.7</ele>
<time>2003-03-28T09:08:35Z</time>
<speed>1.3</speed>
</trkpt>
<trkpt lat="47.407931" lon="8.305373">
<ele>402.3</ele>
<time>2003-03-28T09:08:40Z</time>
<speed>1.5</speed>
</trkpt>
<trkpt lat="47.407997" lon="8.305345">
<ele>400.9</ele>
<time>2003-03-28T09:08:45Z</time>
<speed>1.3</speed>
</trkpt>
<trkpt lat="47.408055" lon="8.305342">
<ele>400.4</ele>
<time>2003-03-28T09:08:50Z</time>
<speed>1.0</speed>
</trkpt>
<trkpt lat="47.408099" lon="8.305347">
<ele>401.4</ele>
<time>2003-03-28T09:08:55Z</time>
<speed>0.9</speed>
</trkpt>
<trkpt lat="47.408138" lon="8.305340">
<ele>401.5</ele>
<time>2003-03-28T09:09:00Z</time>
<speed>0.9</speed>
</trkpt>
<trkpt lat="47.408178" lon="8.305320">
<ele>401.5</ele>
<time>2003-03-28T09:09:05Z</time>
<speed>1.2</speed>
</trkpt>
<trkpt lat="47.408230" lon="8.305301">
<ele>401.5</ele>
<time>2003-03-28T09:09:10Z</time>
<speed>1.3</speed>
</trkpt>
<trkpt lat="47.408287" lon="8.305311">
<ele>401.1</ele>
<time>2003-03-28T09:09:15Z</time>
<speed>1.1</speed>
</trkpt>
<trkpt lat="47.408338" lon="8.305318">
<ele>401.4</ele>
<time>2003-03-28T09:09:20Z</time>
<speed>1.1</speed>
</trkpt>
<trkpt lat="47.408389" lon="8.305313">
<ele>401.6</ele>
<time>2003-03-28T09:09:25Z</time>
<speed>1.2</speed>
</trkpt>
<trkpt lat="47.408441" lon="8.305307">
<ele>401.7</ele>
<time>2003-03-28T09:09:30Z</time>
<speed>1.4</speed>
</trkpt>
<trkpt lat="47.408505" lon="8.305304">
<ele>402.0</ele>
<time>2003-03-28T09:09:35Z</time>
<speed>1.5</speed>
</trkpt>
<trkpt lat="47.408570" lon="8.305287">
<ele>402.1</ele>
<time>2003-03-28T09:09:40Z</time>
<speed>1.3</speed>
</trkpt>
<trkpt lat="47.408629" lon="8.305270">
<ele>401.5</ele>
<time>2003-03-28T09:09:45Z</time>
<speed>1.2</speed>
</trkpt>
<trkpt lat="47.408681" lon="8.305265">
<ele>401.7</ele>
<time>2003-03-28T09:09:50Z</time>
<speed>1.1</speed>
</trkpt>
<trkpt lat="47.408732" lon="8.305260">
<ele>401.8</ele>
<time>2003-03-28T09:09:55Z</time>
<speed>0.7</speed>
</trkpt>
<trkpt lat="47.408764" lon="8.305265">
<ele>401.3</ele>
<time>2003-03-28T09:10:00Z</time>
<speed>0.7</speed>
</trkpt>
<trkpt lat="47.408796" lon="8.305271">
<ele>400.8</ele>
<time>2003-03-28T09:10:05Z</time>
<speed>1.4</speed>
</trkpt>
<trkpt lat="47.408860" lon="8.305268">
<ele>401.0</ele>
<time>2003-03-28T09:10:10Z</time>
<speed>1.2</speed>
</trkpt>
<trkpt lat="47.408912" lon="8.305262">
<ele>401.2</ele>
<time>2003-03-28T09:10:15Z</time>
<speed>1.3</speed>
</trkpt>
<trkpt lat="47.408969" lon="8.305257">
<ele>402.1</ele>
<time>2003-03-28T09:10:20Z</time>
<speed>1.4</speed>
</trkpt>
<trkpt lat="47.409032" lon="8.305266">
<ele>402.4</ele>
<time>2003-03-28T09:10:25Z</time>
<speed>1.2</speed>
</trkpt>
<trkpt lat="47.409084" lon="8.305261">
<ele>402.6</ele>
<time>2003-03-28T09:10:30Z</time>
<speed>1.1</speed>
</trkpt>
<trkpt lat="47.409134" lon="8.305268">
<ele>402.8</ele>
<time>2003-03-28T09:10:35Z</time>
<speed>1.2</speed>
</trkpt>
<trkpt lat="47.409187" lon="8.305250">
<ele>402.9</ele>
<time>2003-03-28T09:10:40Z</time>
<speed>0.8</speed>
</trkpt>
<trkpt lat="47.409225" lon="8.305256">
<ele>403.1</ele>
<time>2003-03-28T09:10:45Z</time>
<speed>0.9</speed>
</trkpt>
<trkpt lat="47.409264" lon="8.305248">
<ele>403.2</ele>
<time>2003-03-28T09:10:50Z</time>
<speed>1.3</speed>
</trkpt>
<trkpt lat="47.409321" lon="8.305243">
<ele>404.1</ele>
<time>2003-03-28T09:10:55Z</time>
<speed>1.1</speed>
</trkpt>
<trkpt lat="47.409372" lon="8.305250">
<ele>404.4</ele>
<time>2003-03-28T09:11:00Z</time>
<speed>0.9</speed>
</trkpt>
<trkpt lat="47.409412" lon="8.305230">
<ele>404.4</ele>
<time>2003-03-28T09:11:05Z</time>
<speed>1.0</speed>
</trkpt>
<trkpt lat="47.409456" lon="8.305236">
<ele>405.3</ele>
<time>2003-03-28T09:11:10Z</time>
<speed>1.2</speed>
</trkpt>
<trkpt lat="47.409508" lon="8.305217">
<ele>405.4</ele>
<time>2003-03-28T09:11:15Z</time>
<speed>1.3</speed>
</trkpt>
<trkpt lat="47.409562" lon="8.305185">
<ele>405.4</ele>
<time>2003-03-28T09:11:20Z</time>
<speed>1.1</speed>
</trkpt>
<trkpt lat="47.409608" lon="8.305167">
<ele>404.7</ele>
<time>2003-03-28T09:11:25Z</time>
<speed>1.1</speed>
</trkpt>
<trkpt lat="47.409654" lon="8.305146">
<ele>405.5</ele>
<time>2003-03-28T09:11:30Z</time>
<speed>0.9</speed>
</trkpt>
<trkpt lat="47.409694" lon="8.305126">
<ele>405.5</ele>
<time>2003-03-28T09:11:35Z</time>
<speed>1.3</speed>
</trkpt>
<trkpt lat="47.409747" lon="8.305094">
<ele>405.4</ele>
<time>2003-03-28T09:11:40Z</time>
<speed>1.0</speed>
</trkpt>
<trkpt lat="47.409788" lon="8.305061">
<ele>405.3</ele>
<time>2003-03-28T09:11:45Z</time>
<speed>0.8</speed>
</trkpt>
<trkpt lat="47.409821" lon="8.305038">
<ele>406.0</ele>
<time>2003-03-28T09:11:50Z</time>
<speed>1.1</speed>
</trkpt>
<trkpt lat="47.409867" lon="8.305018">
<ele>406.7</ele>
<time>2003-03-28T09:11:55Z</time>
<speed>1.3</speed>
</trkpt>
<trkpt lat="47.409915" lon="8.304973">
<ele>405.9</ele>
<time>2003-03-28T09:12:00Z</time>
<speed>1.4</speed>
</trkpt>
<trkpt lat="47.409969" lon="8.304926">
<ele>407.2</ele>
<time>2003-03-28T09:12:05Z</time>
<speed>1.3</speed>
</trkpt>
<trkpt lat="47.410017" lon="8.304880">
<ele>407.7</ele>
<time>2003-03-28T09:12:10Z</time>
<speed>1.2</speed>
</trkpt>
<trkpt lat="47.410064" lon="8.304846">
<ele>408.4</ele>
<time>2003-03-28T09:12:15Z</time>
<speed>1.2</speed>
</trkpt>
<trkpt lat="47.410106" lon="8.304799">
<ele>408.2</ele>
<time>2003-03-28T09:12:20Z</time>
<speed>1.2</speed>
</trkpt>
<trkpt lat="47.410148" lon="8.304753">
<ele>408.0</ele>
<time>2003-03-28T09:12:25Z</time>
<speed>1.1</speed>
</trkpt>
<trkpt lat="47.410194" lon="8.304719">
<ele>408.6</ele>
<time>2003-03-28T09:12:30Z</time>
<speed>1.2</speed>
</trkpt>
<trkpt lat="47.410236" lon="8.304672">
<ele>408.4</ele>
<time>2003-03-28T09:12:35Z</time>
<speed>1.6</speed>
</trkpt>
<trkpt lat="47.410303" lon="8.304629">
<ele>408.4</ele>
<time>2003-03-28T09:12:40Z</time>
<speed>1.3</speed>
</trkpt>
<trkpt lat="47.410346" lon="8.304570">
<ele>408.1</ele>
<time>2003-03-28T09:12:45Z</time>
<speed>1.2</speed>
</trkpt>
<trkpt lat="47.410388" lon="8.304523">
<ele>407.9</ele>
<time>2003-03-28T09:12:50Z</time>
<speed>1.1</speed>
</trkpt>
<trkpt lat="47.410434" lon="8.304489">
<ele>408.5</ele>
<time>2003-03-28T09:12:55Z</time>
<speed>1.5</speed>
</trkpt>
<trkpt lat="47.410500" lon="8.304473">
<ele>408.7</ele>
<time>2003-03-28T09:13:00Z</time>
<speed>1.6</speed>
</trkpt>
<trkpt lat="47.410570" lon="8.304469">
<ele>409.6</ele>
<time>2003-03-28T09:13:05Z</time>
<speed>1.3</speed>
</trkpt>
<trkpt lat="47.410625" lon="8.304490">
<ele>410.7</ele>
<time>2003-03-28T09:13:10Z</time>
<speed>0.7</speed>
</trkpt>
<trkpt lat="47.410649" lon="8.304520">
<ele>411.1</ele>
<time>2003-03-28T09:13:15Z</time>
<speed>1.3</speed>
</trkpt>
<trkpt lat="47.410704" lon="8.304554">
<ele>412.3</ele>
<time>2003-03-28T09:13:20Z</time>
<speed>1.0</speed>
</trkpt>
<trkpt lat="47.410748" lon="8.304560">
<ele>413.2</ele>
<time>2003-03-28T09:13:25Z</time>
<speed>1.4</speed>
</trkpt>
<trkpt lat="47.410808" lon="8.304593">
<ele>415.1</ele>
<time>2003-03-28T09:13:30Z</time>
<speed>1.1</speed>
</trkpt>
<trkpt lat="47.410858" lon="8.304599">
<ele>416.8</ele>
<time>2003-03-28T09:13:35Z</time>
<speed>1.1</speed>
</trkpt>
<trkpt lat="47.410909" lon="8.304607">
<ele>417.1</ele>
<time>2003-03-28T09:13:40Z</time>
<speed>1.1</speed>
</trkpt>
<trkpt lat="47.410954" lon="8.304584">
<ele>419.2</ele>
<time>2003-03-28T09:13:45Z</time>
<speed>1.2</speed>
</trkpt>
<trkpt lat="47.410996" lon="8.304538">
<ele>419.0</ele>
<time>2003-03-28T09:13:50Z</time>
<speed>1.5</speed>
</trkpt>
<trkpt lat="47.411039" lon="8.304463">
<ele>420.0</ele>
<time>2003-03-28T09:13:55Z</time>
<speed>1.2</speed>
</trkpt>
<trkpt lat="47.411076" lon="8.304401">
<ele>420.4</ele>
<time>2003-03-28T09:14:00Z</time>
<speed>1.1</speed>
</trkpt>
<trkpt lat="47.411105" lon="8.304338">
<ele>421.5</ele>
<time>2003-03-28T09:14:05Z</time>
<speed>1.4</speed>
</trkpt>
<trkpt lat="47.411159" lon="8.304291">
<ele>422.8</ele>
<time>2003-03-28T09:14:10Z</time>
<speed>1.0</speed>
</trkpt>
<trkpt lat="47.411176" lon="8.304227">
<ele>422.3</ele>
<time>2003-03-28T09:14:15Z</time>
<speed>1.6</speed>
</trkpt>
<trkpt lat="47.411215" lon="8.304139">
<ele>422.5</ele>
<time>2003-03-28T09:14:20Z</time>
<speed>1.1</speed>
</trkpt>
<trkpt lat="47.411245" lon="8.304078">
<ele>422.2</ele>
<time>2003-03-28T09:14:25Z</time>
<speed>1.2</speed>
</trkpt>
<trkpt lat="47.411256" lon="8.303999">
<ele>422.3</ele>
<time>2003-03-28T09:14:30Z</time>
<speed>1.1</speed>
</trkpt>
<trkpt lat="47.411286" lon="8.303937">
<ele>422.0</ele>
<time>2003-03-28T09:14:35Z</time>
<speed>1.5</speed>
</trkpt>
<trkpt lat="47.411330" lon="8.303862">
<ele>423.0</ele>
<time>2003-03-28T09:14:40Z</time>
<speed>1.7</speed>
</trkpt>
<trkpt lat="47.411369" lon="8.303763">
<ele>421.7</ele>
<time>2003-03-28T09:14:45Z</time>
<speed>1.4</speed>
</trkpt>
<trkpt lat="47.411406" lon="8.303688">
<ele>421.9</ele>
<time>2003-03-28T09:14:50Z</time>
<speed>1.0</speed>
</trkpt>
<trkpt lat="47.411435" lon="8.303640">
<ele>421.7</ele>
<time>2003-03-28T09:14:55Z</time>
<speed>0.9</speed>
</trkpt>
<trkpt lat="47.411470" lon="8.303604">
<ele>422.3</ele>
<time>2003-03-28T09:15:00Z</time>
<speed>1.0</speed>
</trkpt>
<trkpt lat="47.411514" lon="8.303610">
<ele>423.2</ele>
<time>2003-03-28T09:15:05Z</time>
<speed>1.2</speed>
</trkpt>
<trkpt lat="47.411566" lon="8.303591">
<ele>423.3</ele>
<time>2003-03-28T09:15:10Z</time>
<speed>1.0</speed>
</trkpt>
<trkpt lat="47.411611" lon="8.303599">
<ele>422.8</ele>
<time>2003-03-28T09:15:15Z</time>
<speed>0.8</speed>
</trkpt>
<trkpt lat="47.411648" lon="8.303605">
<ele>423.0</ele>
<time>2003-03-28T09:15:20Z</time>
<speed>1.1</speed>
</trkpt>
<trkpt lat="47.411698" lon="8.303624">
<ele>424.8</ele>
<time>2003-03-28T09:15:25Z</time>
<speed>1.3</speed>
</trkpt>
<trkpt lat="47.411752" lon="8.303657">
<ele>426.0</ele>
<time>2003-03-28T09:15:30Z</time>
<speed>1.1</speed>
</trkpt>
<trkpt lat="47.411803" lon="8.303665">
<ele>426.2</ele>
<time>2003-03-28T09:15:35Z</time>
<speed>1.4</speed>
</trkpt>
<trkpt lat="47.411866" lon="8.303675">
<ele>426.6</ele>
<time>2003-03-28T09:15:40Z</time>
<speed>0.9</speed>
</trkpt>
<trkpt lat="47.411903" lon="8.303694">
<ele>426.9</ele>
<time>2003-03-28T09:15:45Z</time>
<speed>1.0</speed>
</trkpt>
<trkpt lat="47.411947" lon="8.303699">
<ele>427.8</ele>
<time>2003-03-28T09:15:50Z</time>
<speed>1.6</speed>
</trkpt>
<trkpt lat="47.412017" lon="8.303711">
<ele>427.5</ele>
<time>2003-03-28T09:15:55Z</time>
<speed>1.0</speed>
</trkpt>
<trkpt lat="47.412061" lon="8.303718">
<ele>427.0</ele>
<time>2003-03-28T09:16:00Z</time>
<speed>0.9</speed>
</trkpt>
<trkpt lat="47.412100" lon="8.303711">
<ele>427.1</ele>
<time>2003-03-28T09:16:05Z</time>
<speed>1.7</speed>
</trkpt>
<trkpt lat="47.412173" lon="8.303683">
<ele>426.5</ele>
<time>2003-03-28T09:16:10Z</time>
<speed>1.6</speed>
</trkpt>
<trkpt lat="47.412234" lon="8.303625">
<ele>427.0</ele>
<time>2003-03-28T09:16:15Z</time>
<speed>1.2</speed>
</trkpt>
<trkpt lat="47.412281" lon="8.303592">
<ele>427.6</ele>
<time>2003-03-28T09:16:20Z</time>
<speed>1.2</speed>
</trkpt>
<trkpt lat="47.412328" lon="8.303558">
<ele>428.3</ele>
<time>2003-03-28T09:16:25Z</time>
<speed>1.1</speed>
</trkpt>
<trkpt lat="47.412374" lon="8.303540">
<ele>427.6</ele>
<time>2003-03-28T09:16:30Z</time>
<speed>1.4</speed>
</trkpt>
<trkpt lat="47.412434" lon="8.303508">
<ele>428.3</ele>
<time>2003-03-28T09:16:35Z</time>
<speed>1.3</speed>
</trkpt>
<trkpt lat="47.412492" lon="8.303506">
<ele>426.4</ele>
<time>2003-03-28T09:16:40Z</time>
<speed>1.7</speed>
</trkpt>
<trkpt lat="47.412555" lon="8.303437">
<ele>425.4</ele>
<time>2003-03-28T09:16:45Z</time>
<speed>1.5</speed>
</trkpt>
<trkpt lat="47.412610" lon="8.303379">
<ele>425.2</ele>
<time>2003-03-28T09:16:50Z</time>
<speed>1.6</speed>
</trkpt>
<trkpt lat="47.412661" lon="8.303308">
<ele>424.1</ele>
<time>2003-03-28T09:16:55Z</time>
<speed>1.4</speed>
</trkpt>
<trkpt lat="47.412698" lon="8.303235">
<ele>423.0</ele>
<time>2003-03-28T09:17:00Z</time>
<speed>1.9</speed>
</trkpt>
<trkpt lat="47.412739" lon="8.303123">
<ele>421.6</ele>
<time>2003-03-28T09:17:05Z</time>
<speed>1.2</speed>
</trkpt>
<trkpt lat="47.412751" lon="8.303046">
<ele>420.3</ele>
<time>2003-03-28T09:17:10Z</time>
<speed>1.2</speed>
</trkpt>
<trkpt lat="47.412763" lon="8.302968">
<ele>420.5</ele>
<time>2003-03-28T09:17:15Z</time>
<speed>1.2</speed>
</trkpt>
<trkpt lat="47.412775" lon="8.302891">
<ele>419.2</ele>
<time>2003-03-28T09:17:20Z</time>
<speed>1.3</speed>
</trkpt>
<trkpt lat="47.412806" lon="8.302814">
<ele>420.2</ele>
<time>2003-03-28T09:17:25Z</time>
<speed>1.1</speed>
</trkpt>
<trkpt lat="47.412841" lon="8.302767">
<ele>419.3</ele>
<time>2003-03-28T09:17:30Z</time>
<speed>0.6</speed>
</trkpt>
<trkpt lat="47.412838" lon="8.302726">
<ele>419.6</ele>
<time>2003-03-28T09:17:35Z</time>
<speed>0.3</speed>
</trkpt>
<trkpt lat="47.412850" lon="8.302728">
<ele>419.7</ele>
<time>2003-03-28T09:17:40Z</time>
<speed>0.3</speed>
</trkpt>
<trkpt lat="47.412839" lon="8.302713">
<ele>419.5</ele>
<time>2003-03-28T09:17:45Z</time>
<speed>0.7</speed>
</trkpt>
<trkpt lat="47.412866" lon="8.302691">
<ele>419.5</ele>
<time>2003-03-28T09:17:50Z</time>
<speed>1.4</speed>
</trkpt>
<trkpt lat="47.412915" lon="8.302631">
<ele>419.9</ele>
<time>2003-03-28T09:17:55Z</time>
<speed>0.6</speed>
</trkpt>
<trkpt lat="47.412935" lon="8.302607">
<ele>420.5</ele>
<time>2003-03-28T09:18:00Z</time>
<speed>1.0</speed>
</trkpt>
<trkpt lat="47.412976" lon="8.302573">
<ele>420.4</ele>
<time>2003-03-28T09:18:05Z</time>
<speed>1.4</speed>
</trkpt>
<trkpt lat="47.413030" lon="8.302526">
<ele>421.7</ele>
<time>2003-03-28T09:18:10Z</time>
<speed>1.4</speed>
</trkpt>
<trkpt lat="47.413084" lon="8.302481">
<ele>421.6</ele>
<time>2003-03-28T09:18:15Z</time>
<speed>1.2</speed>
</trkpt>
<trkpt lat="47.413137" lon="8.302463">
<ele>421.7</ele>
<time>2003-03-28T09:18:20Z</time>
<speed>1.0</speed>
</trkpt>
<trkpt lat="47.413178" lon="8.302429">
<ele>421.6</ele>
<time>2003-03-28T09:18:25Z</time>
<speed>0.9</speed>
</trkpt>
<trkpt lat="47.413216" lon="8.302422">
<ele>421.7</ele>
<time>2003-03-28T09:18:30Z</time>
<speed>1.4</speed>
</trkpt>
<trkpt lat="47.413276" lon="8.302392">
<ele>421.0</ele>
<time>2003-03-28T09:18:35Z</time>
<speed>0.7</speed>
</trkpt>
<trkpt lat="47.413308" lon="8.302398">
<ele>420.4</ele>
<time>2003-03-28T09:18:40Z</time>
<speed>1.0</speed>
</trkpt>
<trkpt lat="47.413353" lon="8.302391">
<ele>421.3</ele>
<time>2003-03-28T09:18:45Z</time>
<speed>0.9</speed>
</trkpt>
<trkpt lat="47.413392" lon="8.302383">
<ele>421.4</ele>
<time>2003-03-28T09:18:50Z</time>
<speed>1.4</speed>
</trkpt>
<trkpt lat="47.413457" lon="8.302382">
<ele>420.2</ele>
<time>2003-03-28T09:18:55Z</time>
<speed>1.4</speed>
</trkpt>
<trkpt lat="47.413516" lon="8.302350">
<ele>420.9</ele>
<time>2003-03-28T09:19:00Z</time>
<speed>1.3</speed>
</trkpt>
<trkpt lat="47.413575" lon="8.302333">
<ele>420.3</ele>
<time>2003-03-28T09:19:05Z</time>
<speed>1.3</speed>
</trkpt>
<trkpt lat="47.413629" lon="8.302302">
<ele>420.3</ele>
<time>2003-03-28T09:19:10Z</time>
<speed>1.0</speed>
</trkpt>
<trkpt lat="47.413674" lon="8.302296">
<ele>419.7</ele>
<time>2003-03-28T09:19:15Z</time>
<speed>1.2</speed>
</trkpt>
<trkpt lat="47.413726" lon="8.302291">
<ele>419.9</ele>
<time>2003-03-28T09:19:20Z</time>
<speed>1.2</speed>
</trkpt>
<trkpt lat="47.413767" lon="8.302338">
<ele>419.7</ele>
<time>2003-03-28T09:19:25Z</time>
<speed>0.7</speed>
</trkpt>
<trkpt lat="47.413777" lon="8.302381">
<ele>418.7</ele>
<time>2003-03-28T09:19:30Z</time>
<speed>0.8</speed>
</trkpt>
<trkpt lat="47.413774" lon="8.302433">
<ele>419.1</ele>
<time>2003-03-28T09:19:35Z</time>
<speed>0.8</speed>
</trkpt>
<trkpt lat="47.413770" lon="8.302486">
<ele>419.5</ele>
<time>2003-03-28T09:19:40Z</time>
<speed>0.8</speed>
</trkpt>
<trkpt lat="47.413772" lon="8.302540">
<ele>419.2</ele>
<time>2003-03-28T09:19:45Z</time>
<speed>0.8</speed>
</trkpt>
<trkpt lat="47.413781" lon="8.302594">
<ele>419.6</ele>
<time>2003-03-28T09:19:50Z</time>
<speed>1.0</speed>
</trkpt>
<trkpt lat="47.413789" lon="8.302662">
<ele>420.2</ele>
<time>2003-03-28T09:19:55Z</time>
<speed>1.1</speed>
</trkpt>
<trkpt lat="47.413810" lon="8.302731">
<ele>420.8</ele>
<time>2003-03-28T09:20:00Z</time>
<speed>1.5</speed>
</trkpt>
<trkpt lat="47.413842" lon="8.302816">
<ele>421.6</ele>
<time>2003-03-28T09:20:05Z</time>
<speed>1.3</speed>
</trkpt>
<trkpt lat="47.413888" lon="8.302874">
<ele>423.7</ele>
<time>2003-03-28T09:20:10Z</time>
<speed>1.1</speed>
</trkpt>
<trkpt lat="47.413924" lon="8.302921">
<ele>422.8</ele>
<time>2003-03-28T09:20:15Z</time>
<speed>1.2</speed>
</trkpt>
<trkpt lat="47.413966" lon="8.302972">
<ele>419.8</ele>
<time>2003-03-28T09:20:20Z</time>
<speed>1.3</speed>
</trkpt>
<trkpt lat="47.414021" lon="8.303005">
<ele>421.0</ele>
<time>2003-03-28T09:20:25Z</time>
<speed>1.2</speed>
</trkpt>
<trkpt lat="47.414069" lon="8.303039">
<ele>421.4</ele>
<time>2003-03-28T09:20:30Z</time>
<speed>1.4</speed>
</trkpt>
<trkpt lat="47.414125" lon="8.303075">
<ele>421.2</ele>
<time>2003-03-28T09:20:35Z</time>
<speed>1.3</speed>
</trkpt>
<trkpt lat="47.414172" lon="8.303122">
<ele>421.8</ele>
<time>2003-03-28T09:20:40Z</time>
<speed>1.1</speed>
</trkpt>
<trkpt lat="47.414215" lon="8.303156">
<ele>421.5</ele>
<time>2003-03-28T09:20:45Z</time>
<speed>1.3</speed>
</trkpt>
<trkpt lat="47.414264" lon="8.303207">
<ele>419.3</ele>
<time>2003-03-28T09:20:50Z</time>
<speed>1.1</speed>
</trkpt>
<trkpt lat="47.414306" lon="8.303241">
<ele>419.0</ele>
<time>2003-03-28T09:20:55Z</time>
<speed>0.9</speed>
</trkpt>
<trkpt lat="47.414343" lon="8.303260">
<ele>419.3</ele>
<time>2003-03-28T09:21:00Z</time>
<speed>1.1</speed>
</trkpt>
<trkpt lat="47.414386" lon="8.303295">
<ele>417.6</ele>
<time>2003-03-28T09:21:05Z</time>
<speed>1.4</speed>
</trkpt>
<trkpt lat="47.414441" lon="8.303346">
<ele>416.1</ele>
<time>2003-03-28T09:21:10Z</time>
<speed>1.4</speed>
</trkpt>
<trkpt lat="47.414496" lon="8.303384">
<ele>414.5</ele>
<time>2003-03-28T09:21:15Z</time>
<speed>1.4</speed>
</trkpt>
<trkpt lat="47.414558" lon="8.303405">
<ele>416.3</ele>
<time>2003-03-28T09:21:20Z</time>
<speed>1.3</speed>
</trkpt>
<trkpt lat="47.414615" lon="8.303412">
<ele>417.3</ele>
<time>2003-03-28T09:21:25Z</time>
<speed>1.0</speed>
</trkpt>
<trkpt lat="47.414660" lon="8.303405">
<ele>418.1</ele>
<time>2003-03-28T09:21:30Z</time>
<speed>1.0</speed>
</trkpt>
<trkpt lat="47.414705" lon="8.303399">
<ele>417.6</ele>
<time>2003-03-28T09:21:35Z</time>
<speed>1.0</speed>
</trkpt>
<trkpt lat="47.414746" lon="8.303366">
<ele>417.5</ele>
<time>2003-03-28T09:21:40Z</time>
<speed>1.2</speed>
</trkpt>
<trkpt lat="47.414782" lon="8.303304">
<ele>417.9</ele>
<time>2003-03-28T09:21:45Z</time>
<speed>1.9</speed>
</trkpt>
<trkpt lat="47.414840" lon="8.303207">
<ele>417.4</ele>
<time>2003-03-28T09:21:50Z</time>
<speed>1.9</speed>
</trkpt>
<trkpt lat="47.414892" lon="8.303110">
<ele>416.1</ele>
<time>2003-03-28T09:21:55Z</time>
<speed>0.4</speed>
</trkpt>
<trkpt lat="47.414888" lon="8.303082">
<ele>416.6</ele>
<time>2003-03-28T09:22:00Z</time>
<speed>0.3</speed>
</trkpt>
<trkpt lat="47.414900" lon="8.303083">
<ele>416.6</ele>
<time>2003-03-28T09:22:05Z</time>
<speed>0.7</speed>
</trkpt>
<trkpt lat="47.414927" lon="8.303059">
<ele>418.0</ele>
<time>2003-03-28T09:22:10Z</time>
<speed>0.2</speed>
</trkpt>
<trkpt lat="47.414935" lon="8.303048">
<ele>417.2</ele>
<time>2003-03-28T09:22:15Z</time>
<speed>0.4</speed>
</trkpt>
<trkpt lat="47.414953" lon="8.303050">
<ele>418.0</ele>
<time>2003-03-28T09:22:20Z</time>
<speed>0.6</speed>
</trkpt>
<trkpt lat="47.414944" lon="8.303087">
<ele>419.0</ele>
<time>2003-03-28T09:22:25Z</time>
<speed>1.2</speed>
</trkpt>
<trkpt lat="47.414908" lon="8.303149">
<ele>418.6</ele>
<time>2003-03-28T09:22:30Z</time>
<speed>0.8</speed>
</trkpt>
<trkpt lat="47.414898" lon="8.303201">
<ele>418.3</ele>
<time>2003-03-28T09:22:35Z</time>
<speed>1.0</speed>
</trkpt>
<trkpt lat="47.414906" lon="8.303269">
<ele>418.8</ele>
<time>2003-03-28T09:22:40Z</time>
<speed>1.3</speed>
</trkpt>
<trkpt lat="47.414954" lon="8.303320">
<ele>416.6</ele>
<time>2003-03-28T09:22:45Z</time>
<speed>1.4</speed>
</trkpt>
<trkpt lat="47.415009" lon="8.303369">
<ele>416.5</ele>
<time>2003-03-28T09:22:50Z</time>
<speed>1.1</speed>
</trkpt>
<trkpt lat="47.415044" lon="8.303416">
<ele>415.5</ele>
<time>2003-03-28T09:22:55Z</time>
<speed>0.8</speed>
</trkpt>
<trkpt lat="47.415074" lon="8.303448">
<ele>415.2</ele>
<time>2003-03-28T09:23:00Z</time>
<speed>0.8</speed>
</trkpt>
<trkpt lat="47.415070" lon="8.303500">
<ele>415.6</ele>
<time>2003-03-28T09:23:05Z</time>
<speed>1.1</speed>
</trkpt>
<trkpt lat="47.415047" lon="8.303564">
<ele>415.3</ele>
<time>2003-03-28T09:23:10Z</time>
<speed>1.1</speed>
</trkpt>
<trkpt lat="47.415017" lon="8.303625">
<ele>415.6</ele>
<time>2003-03-28T09:23:15Z</time>
<speed>0.6</speed>
</trkpt>
<trkpt lat="47.415007" lon="8.303663">
<ele>416.6</ele>
<time>2003-03-28T09:23:20Z</time>
<speed>0.4</speed>
</trkpt>
<trkpt lat="47.415005" lon="8.303689">
<ele>416.8</ele>
<time>2003-03-28T09:23:25Z</time>
<speed>0.7</speed>
</trkpt>
<trkpt lat="47.414984" lon="8.303726">
<ele>416.3</ele>
<time>2003-03-28T09:23:30Z</time>
<speed>0.5</speed>
</trkpt>
<trkpt lat="47.414969" lon="8.303751">
<ele>416.4</ele>
<time>2003-03-28T09:23:35Z</time>
<speed>0.8</speed>
</trkpt>
<trkpt lat="47.414935" lon="8.303771">
<ele>417.1</ele>
<time>2003-03-28T09:23:40Z</time>
<speed>1.6</speed>
</trkpt>
<trkpt lat="47.414898" lon="8.303863">
<ele>414.1</ele>
<time>2003-03-28T09:23:45Z</time>
<speed>1.6</speed>
</trkpt>
<trkpt lat="47.414898" lon="8.303972">
<ele>412.8</ele>
<time>2003-03-28T09:23:50Z</time>
<speed>0.6</speed>
</trkpt>
<trkpt lat="47.414915" lon="8.304004">
<ele>411.0</ele>
<time>2003-03-28T09:23:55Z</time>
<speed>1.2</speed>
</trkpt>
<trkpt lat="47.414936" lon="8.304075">
<ele>410.2</ele>
<time>2003-03-28T09:24:00Z</time>
<speed>1.4</speed>
</trkpt>
<trkpt lat="47.414963" lon="8.304159">
<ele>410.3</ele>
<time>2003-03-28T09:24:05Z</time>
<speed>1.1</speed>
</trkpt>
<trkpt lat="47.414977" lon="8.304229">
<ele>410.2</ele>
<time>2003-03-28T09:24:10Z</time>
<speed>0.8</speed>
</trkpt>
<trkpt lat="47.414974" lon="8.304283">
<ele>409.2</ele>
<time>2003-03-28T09:24:15Z</time>
<speed>0.9</speed>
</trkpt>
<trkpt lat="47.414957" lon="8.304334">
<ele>409.5</ele>
<time>2003-03-28T09:24:20Z</time>
<speed>0.2</speed>
</trkpt>
<trkpt lat="47.414956" lon="8.304347">
<ele>409.6</ele>
<time>2003-03-28T09:24:25Z</time>
<speed>0.0</speed>
</trkpt>
<trkpt lat="47.414956" lon="8.304347">
<ele>409.6</ele>
<time>2003-03-28T09:24:30Z</time>
<speed>0.2</speed>
</trkpt>
<trkpt lat="47.414955" lon="8.304360">
<ele>409.7</ele>
<time>2003-03-28T09:24:35Z</time>
<speed>0.0</speed>
</trkpt>
<trkpt lat="47.414955" lon="8.304360">
<ele>409.7</ele>
<time>2003-03-28T09:24:40Z</time>
<speed>0.0</speed>
</trkpt>
<trkpt lat="47.414955" lon="8.304360">
<ele>409.7</ele>
<time>2003-03-28T09:24:45Z</time>
<speed>0.3</speed>
</trkpt>
<trkpt lat="47.414962" lon="8.304347">
<ele>410.3</ele>
<time>2003-03-28T09:24:50Z</time>
<speed>0.0</speed>
</trkpt>
<trkpt lat="47.414962" lon="8.304347">
<ele>410.3</ele>
<time>2003-03-28T09:24:55Z</time>
<speed>0.2</speed>
</trkpt>
<trkpt lat="47.414961" lon="8.304360">
<ele>410.4</ele>
<time>2003-03-28T09:25:00Z</time>
<speed>0.0</speed>
</trkpt>
<trkpt lat="47.414961" lon="8.304360">
<ele>410.4</ele>
<time>2003-03-28T09:25:05Z</time>
<speed>0.2</speed>
</trkpt>
<trkpt lat="47.414968" lon="8.304362">
<ele>409.8</ele>
<time>2003-03-28T09:25:10Z</time>
<speed>0.0</speed>
</trkpt>
<trkpt lat="47.414968" lon="8.304362">
<ele>409.8</ele>
<time>2003-03-28T09:25:15Z</time>
<speed>0.0</speed>
</trkpt>
<trkpt lat="47.414968" lon="8.304362">
<ele>409.8</ele>
<time>2003-03-28T09:25:20Z</time>
<speed>0.0</speed>
</trkpt>
<trkpt lat="47.414968" lon="8.304362">
<ele>409.8</ele>
<time>2003-03-28T09:25:25Z</time>
<speed>0.0</speed>
</trkpt>
<trkpt lat="47.414968" lon="8.304362">
<ele>409.8</ele>
<time>2003-03-28T09:25:30Z</time>
<speed>0.0</speed>
</trkpt>
<trkpt lat="47.414968" lon="8.304362">
<ele>409.8</ele>
<time>2003-03-28T09:25:35Z</time>
<speed>0.1</speed>
</trkpt>
<trkpt lat="47.414962" lon="8.304362">
<ele>409.0</ele>
<time>2003-03-28T09:25:40Z</time>
<speed>0.2</speed>
</trkpt>
<trkpt lat="47.414954" lon="8.304373">
<ele>409.8</ele>
<time>2003-03-28T09:25:45Z</time>
<speed>0.1</speed>
</trkpt>
<trkpt lat="47.414960" lon="8.304373">
<ele>410.5</ele>
<time>2003-03-28T09:25:50Z</time>
<speed>0.0</speed>
</trkpt>
<trkpt lat="47.414960" lon="8.304373">
<ele>410.5</ele>
<time>2003-03-28T09:25:55Z</time>
<speed>0.4</speed>
</trkpt>
<trkpt lat="47.414958" lon="8.304399">
<ele>410.7</ele>
<time>2003-03-28T09:26:00Z</time>
<speed>0.2</speed>
</trkpt>
<trkpt lat="47.414966" lon="8.304388">
<ele>410.0</ele>
<time>2003-03-28T09:26:06Z</time>
<speed>0.0</speed>
</trkpt>
<trkpt lat="47.414966" lon="8.304388">
<ele>410.0</ele>
<time>2003-03-28T09:26:11Z</time>
<speed>0.0</speed>
</trkpt>
<trkpt lat="47.414966" lon="8.304388">
<ele>410.0</ele>
<time>2003-03-28T09:26:16Z</time>
<speed>0.2</speed>
</trkpt>
<trkpt lat="47.414958" lon="8.304399">
<ele>410.7</ele>
<time>2003-03-28T09:26:21Z</time>
<speed>0.0</speed>
</trkpt>
<trkpt lat="47.414958" lon="8.304399">
<ele>410.7</ele>
<time>2003-03-28T09:26:26Z</time>
<speed>0.0</speed>
</trkpt>
<trkpt lat="47.414958" lon="8.304399">
<ele>410.7</ele>
<time>2003-03-28T09:26:31Z</time>
<speed>0.2</speed>
</trkpt>
<trkpt lat="47.414965" lon="8.304401">
<ele>410.1</ele>
<time>2003-03-28T09:26:36Z</time>
<speed>0.0</speed>
</trkpt>
<trkpt lat="47.414965" lon="8.304401">
<ele>410.1</ele>
<time>2003-03-28T09:26:41Z</time>
<speed>0.3</speed>
</trkpt>
<trkpt lat="47.414959" lon="8.304386">
<ele>410.6</ele>
<time>2003-03-28T09:26:46Z</time>
<speed>0.0</speed>
</trkpt>
<trkpt lat="47.414959" lon="8.304386">
<ele>410.6</ele>
<time>2003-03-28T09:26:51Z</time>
<speed>0.2</speed>
</trkpt>
<trkpt lat="47.414966" lon="8.304388">
<ele>410.0</ele>
<time>2003-03-28T09:26:56Z</time>
<speed>0.1</speed>
</trkpt>
<trkpt lat="47.414972" lon="8.304388">
<ele>410.7</ele>
<time>2003-03-28T09:27:01Z</time>
<speed>0.0</speed>
</trkpt>
<trkpt lat="47.414972" lon="8.304388">
<ele>410.7</ele>
<time>2003-03-28T09:27:06Z</time>
<speed>0.4</speed>
</trkpt>
<trkpt lat="47.414986" lon="8.304377">
<ele>410.7</ele>
<time>2003-03-28T09:27:11Z</time>
<speed>0.0</speed>
</trkpt>
<trkpt lat="47.414986" lon="8.304377">
<ele>410.7</ele>
<time>2003-03-28T09:27:16Z</time>
<speed>0.2</speed>
</trkpt>
<trkpt lat="47.414979" lon="8.304375">
<ele>411.3</ele>
<time>2003-03-28T09:27:21Z</time>
<speed>0.6</speed>
</trkpt>
<trkpt lat="47.415005" lon="8.304366">
<ele>411.4</ele>
<time>2003-03-28T09:27:26Z</time>
<speed>0.0</speed>
</trkpt>
<trkpt lat="47.415005" lon="8.304366">
<ele>411.4</ele>
<time>2003-03-28T09:27:31Z</time>
<speed>0.3</speed>
</trkpt>
<trkpt lat="47.414993" lon="8.304364">
<ele>411.3</ele>
<time>2003-03-28T09:27:36Z</time>
<speed>0.0</speed>
</trkpt>
<trkpt lat="47.414993" lon="8.304364">
<ele>411.3</ele>
<time>2003-03-28T09:27:41Z</time>
<speed>0.0</speed>
</trkpt>
<trkpt lat="47.414993" lon="8.304364">
<ele>411.3</ele>
<time>2003-03-28T09:27:46Z</time>
<speed>0.5</speed>
</trkpt>
<trkpt lat="47.414973" lon="8.304375">
<ele>410.6</ele>
<time>2003-03-28T09:27:51Z</time>
<speed>0.2</speed>
</trkpt>
<trkpt lat="47.414965" lon="8.304386">
<ele>411.4</ele>
<time>2003-03-28T09:27:56Z</time>
<speed>0.2</speed>
</trkpt>
<trkpt lat="47.414960" lon="8.304373">
<ele>410.5</ele>
<time>2003-03-28T09:28:01Z</time>
<speed>0.1</speed>
</trkpt>
<trkpt lat="47.414954" lon="8.304371">
<ele>411.2</ele>
<time>2003-03-28T09:28:06Z</time>
<speed>0.3</speed>
</trkpt>
<trkpt lat="47.414942" lon="8.304356">
<ele>411.0</ele>
<time>2003-03-28T09:28:11Z</time>
<speed>0.0</speed>
</trkpt>
<trkpt lat="47.414942" lon="8.304356">
<ele>411.0</ele>
<time>2003-03-28T09:28:16Z</time>
<speed>0.5</speed>
</trkpt>
<trkpt lat="47.414928" lon="8.304380">
<ele>411.2</ele>
<time>2003-03-28T09:28:21Z</time>
<speed>1.5</speed>
</trkpt>
<trkpt lat="47.414888" lon="8.304463">
<ele>415.2</ele>
<time>2003-03-28T09:28:26Z</time>
<speed>0.2</speed>
</trkpt>
<trkpt lat="47.414887" lon="8.304476">
<ele>415.3</ele>
<time>2003-03-28T09:28:31Z</time>
<speed>0.0</speed>
</trkpt>
<trkpt lat="47.414887" lon="8.304476">
<ele>415.3</ele>
<time>2003-03-28T09:28:36Z</time>
<speed>0.0</speed>
</trkpt>
<trkpt lat="47.414887" lon="8.304476">
<ele>415.3</ele>
<time>2003-03-28T09:28:41Z</time>
<speed>0.0</speed>
</trkpt>
<trkpt lat="47.414887" lon="8.304476">
<ele>415.3</ele>
<time>2003-03-28T09:28:46Z</time>
<speed>0.0</speed>
</trkpt>
<trkpt lat="47.414887" lon="8.304476">
<ele>415.3</ele>
<time>2003-03-28T09:28:51Z</time>
<speed>0.0</speed>
</trkpt>
<trkpt lat="47.414887" lon="8.304476">
<ele>415.3</ele>
<time>2003-03-28T09:28:56Z</time>
<speed>0.0</speed>
</trkpt>
<trkpt lat="47.414887" lon="8.304476">
<ele>415.3</ele>
<time>2003-03-28T09:29:01Z</time>
<speed>0.0</speed>
</trkpt>
<trkpt lat="47.414887" lon="8.304476">
<ele>415.3</ele>
<time>2003-03-28T09:29:06Z</time>
<speed>0.3</speed>
</trkpt>
<trkpt lat="47.414874" lon="8.304474">
<ele>415.2</ele>
<time>2003-03-28T09:29:11Z</time>
<speed>0.0</speed>
</trkpt>
<trkpt lat="47.414874" lon="8.304474">
<ele>415.2</ele>
<time>2003-03-28T09:29:16Z</time>
<speed>0.0</speed>
</trkpt>
<trkpt lat="47.414874" lon="8.304474">
<ele>415.2</ele>
<time>2003-03-28T09:29:21Z</time>
<speed>0.0</speed>
</trkpt>
<trkpt lat="47.414874" lon="8.304474">
<ele>415.2</ele>
<time>2003-03-28T09:29:26Z</time>
<speed>0.0</speed>
</trkpt>
<trkpt lat="47.414874" lon="8.304474">
<ele>415.2</ele>
<time>2003-03-28T09:29:31Z</time>
<speed>0.0</speed>
</trkpt>
<trkpt lat="47.414874" lon="8.304474">
<ele>415.2</ele>
<time>2003-03-28T09:29:36Z</time>
<speed>0.0</speed>
</trkpt>
<trkpt lat="47.414874" lon="8.304474">
<ele>415.2</ele>
<time>2003-03-28T09:29:41Z</time>
<speed>0.0</speed>
</trkpt>
<trkpt lat="47.414874" lon="8.304474">
<ele>415.2</ele>
<time>2003-03-28T09:29:46Z</time>
<speed>0.6</speed>
</trkpt>
<trkpt lat="47.414895" lon="8.304449">
<ele>415.8</ele>
<time>2003-03-28T09:29:51Z</time>
<speed>0.0</speed>
</trkpt>
<trkpt lat="47.414895" lon="8.304449">
<ele>415.8</ele>
<time>2003-03-28T09:29:56Z</time>
<speed>0.0</speed>
</trkpt>
<trkpt lat="47.414896" lon="8.304451">
<ele>414.4</ele>
<time>2003-03-28T09:30:01Z</time>
<speed>0.0</speed>
</trkpt>
<trkpt lat="47.414896" lon="8.304451">
<ele>414.4</ele>
<time>2003-03-28T09:30:06Z</time>
<speed>0.0</speed>
</trkpt>
<trkpt lat="47.414896" lon="8.304451">
<ele>414.4</ele>
<time>2003-03-28T09:30:11Z</time>
<speed>0.0</speed>
</trkpt>
<trkpt lat="47.414896" lon="8.304451">
<ele>414.4</ele>
<time>2003-03-28T09:30:16Z</time>
<speed>0.0</speed>
</trkpt>
<trkpt lat="47.414896" lon="8.304451">
<ele>414.4</ele>
<time>2003-03-28T09:30:21Z</time>
<speed>0.0</speed>
</trkpt>
<trkpt lat="47.414896" lon="8.304451">
<ele>414.4</ele>
<time>2003-03-28T09:30:26Z</time>
<speed>0.0</speed>
</trkpt>
<trkpt lat="47.414896" lon="8.304451">
<ele>414.4</ele>
<time>2003-03-28T09:30:31Z</time>
<speed>0.0</speed>
</trkpt>
<trkpt lat="47.414896" lon="8.304451">
<ele>414.4</ele>
<time>2003-03-28T09:30:36Z</time>
<speed>0.0</speed>
</trkpt>
<trkpt lat="47.414896" lon="8.304451">
<ele>414.4</ele>
<time>2003-03-28T09:30:41Z</time>
<speed>0.3</speed>
</trkpt>
<trkpt lat="47.414903" lon="8.304438">
<ele>415.1</ele>
<time>2003-03-28T09:30:46Z</time>
<speed>0.1</speed>
</trkpt>
<trkpt lat="47.414909" lon="8.304440">
<ele>414.4</ele>
<time>2003-03-28T09:30:51Z</time>
<speed>0.0</speed>
</trkpt>
<trkpt lat="47.414909" lon="8.304440">
<ele>414.4</ele>
<time>2003-03-28T09:30:56Z</time>
<speed>0.0</speed>
</trkpt>
<trkpt lat="47.414909" lon="8.304440">
<ele>414.4</ele>
<time>2003-03-28T09:31:01Z</time>
<speed>0.0</speed>
</trkpt>
<trkpt lat="47.414909" lon="8.304440">
<ele>414.4</ele>
<time>2003-03-28T09:31:06Z</time>
<speed>0.0</speed>
</trkpt>
<trkpt lat="47.414909" lon="8.304440">
<ele>414.4</ele>
<time>2003-03-28T09:31:11Z</time>
<speed>0.0</speed>
</trkpt>
<trkpt lat="47.414909" lon="8.304440">
<ele>414.4</ele>
<time>2003-03-28T09:31:16Z</time>
<speed>0.2</speed>
</trkpt>
<trkpt lat="47.414910" lon="8.304427">
<ele>414.3</ele>
<time>2003-03-28T09:31:21Z</time>
<speed>0.0</speed>
</trkpt>
<trkpt lat="47.414910" lon="8.304427">
<ele>414.3</ele>
<time>2003-03-28T09:31:26Z</time>
<speed>0.0</speed>
</trkpt>
<trkpt lat="47.414910" lon="8.304427">
<ele>414.3</ele>
<time>2003-03-28T09:31:31Z</time>
<speed>0.0</speed>
</trkpt>
<trkpt lat="47.414910" lon="8.304427">
<ele>414.3</ele>
<time>2003-03-28T09:31:36Z</time>
<speed>0.0</speed>
</trkpt>
<trkpt lat="47.414910" lon="8.304427">
<ele>414.3</ele>
<time>2003-03-28T09:31:41Z</time>
<speed>0.0</speed>
</trkpt>
<trkpt lat="47.414910" lon="8.304427">
<ele>414.3</ele>
<time>2003-03-28T09:31:46Z</time>
<speed>0.0</speed>
</trkpt>
<trkpt lat="47.414910" lon="8.304427">
<ele>414.3</ele>
<time>2003-03-28T09:31:51Z</time>
<speed>0.0</speed>
</trkpt>
<trkpt lat="47.414910" lon="8.304427">
<ele>414.3</ele>
<time>2003-03-28T09:31:56Z</time>
<speed>0.0</speed>
</trkpt>
<trkpt lat="47.414910" lon="8.304427">
<ele>414.3</ele>
<time>2003-03-28T09:32:01Z</time>
<speed>0.0</speed>
</trkpt>
<trkpt lat="47.414910" lon="8.304427">
<ele>414.3</ele>
<time>2003-03-28T09:32:06Z</time>
<speed>0.0</speed>
</trkpt>
<trkpt lat="47.414910" lon="8.304427">
<ele>414.3</ele>
<time>2003-03-28T09:32:11Z</time>
<speed>0.0</speed>
</trkpt>
<trkpt lat="47.414910" lon="8.304427">
<ele>414.3</ele>
<time>2003-03-28T09:32:16Z</time>
<speed>0.0</speed>
</trkpt>
<trkpt lat="47.414910" lon="8.304427">
<ele>414.3</ele>
<time>2003-03-28T09:32:21Z</time>
<speed>0.0</speed>
</trkpt>
<trkpt lat="47.414910" lon="8.304427">
<ele>414.3</ele>
<time>2003-03-28T09:32:26Z</time>
<speed>0.0</speed>
</trkpt>
<trkpt lat="47.414910" lon="8.304427">
<ele>414.3</ele>
<time>2003-03-28T09:32:31Z</time>
<speed>0.0</speed>
</trkpt>
<trkpt lat="47.414910" lon="8.304427">
<ele>414.3</ele>
<time>2003-03-28T09:32:36Z</time>
<speed>0.0</speed>
</trkpt>
<trkpt lat="47.414910" lon="8.304427">
<ele>414.3</ele>
<time>2003-03-28T09:32:41Z</time>
<speed>0.0</speed>
</trkpt>
<trkpt lat="47.414910" lon="8.304427">
<ele>414.3</ele>
<time>2003-03-28T09:32:46Z</time>
<speed>0.0</speed>
</trkpt>
<trkpt lat="47.414910" lon="8.304427">
<ele>414.3</ele>
<time>2003-03-28T09:32:51Z</time>
<speed>0.0</speed>
</trkpt>
<trkpt lat="47.414910" lon="8.304427">
<ele>414.3</ele>
<time>2003-03-28T09:32:56Z</time>
<speed>0.0</speed>
</trkpt>
<trkpt lat="47.414910" lon="8.304427">
<ele>414.3</ele>
<time>2003-03-28T09:33:01Z</time>
<speed>0.0</speed>
</trkpt>
<trkpt lat="47.414910" lon="8.304427">
<ele>414.3</ele>
<time>2003-03-28T09:33:06Z</time>
<speed>0.0</speed>
</trkpt>
<trkpt lat="47.414910" lon="8.304427">
<ele>414.3</ele>
<time>2003-03-28T09:33:11Z</time>
<speed>0.0</speed>
</trkpt>
<trkpt lat="47.414910" lon="8.304427">
<ele>414.3</ele>
<time>2003-03-28T09:33:16Z</time>
<speed>0.0</speed>
</trkpt>
<trkpt lat="47.414910" lon="8.304427">
<ele>414.3</ele>
<time>2003-03-28T09:33:21Z</time>
<speed>0.0</speed>
</trkpt>
<trkpt lat="47.414910" lon="8.304427">
<ele>414.3</ele>
<time>2003-03-28T09:33:26Z</time>
<speed>0.0</speed>
</trkpt>
<trkpt lat="47.414910" lon="8.304427">
<ele>414.3</ele>
<time>2003-03-28T09:33:31Z</time>
<speed>0.0</speed>
</trkpt>
<trkpt lat="47.414910" lon="8.304427">
<ele>414.3</ele>
<time>2003-03-28T09:33:36Z</time>
<speed>0.0</speed>
</trkpt>
<trkpt lat="47.414910" lon="8.304427">
<ele>414.3</ele>
<time>2003-03-28T09:33:41Z</time>
<speed>0.0</speed>
</trkpt>
<trkpt lat="47.414910" lon="8.304427">
<ele>414.3</ele>
<time>2003-03-28T09:33:46Z</time>
<speed>0.0</speed>
</trkpt>
<trkpt lat="47.414910" lon="8.304427">
<ele>414.3</ele>
<time>2003-03-28T09:33:51Z</time>
<speed>0.0</speed>
</trkpt>
<trkpt lat="47.414910" lon="8.304427">
<ele>414.3</ele>
<time>2003-03-28T09:33:56Z</time>
<speed>0.0</speed>
</trkpt>
<trkpt lat="47.414910" lon="8.304427">
<ele>414.3</ele>
<time>2003-03-28T09:34:01Z</time>
<speed>0.0</speed>
</trkpt>
<trkpt lat="47.414910" lon="8.304427">
<ele>414.3</ele>
<time>2003-03-28T09:34:06Z</time>
<speed>0.0</speed>
</trkpt>
<trkpt lat="47.414910" lon="8.304427">
<ele>414.3</ele>
<time>2003-03-28T09:34:11Z</time>
<speed>0.0</speed>
</trkpt>
<trkpt lat="47.414910" lon="8.304427">
<ele>414.3</ele>
<time>2003-03-28T09:34:16Z</time>
<speed>0.2</speed>
</trkpt>
<trkpt lat="47.414917" lon="8.304429">
<ele>413.6</ele>
<time>2003-03-28T09:34:21Z</time>
<speed>0.0</speed>
</trkpt>
<trkpt lat="47.414917" lon="8.304429">
<ele>413.6</ele>
<time>2003-03-28T09:34:26Z</time>
<speed>0.0</speed>
</trkpt>
<trkpt lat="47.414917" lon="8.304429">
<ele>413.6</ele>
<time>2003-03-28T09:34:31Z</time>
<speed>0.0</speed>
</trkpt>
<trkpt lat="47.414917" lon="8.304429">
<ele>413.6</ele>
<time>2003-03-28T09:34:36Z</time>
<speed>0.0</speed>
</trkpt>
<trkpt lat="47.414917" lon="8.304429">
<ele>413.6</ele>
<time>2003-03-28T09:34:41Z</time>
<speed>0.0</speed>
</trkpt>
<trkpt lat="47.414917" lon="8.304429">
<ele>413.6</ele>
<time>2003-03-28T09:34:46Z</time>
<speed>0.0</speed>
</trkpt>
<trkpt lat="47.414917" lon="8.304429">
<ele>413.6</ele>
<time>2003-03-28T09:34:51Z</time>
<speed>0.0</speed>
</trkpt>
<trkpt lat="47.414917" lon="8.304429">
<ele>413.6</ele>
<time>2003-03-28T09:34:56Z</time>
<speed>0.0</speed>
</trkpt>
<trkpt lat="47.414917" lon="8.304429">
<ele>413.6</ele>
<time>2003-03-28T09:35:01Z</time>
<speed>0.0</speed>
</trkpt>
<trkpt lat="47.414917" lon="8.304429">
<ele>413.6</ele>
<time>2003-03-28T09:35:06Z</time>
<speed>0.0</speed>
</trkpt>
<trkpt lat="47.414917" lon="8.304429">
<ele>413.6</ele>
<time>2003-03-28T09:35:11Z</time>
<speed>0.0</speed>
</trkpt>
<trkpt lat="47.414917" lon="8.304429">
<ele>413.6</ele>
<time>2003-03-28T09:35:16Z</time>
<speed>0.0</speed>
</trkpt>
<trkpt lat="47.414917" lon="8.304429">
<ele>413.6</ele>
<time>2003-03-28T09:35:21Z</time>
<speed>0.2</speed>
</trkpt>
<trkpt lat="47.414918" lon="8.304416">
<ele>413.5</ele>
<time>2003-03-28T09:35:26Z</time>
<speed>0.0</speed>
</trkpt>
<trkpt lat="47.414918" lon="8.304416">
<ele>413.5</ele>
<time>2003-03-28T09:35:31Z</time>
<speed>0.0</speed>
</trkpt>
<trkpt lat="47.414918" lon="8.304416">
<ele>413.5</ele>
<time>2003-03-28T09:35:36Z</time>
<speed>0.0</speed>
</trkpt>
<trkpt lat="47.414918" lon="8.304416">
<ele>413.5</ele>
<time>2003-03-28T09:35:41Z</time>
<speed>0.0</speed>
</trkpt>
<trkpt lat="47.414918" lon="8.304416">
<ele>413.5</ele>
<time>2003-03-28T09:35:46Z</time>
<speed>0.0</speed>
</trkpt>
<trkpt lat="47.414918" lon="8.304416">
<ele>413.5</ele>
<time>2003-03-28T09:35:51Z</time>
<speed>0.0</speed>
</trkpt>
<trkpt lat="47.414918" lon="8.304416">
<ele>413.5</ele>
<time>2003-03-28T09:35:56Z</time>
<speed>0.0</speed>
</trkpt>
<trkpt lat="47.414918" lon="8.304416">
<ele>413.5</ele>
<time>2003-03-28T09:36:01Z</time>
<speed>0.2</speed>
</trkpt>
<trkpt lat="47.414919" lon="8.304403">
<ele>413.4</ele>
<time>2003-03-28T09:36:06Z</time>
<speed>0.0</speed>
</trkpt>
<trkpt lat="47.414919" lon="8.304403">
<ele>413.4</ele>
<time>2003-03-28T09:36:11Z</time>
<speed>0.4</speed>
</trkpt>
<trkpt lat="47.414937" lon="8.304405">
<ele>414.2</ele>
<time>2003-03-28T09:36:16Z</time>
<speed>0.6</speed>
</trkpt>
<trkpt lat="47.414962" lon="8.304422">
<ele>414.5</ele>
<time>2003-03-28T09:36:21Z</time>
<speed>1.4</speed>
</trkpt>
<trkpt lat="47.415009" lon="8.304484">
<ele>413.7</ele>
<time>2003-03-28T09:36:26Z</time>
<speed>0.9</speed>
</trkpt>
<trkpt lat="47.415024" lon="8.304540">
<ele>413.5</ele>
<time>2003-03-28T09:36:31Z</time>
<speed>1.0</speed>
</trkpt>
<trkpt lat="47.415046" lon="8.304596">
<ele>414.0</ele>
<time>2003-03-28T09:36:36Z</time>
<speed>0.3</speed>
</trkpt>
<trkpt lat="47.415051" lon="8.304611">
<ele>413.5</ele>
<time>2003-03-28T09:36:41Z</time>
<speed>0.3</speed>
</trkpt>
<trkpt lat="47.415044" lon="8.304624">
<ele>412.8</ele>
<time>2003-03-28T09:36:46Z</time>
<speed>0.0</speed>
</trkpt>
<trkpt lat="47.415044" lon="8.304624">
<ele>412.8</ele>
<time>2003-03-28T09:36:51Z</time>
<speed>0.2</speed>
</trkpt>
<trkpt lat="47.415051" lon="8.304626">
<ele>412.1</ele>
<time>2003-03-28T09:36:56Z</time>
<speed>0.1</speed>
</trkpt>
<trkpt lat="47.415057" lon="8.304628">
<ele>411.5</ele>
<time>2003-03-28T09:37:01Z</time>
<speed>0.7</speed>
</trkpt>
<trkpt lat="47.415073" lon="8.304669">
<ele>412.6</ele>
<time>2003-03-28T09:37:06Z</time>
<speed>0.6</speed>
</trkpt>
<trkpt lat="47.415076" lon="8.304709">
<ele>413.6</ele>
<time>2003-03-28T09:37:11Z</time>
<speed>1.2</speed>
</trkpt>
<trkpt lat="47.415097" lon="8.304780">
<ele>412.8</ele>
<time>2003-03-28T09:37:16Z</time>
<speed>1.1</speed>
</trkpt>
<trkpt lat="47.415118" lon="8.304849">
<ele>413.4</ele>
<time>2003-03-28T09:37:21Z</time>
<speed>1.1</speed>
</trkpt>
<trkpt lat="47.415138" lon="8.304919">
<ele>414.1</ele>
<time>2003-03-28T09:37:26Z</time>
<speed>1.2</speed>
</trkpt>
<trkpt lat="47.415151" lon="8.304999">
<ele>415.5</ele>
<time>2003-03-28T09:37:31Z</time>
<speed>1.2</speed>
</trkpt>
<trkpt lat="47.415146" lon="8.305078">
<ele>416.0</ele>
<time>2003-03-28T09:37:36Z</time>
<speed>1.2</speed>
</trkpt>
<trkpt lat="47.415134" lon="8.305157">
<ele>415.9</ele>
<time>2003-03-28T09:37:41Z</time>
<speed>1.4</speed>
</trkpt>
<trkpt lat="47.415140" lon="8.305250">
<ele>416.6</ele>
<time>2003-03-28T09:37:46Z</time>
<speed>1.5</speed>
</trkpt>
<trkpt lat="47.415152" lon="8.305346">
<ele>416.7</ele>
<time>2003-03-28T09:37:51Z</time>
<speed>1.7</speed>
</trkpt>
<trkpt lat="47.415164" lon="8.305455">
<ele>416.9</ele>
<time>2003-03-28T09:37:56Z</time>
<speed>1.1</speed>
</trkpt>
<trkpt lat="47.415178" lon="8.305522">
<ele>418.2</ele>
<time>2003-03-28T09:38:01Z</time>
<speed>1.1</speed>
</trkpt>
<trkpt lat="47.415192" lon="8.305590">
<ele>419.5</ele>
<time>2003-03-28T09:38:06Z</time>
<speed>1.4</speed>
</trkpt>
<trkpt lat="47.415204" lon="8.305683">
<ele>421.0</ele>
<time>2003-03-28T09:38:11Z</time>
<speed>1.3</speed>
</trkpt>
<trkpt lat="47.415237" lon="8.305755">
<ele>421.7</ele>
<time>2003-03-28T09:38:16Z</time>
<speed>1.2</speed>
</trkpt>
<trkpt lat="47.415264" lon="8.305826">
<ele>421.6</ele>
<time>2003-03-28T09:38:21Z</time>
<speed>1.3</speed>
</trkpt>
<trkpt lat="47.415297" lon="8.305897">
<ele>422.3</ele>
<time>2003-03-28T09:38:26Z</time>
<speed>1.0</speed>
</trkpt>
<trkpt lat="47.415324" lon="8.305954">
<ele>423.6</ele>
<time>2003-03-28T09:38:31Z</time>
<speed>0.9</speed>
</trkpt>
<trkpt lat="47.415340" lon="8.306012">
<ele>421.9</ele>
<time>2003-03-28T09:38:36Z</time>
<speed>1.3</speed>
</trkpt>
<trkpt lat="47.415374" lon="8.306085">
<ele>421.2</ele>
<time>2003-03-28T09:38:41Z</time>
<speed>1.1</speed>
</trkpt>
<trkpt lat="47.415389" lon="8.306158">
<ele>418.3</ele>
<time>2003-03-28T09:38:46Z</time>
<speed>1.2</speed>
</trkpt>
<trkpt lat="47.415410" lon="8.306229">
<ele>417.5</ele>
<time>2003-03-28T09:38:51Z</time>
<speed>1.1</speed>
</trkpt>
<trkpt lat="47.415453" lon="8.306263">
<ele>417.2</ele>
<time>2003-03-28T09:38:56Z</time>
<speed>1.0</speed>
</trkpt>
<trkpt lat="47.415496" lon="8.306284">
<ele>416.9</ele>
<time>2003-03-28T09:39:01Z</time>
<speed>0.9</speed>
</trkpt>
<trkpt lat="47.415534" lon="8.306305">
<ele>415.8</ele>
<time>2003-03-28T09:39:06Z</time>
<speed>1.5</speed>
</trkpt>
<trkpt lat="47.415603" lon="8.306316">
<ele>415.4</ele>
<time>2003-03-28T09:39:11Z</time>
<speed>1.2</speed>
</trkpt>
<trkpt lat="47.415655" lon="8.306309">
<ele>417.0</ele>
<time>2003-03-28T09:39:16Z</time>
<speed>1.3</speed>
</trkpt>
<trkpt lat="47.415708" lon="8.306277">
<ele>417.0</ele>
<time>2003-03-28T09:39:21Z</time>
<speed>1.0</speed>
</trkpt>
<trkpt lat="47.415748" lon="8.306242">
<ele>418.3</ele>
<time>2003-03-28T09:39:26Z</time>
<speed>1.5</speed>
</trkpt>
<trkpt lat="47.415808" lon="8.306195">
<ele>420.3</ele>
<time>2003-03-28T09:39:31Z</time>
<speed>1.2</speed>
</trkpt>
<trkpt lat="47.415850" lon="8.306146">
<ele>421.5</ele>
<time>2003-03-28T09:39:36Z</time>
<speed>1.6</speed>
</trkpt>
<trkpt lat="47.415894" lon="8.306059">
<ele>422.4</ele>
<time>2003-03-28T09:39:41Z</time>
<speed>1.5</speed>
</trkpt>
<trkpt lat="47.415943" lon="8.305986">
<ele>422.8</ele>
<time>2003-03-28T09:39:46Z</time>
<speed>2.0</speed>
</trkpt>
<trkpt lat="47.416013" lon="8.305901">
<ele>423.9</ele>
<time>2003-03-28T09:39:51Z</time>
<speed>1.6</speed>
</trkpt>
<trkpt lat="47.416062" lon="8.305827">
<ele>425.6</ele>
<time>2003-03-28T09:39:56Z</time>
<speed>1.5</speed>
</trkpt>
<trkpt lat="47.416117" lon="8.305767">
<ele>426.8</ele>
<time>2003-03-28T09:40:01Z</time>
<speed>1.2</speed>
</trkpt>
<trkpt lat="47.416147" lon="8.305703">
<ele>427.8</ele>
<time>2003-03-28T09:40:06Z</time>
<speed>1.0</speed>
</trkpt>
<trkpt lat="47.416175" lon="8.305653">
<ele>429.0</ele>
<time>2003-03-28T09:40:11Z</time>
<speed>0.9</speed>
</trkpt>
<trkpt lat="47.416198" lon="8.305602">
<ele>429.4</ele>
<time>2003-03-28T09:40:16Z</time>
<speed>0.9</speed>
</trkpt>
<trkpt lat="47.416221" lon="8.305554">
<ele>428.4</ele>
<time>2003-03-28T09:40:21Z</time>
<speed>1.7</speed>
</trkpt>
<trkpt lat="47.416271" lon="8.305466">
<ele>430.1</ele>
<time>2003-03-28T09:40:26Z</time>
<speed>1.1</speed>
</trkpt>
<trkpt lat="47.416306" lon="8.305417">
<ele>430.5</ele>
<time>2003-03-28T09:40:31Z</time>
<speed>1.6</speed>
</trkpt>
<trkpt lat="47.416368" lon="8.305359">
<ele>431.1</ele>
<time>2003-03-28T09:40:36Z</time>
<speed>1.6</speed>
</trkpt>
<trkpt lat="47.416424" lon="8.305288">
<ele>430.7</ele>
<time>2003-03-28T09:40:41Z</time>
<speed>1.4</speed>
</trkpt>
<trkpt lat="47.416473" lon="8.305230">
<ele>429.8</ele>
<time>2003-03-28T09:40:46Z</time>
<speed>1.5</speed>
</trkpt>
<trkpt lat="47.416529" lon="8.305174">
<ele>428.2</ele>
<time>2003-03-28T09:40:51Z</time>
<speed>1.5</speed>
</trkpt>
<trkpt lat="47.416580" lon="8.305105">
<ele>425.7</ele>
<time>2003-03-28T09:40:56Z</time>
<speed>1.5</speed>
</trkpt>
<trkpt lat="47.416635" lon="8.305049">
<ele>424.1</ele>
<time>2003-03-28T09:41:01Z</time>
<speed>1.4</speed>
</trkpt>
<trkpt lat="47.416685" lon="8.304993">
<ele>421.7</ele>
<time>2003-03-28T09:41:06Z</time>
<speed>1.2</speed>
</trkpt>
<trkpt lat="47.416722" lon="8.304933">
<ele>420.7</ele>
<time>2003-03-28T09:41:11Z</time>
<speed>1.0</speed>
</trkpt>
<trkpt lat="47.416740" lon="8.304872">
<ele>418.8</ele>
<time>2003-03-28T09:41:16Z</time>
<speed>0.6</speed>
</trkpt>
<trkpt lat="47.416736" lon="8.304832">
<ele>417.8</ele>
<time>2003-03-28T09:41:21Z</time>
<speed>0.2</speed>
</trkpt>
<trkpt lat="47.416735" lon="8.304845">
<ele>417.9</ele>
<time>2003-03-28T09:41:26Z</time>
<speed>0.0</speed>
</trkpt>
<trkpt lat="47.416735" lon="8.304845">
<ele>417.9</ele>
<time>2003-03-28T09:41:31Z</time>
<speed>0.6</speed>
</trkpt>
<trkpt lat="47.416738" lon="8.304806">
<ele>417.6</ele>
<time>2003-03-28T09:41:36Z</time>
<speed>0.0</speed>
</trkpt>
<trkpt lat="47.416738" lon="8.304806">
<ele>417.6</ele>
<time>2003-03-28T09:41:41Z</time>
<speed>0.6</speed>
</trkpt>
<trkpt lat="47.416765" lon="8.304797">
<ele>417.7</ele>
<time>2003-03-28T09:41:46Z</time>
<speed>0.3</speed>
</trkpt>
<trkpt lat="47.416770" lon="8.304812">
<ele>417.1</ele>
<time>2003-03-28T09:41:51Z</time>
<speed>0.4</speed>
</trkpt>
<trkpt lat="47.416772" lon="8.304785">
<ele>416.9</ele>
<time>2003-03-28T09:41:56Z</time>
<speed>0.3</speed>
</trkpt>
<trkpt lat="47.416759" lon="8.304784">
<ele>416.8</ele>
<time>2003-03-28T09:42:01Z</time>
<speed>0.0</speed>
</trkpt>
<trkpt lat="47.416759" lon="8.304784">
<ele>416.8</ele>
<time>2003-03-28T09:42:06Z</time>
<speed>0.2</speed>
</trkpt>
<trkpt lat="47.416759" lon="8.304797">
<ele>416.9</ele>
<time>2003-03-28T09:42:11Z</time>
<speed>0.3</speed>
</trkpt>
<trkpt lat="47.416746" lon="8.304795">
<ele>416.9</ele>
<time>2003-03-28T09:42:16Z</time>
<speed>0.2</speed>
</trkpt>
<trkpt lat="47.416747" lon="8.304782">
<ele>416.8</ele>
<time>2003-03-28T09:42:21Z</time>
<speed>0.2</speed>
</trkpt>
<trkpt lat="47.416740" lon="8.304780">
<ele>417.4</ele>
<time>2003-03-28T09:42:26Z</time>
<speed>0.3</speed>
</trkpt>
<trkpt lat="47.416727" lon="8.304791">
<ele>417.5</ele>
<time>2003-03-28T09:42:31Z</time>
<speed>0.3</speed>
</trkpt>
<trkpt lat="47.416740" lon="8.304780">
<ele>417.4</ele>
<time>2003-03-28T09:42:36Z</time>
<speed>0.2</speed>
</trkpt>
<trkpt lat="47.416741" lon="8.304767">
<ele>417.3</ele>
<time>2003-03-28T09:42:41Z</time>
<speed>0.3</speed>
</trkpt>
<trkpt lat="47.416729" lon="8.304765">
<ele>417.3</ele>
<time>2003-03-28T09:42:46Z</time>
<speed>0.4</speed>
</trkpt>
<trkpt lat="47.416715" lon="8.304776">
<ele>417.3</ele>
<time>2003-03-28T09:42:51Z</time>
<speed>0.2</speed>
</trkpt>
<trkpt lat="47.416723" lon="8.304765">
<ele>416.5</ele>
<time>2003-03-28T09:42:56Z</time>
<speed>0.7</speed>
</trkpt>
<trkpt lat="47.416745" lon="8.304731">
<ele>414.2</ele>
<time>2003-03-28T09:43:01Z</time>
<speed>0.0</speed>
</trkpt>
<trkpt lat="47.416745" lon="8.304731">
<ele>414.2</ele>
<time>2003-03-28T09:43:06Z</time>
<speed>0.2</speed>
</trkpt>
<trkpt lat="47.416744" lon="8.304744">
<ele>414.3</ele>
<time>2003-03-28T09:43:11Z</time>
<speed>0.4</speed>
</trkpt>
<trkpt lat="47.416730" lon="8.304755">
<ele>414.4</ele>
<time>2003-03-28T09:43:16Z</time>
<speed>0.3</speed>
</trkpt>
<trkpt lat="47.416718" lon="8.304754">
<ele>414.3</ele>
<time>2003-03-28T09:43:21Z</time>
<speed>0.3</speed>
</trkpt>
<trkpt lat="47.416705" lon="8.304752">
<ele>414.2</ele>
<time>2003-03-28T09:43:26Z</time>
<speed>0.0</speed>
</trkpt>
<trkpt lat="47.416705" lon="8.304752">
<ele>414.2</ele>
<time>2003-03-28T09:43:31Z</time>
<speed>0.8</speed>
</trkpt>
<trkpt lat="47.416739" lon="8.304748">
<ele>410.8</ele>
<time>2003-03-28T09:43:36Z</time>
<speed>0.0</speed>
</trkpt>
<trkpt lat="47.416739" lon="8.304748">
<ele>410.8</ele>
<time>2003-03-28T09:43:41Z</time>
<speed>0.0</speed>
</trkpt>
<trkpt lat="47.416739" lon="8.304748">
<ele>410.8</ele>
<time>2003-03-28T09:43:46Z</time>
<speed>0.0</speed>
</trkpt>
<trkpt lat="47.416739" lon="8.304748">
<ele>410.8</ele>
<time>2003-03-28T09:43:51Z</time>
<speed>0.0</speed>
</trkpt>
<trkpt lat="47.416739" lon="8.304748">
<ele>410.8</ele>
<time>2003-03-28T09:43:56Z</time>
<speed>0.6</speed>
</trkpt>
<trkpt lat="47.416763" lon="8.304765">
<ele>411.0</ele>
<time>2003-03-28T09:44:01Z</time>
<speed>0.2</speed>
</trkpt>
<trkpt lat="47.416762" lon="8.304778">
<ele>411.1</ele>
<time>2003-03-28T09:44:06Z</time>
<speed>0.2</speed>
</trkpt>
<trkpt lat="47.416761" lon="8.304791">
<ele>411.2</ele>
<time>2003-03-28T09:44:11Z</time>
<speed>0.0</speed>
</trkpt>
<trkpt lat="47.416761" lon="8.304791">
<ele>411.2</ele>
<time>2003-03-28T09:44:16Z</time>
<speed>0.3</speed>
</trkpt>
<trkpt lat="47.416748" lon="8.304802">
<ele>411.2</ele>
<time>2003-03-28T09:44:21Z</time>
<speed>0.1</speed>
</trkpt>
<trkpt lat="47.416754" lon="8.304802">
<ele>412.0</ele>
<time>2003-03-28T09:44:26Z</time>
<speed>0.7</speed>
</trkpt>
<trkpt lat="47.416732" lon="8.304838">
<ele>412.9</ele>
<time>2003-03-28T09:44:31Z</time>
<speed>0.9</speed>
</trkpt>
<trkpt lat="47.416770" lon="8.304846">
<ele>411.7</ele>
<time>2003-03-28T09:44:36Z</time>
<speed>0.9</speed>
</trkpt>
<trkpt lat="47.416810" lon="8.304825">
<ele>411.7</ele>
<time>2003-03-28T09:44:41Z</time>
<speed>0.3</speed>
</trkpt>
<trkpt lat="47.416823" lon="8.304827">
<ele>411.7</ele>
<time>2003-03-28T09:44:46Z</time>
<speed>0.2</speed>
</trkpt>
<trkpt lat="47.416817" lon="8.304814">
<ele>410.9</ele>
<time>2003-03-28T09:44:51Z</time>
<speed>1.0</speed>
</trkpt>
<trkpt lat="47.416847" lon="8.304765">
<ele>410.6</ele>
<time>2003-03-28T09:44:56Z</time>
<speed>1.5</speed>
</trkpt>
<trkpt lat="47.416890" lon="8.304692">
<ele>410.3</ele>
<time>2003-03-28T09:45:01Z</time>
<speed>1.5</speed>
</trkpt>
<trkpt lat="47.416933" lon="8.304617">
<ele>411.3</ele>
<time>2003-03-28T09:45:06Z</time>
<speed>1.3</speed>
</trkpt>
<trkpt lat="47.416976" lon="8.304558">
<ele>411.0</ele>
<time>2003-03-28T09:45:11Z</time>
<speed>1.6</speed>
</trkpt>
<trkpt lat="47.417014" lon="8.304470">
<ele>411.2</ele>
<time>2003-03-28T09:45:16Z</time>
<speed>1.1</speed>
</trkpt>
<trkpt lat="47.417044" lon="8.304408">
<ele>410.8</ele>
<time>2003-03-28T09:45:21Z</time>
<speed>1.5</speed>
</trkpt>
<trkpt lat="47.417076" lon="8.304318">
<ele>411.7</ele>
<time>2003-03-28T09:45:26Z</time>
<speed>1.4</speed>
</trkpt>
<trkpt lat="47.417113" lon="8.304245">
<ele>410.5</ele>
<time>2003-03-28T09:45:31Z</time>
<speed>1.2</speed>
</trkpt>
<trkpt lat="47.417149" lon="8.304183">
<ele>410.9</ele>
<time>2003-03-28T09:45:36Z</time>
<speed>1.1</speed>
</trkpt>
<trkpt lat="47.417180" lon="8.304122">
<ele>410.6</ele>
<time>2003-03-28T09:45:41Z</time>
<speed>1.1</speed>
</trkpt>
<trkpt lat="47.417210" lon="8.304060">
<ele>410.2</ele>
<time>2003-03-28T09:45:46Z</time>
<speed>1.1</speed>
</trkpt>
<trkpt lat="47.417240" lon="8.303998">
<ele>409.9</ele>
<time>2003-03-28T09:45:51Z</time>
<speed>1.1</speed>
</trkpt>
<trkpt lat="47.417270" lon="8.303937">
<ele>409.5</ele>
<time>2003-03-28T09:45:56Z</time>
<speed>1.3</speed>
</trkpt>
<trkpt lat="47.417312" lon="8.303875">
<ele>410.6</ele>
<time>2003-03-28T09:46:01Z</time>
<speed>1.2</speed>
</trkpt>
<trkpt lat="47.417348" lon="8.303813">
<ele>411.0</ele>
<time>2003-03-28T09:46:06Z</time>
<speed>1.1</speed>
</trkpt>
<trkpt lat="47.417372" lon="8.303749">
<ele>411.3</ele>
<time>2003-03-28T09:46:11Z</time>
<speed>1.5</speed>
</trkpt>
<trkpt lat="47.417415" lon="8.303676">
<ele>410.9</ele>
<time>2003-03-28T09:46:16Z</time>
<speed>1.3</speed>
</trkpt>
<trkpt lat="47.417446" lon="8.303600">
<ele>411.9</ele>
<time>2003-03-28T09:46:21Z</time>
<speed>1.1</speed>
</trkpt>
<trkpt lat="47.417476" lon="8.303538">
<ele>411.5</ele>
<time>2003-03-28T09:46:26Z</time>
<speed>1.3</speed>
</trkpt>
<trkpt lat="47.417524" lon="8.303491">
<ele>412.1</ele>
<time>2003-03-28T09:46:31Z</time>
<speed>1.4</speed>
</trkpt>
<trkpt lat="47.417561" lon="8.303416">
<ele>412.4</ele>
<time>2003-03-28T09:46:36Z</time>
<speed>1.2</speed>
</trkpt>
<trkpt lat="47.417597" lon="8.303355">
<ele>412.7</ele>
<time>2003-03-28T09:46:41Z</time>
<speed>1.1</speed>
</trkpt>
<trkpt lat="47.417620" lon="8.303291">
<ele>413.1</ele>
<time>2003-03-28T09:46:46Z</time>
<speed>1.1</speed>
</trkpt>
<trkpt lat="47.417643" lon="8.303226">
<ele>414.8</ele>
<time>2003-03-28T09:46:51Z</time>
<speed>1.1</speed>
</trkpt>
<trkpt lat="47.417679" lon="8.303177">
<ele>415.3</ele>
<time>2003-03-28T09:46:56Z</time>
<speed>1.2</speed>
</trkpt>
<trkpt lat="47.417708" lon="8.303113">
<ele>416.3</ele>
<time>2003-03-28T09:47:01Z</time>
<speed>1.1</speed>
</trkpt>
<trkpt lat="47.417738" lon="8.303052">
<ele>416.0</ele>
<time>2003-03-28T09:47:06Z</time>
<speed>1.3</speed>
</trkpt>
<trkpt lat="47.417763" lon="8.302975">
<ele>416.2</ele>
<time>2003-03-28T09:47:11Z</time>
<speed>1.3</speed>
</trkpt>
<trkpt lat="47.417794" lon="8.302900">
<ele>415.7</ele>
<time>2003-03-28T09:47:16Z</time>
<speed>1.3</speed>
</trkpt>
<trkpt lat="47.417825" lon="8.302825">
<ele>415.3</ele>
<time>2003-03-28T09:47:21Z</time>
<speed>1.3</speed>
</trkpt>
<trkpt lat="47.417867" lon="8.302765">
<ele>415.0</ele>
<time>2003-03-28T09:47:26Z</time>
<speed>1.4</speed>
</trkpt>
<trkpt lat="47.417905" lon="8.302690">
<ele>415.3</ele>
<time>2003-03-28T09:47:31Z</time>
<speed>1.3</speed>
</trkpt>
<trkpt lat="47.417947" lon="8.302631">
<ele>415.0</ele>
<time>2003-03-28T09:47:36Z</time>
<speed>1.4</speed>
</trkpt>
<trkpt lat="47.417984" lon="8.302556">
<ele>415.3</ele>
<time>2003-03-28T09:47:41Z</time>
<speed>1.1</speed>
</trkpt>
<trkpt lat="47.418014" lon="8.302494">
<ele>414.9</ele>
<time>2003-03-28T09:47:46Z</time>
<speed>1.5</speed>
</trkpt>
<trkpt lat="47.418058" lon="8.302421">
<ele>414.5</ele>
<time>2003-03-28T09:47:51Z</time>
<speed>1.3</speed>
</trkpt>
<trkpt lat="47.418083" lon="8.302346">
<ele>413.3</ele>
<time>2003-03-28T09:47:56Z</time>
<speed>1.3</speed>
</trkpt>
<trkpt lat="47.418126" lon="8.302286">
<ele>413.0</ele>
<time>2003-03-28T09:48:01Z</time>
<speed>1.5</speed>
</trkpt>
<trkpt lat="47.418169" lon="8.302213">
<ele>412.6</ele>
<time>2003-03-28T09:48:06Z</time>
<speed>1.6</speed>
</trkpt>
<trkpt lat="47.418219" lon="8.302141">
<ele>413.0</ele>
<time>2003-03-28T09:48:11Z</time>
<speed>1.3</speed>
</trkpt>
<trkpt lat="47.418250" lon="8.302066">
<ele>412.5</ele>
<time>2003-03-28T09:48:16Z</time>
<speed>1.3</speed>
</trkpt>
<trkpt lat="47.418281" lon="8.301991">
<ele>412.1</ele>
<time>2003-03-28T09:48:21Z</time>
<speed>1.2</speed>
</trkpt>
<trkpt lat="47.418318" lon="8.301931">
<ele>411.1</ele>
<time>2003-03-28T09:48:26Z</time>
<speed>1.1</speed>
</trkpt>
<trkpt lat="47.418348" lon="8.301869">
<ele>410.7</ele>
<time>2003-03-28T09:48:31Z</time>
<speed>1.4</speed>
</trkpt>
<trkpt lat="47.418385" lon="8.301794">
<ele>411.0</ele>
<time>2003-03-28T09:48:36Z</time>
<speed>1.2</speed>
</trkpt>
<trkpt lat="47.418415" lon="8.301731">
<ele>412.0</ele>
<time>2003-03-28T09:48:41Z</time>
<speed>1.2</speed>
</trkpt>
<trkpt lat="47.418456" lon="8.301682">
<ele>413.3</ele>
<time>2003-03-28T09:48:46Z</time>
<speed>0.8</speed>
</trkpt>
<trkpt lat="47.418484" lon="8.301647">
<ele>413.1</ele>
<time>2003-03-28T09:48:51Z</time>
<speed>0.9</speed>
</trkpt>
<trkpt lat="47.418506" lon="8.301596">
<ele>413.5</ele>
<time>2003-03-28T09:48:56Z</time>
<speed>1.2</speed>
</trkpt>
<trkpt lat="47.418537" lon="8.301534">
<ele>413.2</ele>
<time>2003-03-28T09:49:01Z</time>
<speed>1.4</speed>
</trkpt>
<trkpt lat="47.418549" lon="8.301443">
<ele>413.2</ele>
<time>2003-03-28T09:49:06Z</time>
<speed>1.1</speed>
</trkpt>
<trkpt lat="47.418535" lon="8.301373">
<ele>413.3</ele>
<time>2003-03-28T09:49:11Z</time>
<speed>1.3</speed>
</trkpt>
<trkpt lat="47.418502" lon="8.301302">
<ele>412.6</ele>
<time>2003-03-28T09:49:16Z</time>
<speed>1.3</speed>
</trkpt>
<trkpt lat="47.418469" lon="8.301231">
<ele>412.0</ele>
<time>2003-03-28T09:49:21Z</time>
<speed>1.3</speed>
</trkpt>
<trkpt lat="47.418428" lon="8.301170">
<ele>412.0</ele>
<time>2003-03-28T09:49:26Z</time>
<speed>1.3</speed>
</trkpt>
<trkpt lat="47.418387" lon="8.301110">
<ele>412.1</ele>
<time>2003-03-28T09:49:31Z</time>
<speed>1.2</speed>
</trkpt>
<trkpt lat="47.418346" lon="8.301063">
<ele>412.3</ele>
<time>2003-03-28T09:49:36Z</time>
<speed>1.4</speed>
</trkpt>
<trkpt lat="47.418306" lon="8.300990">
<ele>412.3</ele>
<time>2003-03-28T09:49:41Z</time>
<speed>1.2</speed>
</trkpt>
<trkpt lat="47.418272" lon="8.300932">
<ele>411.7</ele>
<time>2003-03-28T09:49:46Z</time>
<speed>1.3</speed>
</trkpt>
<trkpt lat="47.418231" lon="8.300872">
<ele>411.8</ele>
<time>2003-03-28T09:49:51Z</time>
<speed>1.2</speed>
</trkpt>
<trkpt lat="47.418190" lon="8.300825">
<ele>411.9</ele>
<time>2003-03-28T09:49:56Z</time>
<speed>1.3</speed>
</trkpt>
<trkpt lat="47.418157" lon="8.300754">
<ele>411.2</ele>
<time>2003-03-28T09:50:01Z</time>
<speed>1.2</speed>
</trkpt>
<trkpt lat="47.418115" lon="8.300707">
<ele>411.4</ele>
<time>2003-03-28T09:50:06Z</time>
<speed>1.2</speed>
</trkpt>
<trkpt lat="47.418080" lon="8.300647">
<ele>412.2</ele>
<time>2003-03-28T09:50:11Z</time>
<speed>1.1</speed>
</trkpt>
<trkpt lat="47.418052" lon="8.300588">
<ele>412.4</ele>
<time>2003-03-28T09:50:16Z</time>
<speed>1.1</speed>
</trkpt>
<trkpt lat="47.418024" lon="8.300530">
<ele>412.5</ele>
<time>2003-03-28T09:50:21Z</time>
<speed>0.8</speed>
</trkpt>
<trkpt lat="47.418028" lon="8.300478">
<ele>412.1</ele>
<time>2003-03-28T09:50:26Z</time>
<speed>1.3</speed>
</trkpt>
<trkpt lat="47.418076" lon="8.300429">
<ele>414.1</ele>
<time>2003-03-28T09:50:31Z</time>
<speed>1.3</speed>
</trkpt>
<trkpt lat="47.418128" lon="8.300394">
<ele>416.9</ele>
<time>2003-03-28T09:50:36Z</time>
<speed>1.3</speed>
</trkpt>
<trkpt lat="47.418182" lon="8.300362">
<ele>416.8</ele>
<time>2003-03-28T09:50:41Z</time>
<speed>1.0</speed>
</trkpt>
<trkpt lat="47.418222" lon="8.300326">
<ele>418.2</ele>
<time>2003-03-28T09:50:46Z</time>
<speed>0.4</speed>
</trkpt>
<trkpt lat="47.418241" lon="8.300328">
<ele>419.0</ele>
<time>2003-03-28T09:50:51Z</time>
<speed>0.9</speed>
</trkpt>
<trkpt lat="47.418280" lon="8.300308">
<ele>419.0</ele>
<time>2003-03-28T09:50:56Z</time>
<speed>1.1</speed>
</trkpt>
<trkpt lat="47.418327" lon="8.300289">
<ele>418.3</ele>
<time>2003-03-28T09:51:01Z</time>
<speed>0.9</speed>
</trkpt>
<trkpt lat="47.418361" lon="8.300254">
<ele>418.9</ele>
<time>2003-03-28T09:51:06Z</time>
<speed>1.2</speed>
</trkpt>
<trkpt lat="47.418408" lon="8.300222">
<ele>418.1</ele>
<time>2003-03-28T09:51:11Z</time>
<speed>1.0</speed>
</trkpt>
<trkpt lat="47.418449" lon="8.300188">
<ele>418.0</ele>
<time>2003-03-28T09:51:16Z</time>
<speed>0.9</speed>
</trkpt>
<trkpt lat="47.418489" lon="8.300168">
<ele>418.0</ele>
<time>2003-03-28T09:51:21Z</time>
<speed>0.8</speed>
</trkpt>
<trkpt lat="47.418522" lon="8.300146">
<ele>418.7</ele>
<time>2003-03-28T09:51:26Z</time>
<speed>1.0</speed>
</trkpt>
<trkpt lat="47.418563" lon="8.300112">
<ele>418.6</ele>
<time>2003-03-28T09:51:31Z</time>
<speed>1.3</speed>
</trkpt>
<trkpt lat="47.418611" lon="8.300065">
<ele>419.2</ele>
<time>2003-03-28T09:51:36Z</time>
<speed>1.2</speed>
</trkpt>
<trkpt lat="47.418653" lon="8.300019">
<ele>419.0</ele>
<time>2003-03-28T09:51:41Z</time>
<speed>1.1</speed>
</trkpt>
<trkpt lat="47.418699" lon="8.299985">
<ele>419.6</ele>
<time>2003-03-28T09:51:46Z</time>
<speed>1.4</speed>
</trkpt>
<trkpt lat="47.418759" lon="8.299953">
<ele>420.3</ele>
<time>2003-03-28T09:51:51Z</time>
<speed>1.1</speed>
</trkpt>
<trkpt lat="47.418805" lon="8.299933">
<ele>421.1</ele>
<time>2003-03-28T09:51:56Z</time>
<speed>0.9</speed>
</trkpt>
<trkpt lat="47.418845" lon="8.299912">
<ele>421.1</ele>
<time>2003-03-28T09:52:01Z</time>
<speed>1.1</speed>
</trkpt>
<trkpt lat="47.418891" lon="8.299892">
<ele>421.8</ele>
<time>2003-03-28T09:52:06Z</time>
<speed>1.3</speed>
</trkpt>
<trkpt lat="47.418949" lon="8.299873">
<ele>422.6</ele>
<time>2003-03-28T09:52:11Z</time>
<speed>0.9</speed>
</trkpt>
<trkpt lat="47.418988" lon="8.299866">
<ele>422.7</ele>
<time>2003-03-28T09:52:16Z</time>
<speed>1.2</speed>
</trkpt>
<trkpt lat="47.419040" lon="8.299847">
<ele>422.8</ele>
<time>2003-03-28T09:52:21Z</time>
<speed>1.1</speed>
</trkpt>
<trkpt lat="47.419087" lon="8.299829">
<ele>422.1</ele>
<time>2003-03-28T09:52:26Z</time>
<speed>1.1</speed>
</trkpt>
<trkpt lat="47.419136" lon="8.299849">
<ele>422.5</ele>
<time>2003-03-28T09:52:31Z</time>
<speed>1.0</speed>
</trkpt>
<trkpt lat="47.419180" lon="8.299868">
<ele>423.5</ele>
<time>2003-03-28T09:52:36Z</time>
<speed>1.0</speed>
</trkpt>
<trkpt lat="47.419224" lon="8.299874">
<ele>424.5</ele>
<time>2003-03-28T09:52:41Z</time>
<speed>1.0</speed>
</trkpt>
<trkpt lat="47.419267" lon="8.299893">
<ele>425.5</ele>
<time>2003-03-28T09:52:46Z</time>
<speed>1.1</speed>
</trkpt>
<trkpt lat="47.419318" lon="8.299887">
<ele>425.7</ele>
<time>2003-03-28T09:52:51Z</time>
<speed>1.0</speed>
</trkpt>
<trkpt lat="47.419363" lon="8.299895">
<ele>425.2</ele>
<time>2003-03-28T09:52:56Z</time>
<speed>1.0</speed>
</trkpt>
<trkpt lat="47.419406" lon="8.299914">
<ele>426.2</ele>
<time>2003-03-28T09:53:01Z</time>
<speed>1.1</speed>
</trkpt>
<trkpt lat="47.419456" lon="8.299922">
<ele>426.5</ele>
<time>2003-03-28T09:53:06Z</time>
<speed>1.2</speed>
</trkpt>
<trkpt lat="47.419508" lon="8.299916">
<ele>426.7</ele>
<time>2003-03-28T09:53:11Z</time>
<speed>1.0</speed>
</trkpt>
<trkpt lat="47.419552" lon="8.299922">
<ele>427.6</ele>
<time>2003-03-28T09:53:16Z</time>
<speed>1.0</speed>
</trkpt>
<trkpt lat="47.419596" lon="8.299930">
<ele>427.1</ele>
<time>2003-03-28T09:53:21Z</time>
<speed>1.0</speed>
</trkpt>
<trkpt lat="47.419639" lon="8.299948">
<ele>428.2</ele>
<time>2003-03-28T09:53:26Z</time>
<speed>1.2</speed>
</trkpt>
<trkpt lat="47.419689" lon="8.299969">
<ele>428.5</ele>
<time>2003-03-28T09:53:31Z</time>
<speed>1.3</speed>
</trkpt>
<trkpt lat="47.419744" lon="8.300005">
<ele>428.3</ele>
<time>2003-03-28T09:53:36Z</time>
<speed>1.1</speed>
</trkpt>
<trkpt lat="47.419787" lon="8.300039">
<ele>428.0</ele>
<time>2003-03-28T09:53:41Z</time>
<speed>1.2</speed>
</trkpt>
<trkpt lat="47.419828" lon="8.300086">
<ele>427.9</ele>
<time>2003-03-28T09:53:46Z</time>
<speed>1.1</speed>
</trkpt>
<trkpt lat="47.419849" lon="8.300155">
<ele>428.5</ele>
<time>2003-03-28T09:53:51Z</time>
<speed>1.2</speed>
</trkpt>
<trkpt lat="47.419883" lon="8.300213">
<ele>429.1</ele>
<time>2003-03-28T09:53:56Z</time>
<speed>1.0</speed>
</trkpt>
<trkpt lat="47.419905" lon="8.300272">
<ele>428.2</ele>
<time>2003-03-28T09:54:01Z</time>
<speed>1.1</speed>
</trkpt>
<trkpt lat="47.419933" lon="8.300330">
<ele>428.1</ele>
<time>2003-03-28T09:54:06Z</time>
<speed>1.1</speed>
</trkpt>
<trkpt lat="47.419953" lon="8.300399">
<ele>428.7</ele>
<time>2003-03-28T09:54:11Z</time>
<speed>1.2</speed>
</trkpt>
<trkpt lat="47.419974" lon="8.300470">
<ele>427.9</ele>
<time>2003-03-28T09:54:16Z</time>
<speed>1.3</speed>
</trkpt>
<trkpt lat="47.419994" lon="8.300553">
<ele>428.6</ele>
<time>2003-03-28T09:54:21Z</time>
<speed>1.2</speed>
</trkpt>
<trkpt lat="47.420021" lon="8.300624">
<ele>428.6</ele>
<time>2003-03-28T09:54:26Z</time>
<speed>1.2</speed>
</trkpt>
<trkpt lat="47.420042" lon="8.300696">
<ele>427.8</ele>
<time>2003-03-28T09:54:31Z</time>
<speed>1.3</speed>
</trkpt>
<trkpt lat="47.420061" lon="8.300778">
<ele>428.5</ele>
<time>2003-03-28T09:54:36Z</time>
<speed>1.3</speed>
</trkpt>
<trkpt lat="47.420095" lon="8.300851">
<ele>427.8</ele>
<time>2003-03-28T09:54:41Z</time>
<speed>1.3</speed>
</trkpt>
<trkpt lat="47.420108" lon="8.300934">
<ele>427.8</ele>
<time>2003-03-28T09:54:46Z</time>
<speed>1.3</speed>
</trkpt>
<trkpt lat="47.420128" lon="8.301018">
<ele>427.1</ele>
<time>2003-03-28T09:54:51Z</time>
<speed>1.3</speed>
</trkpt>
<trkpt lat="47.420142" lon="8.301103">
<ele>425.7</ele>
<time>2003-03-28T09:54:56Z</time>
<speed>1.2</speed>
</trkpt>
<trkpt lat="47.420169" lon="8.301174">
<ele>425.6</ele>
<time>2003-03-28T09:55:01Z</time>
<speed>1.3</speed>
</trkpt>
<trkpt lat="47.420189" lon="8.301256">
<ele>426.3</ele>
<time>2003-03-28T09:55:06Z</time>
<speed>1.1</speed>
</trkpt>
<trkpt lat="47.420231" lon="8.301290">
<ele>426.1</ele>
<time>2003-03-28T09:55:11Z</time>
<speed>1.0</speed>
</trkpt>
<trkpt lat="47.420275" lon="8.301296">
<ele>427.0</ele>
<time>2003-03-28T09:55:16Z</time>
<speed>1.2</speed>
</trkpt>
<trkpt lat="47.420325" lon="8.301317">
<ele>427.4</ele>
<time>2003-03-28T09:55:21Z</time>
<speed>1.2</speed>
</trkpt>
<trkpt lat="47.420377" lon="8.301313">
<ele>426.1</ele>
<time>2003-03-28T09:55:26Z</time>
<speed>1.2</speed>
</trkpt>
<trkpt lat="47.420429" lon="8.301310">
<ele>424.9</ele>
<time>2003-03-28T09:55:31Z</time>
<speed>1.4</speed>
</trkpt>
<trkpt lat="47.420488" lon="8.301278">
<ele>425.6</ele>
<time>2003-03-28T09:55:36Z</time>
<speed>1.7</speed>
</trkpt>
<trkpt lat="47.420561" lon="8.301235">
<ele>426.3</ele>
<time>2003-03-28T09:55:41Z</time>
<speed>1.3</speed>
</trkpt>
<trkpt lat="47.420620" lon="8.301218">
<ele>425.7</ele>
<time>2003-03-28T09:55:46Z</time>
<speed>1.2</speed>
</trkpt>
<trkpt lat="47.420673" lon="8.301200">
<ele>425.8</ele>
<time>2003-03-28T09:55:51Z</time>
<speed>1.2</speed>
</trkpt>
<trkpt lat="47.420725" lon="8.301181">
<ele>425.8</ele>
<time>2003-03-28T09:55:56Z</time>
<speed>1.2</speed>
</trkpt>
<trkpt lat="47.420777" lon="8.301161">
<ele>427.3</ele>
<time>2003-03-28T09:56:01Z</time>
<speed>1.3</speed>
</trkpt>
<trkpt lat="47.420836" lon="8.301142">
<ele>428.1</ele>
<time>2003-03-28T09:56:06Z</time>
<speed>1.5</speed>
</trkpt>
<trkpt lat="47.420901" lon="8.301126">
<ele>428.3</ele>
<time>2003-03-28T09:56:11Z</time>
<speed>1.2</speed>
</trkpt>
<trkpt lat="47.420953" lon="8.301120">
<ele>428.4</ele>
<time>2003-03-28T09:56:16Z</time>
<speed>1.4</speed>
</trkpt>
<trkpt lat="47.421012" lon="8.301088">
<ele>429.1</ele>
<time>2003-03-28T09:56:21Z</time>
<speed>1.3</speed>
</trkpt>
<trkpt lat="47.421065" lon="8.301055">
<ele>430.5</ele>
<time>2003-03-28T09:56:26Z</time>
<speed>1.3</speed>
</trkpt>
<trkpt lat="47.421123" lon="8.301051">
<ele>430.0</ele>
<time>2003-03-28T09:56:31Z</time>
<speed>1.6</speed>
</trkpt>
<trkpt lat="47.421194" lon="8.301052">
<ele>428.2</ele>
<time>2003-03-28T09:56:36Z</time>
<speed>1.7</speed>
</trkpt>
<trkpt lat="47.421267" lon="8.301009">
<ele>428.9</ele>
<time>2003-03-28T09:56:41Z</time>
<speed>1.4</speed>
</trkpt>
<trkpt lat="47.421304" lon="8.300934">
<ele>429.1</ele>
<time>2003-03-28T09:56:46Z</time>
<speed>1.4</speed>
</trkpt>
<trkpt lat="47.421317" lon="8.300842">
<ele>429.2</ele>
<time>2003-03-28T09:56:51Z</time>
<speed>1.3</speed>
</trkpt>
<trkpt lat="47.421342" lon="8.300767">
<ele>428.0</ele>
<time>2003-03-28T09:56:56Z</time>
<speed>1.2</speed>
</trkpt>
<trkpt lat="47.421378" lon="8.300705">
<ele>428.4</ele>
<time>2003-03-28T09:57:01Z</time>
<speed>1.3</speed>
</trkpt>
<trkpt lat="47.421403" lon="8.300629">
<ele>428.6</ele>
<time>2003-03-28T09:57:06Z</time>
<speed>1.2</speed>
</trkpt>
<trkpt lat="47.421421" lon="8.300552">
<ele>428.1</ele>
<time>2003-03-28T09:57:11Z</time>
<speed>1.2</speed>
</trkpt>
<trkpt lat="47.421427" lon="8.300473">
<ele>427.5</ele>
<time>2003-03-28T09:57:16Z</time>
<speed>1.2</speed>
</trkpt>
<trkpt lat="47.421433" lon="8.300395">
<ele>426.9</ele>
<time>2003-03-28T09:57:21Z</time>
<speed>1.3</speed>
</trkpt>
<trkpt lat="47.421419" lon="8.300312">
<ele>426.9</ele>
<time>2003-03-28T09:57:26Z</time>
<speed>1.2</speed>
</trkpt>
<trkpt lat="47.421418" lon="8.300231">
<ele>427.0</ele>
<time>2003-03-28T09:57:31Z</time>
<speed>1.4</speed>
</trkpt>
<trkpt lat="47.421412" lon="8.300138">
<ele>426.3</ele>
<time>2003-03-28T09:57:36Z</time>
<speed>1.2</speed>
</trkpt>
<trkpt lat="47.421406" lon="8.300057">
<ele>425.6</ele>
<time>2003-03-28T09:57:41Z</time>
<speed>1.3</speed>
</trkpt>
<trkpt lat="47.421392" lon="8.299975">
<ele>425.6</ele>
<time>2003-03-28T09:57:46Z</time>
<speed>1.3</speed>
</trkpt>
<trkpt lat="47.421379" lon="8.299892">
<ele>425.6</ele>
<time>2003-03-28T09:57:51Z</time>
<speed>1.3</speed>
</trkpt>
<trkpt lat="47.421359" lon="8.299810">
<ele>424.9</ele>
<time>2003-03-28T09:57:56Z</time>
<speed>1.4</speed>
</trkpt>
<trkpt lat="47.421339" lon="8.299725">
<ele>425.6</ele>
<time>2003-03-28T09:58:01Z</time>
<speed>1.5</speed>
</trkpt>
<trkpt lat="47.421327" lon="8.299630">
<ele>425.5</ele>
<time>2003-03-28T09:58:06Z</time>
<speed>1.2</speed>
</trkpt>
<trkpt lat="47.421306" lon="8.299558">
<ele>426.3</ele>
<time>2003-03-28T09:58:11Z</time>
<speed>1.1</speed>
</trkpt>
<trkpt lat="47.421285" lon="8.299489">
<ele>425.7</ele>
<time>2003-03-28T09:58:16Z</time>
<speed>1.2</speed>
</trkpt>
<trkpt lat="47.421258" lon="8.299418">
<ele>425.7</ele>
<time>2003-03-28T09:58:21Z</time>
<speed>1.5</speed>
</trkpt>
<trkpt lat="47.421225" lon="8.299331">
<ele>426.4</ele>
<time>2003-03-28T09:58:26Z</time>
<speed>1.2</speed>
</trkpt>
<trkpt lat="47.421191" lon="8.299273">
<ele>425.8</ele>
<time>2003-03-28T09:58:31Z</time>
<speed>1.4</speed>
</trkpt>
<trkpt lat="47.421152" lon="8.299200">
<ele>425.7</ele>
<time>2003-03-28T09:58:36Z</time>
<speed>1.2</speed>
</trkpt>
<trkpt lat="47.421118" lon="8.299142">
<ele>425.2</ele>
<time>2003-03-28T09:58:41Z</time>
<speed>1.4</speed>
</trkpt>
<trkpt lat="47.421083" lon="8.299067">
<ele>427.3</ele>
<time>2003-03-28T09:58:46Z</time>
<speed>1.2</speed>
</trkpt>
<trkpt lat="47.421056" lon="8.298995">
<ele>427.3</ele>
<time>2003-03-28T09:58:51Z</time>
<speed>1.5</speed>
</trkpt>
<trkpt lat="47.421018" lon="8.298909">
<ele>427.2</ele>
<time>2003-03-28T09:58:56Z</time>
<speed>1.2</speed>
</trkpt>
<trkpt lat="47.420997" lon="8.298838">
<ele>428.0</ele>
<time>2003-03-28T09:59:01Z</time>
<speed>1.3</speed>
</trkpt>
<trkpt lat="47.420977" lon="8.298755">
<ele>427.3</ele>
<time>2003-03-28T09:59:06Z</time>
<speed>1.3</speed>
</trkpt>
<trkpt lat="47.420957" lon="8.298671">
<ele>428.0</ele>
<time>2003-03-28T09:59:11Z</time>
<speed>1.1</speed>
</trkpt>
<trkpt lat="47.420937" lon="8.298601">
<ele>427.3</ele>
<time>2003-03-28T09:59:16Z</time>
<speed>1.2</speed>
</trkpt>
<trkpt lat="47.420924" lon="8.298521">
<ele>425.9</ele>
<time>2003-03-28T09:59:21Z</time>
<speed>1.3</speed>
</trkpt>
<trkpt lat="47.420910" lon="8.298438">
<ele>426.0</ele>
<time>2003-03-28T09:59:26Z</time>
<speed>1.3</speed>
</trkpt>
<trkpt lat="47.420897" lon="8.298356">
<ele>426.0</ele>
<time>2003-03-28T09:59:31Z</time>
<speed>1.2</speed>
</trkpt>
<trkpt lat="47.420896" lon="8.298275">
<ele>426.1</ele>
<time>2003-03-28T09:59:36Z</time>
<speed>1.0</speed>
</trkpt>
<trkpt lat="47.420894" lon="8.298206">
<ele>427.6</ele>
<time>2003-03-28T09:59:41Z</time>
<speed>1.3</speed>
</trkpt>
<trkpt lat="47.420886" lon="8.298123">
<ele>428.4</ele>
<time>2003-03-28T09:59:46Z</time>
<speed>0.6</speed>
</trkpt>
<trkpt lat="47.420883" lon="8.298084">
<ele>427.4</ele>
<time>2003-03-28T09:59:51Z</time>
<speed>1.2</speed>
</trkpt>
<trkpt lat="47.420882" lon="8.298003">
<ele>427.5</ele>
<time>2003-03-28T09:59:56Z</time>
<speed>1.5</speed>
</trkpt>
<trkpt lat="47.420870" lon="8.297908">
<ele>427.4</ele>
<time>2003-03-28T10:00:01Z</time>
<speed>1.5</speed>
</trkpt>
<trkpt lat="47.420863" lon="8.297812">
<ele>428.0</ele>
<time>2003-03-28T10:00:06Z</time>
<speed>1.5</speed>
</trkpt>
<trkpt lat="47.420851" lon="8.297716">
<ele>428.0</ele>
<time>2003-03-28T10:00:11Z</time>
<speed>1.3</speed>
</trkpt>
<trkpt lat="47.420837" lon="8.297634">
<ele>428.0</ele>
<time>2003-03-28T10:00:16Z</time>
<speed>1.2</speed>
</trkpt>
<trkpt lat="47.420831" lon="8.297553">
<ele>427.3</ele>
<time>2003-03-28T10:00:21Z</time>
<speed>1.2</speed>
</trkpt>
<trkpt lat="47.420830" lon="8.297473">
<ele>427.4</ele>
<time>2003-03-28T10:00:26Z</time>
<speed>1.3</speed>
</trkpt>
<trkpt lat="47.420816" lon="8.297390">
<ele>427.4</ele>
<time>2003-03-28T10:00:31Z</time>
<speed>1.4</speed>
</trkpt>
<trkpt lat="47.420790" lon="8.297306">
<ele>427.4</ele>
<time>2003-03-28T10:00:36Z</time>
<speed>1.1</speed>
</trkpt>
<trkpt lat="47.420776" lon="8.297236">
<ele>427.5</ele>
<time>2003-03-28T10:00:41Z</time>
<speed>1.2</speed>
</trkpt>
<trkpt lat="47.420769" lon="8.297156">
<ele>426.8</ele>
<time>2003-03-28T10:00:46Z</time>
<speed>1.1</speed>
</trkpt>
<trkpt lat="47.420748" lon="8.297087">
<ele>426.2</ele>
<time>2003-03-28T10:00:51Z</time>
<speed>1.5</speed>
</trkpt>
<trkpt lat="47.420742" lon="8.296991">
<ele>426.9</ele>
<time>2003-03-28T10:00:56Z</time>
<speed>1.5</speed>
</trkpt>
<trkpt lat="47.420729" lon="8.296895">
<ele>426.8</ele>
<time>2003-03-28T10:01:01Z</time>
<speed>1.4</speed>
</trkpt>
<trkpt lat="47.420703" lon="8.296811">
<ele>426.7</ele>
<time>2003-03-28T10:01:06Z</time>
<speed>1.4</speed>
</trkpt>
<trkpt lat="47.420683" lon="8.296726">
<ele>427.4</ele>
<time>2003-03-28T10:01:11Z</time>
<speed>1.3</speed>
</trkpt>
<trkpt lat="47.420663" lon="8.296642">
<ele>428.1</ele>
<time>2003-03-28T10:01:16Z</time>
<speed>1.3</speed>
</trkpt>
<trkpt lat="47.420644" lon="8.296560">
<ele>427.4</ele>
<time>2003-03-28T10:01:21Z</time>
<speed>1.1</speed>
</trkpt>
<trkpt lat="47.420635" lon="8.296490">
<ele>428.2</ele>
<time>2003-03-28T10:01:26Z</time>
<speed>1.3</speed>
</trkpt>
<trkpt lat="47.420616" lon="8.296408">
<ele>427.5</ele>
<time>2003-03-28T10:01:31Z</time>
<speed>1.6</speed>
</trkpt>
<trkpt lat="47.420591" lon="8.296310">
<ele>427.4</ele>
<time>2003-03-28T10:01:36Z</time>
<speed>1.2</speed>
</trkpt>
<trkpt lat="47.420583" lon="8.296228">
<ele>428.1</ele>
<time>2003-03-28T10:01:41Z</time>
<speed>1.2</speed>
</trkpt>
<trkpt lat="47.420562" lon="8.296156">
<ele>428.9</ele>
<time>2003-03-28T10:01:46Z</time>
<speed>1.3</speed>
</trkpt>
<trkpt lat="47.420543" lon="8.296074">
<ele>428.2</ele>
<time>2003-03-28T10:01:51Z</time>
<speed>1.1</speed>
</trkpt>
<trkpt lat="47.420528" lon="8.296004">
<ele>428.3</ele>
<time>2003-03-28T10:01:56Z</time>
<speed>1.3</speed>
</trkpt>
<trkpt lat="47.420508" lon="8.295920">
<ele>429.0</ele>
<time>2003-03-28T10:02:01Z</time>
<speed>1.3</speed>
</trkpt>
<trkpt lat="47.420488" lon="8.295836">
<ele>429.7</ele>
<time>2003-03-28T10:02:06Z</time>
<speed>1.1</speed>
</trkpt>
<trkpt lat="47.420474" lon="8.295768">
<ele>428.4</ele>
<time>2003-03-28T10:02:11Z</time>
<speed>1.3</speed>
</trkpt>
<trkpt lat="47.420454" lon="8.295684">
<ele>429.1</ele>
<time>2003-03-28T10:02:16Z</time>
<speed>1.1</speed>
</trkpt>
<trkpt lat="47.420434" lon="8.295614">
<ele>428.4</ele>
<time>2003-03-28T10:02:21Z</time>
<speed>1.2</speed>
</trkpt>
<trkpt lat="47.420427" lon="8.295532">
<ele>429.2</ele>
<time>2003-03-28T10:02:26Z</time>
<speed>1.2</speed>
</trkpt>
<trkpt lat="47.420420" lon="8.295451">
<ele>428.5</ele>
<time>2003-03-28T10:02:31Z</time>
<speed>1.4</speed>
</trkpt>
<trkpt lat="47.420414" lon="8.295358">
<ele>427.8</ele>
<time>2003-03-28T10:02:36Z</time>
<speed>1.4</speed>
</trkpt>
<trkpt lat="47.420420" lon="8.295264">
<ele>428.5</ele>
<time>2003-03-28T10:02:41Z</time>
<speed>1.3</speed>
</trkpt>
<trkpt lat="47.420413" lon="8.295181">
<ele>429.3</ele>
<time>2003-03-28T10:02:46Z</time>
<speed>1.4</speed>
</trkpt>
<trkpt lat="47.420426" lon="8.295091">
<ele>427.9</ele>
<time>2003-03-28T10:02:51Z</time>
<speed>1.2</speed>
</trkpt>
<trkpt lat="47.420438" lon="8.295013">
<ele>428.1</ele>
<time>2003-03-28T10:02:56Z</time>
<speed>1.2</speed>
</trkpt>
<trkpt lat="47.420456" lon="8.294936">
<ele>427.6</ele>
<time>2003-03-28T10:03:01Z</time>
<speed>1.6</speed>
</trkpt>
<trkpt lat="47.420494" lon="8.294848">
<ele>427.7</ele>
<time>2003-03-28T10:03:06Z</time>
<speed>1.1</speed>
</trkpt>
<trkpt lat="47.420517" lon="8.294782">
<ele>429.5</ele>
<time>2003-03-28T10:03:11Z</time>
<speed>1.4</speed>
</trkpt>
<trkpt lat="47.420555" lon="8.294710">
<ele>428.3</ele>
<time>2003-03-28T10:03:16Z</time>
<speed>1.1</speed>
</trkpt>
<trkpt lat="47.420585" lon="8.294648">
<ele>428.0</ele>
<time>2003-03-28T10:03:21Z</time>
<speed>1.2</speed>
</trkpt>
<trkpt lat="47.420604" lon="8.294573">
<ele>426.1</ele>
<time>2003-03-28T10:03:26Z</time>
<speed>1.2</speed>
</trkpt>
<trkpt lat="47.420621" lon="8.294494">
<ele>426.9</ele>
<time>2003-03-28T10:03:31Z</time>
<speed>1.3</speed>
</trkpt>
<trkpt lat="47.420646" lon="8.294419">
<ele>425.8</ele>
<time>2003-03-28T10:03:36Z</time>
<speed>1.3</speed>
</trkpt>
<trkpt lat="47.420671" lon="8.294343">
<ele>426.0</ele>
<time>2003-03-28T10:03:41Z</time>
<speed>1.3</speed>
</trkpt>
<trkpt lat="47.420695" lon="8.294266">
<ele>426.2</ele>
<time>2003-03-28T10:03:46Z</time>
<speed>1.3</speed>
</trkpt>
<trkpt lat="47.420720" lon="8.294189">
<ele>426.4</ele>
<time>2003-03-28T10:03:51Z</time>
<speed>1.3</speed>
</trkpt>
<trkpt lat="47.420751" lon="8.294114">
<ele>426.0</ele>
<time>2003-03-28T10:03:56Z</time>
<speed>1.2</speed>
</trkpt>
<trkpt lat="47.420769" lon="8.294036">
<ele>426.8</ele>
<time>2003-03-28T10:04:01Z</time>
<speed>1.1</speed>
</trkpt>
<trkpt lat="47.420792" lon="8.293972">
<ele>427.2</ele>
<time>2003-03-28T10:04:06Z</time>
<speed>1.3</speed>
</trkpt>
<trkpt lat="47.420823" lon="8.293897">
<ele>426.7</ele>
<time>2003-03-28T10:04:11Z</time>
<speed>1.3</speed>
</trkpt>
<trkpt lat="47.420848" lon="8.293820">
<ele>426.9</ele>
<time>2003-03-28T10:04:16Z</time>
<speed>1.4</speed>
</trkpt>
<trkpt lat="47.420866" lon="8.293728">
<ele>427.7</ele>
<time>2003-03-28T10:04:21Z</time>
<speed>1.2</speed>
</trkpt>
<trkpt lat="47.420885" lon="8.293652">
<ele>427.2</ele>
<time>2003-03-28T10:04:26Z</time>
<speed>1.3</speed>
</trkpt>
<trkpt lat="47.420909" lon="8.293575">
<ele>427.4</ele>
<time>2003-03-28T10:04:31Z</time>
<speed>1.3</speed>
</trkpt>
<trkpt lat="47.420934" lon="8.293500">
<ele>426.2</ele>
<time>2003-03-28T10:04:36Z</time>
<speed>1.1</speed>
</trkpt>
<trkpt lat="47.420958" lon="8.293436">
<ele>426.5</ele>
<time>2003-03-28T10:04:41Z</time>
<speed>1.2</speed>
</trkpt>
<trkpt lat="47.420976" lon="8.293358">
<ele>427.4</ele>
<time>2003-03-28T10:04:46Z</time>
<speed>1.1</speed>
</trkpt>
<trkpt lat="47.420999" lon="8.293294">
<ele>427.7</ele>
<time>2003-03-28T10:04:51Z</time>
<speed>1.4</speed>
</trkpt>
<trkpt lat="47.421018" lon="8.293204">
<ele>427.1</ele>
<time>2003-03-28T10:04:56Z</time>
<speed>1.1</speed>
</trkpt>
<trkpt lat="47.421048" lon="8.293142">
<ele>426.8</ele>
<time>2003-03-28T10:05:01Z</time>
<speed>1.3</speed>
</trkpt>
<trkpt lat="47.421073" lon="8.293066">
<ele>427.0</ele>
<time>2003-03-28T10:05:06Z</time>
<speed>1.2</speed>
</trkpt>
<trkpt lat="47.421091" lon="8.292989">
<ele>426.5</ele>
<time>2003-03-28T10:05:11Z</time>
<speed>1.1</speed>
</trkpt>
<trkpt lat="47.421121" lon="8.292927">
<ele>426.1</ele>
<time>2003-03-28T10:05:16Z</time>
<speed>1.1</speed>
</trkpt>
<trkpt lat="47.421145" lon="8.292864">
<ele>426.4</ele>
<time>2003-03-28T10:05:21Z</time>
<speed>1.3</speed>
</trkpt>
<trkpt lat="47.421170" lon="8.292789">
<ele>425.2</ele>
<time>2003-03-28T10:05:26Z</time>
<speed>1.4</speed>
</trkpt>
<trkpt lat="47.421219" lon="8.292729">
<ele>425.7</ele>
<time>2003-03-28T10:05:31Z</time>
<speed>1.3</speed>
</trkpt>
<trkpt lat="47.421261" lon="8.292667">
<ele>426.8</ele>
<time>2003-03-28T10:05:36Z</time>
<speed>1.4</speed>
</trkpt>
<trkpt lat="47.421310" lon="8.292607">
<ele>427.3</ele>
<time>2003-03-28T10:05:41Z</time>
<speed>1.4</speed>
</trkpt>
<trkpt lat="47.421358" lon="8.292547">
<ele>427.7</ele>
<time>2003-03-28T10:05:46Z</time>
<speed>1.2</speed>
</trkpt>
<trkpt lat="47.421394" lon="8.292486">
<ele>428.1</ele>
<time>2003-03-28T10:05:51Z</time>
<speed>1.3</speed>
</trkpt>
<trkpt lat="47.421437" lon="8.292426">
<ele>427.8</ele>
<time>2003-03-28T10:05:56Z</time>
<speed>1.2</speed>
</trkpt>
<trkpt lat="47.421479" lon="8.292379">
<ele>427.6</ele>
<time>2003-03-28T10:06:01Z</time>
<speed>1.3</speed>
</trkpt>
<trkpt lat="47.421510" lon="8.292304">
<ele>427.2</ele>
<time>2003-03-28T10:06:06Z</time>
<speed>1.2</speed>
</trkpt>
<trkpt lat="47.421546" lon="8.292243">
<ele>427.5</ele>
<time>2003-03-28T10:06:11Z</time>
<speed>1.4</speed>
</trkpt>
<trkpt lat="47.421559" lon="8.292151">
<ele>427.6</ele>
<time>2003-03-28T10:06:16Z</time>
<speed>1.3</speed>
</trkpt>
<trkpt lat="47.421590" lon="8.292076">
<ele>427.1</ele>
<time>2003-03-28T10:06:21Z</time>
<speed>1.1</speed>
</trkpt>
<trkpt lat="47.421620" lon="8.292014">
<ele>426.8</ele>
<time>2003-03-28T10:06:26Z</time>
<speed>1.3</speed>
</trkpt>
<trkpt lat="47.421644" lon="8.291937">
<ele>427.0</ele>
<time>2003-03-28T10:06:31Z</time>
<speed>1.3</speed>
</trkpt>
<trkpt lat="47.421675" lon="8.291863">
<ele>426.6</ele>
<time>2003-03-28T10:06:36Z</time>
<speed>1.1</speed>
</trkpt>
<trkpt lat="47.421699" lon="8.291801">
<ele>425.5</ele>
<time>2003-03-28T10:06:41Z</time>
<speed>1.3</speed>
</trkpt>
<trkpt lat="47.421724" lon="8.291724">
<ele>425.7</ele>
<time>2003-03-28T10:06:46Z</time>
<speed>1.3</speed>
</trkpt>
<trkpt lat="47.421766" lon="8.291664">
<ele>425.4</ele>
<time>2003-03-28T10:06:51Z</time>
<speed>1.2</speed>
</trkpt>
<trkpt lat="47.421803" lon="8.291604">
<ele>424.4</ele>
<time>2003-03-28T10:06:56Z</time>
<speed>1.3</speed>
</trkpt>
<trkpt lat="47.421851" lon="8.291558">
<ele>424.9</ele>
<time>2003-03-28T10:07:01Z</time>
<speed>1.2</speed>
</trkpt>
<trkpt lat="47.421887" lon="8.291496">
<ele>425.3</ele>
<time>2003-03-28T10:07:06Z</time>
<speed>1.2</speed>
</trkpt>
<trkpt lat="47.421934" lon="8.291462">
<ele>425.9</ele>
<time>2003-03-28T10:07:11Z</time>
<speed>1.2</speed>
</trkpt>
<trkpt lat="47.421976" lon="8.291416">
<ele>425.8</ele>
<time>2003-03-28T10:07:16Z</time>
<speed>1.2</speed>
</trkpt>
<trkpt lat="47.422023" lon="8.291382">
<ele>426.4</ele>
<time>2003-03-28T10:07:21Z</time>
<speed>1.0</speed>
</trkpt>
<trkpt lat="47.422063" lon="8.291348">
<ele>426.3</ele>
<time>2003-03-28T10:07:26Z</time>
<speed>1.2</speed>
</trkpt>
<trkpt lat="47.422105" lon="8.291302">
<ele>426.1</ele>
<time>2003-03-28T10:07:31Z</time>
<speed>1.3</speed>
</trkpt>
<trkpt lat="47.422148" lon="8.291242">
<ele>425.8</ele>
<time>2003-03-28T10:07:36Z</time>
<speed>1.4</speed>
</trkpt>
<trkpt lat="47.422202" lon="8.291197">
<ele>425.7</ele>
<time>2003-03-28T10:07:41Z</time>
<speed>1.4</speed>
</trkpt>
<trkpt lat="47.422251" lon="8.291137">
<ele>426.2</ele>
<time>2003-03-28T10:07:46Z</time>
<speed>1.2</speed>
</trkpt>
<trkpt lat="47.422293" lon="8.291090">
<ele>426.0</ele>
<time>2003-03-28T10:07:51Z</time>
<speed>1.3</speed>
</trkpt>
<trkpt lat="47.422335" lon="8.291031">
<ele>425.7</ele>
<time>2003-03-28T10:07:56Z</time>
<speed>1.4</speed>
</trkpt>
<trkpt lat="47.422372" lon="8.290956">
<ele>426.0</ele>
<time>2003-03-28T10:08:01Z</time>
<speed>1.3</speed>
</trkpt>
<trkpt lat="47.422415" lon="8.290896">
<ele>425.7</ele>
<time>2003-03-28T10:08:06Z</time>
<speed>1.3</speed>
</trkpt>
<trkpt lat="47.422458" lon="8.290836">
<ele>425.4</ele>
<time>2003-03-28T10:08:11Z</time>
<speed>1.1</speed>
</trkpt>
<trkpt lat="47.422488" lon="8.290774">
<ele>425.0</ele>
<time>2003-03-28T10:08:16Z</time>
<speed>1.3</speed>
</trkpt>
<trkpt lat="47.422531" lon="8.290714">
<ele>424.7</ele>
<time>2003-03-28T10:08:21Z</time>
<speed>1.4</speed>
</trkpt>
<trkpt lat="47.422579" lon="8.290655">
<ele>425.2</ele>
<time>2003-03-28T10:08:26Z</time>
<speed>1.3</speed>
</trkpt>
<trkpt lat="47.422622" lon="8.290593">
<ele>426.3</ele>
<time>2003-03-28T10:08:31Z</time>
<speed>1.3</speed>
</trkpt>
<trkpt lat="47.422664" lon="8.290533">
<ele>426.0</ele>
<time>2003-03-28T10:08:36Z</time>
<speed>1.2</speed>
</trkpt>
<trkpt lat="47.422706" lon="8.290486">
<ele>425.8</ele>
<time>2003-03-28T10:08:41Z</time>
<speed>1.2</speed>
</trkpt>
<trkpt lat="47.422742" lon="8.290425">
<ele>426.2</ele>
<time>2003-03-28T10:08:46Z</time>
<speed>1.3</speed>
</trkpt>
<trkpt lat="47.422785" lon="8.290365">
<ele>425.9</ele>
<time>2003-03-28T10:08:51Z</time>
<speed>1.4</speed>
</trkpt>
<trkpt lat="47.422834" lon="8.290305">
<ele>426.4</ele>
<time>2003-03-28T10:08:56Z</time>
<speed>1.2</speed>
</trkpt>
<trkpt lat="47.422875" lon="8.290258">
<ele>426.2</ele>
<time>2003-03-28T10:09:01Z</time>
<speed>1.4</speed>
</trkpt>
<trkpt lat="47.422924" lon="8.290198">
<ele>426.6</ele>
<time>2003-03-28T10:09:06Z</time>
<speed>1.3</speed>
</trkpt>
<trkpt lat="47.422967" lon="8.290139">
<ele>426.4</ele>
<time>2003-03-28T10:09:11Z</time>
<speed>1.2</speed>
</trkpt>
<trkpt lat="47.423008" lon="8.290090">
<ele>427.6</ele>
<time>2003-03-28T10:09:16Z</time>
<speed>1.2</speed>
</trkpt>
<trkpt lat="47.423050" lon="8.290043">
<ele>427.4</ele>
<time>2003-03-28T10:09:21Z</time>
<speed>1.3</speed>
</trkpt>
<trkpt lat="47.423098" lon="8.289996">
<ele>427.9</ele>
<time>2003-03-28T10:09:26Z</time>
<speed>1.3</speed>
</trkpt>
<trkpt lat="47.423145" lon="8.289950">
<ele>428.5</ele>
<time>2003-03-28T10:09:31Z</time>
<speed>1.7</speed>
</trkpt>
<trkpt lat="47.423202" lon="8.289879">
<ele>428.2</ele>
<time>2003-03-28T10:09:36Z</time>
<speed>1.2</speed>
</trkpt>
<trkpt lat="47.423238" lon="8.289819">
<ele>427.1</ele>
<time>2003-03-28T10:09:41Z</time>
<speed>1.2</speed>
</trkpt>
<trkpt lat="47.423274" lon="8.289757">
<ele>427.5</ele>
<time>2003-03-28T10:09:46Z</time>
<speed>1.3</speed>
</trkpt>
<trkpt lat="47.423323" lon="8.289712">
<ele>426.7</ele>
<time>2003-03-28T10:09:51Z</time>
<speed>1.5</speed>
</trkpt>
<trkpt lat="47.423378" lon="8.289654">
<ele>426.4</ele>
<time>2003-03-28T10:09:56Z</time>
<speed>1.2</speed>
</trkpt>
<trkpt lat="47.423414" lon="8.289593">
<ele>426.8</ele>
<time>2003-03-28T10:10:01Z</time>
<speed>1.2</speed>
</trkpt>
<trkpt lat="47.423451" lon="8.289533">
<ele>425.8</ele>
<time>2003-03-28T10:10:06Z</time>
<speed>1.3</speed>
</trkpt>
<trkpt lat="47.423499" lon="8.289486">
<ele>426.3</ele>
<time>2003-03-28T10:10:11Z</time>
<speed>1.1</speed>
</trkpt>
<trkpt lat="47.423529" lon="8.289424">
<ele>426.0</ele>
<time>2003-03-28T10:10:16Z</time>
<speed>1.3</speed>
</trkpt>
<trkpt lat="47.423571" lon="8.289364">
<ele>425.7</ele>
<time>2003-03-28T10:10:21Z</time>
<speed>1.3</speed>
</trkpt>
<trkpt lat="47.423614" lon="8.289305">
<ele>425.4</ele>
<time>2003-03-28T10:10:26Z</time>
<speed>1.4</speed>
</trkpt>
<trkpt lat="47.423663" lon="8.289245">
<ele>425.9</ele>
<time>2003-03-28T10:10:31Z</time>
<speed>1.2</speed>
</trkpt>
<trkpt lat="47.423699" lon="8.289185">
<ele>424.8</ele>
<time>2003-03-28T10:10:36Z</time>
<speed>1.2</speed>
</trkpt>
<trkpt lat="47.423741" lon="8.289138">
<ele>424.7</ele>
<time>2003-03-28T10:10:41Z</time>
<speed>1.0</speed>
</trkpt>
<trkpt lat="47.423782" lon="8.289105">
<ele>424.6</ele>
<time>2003-03-28T10:10:46Z</time>
<speed>1.0</speed>
</trkpt>
<trkpt lat="47.423811" lon="8.289056">
<ele>424.3</ele>
<time>2003-03-28T10:10:51Z</time>
<speed>1.0</speed>
</trkpt>
<trkpt lat="47.423840" lon="8.289007">
<ele>424.0</ele>
<time>2003-03-28T10:10:56Z</time>
<speed>1.1</speed>
</trkpt>
<trkpt lat="47.423875" lon="8.288959">
<ele>424.5</ele>
<time>2003-03-28T10:11:01Z</time>
<speed>1.3</speed>
</trkpt>
<trkpt lat="47.423924" lon="8.288914">
<ele>423.7</ele>
<time>2003-03-28T10:11:06Z</time>
<speed>1.3</speed>
</trkpt>
<trkpt lat="47.423911" lon="8.288833">
<ele>422.3</ele>
<time>2003-03-28T10:11:11Z</time>
<speed>1.4</speed>
</trkpt>
<trkpt lat="47.423884" lon="8.288749">
<ele>422.2</ele>
<time>2003-03-28T10:11:16Z</time>
<speed>1.4</speed>
</trkpt>
<trkpt lat="47.423858" lon="8.288664">
<ele>422.2</ele>
<time>2003-03-28T10:11:21Z</time>
<speed>1.3</speed>
</trkpt>
<trkpt lat="47.423845" lon="8.288582">
<ele>422.2</ele>
<time>2003-03-28T10:11:26Z</time>
<speed>1.3</speed>
</trkpt>
<trkpt lat="47.423831" lon="8.288499">
<ele>422.2</ele>
<time>2003-03-28T10:11:31Z</time>
<speed>1.2</speed>
</trkpt>
<trkpt lat="47.423831" lon="8.288419">
<ele>422.3</ele>
<time>2003-03-28T10:11:36Z</time>
<speed>1.5</speed>
</trkpt>
<trkpt lat="47.423818" lon="8.288323">
<ele>422.2</ele>
<time>2003-03-28T10:11:41Z</time>
<speed>1.3</speed>
</trkpt>
<trkpt lat="47.423805" lon="8.288241">
<ele>422.2</ele>
<time>2003-03-28T10:11:46Z</time>
<speed>1.3</speed>
</trkpt>
<trkpt lat="47.423791" lon="8.288158">
<ele>422.3</ele>
<time>2003-03-28T10:11:51Z</time>
<speed>1.5</speed>
</trkpt>
<trkpt lat="47.423779" lon="8.288063">
<ele>422.2</ele>
<time>2003-03-28T10:11:56Z</time>
<speed>1.2</speed>
</trkpt>
<trkpt lat="47.423778" lon="8.287982">
<ele>422.3</ele>
<time>2003-03-28T10:12:01Z</time>
<speed>1.2</speed>
</trkpt>
<trkpt lat="47.423777" lon="8.287901">
<ele>422.3</ele>
<time>2003-03-28T10:12:06Z</time>
<speed>1.2</speed>
</trkpt>
<trkpt lat="47.423776" lon="8.287821">
<ele>422.4</ele>
<time>2003-03-28T10:12:11Z</time>
<speed>1.4</speed>
</trkpt>
<trkpt lat="47.423783" lon="8.287729">
<ele>421.7</ele>
<time>2003-03-28T10:12:16Z</time>
<speed>1.2</speed>
</trkpt>
<trkpt lat="47.423788" lon="8.287648">
<ele>422.6</ele>
<time>2003-03-28T10:12:21Z</time>
<speed>1.4</speed>
</trkpt>
<trkpt lat="47.423782" lon="8.287555">
<ele>421.8</ele>
<time>2003-03-28T10:12:26Z</time>
<speed>1.2</speed>
</trkpt>
<trkpt lat="47.423787" lon="8.287474">
<ele>422.6</ele>
<time>2003-03-28T10:12:31Z</time>
<speed>1.1</speed>
</trkpt>
<trkpt lat="47.423779" lon="8.287405">
<ele>423.5</ele>
<time>2003-03-28T10:12:36Z</time>
<speed>0.2</speed>
</trkpt>
<trkpt lat="47.423774" lon="8.287392">
<ele>422.7</ele>
<time>2003-03-28T10:12:41Z</time>
<speed>0.0</speed>
</trkpt>
<trkpt lat="47.423774" lon="8.287392">
<ele>422.7</ele>
<time>2003-03-28T10:12:46Z</time>
<speed>0.0</speed>
</trkpt>
<trkpt lat="47.423774" lon="8.287392">
<ele>422.7</ele>
<time>2003-03-28T10:12:51Z</time>
<speed>0.0</speed>
</trkpt>
<trkpt lat="47.423774" lon="8.287392">
<ele>422.7</ele>
<time>2003-03-28T10:12:56Z</time>
<speed>0.0</speed>
</trkpt>
<trkpt lat="47.423774" lon="8.287392">
<ele>422.7</ele>
<time>2003-03-28T10:13:01Z</time>
<speed>0.1</speed>
</trkpt>
<trkpt lat="47.423780" lon="8.287392">
<ele>423.4</ele>
<time>2003-03-28T10:13:06Z</time>
<speed>0.0</speed>
</trkpt>
<trkpt lat="47.423780" lon="8.287392">
<ele>423.4</ele>
<time>2003-03-28T10:13:11Z</time>
<speed>0.2</speed>
</trkpt>
<trkpt lat="47.423781" lon="8.287378">
<ele>423.3</ele>
<time>2003-03-28T10:13:16Z</time>
<speed>0.7</speed>
</trkpt>
<trkpt lat="47.423796" lon="8.287339">
<ele>424.5</ele>
<time>2003-03-28T10:13:21Z</time>
<speed>1.3</speed>
</trkpt>
<trkpt lat="47.423850" lon="8.287309">
<ele>423.0</ele>
<time>2003-03-28T10:13:26Z</time>
<speed>1.2</speed>
</trkpt>
<trkpt lat="47.423902" lon="8.287291">
<ele>423.1</ele>
<time>2003-03-28T10:13:31Z</time>
<speed>1.1</speed>
</trkpt>
<trkpt lat="47.423949" lon="8.287272">
<ele>422.5</ele>
<time>2003-03-28T10:13:36Z</time>
<speed>1.5</speed>
</trkpt>
<trkpt lat="47.424015" lon="8.287242">
<ele>422.5</ele>
<time>2003-03-28T10:13:41Z</time>
<speed>1.7</speed>
</trkpt>
<trkpt lat="47.424087" lon="8.287213">
<ele>423.3</ele>
<time>2003-03-28T10:13:46Z</time>
<speed>1.6</speed>
</trkpt>
<trkpt lat="47.424154" lon="8.287170">
<ele>423.2</ele>
<time>2003-03-28T10:13:51Z</time>
<speed>1.5</speed>
</trkpt>
<trkpt lat="47.424220" lon="8.287140">
<ele>423.3</ele>
<time>2003-03-28T10:13:56Z</time>
<speed>1.3</speed>
</trkpt>
<trkpt lat="47.424273" lon="8.287108">
<ele>423.2</ele>
<time>2003-03-28T10:14:01Z</time>
<speed>1.3</speed>
</trkpt>
<trkpt lat="47.424327" lon="8.287076">
<ele>423.2</ele>
<time>2003-03-28T10:14:06Z</time>
<speed>1.1</speed>
</trkpt>
<trkpt lat="47.424374" lon="8.287045">
<ele>422.4</ele>
<time>2003-03-28T10:14:11Z</time>
<speed>1.5</speed>
</trkpt>
<trkpt lat="47.424435" lon="8.287000">
<ele>423.1</ele>
<time>2003-03-28T10:14:16Z</time>
<speed>1.3</speed>
</trkpt>
<trkpt lat="47.424483" lon="8.286955">
<ele>422.2</ele>
<time>2003-03-28T10:14:21Z</time>
<speed>1.3</speed>
</trkpt>
<trkpt lat="47.424536" lon="8.286923">
<ele>422.2</ele>
<time>2003-03-28T10:14:26Z</time>
<speed>1.2</speed>
</trkpt>
<trkpt lat="47.424578" lon="8.286877">
<ele>422.0</ele>
<time>2003-03-28T10:14:31Z</time>
<speed>1.3</speed>
</trkpt>
<trkpt lat="47.424632" lon="8.286845">
<ele>422.0</ele>
<time>2003-03-28T10:14:36Z</time>
<speed>1.6</speed>
</trkpt>
<trkpt lat="47.424699" lon="8.286802">
<ele>421.9</ele>
<time>2003-03-28T10:14:41Z</time>
<speed>1.4</speed>
</trkpt>
<trkpt lat="47.424753" lon="8.286757">
<ele>421.8</ele>
<time>2003-03-28T10:14:46Z</time>
<speed>1.4</speed>
</trkpt>
<trkpt lat="47.424807" lon="8.286712">
<ele>421.7</ele>
<time>2003-03-28T10:14:51Z</time>
<speed>1.4</speed>
</trkpt>
<trkpt lat="47.424862" lon="8.286668">
<ele>421.5</ele>
<time>2003-03-28T10:14:56Z</time>
<speed>1.5</speed>
</trkpt>
<trkpt lat="47.424917" lon="8.286610">
<ele>421.3</ele>
<time>2003-03-28T10:15:01Z</time>
<speed>1.5</speed>
</trkpt>
<trkpt lat="47.424961" lon="8.286537">
<ele>420.9</ele>
<time>2003-03-28T10:15:06Z</time>
<speed>1.3</speed>
</trkpt>
<trkpt lat="47.424992" lon="8.286462">
<ele>420.5</ele>
<time>2003-03-28T10:15:11Z</time>
<speed>1.5</speed>
</trkpt>
<trkpt lat="47.425017" lon="8.286372">
<ele>420.6</ele>
<time>2003-03-28T10:15:16Z</time>
<speed>1.3</speed>
</trkpt>
<trkpt lat="47.425042" lon="8.286295">
<ele>420.8</ele>
<time>2003-03-28T10:15:21Z</time>
<speed>1.3</speed>
</trkpt>
<trkpt lat="47.425066" lon="8.286218">
<ele>421.0</ele>
<time>2003-03-28T10:15:26Z</time>
<speed>1.4</speed>
</trkpt>
<trkpt lat="47.425091" lon="8.286129">
<ele>421.2</ele>
<time>2003-03-28T10:15:31Z</time>
<speed>1.3</speed>
</trkpt>
<trkpt lat="47.425122" lon="8.286054">
<ele>420.7</ele>
<time>2003-03-28T10:15:36Z</time>
<speed>1.3</speed>
</trkpt>
<trkpt lat="47.425147" lon="8.285977">
<ele>420.9</ele>
<time>2003-03-28T10:15:41Z</time>
<speed>1.2</speed>
</trkpt>
<trkpt lat="47.425165" lon="8.285900">
<ele>420.4</ele>
<time>2003-03-28T10:15:46Z</time>
<speed>1.5</speed>
</trkpt>
<trkpt lat="47.425191" lon="8.285810">
<ele>420.5</ele>
<time>2003-03-28T10:15:51Z</time>
<speed>1.3</speed>
</trkpt>
<trkpt lat="47.425222" lon="8.285735">
<ele>420.1</ele>
<time>2003-03-28T10:15:56Z</time>
<speed>1.3</speed>
</trkpt>
<trkpt lat="47.425253" lon="8.285661">
<ele>419.6</ele>
<time>2003-03-28T10:16:01Z</time>
<speed>1.3</speed>
</trkpt>
<trkpt lat="47.425271" lon="8.285582">
<ele>420.5</ele>
<time>2003-03-28T10:16:06Z</time>
<speed>1.2</speed>
</trkpt>
<trkpt lat="47.425295" lon="8.285507">
<ele>419.3</ele>
<time>2003-03-28T10:16:11Z</time>
<speed>1.2</speed>
</trkpt>
<trkpt lat="47.425314" lon="8.285430">
<ele>418.8</ele>
<time>2003-03-28T10:16:16Z</time>
<speed>1.3</speed>
</trkpt>
<trkpt lat="47.425344" lon="8.285353">
<ele>419.8</ele>
<time>2003-03-28T10:16:21Z</time>
<speed>1.2</speed>
</trkpt>
<trkpt lat="47.425369" lon="8.285279">
<ele>418.6</ele>
<time>2003-03-28T10:16:26Z</time>
<speed>1.1</speed>
</trkpt>
<trkpt lat="47.425393" lon="8.285215">
<ele>418.9</ele>
<time>2003-03-28T10:16:31Z</time>
<speed>1.3</speed>
</trkpt>
<trkpt lat="47.425424" lon="8.285140">
<ele>418.4</ele>
<time>2003-03-28T10:16:36Z</time>
<speed>1.2</speed>
</trkpt>
<trkpt lat="47.425453" lon="8.285076">
<ele>419.5</ele>
<time>2003-03-28T10:16:41Z</time>
<speed>1.6</speed>
</trkpt>
<trkpt lat="47.425491" lon="8.284988">
<ele>419.7</ele>
<time>2003-03-28T10:16:46Z</time>
<speed>1.3</speed>
</trkpt>
<trkpt lat="47.425522" lon="8.284912">
<ele>420.6</ele>
<time>2003-03-28T10:16:51Z</time>
<speed>1.3</speed>
</trkpt>
<trkpt lat="47.425553" lon="8.284837">
<ele>420.2</ele>
<time>2003-03-28T10:16:56Z</time>
<speed>1.5</speed>
</trkpt>
<trkpt lat="47.425596" lon="8.284762">
<ele>421.2</ele>
<time>2003-03-28T10:17:01Z</time>
<speed>1.3</speed>
</trkpt>
<trkpt lat="47.425621" lon="8.284685">
<ele>421.4</ele>
<time>2003-03-28T10:17:06Z</time>
<speed>1.2</speed>
</trkpt>
<trkpt lat="47.425645" lon="8.284610">
<ele>420.2</ele>
<time>2003-03-28T10:17:11Z</time>
<speed>1.3</speed>
</trkpt>
<trkpt lat="47.425676" lon="8.284533">
<ele>421.2</ele>
<time>2003-03-28T10:17:16Z</time>
<speed>1.3</speed>
</trkpt>
<trkpt lat="47.425707" lon="8.284459">
<ele>420.7</ele>
<time>2003-03-28T10:17:21Z</time>
<speed>1.3</speed>
</trkpt>
<trkpt lat="47.425732" lon="8.284384">
<ele>419.6</ele>
<time>2003-03-28T10:17:26Z</time>
<speed>1.4</speed>
</trkpt>
<trkpt lat="47.425751" lon="8.284294">
<ele>418.9</ele>
<time>2003-03-28T10:17:31Z</time>
<speed>1.0</speed>
</trkpt>
<trkpt lat="47.425769" lon="8.284230">
<ele>418.5</ele>
<time>2003-03-28T10:17:36Z</time>
<speed>1.4</speed>
</trkpt>
<trkpt lat="47.425787" lon="8.284138">
<ele>419.3</ele>
<time>2003-03-28T10:17:41Z</time>
<speed>1.2</speed>
</trkpt>
<trkpt lat="47.425806" lon="8.284062">
<ele>418.8</ele>
<time>2003-03-28T10:17:46Z</time>
<speed>1.2</speed>
</trkpt>
<trkpt lat="47.425818" lon="8.283983">
<ele>418.9</ele>
<time>2003-03-28T10:17:51Z</time>
<speed>1.2</speed>
</trkpt>
<trkpt lat="47.425836" lon="8.283906">
<ele>418.4</ele>
<time>2003-03-28T10:17:56Z</time>
<speed>1.4</speed>
</trkpt>
<trkpt lat="47.425849" lon="8.283814">
<ele>418.5</ele>
<time>2003-03-28T10:18:01Z</time>
<speed>1.4</speed>
</trkpt>
<trkpt lat="47.425868" lon="8.283724">
<ele>417.9</ele>
<time>2003-03-28T10:18:06Z</time>
<speed>1.4</speed>
</trkpt>
<trkpt lat="47.425881" lon="8.283633">
<ele>417.9</ele>
<time>2003-03-28T10:18:11Z</time>
<speed>1.3</speed>
</trkpt>
<trkpt lat="47.425905" lon="8.283556">
<ele>418.1</ele>
<time>2003-03-28T10:18:16Z</time>
<speed>0.8</speed>
</trkpt>
<trkpt lat="47.425939" lon="8.283533">
<ele>418.8</ele>
<time>2003-03-28T10:18:21Z</time>
<speed>1.2</speed>
</trkpt>
<trkpt lat="47.425987" lon="8.283567">
<ele>419.3</ele>
<time>2003-03-28T10:18:26Z</time>
<speed>1.1</speed>
</trkpt>
<trkpt lat="47.426030" lon="8.283601">
<ele>419.0</ele>
<time>2003-03-28T10:18:31Z</time>
<speed>1.3</speed>
</trkpt>
<trkpt lat="47.426085" lon="8.283635">
<ele>420.2</ele>
<time>2003-03-28T10:18:36Z</time>
<speed>1.4</speed>
</trkpt>
<trkpt lat="47.426147" lon="8.283658">
<ele>420.6</ele>
<time>2003-03-28T10:18:41Z</time>
<speed>1.5</speed>
</trkpt>
<trkpt lat="47.426215" lon="8.283680">
<ele>421.8</ele>
<time>2003-03-28T10:18:46Z</time>
<speed>1.1</speed>
</trkpt>
<trkpt lat="47.426266" lon="8.283690">
<ele>420.7</ele>
<time>2003-03-28T10:18:51Z</time>
<speed>1.3</speed>
</trkpt>
<trkpt lat="47.426322" lon="8.283713">
<ele>420.4</ele>
<time>2003-03-28T10:18:56Z</time>
<speed>0.9</speed>
</trkpt>
<trkpt lat="47.426359" lon="8.283731">
<ele>420.7</ele>
<time>2003-03-28T10:19:01Z</time>
<speed>1.3</speed>
</trkpt>
<trkpt lat="47.426416" lon="8.283741">
<ele>420.3</ele>
<time>2003-03-28T10:19:06Z</time>
<speed>1.4</speed>
</trkpt>
<trkpt lat="47.426480" lon="8.283752">
<ele>419.2</ele>
<time>2003-03-28T10:19:11Z</time>
<speed>1.0</speed>
</trkpt>
<trkpt lat="47.426525" lon="8.283747">
<ele>418.6</ele>
<time>2003-03-28T10:19:16Z</time>
<speed>1.2</speed>
</trkpt>
<trkpt lat="47.426575" lon="8.283768">
<ele>419.0</ele>
<time>2003-03-28T10:19:21Z</time>
<speed>1.7</speed>
</trkpt>
<trkpt lat="47.426652" lon="8.283768">
<ele>417.9</ele>
<time>2003-03-28T10:19:26Z</time>
<speed>1.4</speed>
</trkpt>
<trkpt lat="47.426715" lon="8.283792">
<ele>416.9</ele>
<time>2003-03-28T10:19:31Z</time>
<speed>1.4</speed>
</trkpt>
<trkpt lat="47.426777" lon="8.283815">
<ele>417.3</ele>
<time>2003-03-28T10:19:36Z</time>
<speed>1.6</speed>
</trkpt>
<trkpt lat="47.426847" lon="8.283827">
<ele>417.0</ele>
<time>2003-03-28T10:19:41Z</time>
<speed>1.1</speed>
</trkpt>
<trkpt lat="47.426898" lon="8.283836">
<ele>415.9</ele>
<time>2003-03-28T10:19:46Z</time>
<speed>1.0</speed>
</trkpt>
<trkpt lat="47.426942" lon="8.283857">
<ele>415.5</ele>
<time>2003-03-28T10:19:51Z</time>
<speed>1.3</speed>
</trkpt>
<trkpt lat="47.426997" lon="8.283878">
<ele>416.6</ele>
<time>2003-03-28T10:19:56Z</time>
<speed>0.6</speed>
</trkpt>
<trkpt lat="47.427023" lon="8.283868">
<ele>416.6</ele>
<time>2003-03-28T10:20:01Z</time>
<speed>1.4</speed>
</trkpt>
<trkpt lat="47.427083" lon="8.283839">
<ele>415.9</ele>
<time>2003-03-28T10:20:06Z</time>
<speed>0.9</speed>
</trkpt>
<trkpt lat="47.427123" lon="8.283818">
<ele>415.9</ele>
<time>2003-03-28T10:20:11Z</time>
<speed>0.3</speed>
</trkpt>
<trkpt lat="47.427136" lon="8.283820">
<ele>416.0</ele>
<time>2003-03-28T10:20:16Z</time>
<speed>0.0</speed>
</trkpt>
<trkpt lat="47.427136" lon="8.283820">
<ele>416.0</ele>
<time>2003-03-28T10:20:21Z</time>
<speed>0.0</speed>
</trkpt>
<trkpt lat="47.427136" lon="8.283820">
<ele>416.0</ele>
<time>2003-03-28T10:20:26Z</time>
<speed>0.0</speed>
</trkpt>
<trkpt lat="47.427136" lon="8.283820">
<ele>416.0</ele>
<time>2003-03-28T10:20:31Z</time>
<speed>0.1</speed>
</trkpt>
<trkpt lat="47.427142" lon="8.283822">
<ele>415.3</ele>
<time>2003-03-28T10:20:36Z</time>
<speed>0.0</speed>
</trkpt>
<trkpt lat="47.427142" lon="8.283822">
<ele>415.3</ele>
<time>2003-03-28T10:20:41Z</time>
<speed>0.1</speed>
</trkpt>
<trkpt lat="47.427136" lon="8.283822">
<ele>414.6</ele>
<time>2003-03-28T10:20:46Z</time>
<speed>0.0</speed>
</trkpt>
<trkpt lat="47.427136" lon="8.283822">
<ele>414.6</ele>
<time>2003-03-28T10:20:51Z</time>
<speed>0.0</speed>
</trkpt>
<trkpt lat="47.427136" lon="8.283822">
<ele>414.6</ele>
<time>2003-03-28T10:20:56Z</time>
<speed>0.0</speed>
</trkpt>
<trkpt lat="47.427136" lon="8.283822">
<ele>414.6</ele>
<time>2003-03-28T10:21:01Z</time>
<speed>0.0</speed>
</trkpt>
<trkpt lat="47.427136" lon="8.283822">
<ele>414.6</ele>
<time>2003-03-28T10:21:06Z</time>
<speed>0.1</speed>
</trkpt>
<trkpt lat="47.427142" lon="8.283822">
<ele>415.3</ele>
<time>2003-03-28T10:21:11Z</time>
<speed>0.2</speed>
</trkpt>
<trkpt lat="47.427143" lon="8.283809">
<ele>415.2</ele>
<time>2003-03-28T10:21:16Z</time>
<speed>0.0</speed>
</trkpt>
<trkpt lat="47.427143" lon="8.283809">
<ele>415.2</ele>
<time>2003-03-28T10:21:21Z</time>
<speed>0.0</speed>
</trkpt>
<trkpt lat="47.427143" lon="8.283809">
<ele>415.2</ele>
<time>2003-03-28T10:21:26Z</time>
<speed>0.4</speed>
</trkpt>
<trkpt lat="47.427126" lon="8.283794">
<ele>414.3</ele>
<time>2003-03-28T10:21:31Z</time>
<speed>0.1</speed>
</trkpt>
<trkpt lat="47.427132" lon="8.283794">
<ele>415.1</ele>
<time>2003-03-28T10:21:36Z</time>
<speed>0.2</speed>
</trkpt>
<trkpt lat="47.427139" lon="8.283781">
<ele>415.7</ele>
<time>2003-03-28T10:21:41Z</time>
<speed>0.2</speed>
</trkpt>
<trkpt lat="47.427140" lon="8.283768">
<ele>415.6</ele>
<time>2003-03-28T10:21:46Z</time>
<speed>0.2</speed>
</trkpt>
<trkpt lat="47.427141" lon="8.283754">
<ele>415.5</ele>
<time>2003-03-28T10:21:51Z</time>
<speed>0.5</speed>
</trkpt>
<trkpt lat="47.427160" lon="8.283743">
<ele>416.2</ele>
<time>2003-03-28T10:21:56Z</time>
<speed>0.7</speed>
</trkpt>
<trkpt lat="47.427188" lon="8.283721">
<ele>416.2</ele>
<time>2003-03-28T10:22:01Z</time>
<speed>1.4</speed>
</trkpt>
<trkpt lat="47.427242" lon="8.283676">
<ele>416.0</ele>
<time>2003-03-28T10:22:06Z</time>
<speed>1.6</speed>
</trkpt>
<trkpt lat="47.427292" lon="8.283603">
<ele>416.4</ele>
<time>2003-03-28T10:22:11Z</time>
<speed>0.9</speed>
</trkpt>
<trkpt lat="47.427330" lon="8.283596">
<ele>416.5</ele>
<time>2003-03-28T10:22:16Z</time>
<speed>0.3</speed>
</trkpt>
<trkpt lat="47.427342" lon="8.283611">
<ele>416.7</ele>
<time>2003-03-28T10:22:21Z</time>
<speed>0.0</speed>
</trkpt>
<trkpt lat="47.427342" lon="8.283611">
<ele>416.7</ele>
<time>2003-03-28T10:22:26Z</time>
<speed>0.0</speed>
</trkpt>
<trkpt lat="47.427342" lon="8.283611">
<ele>416.7</ele>
<time>2003-03-28T10:22:31Z</time>
<speed>0.0</speed>
</trkpt>
<trkpt lat="47.427342" lon="8.283611">
<ele>416.7</ele>
<time>2003-03-28T10:22:36Z</time>
<speed>0.0</speed>
</trkpt>
<trkpt lat="47.427342" lon="8.283611">
<ele>416.7</ele>
<time>2003-03-28T10:22:41Z</time>
<speed>0.0</speed>
</trkpt>
<trkpt lat="47.427342" lon="8.283611">
<ele>416.7</ele>
<time>2003-03-28T10:22:46Z</time>
<speed>0.0</speed>
</trkpt>
<trkpt lat="47.427342" lon="8.283611">
<ele>416.7</ele>
<time>2003-03-28T10:22:51Z</time>
<speed>0.0</speed>
</trkpt>
<trkpt lat="47.427342" lon="8.283611">
<ele>416.7</ele>
<time>2003-03-28T10:22:56Z</time>
<speed>0.0</speed>
</trkpt>
<trkpt lat="47.427342" lon="8.283611">
<ele>416.7</ele>
<time>2003-03-28T10:23:01Z</time>
<speed>0.0</speed>
</trkpt>
<trkpt lat="47.427342" lon="8.283611">
<ele>416.7</ele>
<time>2003-03-28T10:23:06Z</time>
<speed>0.0</speed>
</trkpt>
<trkpt lat="47.427342" lon="8.283611">
<ele>416.7</ele>
<time>2003-03-28T10:23:11Z</time>
<speed>0.7</speed>
</trkpt>
<trkpt lat="47.427319" lon="8.283581">
<ele>416.3</ele>
<time>2003-03-28T10:23:16Z</time>
<speed>1.1</speed>
</trkpt>
<trkpt lat="47.427268" lon="8.283573">
<ele>416.1</ele>
<time>2003-03-28T10:23:21Z</time>
<speed>1.2</speed>
</trkpt>
<trkpt lat="47.427227" lon="8.283620">
<ele>416.3</ele>
<time>2003-03-28T10:23:26Z</time>
<speed>0.8</speed>
</trkpt>
<trkpt lat="47.427198" lon="8.283655">
<ele>416.4</ele>
<time>2003-03-28T10:23:31Z</time>
<speed>1.3</speed>
</trkpt>
<trkpt lat="47.427167" lon="8.283730">
<ele>416.9</ele>
<time>2003-03-28T10:23:36Z</time>
<speed>1.7</speed>
</trkpt>
<trkpt lat="47.427142" lon="8.283837">
<ele>414.0</ele>
<time>2003-03-28T10:23:41Z</time>
<speed>1.6</speed>
</trkpt>
<trkpt lat="47.427141" lon="8.283944">
<ele>414.1</ele>
<time>2003-03-28T10:23:46Z</time>
<speed>1.4</speed>
</trkpt>
<trkpt lat="47.427147" lon="8.284039">
<ele>413.5</ele>
<time>2003-03-28T10:23:51Z</time>
<speed>1.3</speed>
</trkpt>
<trkpt lat="47.427187" lon="8.284098">
<ele>414.8</ele>
<time>2003-03-28T10:23:56Z</time>
<speed>1.3</speed>
</trkpt>
<trkpt lat="47.427236" lon="8.284146">
<ele>414.0</ele>
<time>2003-03-28T10:24:01Z</time>
<speed>1.0</speed>
</trkpt>
<trkpt lat="47.427258" lon="8.284205">
<ele>413.1</ele>
<time>2003-03-28T10:24:06Z</time>
<speed>1.3</speed>
</trkpt>
<trkpt lat="47.427306" lon="8.284254">
<ele>412.2</ele>
<time>2003-03-28T10:24:11Z</time>
<speed>1.3</speed>
</trkpt>
<trkpt lat="47.427346" lon="8.284314">
<ele>412.2</ele>
<time>2003-03-28T10:24:16Z</time>
<speed>1.2</speed>
</trkpt>
<trkpt lat="47.427396" lon="8.284334">
<ele>412.5</ele>
<time>2003-03-28T10:24:21Z</time>
<speed>1.2</speed>
</trkpt>
<trkpt lat="47.427446" lon="8.284355">
<ele>412.9</ele>
<time>2003-03-28T10:24:26Z</time>
<speed>1.3</speed>
</trkpt>
<trkpt lat="47.427503" lon="8.284365">
<ele>412.5</ele>
<time>2003-03-28T10:24:31Z</time>
<speed>1.4</speed>
</trkpt>
<trkpt lat="47.427567" lon="8.284361">
<ele>412.7</ele>
<time>2003-03-28T10:24:36Z</time>
<speed>1.1</speed>
</trkpt>
<trkpt lat="47.427617" lon="8.284369">
<ele>413.0</ele>
<time>2003-03-28T10:24:41Z</time>
<speed>1.3</speed>
</trkpt>
<trkpt lat="47.427674" lon="8.284376">
<ele>414.0</ele>
<time>2003-03-28T10:24:46Z</time>
<speed>1.4</speed>
</trkpt>
<trkpt lat="47.427737" lon="8.284386">
<ele>414.3</ele>
<time>2003-03-28T10:24:51Z</time>
<speed>1.3</speed>
</trkpt>
<trkpt lat="47.427794" lon="8.284394">
<ele>415.3</ele>
<time>2003-03-28T10:24:56Z</time>
<speed>1.3</speed>
</trkpt>
<trkpt lat="47.427852" lon="8.284390">
<ele>414.8</ele>
<time>2003-03-28T10:25:01Z</time>
<speed>1.3</speed>
</trkpt>
<trkpt lat="47.427910" lon="8.284385">
<ele>415.7</ele>
<time>2003-03-28T10:25:06Z</time>
<speed>1.3</speed>
</trkpt>
<trkpt lat="47.427968" lon="8.284366">
<ele>416.6</ele>
<time>2003-03-28T10:25:11Z</time>
<speed>1.5</speed>
</trkpt>
<trkpt lat="47.428034" lon="8.284336">
<ele>416.6</ele>
<time>2003-03-28T10:25:16Z</time>
<speed>1.2</speed>
</trkpt>
<trkpt lat="47.428087" lon="8.284318">
<ele>416.7</ele>
<time>2003-03-28T10:25:21Z</time>
<speed>1.4</speed>
</trkpt>
<trkpt lat="47.428146" lon="8.284286">
<ele>417.4</ele>
<time>2003-03-28T10:25:26Z</time>
<speed>1.1</speed>
</trkpt>
<trkpt lat="47.428197" lon="8.284293">
<ele>417.7</ele>
<time>2003-03-28T10:25:31Z</time>
<speed>1.4</speed>
</trkpt>
<trkpt lat="47.428250" lon="8.284340">
<ele>418.9</ele>
<time>2003-03-28T10:25:36Z</time>
<speed>1.6</speed>
</trkpt>
<trkpt lat="47.428289" lon="8.284427">
<ele>419.1</ele>
<time>2003-03-28T10:25:41Z</time>
<speed>1.3</speed>
</trkpt>
<trkpt lat="47.428335" lon="8.284485">
<ele>421.1</ele>
<time>2003-03-28T10:25:46Z</time>
<speed>1.2</speed>
</trkpt>
<trkpt lat="47.428370" lon="8.284543">
<ele>421.7</ele>
<time>2003-03-28T10:25:51Z</time>
<speed>1.5</speed>
</trkpt>
<trkpt lat="47.428422" lon="8.284603">
<ele>423.1</ele>
<time>2003-03-28T10:25:56Z</time>
<speed>1.5</speed>
</trkpt>
<trkpt lat="47.428475" lon="8.284663">
<ele>424.5</ele>
<time>2003-03-28T10:26:01Z</time>
<speed>1.4</speed>
</trkpt>
<trkpt lat="47.428522" lon="8.284723">
<ele>425.2</ele>
<time>2003-03-28T10:26:06Z</time>
<speed>1.4</speed>
</trkpt>
<trkpt lat="47.428569" lon="8.284784">
<ele>425.8</ele>
<time>2003-03-28T10:26:11Z</time>
<speed>1.6</speed>
</trkpt>
<trkpt lat="47.428628" lon="8.284846">
<ele>426.5</ele>
<time>2003-03-28T10:26:16Z</time>
<speed>1.3</speed>
</trkpt>
<trkpt lat="47.428676" lon="8.284893">
<ele>427.1</ele>
<time>2003-03-28T10:26:21Z</time>
<speed>1.4</speed>
</trkpt>
<trkpt lat="47.428722" lon="8.284953">
<ele>427.8</ele>
<time>2003-03-28T10:26:26Z</time>
<speed>1.5</speed>
</trkpt>
<trkpt lat="47.428775" lon="8.285013">
<ele>429.2</ele>
<time>2003-03-28T10:26:31Z</time>
<speed>1.2</speed>
</trkpt>
<trkpt lat="47.428810" lon="8.285075">
<ele>426.9</ele>
<time>2003-03-28T10:26:36Z</time>
<speed>1.5</speed>
</trkpt>
<trkpt lat="47.428851" lon="8.285150">
<ele>425.6</ele>
<time>2003-03-28T10:26:41Z</time>
<speed>1.3</speed>
</trkpt>
<trkpt lat="47.428892" lon="8.285212">
<ele>424.1</ele>
<time>2003-03-28T10:26:46Z</time>
<speed>1.3</speed>
</trkpt>
<trkpt lat="47.428940" lon="8.285261">
<ele>423.2</ele>
<time>2003-03-28T10:26:51Z</time>
<speed>1.3</speed>
</trkpt>
<trkpt lat="47.428988" lon="8.285310">
<ele>422.4</ele>
<time>2003-03-28T10:26:56Z</time>
<speed>1.5</speed>
</trkpt>
<trkpt lat="47.429049" lon="8.285345">
<ele>422.9</ele>
<time>2003-03-28T10:27:01Z</time>
<speed>1.3</speed>
</trkpt>
<trkpt lat="47.429097" lon="8.285394">
<ele>422.1</ele>
<time>2003-03-28T10:27:06Z</time>
<speed>1.5</speed>
</trkpt>
<trkpt lat="47.429151" lon="8.285456">
<ele>422.1</ele>
<time>2003-03-28T10:27:11Z</time>
<speed>1.0</speed>
</trkpt>
<trkpt lat="47.429194" lon="8.285477">
<ele>421.7</ele>
<time>2003-03-28T10:27:16Z</time>
<speed>1.5</speed>
</trkpt>
<trkpt lat="47.429249" lon="8.285417">
<ele>422.9</ele>
<time>2003-03-28T10:27:21Z</time>
<speed>1.4</speed>
</trkpt>
<trkpt lat="47.429298" lon="8.285357">
<ele>423.3</ele>
<time>2003-03-28T10:27:26Z</time>
<speed>1.3</speed>
</trkpt>
<trkpt lat="47.429322" lon="8.285281">
<ele>423.5</ele>
<time>2003-03-28T10:27:31Z</time>
<speed>1.5</speed>
</trkpt>
<trkpt lat="47.429348" lon="8.285191">
<ele>423.7</ele>
<time>2003-03-28T10:27:36Z</time>
<speed>1.3</speed>
</trkpt>
<trkpt lat="47.429372" lon="8.285114">
<ele>423.9</ele>
<time>2003-03-28T10:27:41Z</time>
<speed>1.4</speed>
</trkpt>
<trkpt lat="47.429391" lon="8.285024">
<ele>423.3</ele>
<time>2003-03-28T10:27:46Z</time>
<speed>1.4</speed>
</trkpt>
<trkpt lat="47.429411" lon="8.284934">
<ele>422.6</ele>
<time>2003-03-28T10:27:51Z</time>
<speed>1.4</speed>
</trkpt>
<trkpt lat="47.429430" lon="8.284844">
<ele>422.0</ele>
<time>2003-03-28T10:27:56Z</time>
<speed>1.2</speed>
</trkpt>
<trkpt lat="47.429448" lon="8.284766">
<ele>422.9</ele>
<time>2003-03-28T10:28:01Z</time>
<speed>1.4</speed>
</trkpt>
<trkpt lat="47.429461" lon="8.284674">
<ele>423.0</ele>
<time>2003-03-28T10:28:06Z</time>
<speed>1.4</speed>
</trkpt>
<trkpt lat="47.429480" lon="8.284584">
<ele>422.4</ele>
<time>2003-03-28T10:28:11Z</time>
<speed>1.3</speed>
</trkpt>
<trkpt lat="47.429505" lon="8.284507">
<ele>422.6</ele>
<time>2003-03-28T10:28:16Z</time>
<speed>1.4</speed>
</trkpt>
<trkpt lat="47.429524" lon="8.284417">
<ele>422.0</ele>
<time>2003-03-28T10:28:21Z</time>
<speed>1.4</speed>
</trkpt>
<trkpt lat="47.429543" lon="8.284325">
<ele>422.8</ele>
<time>2003-03-28T10:28:26Z</time>
<speed>1.2</speed>
</trkpt>
<trkpt lat="47.429561" lon="8.284249">
<ele>422.2</ele>
<time>2003-03-28T10:28:31Z</time>
<speed>1.3</speed>
</trkpt>
<trkpt lat="47.429579" lon="8.284170">
<ele>423.1</ele>
<time>2003-03-28T10:28:36Z</time>
<speed>1.2</speed>
</trkpt>
<trkpt lat="47.429591" lon="8.284091">
<ele>423.3</ele>
<time>2003-03-28T10:28:41Z</time>
<speed>1.2</speed>
</trkpt>
<trkpt lat="47.429609" lon="8.284014">
<ele>422.8</ele>
<time>2003-03-28T10:28:46Z</time>
<speed>0.8</speed>
</trkpt>
<trkpt lat="47.429619" lon="8.283962">
<ele>423.1</ele>
<time>2003-03-28T10:28:51Z</time>
<speed>0.0</speed>
</trkpt>
<trkpt lat="47.429619" lon="8.283962">
<ele>423.1</ele>
<time>2003-03-28T10:28:56Z</time>
<speed>0.7</speed>
</trkpt>
<trkpt lat="47.429635" lon="8.283925">
<ele>422.9</ele>
<time>2003-03-28T10:29:01Z</time>
<speed>0.8</speed>
</trkpt>
<trkpt lat="47.429612" lon="8.283881">
<ele>422.4</ele>
<time>2003-03-28T10:29:06Z</time>
<speed>0.2</speed>
</trkpt>
<trkpt lat="47.429619" lon="8.283868">
<ele>423.1</ele>
<time>2003-03-28T10:29:11Z</time>
<speed>0.1</speed>
</trkpt>
<trkpt lat="47.429625" lon="8.283868">
<ele>423.8</ele>
<time>2003-03-28T10:29:16Z</time>
<speed>0.0</speed>
</trkpt>
<trkpt lat="47.429625" lon="8.283868">
<ele>423.8</ele>
<time>2003-03-28T10:29:21Z</time>
<speed>0.0</speed>
</trkpt>
<trkpt lat="47.429625" lon="8.283868">
<ele>423.8</ele>
<time>2003-03-28T10:29:26Z</time>
<speed>0.0</speed>
</trkpt>
<trkpt lat="47.429625" lon="8.283868">
<ele>423.8</ele>
<time>2003-03-28T10:29:31Z</time>
<speed>0.0</speed>
</trkpt>
<trkpt lat="47.429625" lon="8.283868">
<ele>423.8</ele>
<time>2003-03-28T10:29:36Z</time>
<speed>0.5</speed>
</trkpt>
<trkpt lat="47.429640" lon="8.283844">
<ele>423.7</ele>
<time>2003-03-28T10:29:41Z</time>
<speed>0.7</speed>
</trkpt>
<trkpt lat="47.429672" lon="8.283835">
<ele>424.5</ele>
<time>2003-03-28T10:29:46Z</time>
<speed>1.1</speed>
</trkpt>
<trkpt lat="47.429723" lon="8.283842">
<ele>424.7</ele>
<time>2003-03-28T10:29:51Z</time>
<speed>1.2</speed>
</trkpt>
<trkpt lat="47.429771" lon="8.283876">
<ele>425.2</ele>
<time>2003-03-28T10:29:56Z</time>
<speed>1.1</speed>
</trkpt>
<trkpt lat="47.429814" lon="8.283910">
<ele>424.9</ele>
<time>2003-03-28T10:30:01Z</time>
<speed>1.2</speed>
</trkpt>
<trkpt lat="47.429855" lon="8.283957">
<ele>424.8</ele>
<time>2003-03-28T10:30:06Z</time>
<speed>0.9</speed>
</trkpt>
<trkpt lat="47.429891" lon="8.283989">
<ele>425.1</ele>
<time>2003-03-28T10:30:11Z</time>
<speed>1.1</speed>
</trkpt>
<trkpt lat="47.429934" lon="8.284021">
<ele>426.3</ele>
<time>2003-03-28T10:30:16Z</time>
<speed>1.1</speed>
</trkpt>
<trkpt lat="47.429976" lon="8.284055">
<ele>426.0</ele>
<time>2003-03-28T10:30:21Z</time>
<speed>1.1</speed>
</trkpt>
<trkpt lat="47.430019" lon="8.284089">
<ele>425.7</ele>
<time>2003-03-28T10:30:26Z</time>
<speed>1.2</speed>
</trkpt>
<trkpt lat="47.430067" lon="8.284123">
<ele>426.2</ele>
<time>2003-03-28T10:30:31Z</time>
<speed>1.4</speed>
</trkpt>
<trkpt lat="47.430122" lon="8.284171">
<ele>426.1</ele>
<time>2003-03-28T10:30:36Z</time>
<speed>1.2</speed>
</trkpt>
<trkpt lat="47.430170" lon="8.284205">
<ele>426.6</ele>
<time>2003-03-28T10:30:41Z</time>
<speed>1.4</speed>
</trkpt>
<trkpt lat="47.430224" lon="8.284254">
<ele>426.4</ele>
<time>2003-03-28T10:30:46Z</time>
<speed>1.4</speed>
</trkpt>
<trkpt lat="47.430279" lon="8.284303">
<ele>426.3</ele>
<time>2003-03-28T10:30:51Z</time>
<speed>1.1</speed>
</trkpt>
<trkpt lat="47.430321" lon="8.284337">
<ele>426.1</ele>
<time>2003-03-28T10:30:56Z</time>
<speed>1.2</speed>
</trkpt>
<trkpt lat="47.430370" lon="8.284371">
<ele>426.5</ele>
<time>2003-03-28T10:31:01Z</time>
<speed>1.3</speed>
</trkpt>
<trkpt lat="47.430418" lon="8.284418">
<ele>427.1</ele>
<time>2003-03-28T10:31:06Z</time>
<speed>1.0</speed>
</trkpt>
<trkpt lat="47.430462" lon="8.284424">
<ele>428.0</ele>
<time>2003-03-28T10:31:11Z</time>
<speed>0.5</speed>
</trkpt>
<trkpt lat="47.430481" lon="8.284412">
<ele>428.7</ele>
<time>2003-03-28T10:31:16Z</time>
<speed>0.0</speed>
</trkpt>
<trkpt lat="47.430481" lon="8.284412">
<ele>428.7</ele>
<time>2003-03-28T10:31:21Z</time>
<speed>0.0</speed>
</trkpt>
<trkpt lat="47.430481" lon="8.284412">
<ele>428.7</ele>
<time>2003-03-28T10:31:26Z</time>
<speed>0.0</speed>
</trkpt>
<trkpt lat="47.430481" lon="8.284412">
<ele>428.7</ele>
<time>2003-03-28T10:31:31Z</time>
<speed>0.0</speed>
</trkpt>
<trkpt lat="47.430481" lon="8.284412">
<ele>428.7</ele>
<time>2003-03-28T10:31:36Z</time>
<speed>0.0</speed>
</trkpt>
<trkpt lat="47.430481" lon="8.284412">
<ele>428.7</ele>
<time>2003-03-28T10:31:41Z</time>
<speed>0.2</speed>
</trkpt>
<trkpt lat="47.430476" lon="8.284399">
<ele>427.9</ele>
<time>2003-03-28T10:31:46Z</time>
<speed>0.6</speed>
</trkpt>
<trkpt lat="47.430497" lon="8.284375">
<ele>428.5</ele>
<time>2003-03-28T10:31:51Z</time>
<speed>0.8</speed>
</trkpt>
<trkpt lat="47.430513" lon="8.284324">
<ele>428.2</ele>
<time>2003-03-28T10:31:56Z</time>
<speed>1.0</speed>
</trkpt>
<trkpt lat="47.430531" lon="8.284261">
<ele>427.8</ele>
<time>2003-03-28T10:32:01Z</time>
<speed>1.0</speed>
</trkpt>
<trkpt lat="47.430542" lon="8.284195">
<ele>428.0</ele>
<time>2003-03-28T10:32:06Z</time>
<speed>0.8</speed>
</trkpt>
<trkpt lat="47.430551" lon="8.284143">
<ele>428.4</ele>
<time>2003-03-28T10:32:11Z</time>
<speed>0.6</speed>
</trkpt>
<trkpt lat="47.430560" lon="8.284103">
<ele>428.8</ele>
<time>2003-03-28T10:32:16Z</time>
<speed>0.6</speed>
</trkpt>
<trkpt lat="47.430569" lon="8.284064">
<ele>429.2</ele>
<time>2003-03-28T10:32:21Z</time>
<speed>1.3</speed>
</trkpt>
<trkpt lat="47.430594" lon="8.283987">
<ele>429.5</ele>
<time>2003-03-28T10:32:26Z</time>
<speed>1.2</speed>
</trkpt>
<trkpt lat="47.430612" lon="8.283910">
<ele>428.9</ele>
<time>2003-03-28T10:32:31Z</time>
<speed>1.2</speed>
</trkpt>
<trkpt lat="47.430617" lon="8.283830">
<ele>429.8</ele>
<time>2003-03-28T10:32:36Z</time>
<speed>1.0</speed>
</trkpt>
<trkpt lat="47.430635" lon="8.283766">
<ele>429.3</ele>
<time>2003-03-28T10:32:41Z</time>
<speed>1.3</speed>
</trkpt>
<trkpt lat="47.430653" lon="8.283687">
<ele>430.2</ele>
<time>2003-03-28T10:32:46Z</time>
<speed>1.0</speed>
</trkpt>
<trkpt lat="47.430670" lon="8.283624">
<ele>429.8</ele>
<time>2003-03-28T10:32:51Z</time>
<speed>0.8</speed>
</trkpt>
<trkpt lat="47.430680" lon="8.283571">
<ele>430.2</ele>
<time>2003-03-28T10:32:56Z</time>
<speed>1.1</speed>
</trkpt>
<trkpt lat="47.430704" lon="8.283508">
<ele>430.5</ele>
<time>2003-03-28T10:33:01Z</time>
<speed>1.1</speed>
</trkpt>
<trkpt lat="47.430734" lon="8.283446">
<ele>430.1</ele>
<time>2003-03-28T10:33:06Z</time>
<speed>1.3</speed>
</trkpt>
<trkpt lat="47.430781" lon="8.283399">
<ele>430.7</ele>
<time>2003-03-28T10:33:11Z</time>
<speed>1.1</speed>
</trkpt>
<trkpt lat="47.430822" lon="8.283364">
<ele>432.0</ele>
<time>2003-03-28T10:33:16Z</time>
<speed>1.2</speed>
</trkpt>
<trkpt lat="47.430863" lon="8.283317">
<ele>431.8</ele>
<time>2003-03-28T10:33:21Z</time>
<speed>1.3</speed>
</trkpt>
<trkpt lat="47.430911" lon="8.283270">
<ele>432.3</ele>
<time>2003-03-28T10:33:26Z</time>
<speed>1.2</speed>
</trkpt>
<trkpt lat="47.430952" lon="8.283221">
<ele>433.6</ele>
<time>2003-03-28T10:33:31Z</time>
<speed>1.2</speed>
</trkpt>
<trkpt lat="47.430994" lon="8.283175">
<ele>433.4</ele>
<time>2003-03-28T10:33:36Z</time>
<speed>1.1</speed>
</trkpt>
<trkpt lat="47.431035" lon="8.283139">
<ele>434.7</ele>
<time>2003-03-28T10:33:41Z</time>
<speed>1.2</speed>
</trkpt>
<trkpt lat="47.431076" lon="8.283091">
<ele>435.9</ele>
<time>2003-03-28T10:33:46Z</time>
<speed>1.1</speed>
</trkpt>
<trkpt lat="47.431111" lon="8.283042">
<ele>436.4</ele>
<time>2003-03-28T10:33:51Z</time>
<speed>1.0</speed>
</trkpt>
<trkpt lat="47.431152" lon="8.283008">
<ele>436.3</ele>
<time>2003-03-28T10:33:56Z</time>
<speed>1.1</speed>
</trkpt>
<trkpt lat="47.431187" lon="8.282960">
<ele>436.8</ele>
<time>2003-03-28T10:34:01Z</time>
<speed>0.9</speed>
</trkpt>
<trkpt lat="47.431221" lon="8.282924">
<ele>437.4</ele>
<time>2003-03-28T10:34:06Z</time>
<speed>0.9</speed>
</trkpt>
<trkpt lat="47.431255" lon="8.282889">
<ele>437.9</ele>
<time>2003-03-28T10:34:11Z</time>
<speed>0.9</speed>
</trkpt>
<trkpt lat="47.431290" lon="8.282853">
<ele>438.5</ele>
<time>2003-03-28T10:34:16Z</time>
<speed>1.0</speed>
</trkpt>
<trkpt lat="47.431330" lon="8.282819">
<ele>438.4</ele>
<time>2003-03-28T10:34:21Z</time>
<speed>0.8</speed>
</trkpt>
<trkpt lat="47.431359" lon="8.282784">
<ele>438.3</ele>
<time>2003-03-28T10:34:26Z</time>
<speed>0.8</speed>
</trkpt>
<trkpt lat="47.431392" lon="8.282761">
<ele>438.9</ele>
<time>2003-03-28T10:34:31Z</time>
<speed>0.9</speed>
</trkpt>
<trkpt lat="47.431426" lon="8.282726">
<ele>439.5</ele>
<time>2003-03-28T10:34:36Z</time>
<speed>1.0</speed>
</trkpt>
<trkpt lat="47.431455" lon="8.282677">
<ele>439.3</ele>
<time>2003-03-28T10:34:41Z</time>
<speed>0.8</speed>
</trkpt>
<trkpt lat="47.431483" lon="8.282640">
<ele>440.5</ele>
<time>2003-03-28T10:34:46Z</time>
<speed>0.8</speed>
</trkpt>
<trkpt lat="47.431511" lon="8.282604">
<ele>440.3</ele>
<time>2003-03-28T10:34:51Z</time>
<speed>0.8</speed>
</trkpt>
<trkpt lat="47.431539" lon="8.282567">
<ele>441.6</ele>
<time>2003-03-28T10:34:56Z</time>
<speed>0.8</speed>
</trkpt>
<trkpt lat="47.431567" lon="8.282531">
<ele>441.4</ele>
<time>2003-03-28T10:35:01Z</time>
<speed>0.9</speed>
</trkpt>
<trkpt lat="47.431601" lon="8.282496">
<ele>442.0</ele>
<time>2003-03-28T10:35:06Z</time>
<speed>0.9</speed>
</trkpt>
<trkpt lat="47.431635" lon="8.282460">
<ele>442.6</ele>
<time>2003-03-28T10:35:11Z</time>
<speed>0.8</speed>
</trkpt>
<trkpt lat="47.431663" lon="8.282425">
<ele>442.4</ele>
<time>2003-03-28T10:35:16Z</time>
<speed>0.8</speed>
</trkpt>
<trkpt lat="47.431697" lon="8.282402">
<ele>443.1</ele>
<time>2003-03-28T10:35:21Z</time>
<speed>1.0</speed>
</trkpt>
<trkpt lat="47.431737" lon="8.282369">
<ele>443.0</ele>
<time>2003-03-28T10:35:26Z</time>
<speed>0.9</speed>
</trkpt>
<trkpt lat="47.431772" lon="8.282333">
<ele>443.6</ele>
<time>2003-03-28T10:35:31Z</time>
<speed>1.0</speed>
</trkpt>
<trkpt lat="47.431812" lon="8.282300">
<ele>443.5</ele>
<time>2003-03-28T10:35:36Z</time>
<speed>1.1</speed>
</trkpt>
<trkpt lat="47.431853" lon="8.282264">
<ele>444.8</ele>
<time>2003-03-28T10:35:41Z</time>
<speed>0.9</speed>
</trkpt>
<trkpt lat="47.431893" lon="8.282244">
<ele>444.8</ele>
<time>2003-03-28T10:35:46Z</time>
<speed>0.9</speed>
</trkpt>
<trkpt lat="47.431927" lon="8.282208">
<ele>445.4</ele>
<time>2003-03-28T10:35:51Z</time>
<speed>0.9</speed>
</trkpt>
<trkpt lat="47.431967" lon="8.282188">
<ele>445.4</ele>
<time>2003-03-28T10:35:56Z</time>
<speed>0.7</speed>
</trkpt>
<trkpt lat="47.431999" lon="8.282178">
<ele>446.2</ele>
<time>2003-03-28T10:36:01Z</time>
<speed>1.0</speed>
</trkpt>
<trkpt lat="47.432040" lon="8.282145">
<ele>446.1</ele>
<time>2003-03-28T10:36:06Z</time>
<speed>1.2</speed>
</trkpt>
<trkpt lat="47.432081" lon="8.282096">
<ele>447.3</ele>
<time>2003-03-28T10:36:11Z</time>
<speed>1.3</speed>
</trkpt>
<trkpt lat="47.432139" lon="8.282090">
<ele>448.2</ele>
<time>2003-03-28T10:36:16Z</time>
<speed>0.6</speed>
</trkpt>
<trkpt lat="47.432163" lon="8.282109">
<ele>447.0</ele>
<time>2003-03-28T10:36:21Z</time>
<speed>0.5</speed>
</trkpt>
<trkpt lat="47.432174" lon="8.282137">
<ele>447.3</ele>
<time>2003-03-28T10:36:26Z</time>
<speed>0.7</speed>
</trkpt>
<trkpt lat="47.432184" lon="8.282179">
<ele>447.7</ele>
<time>2003-03-28T10:36:31Z</time>
<speed>0.6</speed>
</trkpt>
<trkpt lat="47.432175" lon="8.282218">
<ele>447.2</ele>
<time>2003-03-28T10:36:36Z</time>
<speed>0.8</speed>
</trkpt>
<trkpt lat="47.432171" lon="8.282271">
<ele>447.6</ele>
<time>2003-03-28T10:36:41Z</time>
<speed>0.8</speed>
</trkpt>
<trkpt lat="47.432143" lon="8.282306">
<ele>447.8</ele>
<time>2003-03-28T10:36:46Z</time>
<speed>1.0</speed>
</trkpt>
<trkpt lat="47.432132" lon="8.282372">
<ele>447.5</ele>
<time>2003-03-28T10:36:51Z</time>
<speed>0.8</speed>
</trkpt>
<trkpt lat="47.432128" lon="8.282424">
<ele>447.9</ele>
<time>2003-03-28T10:36:56Z</time>
<speed>0.6</speed>
</trkpt>
<trkpt lat="47.432102" lon="8.282433">
<ele>447.9</ele>
<time>2003-03-28T10:37:01Z</time>
<speed>0.6</speed>
</trkpt>
<trkpt lat="47.432077" lon="8.282430">
<ele>447.7</ele>
<time>2003-03-28T10:37:06Z</time>
<speed>0.0</speed>
</trkpt>
<trkpt lat="47.432077" lon="8.282430">
<ele>447.7</ele>
<time>2003-03-28T10:37:11Z</time>
<speed>0.0</speed>
</trkpt>
<trkpt lat="47.432077" lon="8.282430">
<ele>447.7</ele>
<time>2003-03-28T10:37:16Z</time>
<speed>0.3</speed>
</trkpt>
<trkpt lat="47.432064" lon="8.282443">
<ele>446.4</ele>
<time>2003-03-28T10:37:21Z</time>
<speed>0.2</speed>
</trkpt>
<trkpt lat="47.432057" lon="8.282456">
<ele>445.7</ele>
<time>2003-03-28T10:37:26Z</time>
<speed>0.0</speed>
</trkpt>
<trkpt lat="47.432057" lon="8.282456">
<ele>445.7</ele>
<time>2003-03-28T10:37:31Z</time>
<speed>0.2</speed>
</trkpt>
<trkpt lat="47.432056" lon="8.282469">
<ele>445.8</ele>
<time>2003-03-28T10:37:36Z</time>
<speed>0.0</speed>
</trkpt>
<trkpt lat="47.432056" lon="8.282469">
<ele>445.8</ele>
<time>2003-03-28T10:37:41Z</time>
<speed>0.0</speed>
</trkpt>
<trkpt lat="47.432056" lon="8.282469">
<ele>445.8</ele>
<time>2003-03-28T10:37:46Z</time>
<speed>0.0</speed>
</trkpt>
<trkpt lat="47.432056" lon="8.282469">
<ele>445.8</ele>
<time>2003-03-28T10:37:51Z</time>
<speed>0.0</speed>
</trkpt>
<trkpt lat="47.432056" lon="8.282469">
<ele>445.8</ele>
<time>2003-03-28T10:37:56Z</time>
<speed>0.0</speed>
</trkpt>
<trkpt lat="47.432056" lon="8.282469">
<ele>445.8</ele>
<time>2003-03-28T10:38:01Z</time>
<speed>0.0</speed>
</trkpt>
<trkpt lat="47.432056" lon="8.282469">
<ele>445.8</ele>
<time>2003-03-28T10:38:06Z</time>
<speed>0.0</speed>
</trkpt>
<trkpt lat="47.432056" lon="8.282469">
<ele>445.8</ele>
<time>2003-03-28T10:38:11Z</time>
<speed>0.0</speed>
</trkpt>
<trkpt lat="47.432056" lon="8.282469">
<ele>445.8</ele>
<time>2003-03-28T10:38:16Z</time>
<speed>0.0</speed>
</trkpt>
<trkpt lat="47.432056" lon="8.282469">
<ele>445.8</ele>
<time>2003-03-28T10:38:21Z</time>
<speed>0.0</speed>
</trkpt>
<trkpt lat="47.432056" lon="8.282469">
<ele>445.8</ele>
<time>2003-03-28T10:38:26Z</time>
<speed>0.0</speed>
</trkpt>
<trkpt lat="47.432056" lon="8.282469">
<ele>445.8</ele>
<time>2003-03-28T10:38:31Z</time>
<speed>0.0</speed>
</trkpt>
<trkpt lat="47.432056" lon="8.282469">
<ele>445.8</ele>
<time>2003-03-28T10:38:36Z</time>
<speed>0.0</speed>
</trkpt>
<trkpt lat="47.432056" lon="8.282469">
<ele>445.8</ele>
<time>2003-03-28T10:38:41Z</time>
<speed>0.0</speed>
</trkpt>
<trkpt lat="47.432056" lon="8.282469">
<ele>445.8</ele>
<time>2003-03-28T10:38:46Z</time>
<speed>0.0</speed>
</trkpt>
<trkpt lat="47.432056" lon="8.282469">
<ele>445.8</ele>
<time>2003-03-28T10:38:51Z</time>
<speed>0.0</speed>
</trkpt>
<trkpt lat="47.432056" lon="8.282469">
<ele>445.8</ele>
<time>2003-03-28T10:38:56Z</time>
<speed>0.0</speed>
</trkpt>
<trkpt lat="47.432056" lon="8.282469">
<ele>445.8</ele>
<time>2003-03-28T10:39:01Z</time>
<speed>0.0</speed>
</trkpt>
<trkpt lat="47.432056" lon="8.282469">
<ele>445.8</ele>
<time>2003-03-28T10:39:06Z</time>
<speed>0.0</speed>
</trkpt>
<trkpt lat="47.432056" lon="8.282469">
<ele>445.8</ele>
<time>2003-03-28T10:39:11Z</time>
<speed>0.0</speed>
</trkpt>
<trkpt lat="47.432056" lon="8.282469">
<ele>445.8</ele>
<time>2003-03-28T10:39:16Z</time>
<speed>0.0</speed>
</trkpt>
<trkpt lat="47.432056" lon="8.282469">
<ele>445.8</ele>
<time>2003-03-28T10:39:21Z</time>
<speed>0.0</speed>
</trkpt>
<trkpt lat="47.432056" lon="8.282469">
<ele>445.8</ele>
<time>2003-03-28T10:39:26Z</time>
<speed>0.0</speed>
</trkpt>
<trkpt lat="47.432056" lon="8.282469">
<ele>445.8</ele>
<time>2003-03-28T10:39:31Z</time>
<speed>0.0</speed>
</trkpt>
<trkpt lat="47.432056" lon="8.282469">
<ele>445.8</ele>
<time>2003-03-28T10:39:36Z</time>
<speed>0.0</speed>
</trkpt>
<trkpt lat="47.432056" lon="8.282469">
<ele>445.8</ele>
<time>2003-03-28T10:39:41Z</time>
<speed>0.0</speed>
</trkpt>
<trkpt lat="47.432056" lon="8.282469">
<ele>445.8</ele>
<time>2003-03-28T10:39:46Z</time>
<speed>0.0</speed>
</trkpt>
<trkpt lat="47.432056" lon="8.282469">
<ele>445.8</ele>
<time>2003-03-28T10:39:51Z</time>
<speed>0.0</speed>
</trkpt>
<trkpt lat="47.432056" lon="8.282469">
<ele>445.8</ele>
<time>2003-03-28T10:39:56Z</time>
<speed>0.0</speed>
</trkpt>
<trkpt lat="47.432056" lon="8.282469">
<ele>445.8</ele>
<time>2003-03-28T10:40:01Z</time>
<speed>0.0</speed>
</trkpt>
<trkpt lat="47.432056" lon="8.282469">
<ele>445.8</ele>
<time>2003-03-28T10:40:06Z</time>
<speed>0.0</speed>
</trkpt>
<trkpt lat="47.432056" lon="8.282469">
<ele>445.8</ele>
<time>2003-03-28T10:40:11Z</time>
<speed>0.0</speed>
</trkpt>
<trkpt lat="47.432056" lon="8.282469">
<ele>445.8</ele>
<time>2003-03-28T10:40:16Z</time>
<speed>0.0</speed>
</trkpt>
<trkpt lat="47.432056" lon="8.282469">
<ele>445.8</ele>
<time>2003-03-28T10:40:21Z</time>
<speed>0.0</speed>
</trkpt>
<trkpt lat="47.432056" lon="8.282469">
<ele>445.8</ele>
<time>2003-03-28T10:40:26Z</time>
<speed>0.0</speed>
</trkpt>
<trkpt lat="47.432056" lon="8.282469">
<ele>445.8</ele>
<time>2003-03-28T10:40:31Z</time>
<speed>0.0</speed>
</trkpt>
<trkpt lat="47.432056" lon="8.282469">
<ele>445.8</ele>
<time>2003-03-28T10:40:36Z</time>
<speed>0.0</speed>
</trkpt>
<trkpt lat="47.432056" lon="8.282469">
<ele>445.8</ele>
<time>2003-03-28T10:40:41Z</time>
<speed>0.0</speed>
</trkpt>
<trkpt lat="47.432056" lon="8.282469">
<ele>445.8</ele>
<time>2003-03-28T10:40:46Z</time>
<speed>0.0</speed>
</trkpt>
<trkpt lat="47.432056" lon="8.282469">
<ele>445.8</ele>
<time>2003-03-28T10:40:51Z</time>
<speed>0.0</speed>
</trkpt>
<trkpt lat="47.432056" lon="8.282469">
<ele>445.8</ele>
<time>2003-03-28T10:40:56Z</time>
<speed>0.0</speed>
</trkpt>
<trkpt lat="47.432056" lon="8.282469">
<ele>445.8</ele>
<time>2003-03-28T10:41:01Z</time>
<speed>0.0</speed>
</trkpt>
<trkpt lat="47.432056" lon="8.282469">
<ele>445.8</ele>
<time>2003-03-28T10:41:06Z</time>
<speed>0.0</speed>
</trkpt>
<trkpt lat="47.432056" lon="8.282469">
<ele>445.8</ele>
<time>2003-03-28T10:41:11Z</time>
<speed>0.0</speed>
</trkpt>
<trkpt lat="47.432056" lon="8.282469">
<ele>445.8</ele>
<time>2003-03-28T10:41:16Z</time>
<speed>0.0</speed>
</trkpt>
<trkpt lat="47.432056" lon="8.282469">
<ele>445.8</ele>
<time>2003-03-28T10:41:21Z</time>
<speed>0.0</speed>
</trkpt>
<trkpt lat="47.432056" lon="8.282469">
<ele>445.8</ele>
<time>2003-03-28T10:41:26Z</time>
<speed>0.0</speed>
</trkpt>
<trkpt lat="47.432056" lon="8.282469">
<ele>445.8</ele>
<time>2003-03-28T10:41:31Z</time>
<speed>0.0</speed>
</trkpt>
<trkpt lat="47.432056" lon="8.282469">
<ele>445.8</ele>
<time>2003-03-28T10:41:36Z</time>
<speed>0.0</speed>
</trkpt>
<trkpt lat="47.432056" lon="8.282469">
<ele>445.8</ele>
<time>2003-03-28T10:41:41Z</time>
<speed>0.0</speed>
</trkpt>
<trkpt lat="47.432056" lon="8.282469">
<ele>445.8</ele>
<time>2003-03-28T10:41:46Z</time>
<speed>0.0</speed>
</trkpt>
<trkpt lat="47.432056" lon="8.282469">
<ele>445.8</ele>
<time>2003-03-28T10:41:51Z</time>
<speed>0.0</speed>
</trkpt>
<trkpt lat="47.432056" lon="8.282469">
<ele>445.8</ele>
<time>2003-03-28T10:41:56Z</time>
<speed>0.0</speed>
</trkpt>
<trkpt lat="47.432056" lon="8.282469">
<ele>445.8</ele>
<time>2003-03-28T10:42:01Z</time>
<speed>0.0</speed>
</trkpt>
<trkpt lat="47.432056" lon="8.282469">
<ele>445.8</ele>
<time>2003-03-28T10:42:06Z</time>
<speed>0.0</speed>
</trkpt>
<trkpt lat="47.432056" lon="8.282469">
<ele>445.8</ele>
<time>2003-03-28T10:42:11Z</time>
<speed>0.0</speed>
</trkpt>
<trkpt lat="47.432056" lon="8.282469">
<ele>445.8</ele>
<time>2003-03-28T10:42:16Z</time>
<speed>0.0</speed>
</trkpt>
<trkpt lat="47.432056" lon="8.282469">
<ele>445.8</ele>
<time>2003-03-28T10:42:21Z</time>
<speed>0.0</speed>
</trkpt>
<trkpt lat="47.432056" lon="8.282469">
<ele>445.8</ele>
<time>2003-03-28T10:42:26Z</time>
<speed>0.0</speed>
</trkpt>
<trkpt lat="47.432056" lon="8.282469">
<ele>445.8</ele>
<time>2003-03-28T10:42:31Z</time>
<speed>0.0</speed>
</trkpt>
<trkpt lat="47.432056" lon="8.282469">
<ele>445.8</ele>
<time>2003-03-28T10:42:36Z</time>
<speed>0.0</speed>
</trkpt>
<trkpt lat="47.432056" lon="8.282469">
<ele>445.8</ele>
<time>2003-03-28T10:42:41Z</time>
<speed>0.0</speed>
</trkpt>
<trkpt lat="47.432056" lon="8.282469">
<ele>445.8</ele>
<time>2003-03-28T10:42:46Z</time>
<speed>0.0</speed>
</trkpt>
<trkpt lat="47.432056" lon="8.282469">
<ele>445.8</ele>
<time>2003-03-28T10:42:51Z</time>
<speed>0.0</speed>
</trkpt>
<trkpt lat="47.432056" lon="8.282469">
<ele>445.8</ele>
<time>2003-03-28T10:42:56Z</time>
<speed>0.0</speed>
</trkpt>
<trkpt lat="47.432056" lon="8.282469">
<ele>445.8</ele>
<time>2003-03-28T10:43:01Z</time>
<speed>0.0</speed>
</trkpt>
<trkpt lat="47.432056" lon="8.282469">
<ele>445.8</ele>
<time>2003-03-28T10:43:06Z</time>
<speed>0.0</speed>
</trkpt>
<trkpt lat="47.432056" lon="8.282469">
<ele>445.8</ele>
<time>2003-03-28T10:43:11Z</time>
<speed>0.0</speed>
</trkpt>
<trkpt lat="47.432056" lon="8.282469">
<ele>445.8</ele>
<time>2003-03-28T10:43:16Z</time>
<speed>0.0</speed>
</trkpt>
<trkpt lat="47.432056" lon="8.282469">
<ele>445.8</ele>
<time>2003-03-28T10:43:21Z</time>
<speed>0.0</speed>
</trkpt>
<trkpt lat="47.432056" lon="8.282469">
<ele>445.8</ele>
<time>2003-03-28T10:43:26Z</time>
<speed>0.0</speed>
</trkpt>
<trkpt lat="47.432056" lon="8.282469">
<ele>445.8</ele>
<time>2003-03-28T10:43:31Z</time>
<speed>0.0</speed>
</trkpt>
<trkpt lat="47.432056" lon="8.282469">
<ele>445.8</ele>
<time>2003-03-28T10:43:36Z</time>
<speed>0.0</speed>
</trkpt>
<trkpt lat="47.432056" lon="8.282469">
<ele>445.8</ele>
<time>2003-03-28T10:43:41Z</time>
<speed>0.0</speed>
</trkpt>
<trkpt lat="47.432056" lon="8.282469">
<ele>445.8</ele>
<time>2003-03-28T10:43:46Z</time>
<speed>0.0</speed>
</trkpt>
<trkpt lat="47.432056" lon="8.282469">
<ele>445.8</ele>
<time>2003-03-28T10:43:51Z</time>
<speed>0.0</speed>
</trkpt>
<trkpt lat="47.432056" lon="8.282469">
<ele>445.8</ele>
<time>2003-03-28T10:43:56Z</time>
<speed>0.0</speed>
</trkpt>
<trkpt lat="47.432056" lon="8.282469">
<ele>445.8</ele>
<time>2003-03-28T10:44:01Z</time>
<speed>0.0</speed>
</trkpt>
<trkpt lat="47.432056" lon="8.282469">
<ele>445.8</ele>
<time>2003-03-28T10:44:06Z</time>
<speed>0.0</speed>
</trkpt>
<trkpt lat="47.432056" lon="8.282469">
<ele>445.8</ele>
<time>2003-03-28T10:44:11Z</time>
<speed>0.0</speed>
</trkpt>
<trkpt lat="47.432056" lon="8.282469">
<ele>445.8</ele>
<time>2003-03-28T10:44:16Z</time>
<speed>0.0</speed>
</trkpt>
<trkpt lat="47.432056" lon="8.282469">
<ele>445.8</ele>
<time>2003-03-28T10:44:21Z</time>
<speed>0.0</speed>
</trkpt>
<trkpt lat="47.432056" lon="8.282469">
<ele>445.8</ele>
<time>2003-03-28T10:44:26Z</time>
<speed>0.0</speed>
</trkpt>
<trkpt lat="47.432056" lon="8.282469">
<ele>445.8</ele>
<time>2003-03-28T10:44:31Z</time>
<speed>0.0</speed>
</trkpt>
<trkpt lat="47.432056" lon="8.282469">
<ele>445.8</ele>
<time>2003-03-28T10:44:36Z</time>
<speed>0.0</speed>
</trkpt>
<trkpt lat="47.432056" lon="8.282469">
<ele>445.8</ele>
<time>2003-03-28T10:44:41Z</time>
<speed>0.0</speed>
</trkpt>
<trkpt lat="47.432056" lon="8.282469">
<ele>445.8</ele>
<time>2003-03-28T10:44:46Z</time>
<speed>0.0</speed>
</trkpt>
<trkpt lat="47.432056" lon="8.282469">
<ele>445.8</ele>
<time>2003-03-28T10:44:51Z</time>
<speed>0.0</speed>
</trkpt>
<trkpt lat="47.432056" lon="8.282469">
<ele>445.8</ele>
<time>2003-03-28T10:44:56Z</time>
<speed>0.0</speed>
</trkpt>
<trkpt lat="47.432056" lon="8.282469">
<ele>445.8</ele>
<time>2003-03-28T10:45:01Z</time>
<speed>0.0</speed>
</trkpt>
<trkpt lat="47.432056" lon="8.282469">
<ele>445.8</ele>
<time>2003-03-28T10:45:06Z</time>
<speed>0.0</speed>
</trkpt>
<trkpt lat="47.432056" lon="8.282469">
<ele>445.8</ele>
<time>2003-03-28T10:45:11Z</time>
<speed>0.0</speed>
</trkpt>
<trkpt lat="47.432056" lon="8.282469">
<ele>445.8</ele>
<time>2003-03-28T10:45:16Z</time>
<speed>0.0</speed>
</trkpt>
<trkpt lat="47.432056" lon="8.282469">
<ele>445.8</ele>
<time>2003-03-28T10:45:21Z</time>
<speed>0.0</speed>
</trkpt>
<trkpt lat="47.432056" lon="8.282469">
<ele>445.8</ele>
<time>2003-03-28T10:45:26Z</time>
<speed>0.0</speed>
</trkpt>
<trkpt lat="47.432056" lon="8.282469">
<ele>445.8</ele>
<time>2003-03-28T10:45:31Z</time>
<speed>0.0</speed>
</trkpt>
<trkpt lat="47.432056" lon="8.282469">
<ele>445.8</ele>
<time>2003-03-28T10:45:36Z</time>
<speed>0.0</speed>
</trkpt>
<trkpt lat="47.432056" lon="8.282469">
<ele>445.8</ele>
<time>2003-03-28T10:45:41Z</time>
<speed>0.0</speed>
</trkpt>
<trkpt lat="47.432056" lon="8.282469">
<ele>445.8</ele>
<time>2003-03-28T10:45:46Z</time>
<speed>0.0</speed>
</trkpt>
<trkpt lat="47.432056" lon="8.282469">
<ele>445.8</ele>
<time>2003-03-28T10:45:51Z</time>
<speed>0.0</speed>
</trkpt>
<trkpt lat="47.432056" lon="8.282469">
<ele>445.8</ele>
<time>2003-03-28T10:45:56Z</time>
<speed>0.0</speed>
</trkpt>
<trkpt lat="47.432056" lon="8.282469">
<ele>445.8</ele>
<time>2003-03-28T10:46:01Z</time>
<speed>0.0</speed>
</trkpt>
<trkpt lat="47.432056" lon="8.282469">
<ele>445.8</ele>
<time>2003-03-28T10:46:06Z</time>
<speed>0.0</speed>
</trkpt>
<trkpt lat="47.432056" lon="8.282469">
<ele>445.8</ele>
<time>2003-03-28T10:46:11Z</time>
<speed>0.0</speed>
</trkpt>
<trkpt lat="47.432056" lon="8.282469">
<ele>445.8</ele>
<time>2003-03-28T10:46:16Z</time>
<speed>0.0</speed>
</trkpt>
<trkpt lat="47.432056" lon="8.282469">
<ele>445.8</ele>
<time>2003-03-28T10:46:21Z</time>
<speed>0.0</speed>
</trkpt>
<trkpt lat="47.432056" lon="8.282469">
<ele>445.8</ele>
<time>2003-03-28T10:46:26Z</time>
<speed>0.0</speed>
</trkpt>
<trkpt lat="47.432056" lon="8.282469">
<ele>445.8</ele>
<time>2003-03-28T10:46:31Z</time>
<speed>0.0</speed>
</trkpt>
<trkpt lat="47.432056" lon="8.282469">
<ele>445.8</ele>
<time>2003-03-28T10:46:36Z</time>
<speed>0.0</speed>
</trkpt>
<trkpt lat="47.432056" lon="8.282469">
<ele>445.8</ele>
<time>2003-03-28T10:46:41Z</time>
<speed>0.0</speed>
</trkpt>
<trkpt lat="47.432056" lon="8.282469">
<ele>445.8</ele>
<time>2003-03-28T10:46:46Z</time>
<speed>0.0</speed>
</trkpt>
<trkpt lat="47.432056" lon="8.282469">
<ele>445.8</ele>
<time>2003-03-28T10:46:51Z</time>
<speed>0.0</speed>
</trkpt>
<trkpt lat="47.432056" lon="8.282469">
<ele>445.8</ele>
<time>2003-03-28T10:46:56Z</time>
<speed>0.0</speed>
</trkpt>
<trkpt lat="47.432056" lon="8.282469">
<ele>445.8</ele>
<time>2003-03-28T10:47:01Z</time>
<speed>0.0</speed>
</trkpt>
<trkpt lat="47.432056" lon="8.282469">
<ele>445.8</ele>
<time>2003-03-28T10:47:06Z</time>
<speed>0.0</speed>
</trkpt>
<trkpt lat="47.432056" lon="8.282469">
<ele>445.8</ele>
<time>2003-03-28T10:47:11Z</time>
<speed>0.0</speed>
</trkpt>
<trkpt lat="47.432056" lon="8.282469">
<ele>445.8</ele>
<time>2003-03-28T10:47:16Z</time>
<speed>0.0</speed>
</trkpt>
<trkpt lat="47.432056" lon="8.282469">
<ele>445.8</ele>
<time>2003-03-28T10:47:21Z</time>
<speed>0.0</speed>
</trkpt>
<trkpt lat="47.432056" lon="8.282469">
<ele>445.8</ele>
<time>2003-03-28T10:47:26Z</time>
<speed>0.0</speed>
</trkpt>
<trkpt lat="47.432056" lon="8.282469">
<ele>445.8</ele>
<time>2003-03-28T10:47:31Z</time>
<speed>0.0</speed>
</trkpt>
<trkpt lat="47.432056" lon="8.282469">
<ele>445.8</ele>
<time>2003-03-28T10:47:36Z</time>
<speed>0.1</speed>
</trkpt>
<trkpt lat="47.432062" lon="8.282469">
<ele>446.6</ele>
<time>2003-03-28T10:47:41Z</time>
<speed>0.0</speed>
</trkpt>
<trkpt lat="47.432062" lon="8.282469">
<ele>446.6</ele>
<time>2003-03-28T10:47:46Z</time>
<speed>0.0</speed>
</trkpt>
<trkpt lat="47.432062" lon="8.282469">
<ele>446.6</ele>
<time>2003-03-28T10:47:51Z</time>
<speed>0.0</speed>
</trkpt>
<trkpt lat="47.432062" lon="8.282469">
<ele>446.6</ele>
<time>2003-03-28T10:47:56Z</time>
<speed>0.0</speed>
</trkpt>
<trkpt lat="47.432062" lon="8.282469">
<ele>446.6</ele>
<time>2003-03-28T10:48:01Z</time>
<speed>0.0</speed>
</trkpt>
<trkpt lat="47.432062" lon="8.282469">
<ele>446.6</ele>
<time>2003-03-28T10:48:06Z</time>
<speed>0.0</speed>
</trkpt>
<trkpt lat="47.432062" lon="8.282469">
<ele>446.6</ele>
<time>2003-03-28T10:48:11Z</time>
<speed>0.0</speed>
</trkpt>
<trkpt lat="47.432062" lon="8.282469">
<ele>446.6</ele>
<time>2003-03-28T10:48:16Z</time>
<speed>0.0</speed>
</trkpt>
<trkpt lat="47.432062" lon="8.282469">
<ele>446.6</ele>
<time>2003-03-28T10:48:21Z</time>
<speed>0.0</speed>
</trkpt>
<trkpt lat="47.432062" lon="8.282469">
<ele>446.6</ele>
<time>2003-03-28T10:48:26Z</time>
<speed>0.0</speed>
</trkpt>
<trkpt lat="47.432062" lon="8.282469">
<ele>446.6</ele>
<time>2003-03-28T10:48:31Z</time>
<speed>0.0</speed>
</trkpt>
<trkpt lat="47.432062" lon="8.282469">
<ele>446.6</ele>
<time>2003-03-28T10:48:36Z</time>
<speed>0.0</speed>
</trkpt>
<trkpt lat="47.432062" lon="8.282469">
<ele>446.6</ele>
<time>2003-03-28T10:48:41Z</time>
<speed>0.0</speed>
</trkpt>
<trkpt lat="47.432062" lon="8.282469">
<ele>446.6</ele>
<time>2003-03-28T10:48:46Z</time>
<speed>0.0</speed>
</trkpt>
<trkpt lat="47.432062" lon="8.282469">
<ele>446.6</ele>
<time>2003-03-28T10:48:51Z</time>
<speed>0.0</speed>
</trkpt>
<trkpt lat="47.432062" lon="8.282469">
<ele>446.6</ele>
<time>2003-03-28T10:48:56Z</time>
<speed>0.0</speed>
</trkpt>
<trkpt lat="47.432062" lon="8.282469">
<ele>446.6</ele>
<time>2003-03-28T10:49:01Z</time>
<speed>0.0</speed>
</trkpt>
<trkpt lat="47.432062" lon="8.282469">
<ele>446.6</ele>
<time>2003-03-28T10:49:06Z</time>
<speed>0.0</speed>
</trkpt>
<trkpt lat="47.432062" lon="8.282469">
<ele>446.6</ele>
<time>2003-03-28T10:49:11Z</time>
<speed>0.0</speed>
</trkpt>
<trkpt lat="47.432062" lon="8.282469">
<ele>446.6</ele>
<time>2003-03-28T10:49:16Z</time>
<speed>0.0</speed>
</trkpt>
<trkpt lat="47.432062" lon="8.282469">
<ele>446.6</ele>
<time>2003-03-28T10:49:21Z</time>
<speed>0.0</speed>
</trkpt>
<trkpt lat="47.432062" lon="8.282469">
<ele>446.6</ele>
<time>2003-03-28T10:49:26Z</time>
<speed>0.0</speed>
</trkpt>
<trkpt lat="47.432062" lon="8.282469">
<ele>446.6</ele>
<time>2003-03-28T10:49:31Z</time>
<speed>0.0</speed>
</trkpt>
<trkpt lat="47.432062" lon="8.282469">
<ele>446.6</ele>
<time>2003-03-28T10:49:36Z</time>
<speed>0.0</speed>
</trkpt>
<trkpt lat="47.432062" lon="8.282469">
<ele>446.6</ele>
<time>2003-03-28T10:49:41Z</time>
<speed>0.0</speed>
</trkpt>
<trkpt lat="47.432062" lon="8.282469">
<ele>446.6</ele>
<time>2003-03-28T10:49:46Z</time>
<speed>0.0</speed>
</trkpt>
<trkpt lat="47.432062" lon="8.282469">
<ele>446.6</ele>
<time>2003-03-28T10:49:51Z</time>
<speed>0.0</speed>
</trkpt>
<trkpt lat="47.432062" lon="8.282469">
<ele>446.6</ele>
<time>2003-03-28T10:49:56Z</time>
<speed>0.0</speed>
</trkpt>
<trkpt lat="47.432062" lon="8.282469">
<ele>446.6</ele>
<time>2003-03-28T10:50:01Z</time>
<speed>0.0</speed>
</trkpt>
<trkpt lat="47.432062" lon="8.282469">
<ele>446.6</ele>
<time>2003-03-28T10:50:06Z</time>
<speed>0.0</speed>
</trkpt>
<trkpt lat="47.432062" lon="8.282469">
<ele>446.6</ele>
<time>2003-03-28T10:50:11Z</time>
<speed>0.0</speed>
</trkpt>
<trkpt lat="47.432062" lon="8.282469">
<ele>446.6</ele>
<time>2003-03-28T10:50:16Z</time>
<speed>0.0</speed>
</trkpt>
<trkpt lat="47.432062" lon="8.282469">
<ele>446.6</ele>
<time>2003-03-28T10:50:21Z</time>
<speed>0.0</speed>
</trkpt>
<trkpt lat="47.432062" lon="8.282469">
<ele>446.6</ele>
<time>2003-03-28T10:50:26Z</time>
<speed>0.0</speed>
</trkpt>
<trkpt lat="47.432062" lon="8.282469">
<ele>446.6</ele>
<time>2003-03-28T10:50:31Z</time>
<speed>0.0</speed>
</trkpt>
<trkpt lat="47.432062" lon="8.282469">
<ele>446.6</ele>
<time>2003-03-28T10:50:36Z</time>
<speed>0.0</speed>
</trkpt>
<trkpt lat="47.432062" lon="8.282469">
<ele>446.6</ele>
<time>2003-03-28T10:50:41Z</time>
<speed>0.0</speed>
</trkpt>
<trkpt lat="47.432062" lon="8.282469">
<ele>446.6</ele>
<time>2003-03-28T10:50:46Z</time>
<speed>0.0</speed>
</trkpt>
<trkpt lat="47.432062" lon="8.282469">
<ele>446.6</ele>
<time>2003-03-28T10:50:51Z</time>
<speed>0.0</speed>
</trkpt>
<trkpt lat="47.432062" lon="8.282469">
<ele>446.6</ele>
<time>2003-03-28T10:50:56Z</time>
<speed>0.0</speed>
</trkpt>
<trkpt lat="47.432062" lon="8.282469">
<ele>446.6</ele>
<time>2003-03-28T10:51:01Z</time>
<speed>0.0</speed>
</trkpt>
<trkpt lat="47.432062" lon="8.282469">
<ele>446.6</ele>
<time>2003-03-28T10:51:06Z</time>
<speed>0.0</speed>
</trkpt>
<trkpt lat="47.432062" lon="8.282469">
<ele>446.6</ele>
<time>2003-03-28T10:51:11Z</time>
<speed>0.0</speed>
</trkpt>
<trkpt lat="47.432062" lon="8.282469">
<ele>446.6</ele>
<time>2003-03-28T10:51:16Z</time>
<speed>0.0</speed>
</trkpt>
<trkpt lat="47.432062" lon="8.282469">
<ele>446.6</ele>
<time>2003-03-28T10:51:21Z</time>
<speed>0.0</speed>
</trkpt>
<trkpt lat="47.432062" lon="8.282469">
<ele>446.6</ele>
<time>2003-03-28T10:51:26Z</time>
<speed>0.0</speed>
</trkpt>
<trkpt lat="47.432062" lon="8.282469">
<ele>446.6</ele>
<time>2003-03-28T10:51:31Z</time>
<speed>0.0</speed>
</trkpt>
<trkpt lat="47.432062" lon="8.282469">
<ele>446.6</ele>
<time>2003-03-28T10:51:36Z</time>
<speed>0.0</speed>
</trkpt>
<trkpt lat="47.432062" lon="8.282469">
<ele>446.6</ele>
<time>2003-03-28T10:51:41Z</time>
<speed>0.0</speed>
</trkpt>
<trkpt lat="47.432062" lon="8.282469">
<ele>446.6</ele>
<time>2003-03-28T10:51:46Z</time>
<speed>0.0</speed>
</trkpt>
<trkpt lat="47.432062" lon="8.282469">
<ele>446.6</ele>
<time>2003-03-28T10:51:51Z</time>
<speed>0.0</speed>
</trkpt>
<trkpt lat="47.432062" lon="8.282469">
<ele>446.6</ele>
<time>2003-03-28T10:51:56Z</time>
<speed>0.0</speed>
</trkpt>
<trkpt lat="47.432062" lon="8.282469">
<ele>446.6</ele>
<time>2003-03-28T10:52:01Z</time>
<speed>0.0</speed>
</trkpt>
<trkpt lat="47.432062" lon="8.282469">
<ele>446.6</ele>
<time>2003-03-28T10:52:06Z</time>
<speed>0.0</speed>
</trkpt>
<trkpt lat="47.432062" lon="8.282469">
<ele>446.6</ele>
<time>2003-03-28T10:52:11Z</time>
<speed>0.0</speed>
</trkpt>
<trkpt lat="47.432062" lon="8.282469">
<ele>446.6</ele>
<time>2003-03-28T10:52:16Z</time>
<speed>0.0</speed>
</trkpt>
<trkpt lat="47.432062" lon="8.282469">
<ele>446.6</ele>
<time>2003-03-28T10:52:21Z</time>
<speed>0.0</speed>
</trkpt>
<trkpt lat="47.432062" lon="8.282469">
<ele>446.6</ele>
<time>2003-03-28T10:52:26Z</time>
<speed>0.0</speed>
</trkpt>
<trkpt lat="47.432062" lon="8.282469">
<ele>446.6</ele>
<time>2003-03-28T10:52:31Z</time>
<speed>0.0</speed>
</trkpt>
<trkpt lat="47.432062" lon="8.282469">
<ele>446.6</ele>
<time>2003-03-28T10:52:36Z</time>
<speed>0.0</speed>
</trkpt>
<trkpt lat="47.432062" lon="8.282469">
<ele>446.6</ele>
<time>2003-03-28T10:52:41Z</time>
<speed>0.0</speed>
</trkpt>
<trkpt lat="47.432062" lon="8.282469">
<ele>446.6</ele>
<time>2003-03-28T10:52:46Z</time>
<speed>0.0</speed>
</trkpt>
<trkpt lat="47.432062" lon="8.282469">
<ele>446.6</ele>
<time>2003-03-28T10:52:51Z</time>
<speed>0.0</speed>
</trkpt>
<trkpt lat="47.432062" lon="8.282469">
<ele>446.6</ele>
<time>2003-03-28T10:52:56Z</time>
<speed>0.0</speed>
</trkpt>
<trkpt lat="47.432062" lon="8.282469">
<ele>446.6</ele>
<time>2003-03-28T10:53:01Z</time>
<speed>0.0</speed>
</trkpt>
<trkpt lat="47.432062" lon="8.282469">
<ele>446.6</ele>
<time>2003-03-28T10:53:06Z</time>
<speed>0.0</speed>
</trkpt>
<trkpt lat="47.432062" lon="8.282469">
<ele>446.6</ele>
<time>2003-03-28T10:53:11Z</time>
<speed>0.0</speed>
</trkpt>
<trkpt lat="47.432062" lon="8.282469">
<ele>446.6</ele>
<time>2003-03-28T10:53:16Z</time>
<speed>0.0</speed>
</trkpt>
<trkpt lat="47.432062" lon="8.282469">
<ele>446.6</ele>
<time>2003-03-28T10:53:21Z</time>
<speed>0.0</speed>
</trkpt>
<trkpt lat="47.432062" lon="8.282469">
<ele>446.6</ele>
<time>2003-03-28T10:53:26Z</time>
<speed>0.0</speed>
</trkpt>
<trkpt lat="47.432062" lon="8.282469">
<ele>446.6</ele>
<time>2003-03-28T10:53:31Z</time>
<speed>0.0</speed>
</trkpt>
<trkpt lat="47.432062" lon="8.282469">
<ele>446.6</ele>
<time>2003-03-28T10:53:36Z</time>
<speed>0.0</speed>
</trkpt>
<trkpt lat="47.432062" lon="8.282469">
<ele>446.6</ele>
<time>2003-03-28T10:53:41Z</time>
<speed>0.0</speed>
</trkpt>
<trkpt lat="47.432062" lon="8.282469">
<ele>446.6</ele>
<time>2003-03-28T10:53:46Z</time>
<speed>0.0</speed>
</trkpt>
<trkpt lat="47.432062" lon="8.282469">
<ele>446.6</ele>
<time>2003-03-28T10:53:51Z</time>
<speed>0.0</speed>
</trkpt>
<trkpt lat="47.432062" lon="8.282469">
<ele>446.6</ele>
<time>2003-03-28T10:53:56Z</time>
<speed>0.0</speed>
</trkpt>
<trkpt lat="47.432062" lon="8.282469">
<ele>446.6</ele>
<time>2003-03-28T10:54:01Z</time>
<speed>0.0</speed>
</trkpt>
<trkpt lat="47.432062" lon="8.282469">
<ele>446.6</ele>
<time>2003-03-28T10:54:06Z</time>
<speed>0.0</speed>
</trkpt>
<trkpt lat="47.432062" lon="8.282469">
<ele>446.6</ele>
<time>2003-03-28T10:54:11Z</time>
<speed>0.0</speed>
</trkpt>
<trkpt lat="47.432062" lon="8.282469">
<ele>446.6</ele>
<time>2003-03-28T10:54:16Z</time>
<speed>0.0</speed>
</trkpt>
<trkpt lat="47.432062" lon="8.282469">
<ele>446.6</ele>
<time>2003-03-28T10:54:21Z</time>
<speed>0.0</speed>
</trkpt>
<trkpt lat="47.432062" lon="8.282469">
<ele>446.6</ele>
<time>2003-03-28T10:54:26Z</time>
<speed>0.0</speed>
</trkpt>
<trkpt lat="47.432062" lon="8.282469">
<ele>446.6</ele>
<time>2003-03-28T10:54:31Z</time>
<speed>0.0</speed>
</trkpt>
<trkpt lat="47.432062" lon="8.282469">
<ele>446.6</ele>
<time>2003-03-28T10:54:36Z</time>
<speed>0.0</speed>
</trkpt>
<trkpt lat="47.432062" lon="8.282469">
<ele>446.6</ele>
<time>2003-03-28T10:54:41Z</time>
<speed>0.0</speed>
</trkpt>
<trkpt lat="47.432062" lon="8.282469">
<ele>446.6</ele>
<time>2003-03-28T10:54:46Z</time>
<speed>0.0</speed>
</trkpt>
<trkpt lat="47.432062" lon="8.282469">
<ele>446.6</ele>
<time>2003-03-28T10:54:51Z</time>
<speed>0.0</speed>
</trkpt>
<trkpt lat="47.432062" lon="8.282469">
<ele>446.6</ele>
<time>2003-03-28T10:54:56Z</time>
<speed>0.0</speed>
</trkpt>
<trkpt lat="47.432062" lon="8.282469">
<ele>446.6</ele>
<time>2003-03-28T10:55:01Z</time>
<speed>0.0</speed>
</trkpt>
<trkpt lat="47.432062" lon="8.282469">
<ele>446.6</ele>
<time>2003-03-28T10:55:06Z</time>
<speed>0.0</speed>
</trkpt>
<trkpt lat="47.432062" lon="8.282469">
<ele>446.6</ele>
<time>2003-03-28T10:55:11Z</time>
<speed>0.0</speed>
</trkpt>
<trkpt lat="47.432062" lon="8.282469">
<ele>446.6</ele>
<time>2003-03-28T10:55:16Z</time>
<speed>0.0</speed>
</trkpt>
<trkpt lat="47.432062" lon="8.282469">
<ele>446.6</ele>
<time>2003-03-28T10:55:21Z</time>
<speed>0.0</speed>
</trkpt>
<trkpt lat="47.432062" lon="8.282469">
<ele>446.6</ele>
<time>2003-03-28T10:55:26Z</time>
<speed>0.0</speed>
</trkpt>
<trkpt lat="47.432062" lon="8.282469">
<ele>446.6</ele>
<time>2003-03-28T10:55:31Z</time>
<speed>0.0</speed>
</trkpt>
<trkpt lat="47.432062" lon="8.282469">
<ele>446.6</ele>
<time>2003-03-28T10:55:36Z</time>
<speed>0.0</speed>
</trkpt>
<trkpt lat="47.432062" lon="8.282469">
<ele>446.6</ele>
<time>2003-03-28T10:55:41Z</time>
<speed>0.0</speed>
</trkpt>
<trkpt lat="47.432062" lon="8.282469">
<ele>446.6</ele>
<time>2003-03-28T10:55:46Z</time>
<speed>0.0</speed>
</trkpt>
<trkpt lat="47.432062" lon="8.282469">
<ele>446.6</ele>
<time>2003-03-28T10:55:51Z</time>
<speed>0.0</speed>
</trkpt>
<trkpt lat="47.432062" lon="8.282469">
<ele>446.6</ele>
<time>2003-03-28T10:55:56Z</time>
<speed>0.0</speed>
</trkpt>
<trkpt lat="47.432062" lon="8.282469">
<ele>446.6</ele>
<time>2003-03-28T10:56:01Z</time>
<speed>0.0</speed>
</trkpt>
<trkpt lat="47.432062" lon="8.282469">
<ele>446.6</ele>
<time>2003-03-28T10:56:06Z</time>
<speed>0.0</speed>
</trkpt>
<trkpt lat="47.432062" lon="8.282469">
<ele>446.6</ele>
<time>2003-03-28T10:56:11Z</time>
<speed>0.0</speed>
</trkpt>
<trkpt lat="47.432062" lon="8.282469">
<ele>446.6</ele>
<time>2003-03-28T10:56:16Z</time>
<speed>0.0</speed>
</trkpt>
<trkpt lat="47.432062" lon="8.282469">
<ele>446.6</ele>
<time>2003-03-28T10:56:21Z</time>
<speed>0.0</speed>
</trkpt>
<trkpt lat="47.432062" lon="8.282469">
<ele>446.6</ele>
<time>2003-03-28T10:56:26Z</time>
<speed>0.0</speed>
</trkpt>
<trkpt lat="47.432062" lon="8.282469">
<ele>446.6</ele>
<time>2003-03-28T10:56:31Z</time>
<speed>0.0</speed>
</trkpt>
<trkpt lat="47.432062" lon="8.282469">
<ele>446.6</ele>
<time>2003-03-28T10:56:36Z</time>
<speed>0.0</speed>
</trkpt>
<trkpt lat="47.432062" lon="8.282469">
<ele>446.6</ele>
<time>2003-03-28T10:56:41Z</time>
<speed>0.0</speed>
</trkpt>
<trkpt lat="47.432062" lon="8.282469">
<ele>446.6</ele>
<time>2003-03-28T10:56:46Z</time>
<speed>0.0</speed>
</trkpt>
<trkpt lat="47.432062" lon="8.282469">
<ele>446.6</ele>
<time>2003-03-28T10:56:51Z</time>
<speed>0.0</speed>
</trkpt>
<trkpt lat="47.432062" lon="8.282469">
<ele>446.6</ele>
<time>2003-03-28T10:56:56Z</time>
<speed>0.0</speed>
</trkpt>
<trkpt lat="47.432062" lon="8.282469">
<ele>446.6</ele>
<time>2003-03-28T10:57:01Z</time>
<speed>0.0</speed>
</trkpt>
<trkpt lat="47.432062" lon="8.282469">
<ele>446.6</ele>
<time>2003-03-28T10:57:06Z</time>
<speed>0.0</speed>
</trkpt>
<trkpt lat="47.432062" lon="8.282469">
<ele>446.6</ele>
<time>2003-03-28T10:57:11Z</time>
<speed>0.0</speed>
</trkpt>
<trkpt lat="47.432062" lon="8.282469">
<ele>446.6</ele>
<time>2003-03-28T10:57:16Z</time>
<speed>0.0</speed>
</trkpt>
<trkpt lat="47.432062" lon="8.282469">
<ele>446.6</ele>
<time>2003-03-28T10:57:21Z</time>
<speed>0.0</speed>
</trkpt>
<trkpt lat="47.432062" lon="8.282469">
<ele>446.6</ele>
<time>2003-03-28T10:57:26Z</time>
<speed>0.0</speed>
</trkpt>
<trkpt lat="47.432062" lon="8.282469">
<ele>446.6</ele>
<time>2003-03-28T10:57:31Z</time>
<speed>0.0</speed>
</trkpt>
<trkpt lat="47.432062" lon="8.282469">
<ele>446.6</ele>
<time>2003-03-28T10:57:36Z</time>
<speed>0.0</speed>
</trkpt>
<trkpt lat="47.432062" lon="8.282469">
<ele>446.6</ele>
<time>2003-03-28T10:57:41Z</time>
<speed>0.0</speed>
</trkpt>
<trkpt lat="47.432062" lon="8.282469">
<ele>446.6</ele>
<time>2003-03-28T10:57:46Z</time>
<speed>0.0</speed>
</trkpt>
<trkpt lat="47.432062" lon="8.282469">
<ele>446.6</ele>
<time>2003-03-28T10:57:51Z</time>
<speed>0.0</speed>
</trkpt>
<trkpt lat="47.432062" lon="8.282469">
<ele>446.6</ele>
<time>2003-03-28T10:57:56Z</time>
<speed>0.0</speed>
</trkpt>
<trkpt lat="47.432062" lon="8.282469">
<ele>446.6</ele>
<time>2003-03-28T10:58:01Z</time>
<speed>0.0</speed>
</trkpt>
<trkpt lat="47.432062" lon="8.282469">
<ele>446.6</ele>
<time>2003-03-28T10:58:06Z</time>
<speed>0.0</speed>
</trkpt>
<trkpt lat="47.432062" lon="8.282469">
<ele>446.6</ele>
<time>2003-03-28T10:58:11Z</time>
<speed>0.0</speed>
</trkpt>
<trkpt lat="47.432062" lon="8.282469">
<ele>446.6</ele>
<time>2003-03-28T10:58:16Z</time>
<speed>0.0</speed>
</trkpt>
<trkpt lat="47.432062" lon="8.282469">
<ele>446.6</ele>
<time>2003-03-28T10:58:21Z</time>
<speed>0.0</speed>
</trkpt>
<trkpt lat="47.432062" lon="8.282469">
<ele>446.6</ele>
<time>2003-03-28T10:58:26Z</time>
<speed>0.0</speed>
</trkpt>
<trkpt lat="47.432062" lon="8.282469">
<ele>446.6</ele>
<time>2003-03-28T10:58:31Z</time>
<speed>0.0</speed>
</trkpt>
<trkpt lat="47.432062" lon="8.282469">
<ele>446.6</ele>
<time>2003-03-28T10:58:36Z</time>
<speed>0.0</speed>
</trkpt>
<trkpt lat="47.432062" lon="8.282469">
<ele>446.6</ele>
<time>2003-03-28T10:58:41Z</time>
<speed>0.0</speed>
</trkpt>
<trkpt lat="47.432062" lon="8.282469">
<ele>446.6</ele>
<time>2003-03-28T10:58:46Z</time>
<speed>0.0</speed>
</trkpt>
<trkpt lat="47.432062" lon="8.282469">
<ele>446.6</ele>
<time>2003-03-28T10:58:51Z</time>
<speed>0.0</speed>
</trkpt>
<trkpt lat="47.432062" lon="8.282469">
<ele>446.6</ele>
<time>2003-03-28T10:58:56Z</time>
<speed>0.0</speed>
</trkpt>
<trkpt lat="47.432062" lon="8.282469">
<ele>446.6</ele>
<time>2003-03-28T10:59:01Z</time>
<speed>0.0</speed>
</trkpt>
<trkpt lat="47.432062" lon="8.282469">
<ele>446.6</ele>
<time>2003-03-28T10:59:06Z</time>
<speed>0.0</speed>
</trkpt>
<trkpt lat="47.432062" lon="8.282469">
<ele>446.6</ele>
<time>2003-03-28T10:59:11Z</time>
<speed>0.0</speed>
</trkpt>
<trkpt lat="47.432062" lon="8.282469">
<ele>446.6</ele>
<time>2003-03-28T10:59:16Z</time>
<speed>0.0</speed>
</trkpt>
<trkpt lat="47.432062" lon="8.282469">
<ele>446.6</ele>
<time>2003-03-28T10:59:21Z</time>
<speed>0.0</speed>
</trkpt>
<trkpt lat="47.432062" lon="8.282469">
<ele>446.6</ele>
<time>2003-03-28T10:59:26Z</time>
<speed>0.0</speed>
</trkpt>
<trkpt lat="47.432062" lon="8.282469">
<ele>446.6</ele>
<time>2003-03-28T10:59:31Z</time>
<speed>0.0</speed>
</trkpt>
<trkpt lat="47.432062" lon="8.282469">
<ele>446.6</ele>
<time>2003-03-28T10:59:36Z</time>
<speed>0.0</speed>
</trkpt>
<trkpt lat="47.432062" lon="8.282469">
<ele>446.6</ele>
<time>2003-03-28T10:59:41Z</time>
<speed>0.0</speed>
</trkpt>
<trkpt lat="47.432062" lon="8.282469">
<ele>446.6</ele>
<time>2003-03-28T10:59:46Z</time>
<speed>0.0</speed>
</trkpt>
<trkpt lat="47.432062" lon="8.282469">
<ele>446.6</ele>
<time>2003-03-28T10:59:51Z</time>
<speed>0.0</speed>
</trkpt>
<trkpt lat="47.432062" lon="8.282469">
<ele>446.6</ele>
<time>2003-03-28T10:59:56Z</time>
<speed>0.0</speed>
</trkpt>
<trkpt lat="47.432062" lon="8.282469">
<ele>446.6</ele>
<time>2003-03-28T11:00:01Z</time>
<speed>0.0</speed>
</trkpt>
<trkpt lat="47.432062" lon="8.282469">
<ele>446.6</ele>
<time>2003-03-28T11:00:06Z</time>
<speed>0.0</speed>
</trkpt>
<trkpt lat="47.432062" lon="8.282469">
<ele>446.6</ele>
<time>2003-03-28T11:00:11Z</time>
<speed>0.0</speed>
</trkpt>
<trkpt lat="47.432062" lon="8.282469">
<ele>446.6</ele>
<time>2003-03-28T11:00:16Z</time>
<speed>0.0</speed>
</trkpt>
<trkpt lat="47.432062" lon="8.282469">
<ele>446.6</ele>
<time>2003-03-28T11:00:21Z</time>
<speed>0.0</speed>
</trkpt>
<trkpt lat="47.432062" lon="8.282469">
<ele>446.6</ele>
<time>2003-03-28T11:00:26Z</time>
<speed>0.0</speed>
</trkpt>
<trkpt lat="47.432062" lon="8.282469">
<ele>446.6</ele>
<time>2003-03-28T11:00:31Z</time>
<speed>0.0</speed>
</trkpt>
<trkpt lat="47.432062" lon="8.282469">
<ele>446.6</ele>
<time>2003-03-28T11:00:36Z</time>
<speed>0.0</speed>
</trkpt>
<trkpt lat="47.432062" lon="8.282469">
<ele>446.6</ele>
<time>2003-03-28T11:00:41Z</time>
<speed>0.0</speed>
</trkpt>
<trkpt lat="47.432062" lon="8.282469">
<ele>446.6</ele>
<time>2003-03-28T11:00:46Z</time>
<speed>0.0</speed>
</trkpt>
<trkpt lat="47.432062" lon="8.282469">
<ele>446.6</ele>
<time>2003-03-28T11:00:51Z</time>
<speed>0.0</speed>
</trkpt>
<trkpt lat="47.432062" lon="8.282469">
<ele>446.6</ele>
<time>2003-03-28T11:00:56Z</time>
<speed>0.0</speed>
</trkpt>
<trkpt lat="47.432062" lon="8.282469">
<ele>446.6</ele>
<time>2003-03-28T11:01:01Z</time>
<speed>0.0</speed>
</trkpt>
<trkpt lat="47.432062" lon="8.282469">
<ele>446.6</ele>
<time>2003-03-28T11:01:06Z</time>
<speed>0.0</speed>
</trkpt>
<trkpt lat="47.432062" lon="8.282469">
<ele>446.6</ele>
<time>2003-03-28T11:01:11Z</time>
<speed>0.0</speed>
</trkpt>
<trkpt lat="47.432062" lon="8.282469">
<ele>446.6</ele>
<time>2003-03-28T11:01:16Z</time>
<speed>0.0</speed>
</trkpt>
<trkpt lat="47.432062" lon="8.282469">
<ele>446.6</ele>
<time>2003-03-28T11:01:21Z</time>
<speed>0.0</speed>
</trkpt>
<trkpt lat="47.432062" lon="8.282469">
<ele>446.6</ele>
<time>2003-03-28T11:01:26Z</time>
<speed>0.0</speed>
</trkpt>
<trkpt lat="47.432062" lon="8.282469">
<ele>446.6</ele>
<time>2003-03-28T11:01:31Z</time>
<speed>0.0</speed>
</trkpt>
<trkpt lat="47.432062" lon="8.282469">
<ele>446.6</ele>
<time>2003-03-28T11:01:36Z</time>
<speed>0.0</speed>
</trkpt>
<trkpt lat="47.432062" lon="8.282469">
<ele>446.6</ele>
<time>2003-03-28T11:01:41Z</time>
<speed>0.0</speed>
</trkpt>
<trkpt lat="47.432062" lon="8.282469">
<ele>446.6</ele>
<time>2003-03-28T11:01:46Z</time>
<speed>0.0</speed>
</trkpt>
<trkpt lat="47.432062" lon="8.282469">
<ele>446.6</ele>
<time>2003-03-28T11:01:51Z</time>
<speed>0.0</speed>
</trkpt>
<trkpt lat="47.432062" lon="8.282469">
<ele>446.6</ele>
<time>2003-03-28T11:01:56Z</time>
<speed>0.0</speed>
</trkpt>
<trkpt lat="47.432062" lon="8.282469">
<ele>446.6</ele>
<time>2003-03-28T11:02:01Z</time>
<speed>0.0</speed>
</trkpt>
<trkpt lat="47.432062" lon="8.282469">
<ele>446.6</ele>
<time>2003-03-28T11:02:06Z</time>
<speed>0.0</speed>
</trkpt>
<trkpt lat="47.432062" lon="8.282469">
<ele>446.6</ele>
<time>2003-03-28T11:02:11Z</time>
<speed>0.0</speed>
</trkpt>
<trkpt lat="47.432062" lon="8.282469">
<ele>446.6</ele>
<time>2003-03-28T11:02:16Z</time>
<speed>0.0</speed>
</trkpt>
<trkpt lat="47.432062" lon="8.282469">
<ele>446.6</ele>
<time>2003-03-28T11:02:21Z</time>
<speed>0.0</speed>
</trkpt>
<trkpt lat="47.432062" lon="8.282469">
<ele>446.6</ele>
<time>2003-03-28T11:02:26Z</time>
<speed>0.0</speed>
</trkpt>
<trkpt lat="47.432062" lon="8.282469">
<ele>446.6</ele>
<time>2003-03-28T11:02:31Z</time>
<speed>0.0</speed>
</trkpt>
<trkpt lat="47.432062" lon="8.282469">
<ele>446.6</ele>
<time>2003-03-28T11:02:36Z</time>
<speed>0.0</speed>
</trkpt>
<trkpt lat="47.432062" lon="8.282469">
<ele>446.6</ele>
<time>2003-03-28T11:02:41Z</time>
<speed>0.0</speed>
</trkpt>
<trkpt lat="47.432062" lon="8.282469">
<ele>446.6</ele>
<time>2003-03-28T11:02:46Z</time>
<speed>0.0</speed>
</trkpt>
<trkpt lat="47.432062" lon="8.282469">
<ele>446.6</ele>
<time>2003-03-28T11:02:51Z</time>
<speed>0.0</speed>
</trkpt>
<trkpt lat="47.432062" lon="8.282469">
<ele>446.6</ele>
<time>2003-03-28T11:02:56Z</time>
<speed>0.0</speed>
</trkpt>
<trkpt lat="47.432062" lon="8.282469">
<ele>446.6</ele>
<time>2003-03-28T11:03:01Z</time>
<speed>0.0</speed>
</trkpt>
<trkpt lat="47.432062" lon="8.282469">
<ele>446.6</ele>
<time>2003-03-28T11:03:06Z</time>
<speed>0.0</speed>
</trkpt>
<trkpt lat="47.432062" lon="8.282469">
<ele>446.6</ele>
<time>2003-03-28T11:03:11Z</time>
<speed>0.0</speed>
</trkpt>
<trkpt lat="47.432062" lon="8.282469">
<ele>446.6</ele>
<time>2003-03-28T11:03:16Z</time>
<speed>0.0</speed>
</trkpt>
<trkpt lat="47.432062" lon="8.282469">
<ele>446.6</ele>
<time>2003-03-28T11:03:21Z</time>
<speed>0.0</speed>
</trkpt>
<trkpt lat="47.432062" lon="8.282469">
<ele>446.6</ele>
<time>2003-03-28T11:03:26Z</time>
<speed>0.0</speed>
</trkpt>
<trkpt lat="47.432062" lon="8.282469">
<ele>446.6</ele>
<time>2003-03-28T11:03:31Z</time>
<speed>0.0</speed>
</trkpt>
<trkpt lat="47.432062" lon="8.282469">
<ele>446.6</ele>
<time>2003-03-28T11:03:36Z</time>
<speed>0.0</speed>
</trkpt>
<trkpt lat="47.432062" lon="8.282469">
<ele>446.6</ele>
<time>2003-03-28T11:03:41Z</time>
<speed>0.0</speed>
</trkpt>
<trkpt lat="47.432062" lon="8.282469">
<ele>446.6</ele>
<time>2003-03-28T11:03:46Z</time>
<speed>0.0</speed>
</trkpt>
<trkpt lat="47.432062" lon="8.282469">
<ele>446.6</ele>
<time>2003-03-28T11:03:51Z</time>
<speed>0.0</speed>
</trkpt>
<trkpt lat="47.432062" lon="8.282469">
<ele>446.6</ele>
<time>2003-03-28T11:03:56Z</time>
<speed>0.0</speed>
</trkpt>
<trkpt lat="47.432062" lon="8.282469">
<ele>446.6</ele>
<time>2003-03-28T11:04:01Z</time>
<speed>0.0</speed>
</trkpt>
<trkpt lat="47.432062" lon="8.282469">
<ele>446.6</ele>
<time>2003-03-28T11:04:06Z</time>
<speed>0.0</speed>
</trkpt>
<trkpt lat="47.432062" lon="8.282469">
<ele>446.6</ele>
<time>2003-03-28T11:04:11Z</time>
<speed>0.0</speed>
</trkpt>
<trkpt lat="47.432062" lon="8.282469">
<ele>446.6</ele>
<time>2003-03-28T11:04:16Z</time>
<speed>0.0</speed>
</trkpt>
<trkpt lat="47.432062" lon="8.282469">
<ele>446.6</ele>
<time>2003-03-28T11:04:21Z</time>
<speed>0.0</speed>
</trkpt>
<trkpt lat="47.432062" lon="8.282469">
<ele>446.6</ele>
<time>2003-03-28T11:04:26Z</time>
<speed>0.0</speed>
</trkpt>
<trkpt lat="47.432062" lon="8.282469">
<ele>446.6</ele>
<time>2003-03-28T11:04:31Z</time>
<speed>0.0</speed>
</trkpt>
<trkpt lat="47.432062" lon="8.282469">
<ele>446.6</ele>
<time>2003-03-28T11:04:36Z</time>
<speed>0.0</speed>
</trkpt>
<trkpt lat="47.432062" lon="8.282469">
<ele>446.6</ele>
<time>2003-03-28T11:04:41Z</time>
<speed>0.0</speed>
</trkpt>
<trkpt lat="47.432062" lon="8.282469">
<ele>446.6</ele>
<time>2003-03-28T11:04:46Z</time>
<speed>0.0</speed>
</trkpt>
<trkpt lat="47.432062" lon="8.282469">
<ele>446.6</ele>
<time>2003-03-28T11:04:51Z</time>
<speed>0.0</speed>
</trkpt>
<trkpt lat="47.432062" lon="8.282469">
<ele>446.6</ele>
<time>2003-03-28T11:04:56Z</time>
<speed>0.0</speed>
</trkpt>
<trkpt lat="47.432062" lon="8.282469">
<ele>446.6</ele>
<time>2003-03-28T11:05:01Z</time>
<speed>0.0</speed>
</trkpt>
<trkpt lat="47.432062" lon="8.282469">
<ele>446.6</ele>
<time>2003-03-28T11:05:06Z</time>
<speed>0.0</speed>
</trkpt>
<trkpt lat="47.432062" lon="8.282469">
<ele>446.6</ele>
<time>2003-03-28T11:05:11Z</time>
<speed>0.0</speed>
</trkpt>
<trkpt lat="47.432062" lon="8.282469">
<ele>446.6</ele>
<time>2003-03-28T11:05:16Z</time>
<speed>0.2</speed>
</trkpt>
<trkpt lat="47.432063" lon="8.282456">
<ele>446.5</ele>
<time>2003-03-28T11:05:21Z</time>
<speed>0.0</speed>
</trkpt>
<trkpt lat="47.432063" lon="8.282456">
<ele>446.5</ele>
<time>2003-03-28T11:05:26Z</time>
<speed>0.0</speed>
</trkpt>
<trkpt lat="47.432063" lon="8.282456">
<ele>446.5</ele>
<time>2003-03-28T11:05:31Z</time>
<speed>0.0</speed>
</trkpt>
<trkpt lat="47.432063" lon="8.282456">
<ele>446.5</ele>
<time>2003-03-28T11:05:36Z</time>
<speed>0.3</speed>
</trkpt>
<trkpt lat="47.432075" lon="8.282458">
<ele>446.5</ele>
<time>2003-03-28T11:05:41Z</time>
<speed>0.3</speed>
</trkpt>
<trkpt lat="47.432088" lon="8.282460">
<ele>446.6</ele>
<time>2003-03-28T11:05:46Z</time>
<speed>0.0</speed>
</trkpt>
<trkpt lat="47.432088" lon="8.282460">
<ele>446.6</ele>
<time>2003-03-28T11:05:51Z</time>
<speed>0.2</speed>
</trkpt>
<trkpt lat="47.432089" lon="8.282447">
<ele>446.5</ele>
<time>2003-03-28T11:05:56Z</time>
<speed>0.0</speed>
</trkpt>
<trkpt lat="47.432089" lon="8.282447">
<ele>446.5</ele>
<time>2003-03-28T11:06:01Z</time>
<speed>0.0</speed>
</trkpt>
<trkpt lat="47.432088" lon="8.282445">
<ele>447.9</ele>
<time>2003-03-28T11:06:06Z</time>
<speed>0.0</speed>
</trkpt>
<trkpt lat="47.432088" lon="8.282445">
<ele>447.9</ele>
<time>2003-03-28T11:06:11Z</time>
<speed>0.0</speed>
</trkpt>
<trkpt lat="47.432088" lon="8.282445">
<ele>447.9</ele>
<time>2003-03-28T11:06:16Z</time>
<speed>0.0</speed>
</trkpt>
<trkpt lat="47.432088" lon="8.282445">
<ele>447.9</ele>
<time>2003-03-28T11:06:21Z</time>
<speed>0.0</speed>
</trkpt>
<trkpt lat="47.432088" lon="8.282445">
<ele>447.9</ele>
<time>2003-03-28T11:06:26Z</time>
<speed>0.0</speed>
</trkpt>
<trkpt lat="47.432088" lon="8.282445">
<ele>447.9</ele>
<time>2003-03-28T11:06:31Z</time>
<speed>0.0</speed>
</trkpt>
<trkpt lat="47.432088" lon="8.282445">
<ele>447.9</ele>
<time>2003-03-28T11:06:36Z</time>
<speed>0.0</speed>
</trkpt>
<trkpt lat="47.432088" lon="8.282445">
<ele>447.9</ele>
<time>2003-03-28T11:06:41Z</time>
<speed>0.0</speed>
</trkpt>
<trkpt lat="47.432088" lon="8.282445">
<ele>447.9</ele>
<time>2003-03-28T11:06:46Z</time>
<speed>0.0</speed>
</trkpt>
<trkpt lat="47.432088" lon="8.282445">
<ele>447.9</ele>
<time>2003-03-28T11:06:51Z</time>
<speed>0.0</speed>
</trkpt>
<trkpt lat="47.432088" lon="8.282445">
<ele>447.9</ele>
<time>2003-03-28T11:06:56Z</time>
<speed>0.0</speed>
</trkpt>
<trkpt lat="47.432088" lon="8.282445">
<ele>447.9</ele>
<time>2003-03-28T11:07:01Z</time>
<speed>0.0</speed>
</trkpt>
<trkpt lat="47.432088" lon="8.282445">
<ele>447.9</ele>
<time>2003-03-28T11:07:06Z</time>
<speed>0.0</speed>
</trkpt>
<trkpt lat="47.432088" lon="8.282445">
<ele>447.9</ele>
<time>2003-03-28T11:07:11Z</time>
<speed>0.0</speed>
</trkpt>
<trkpt lat="47.432088" lon="8.282445">
<ele>447.9</ele>
<time>2003-03-28T11:07:16Z</time>
<speed>0.0</speed>
</trkpt>
<trkpt lat="47.432088" lon="8.282445">
<ele>447.9</ele>
<time>2003-03-28T11:07:21Z</time>
<speed>0.0</speed>
</trkpt>
<trkpt lat="47.432088" lon="8.282445">
<ele>447.9</ele>
<time>2003-03-28T11:07:26Z</time>
<speed>0.0</speed>
</trkpt>
<trkpt lat="47.432088" lon="8.282445">
<ele>447.9</ele>
<time>2003-03-28T11:07:31Z</time>
<speed>0.0</speed>
</trkpt>
<trkpt lat="47.432088" lon="8.282445">
<ele>447.9</ele>
<time>2003-03-28T11:07:36Z</time>
<speed>0.0</speed>
</trkpt>
<trkpt lat="47.432088" lon="8.282445">
<ele>447.9</ele>
<time>2003-03-28T11:07:41Z</time>
<speed>0.0</speed>
</trkpt>
<trkpt lat="47.432088" lon="8.282445">
<ele>447.9</ele>
<time>2003-03-28T11:07:46Z</time>
<speed>0.0</speed>
</trkpt>
<trkpt lat="47.432088" lon="8.282445">
<ele>447.9</ele>
<time>2003-03-28T11:07:51Z</time>
<speed>0.0</speed>
</trkpt>
<trkpt lat="47.432088" lon="8.282445">
<ele>447.9</ele>
<time>2003-03-28T11:07:56Z</time>
<speed>0.2</speed>
</trkpt>
<trkpt lat="47.432087" lon="8.282458">
<ele>448.0</ele>
<time>2003-03-28T11:08:01Z</time>
<speed>0.0</speed>
</trkpt>
<trkpt lat="47.432087" lon="8.282458">
<ele>448.0</ele>
<time>2003-03-28T11:08:06Z</time>
<speed>0.4</speed>
</trkpt>
<trkpt lat="47.432101" lon="8.282447">
<ele>448.0</ele>
<time>2003-03-28T11:08:11Z</time>
<speed>0.8</speed>
</trkpt>
<trkpt lat="47.432111" lon="8.282394">
<ele>448.3</ele>
<time>2003-03-28T11:08:16Z</time>
<speed>1.0</speed>
</trkpt>
<trkpt lat="47.432140" lon="8.282345">
<ele>448.1</ele>
<time>2003-03-28T11:08:21Z</time>
<speed>0.7</speed>
</trkpt>
<trkpt lat="47.432162" lon="8.282308">
<ele>448.6</ele>
<time>2003-03-28T11:08:26Z</time>
<speed>0.7</speed>
</trkpt>
<trkpt lat="47.432183" lon="8.282271">
<ele>449.1</ele>
<time>2003-03-28T11:08:31Z</time>
<speed>0.5</speed>
</trkpt>
<trkpt lat="47.432203" lon="8.282259">
<ele>449.8</ele>
<time>2003-03-28T11:08:36Z</time>
<speed>0.0</speed>
</trkpt>
<trkpt lat="47.432203" lon="8.282259">
<ele>449.8</ele>
<time>2003-03-28T11:08:41Z</time>
<speed>0.6</speed>
</trkpt>
<trkpt lat="47.432206" lon="8.282220">
<ele>449.5</ele>
<time>2003-03-28T11:08:46Z</time>
<speed>0.9</speed>
</trkpt>
<trkpt lat="47.432229" lon="8.282171">
<ele>448.5</ele>
<time>2003-03-28T11:08:51Z</time>
<speed>0.4</speed>
</trkpt>
<trkpt lat="47.432237" lon="8.282145">
<ele>449.0</ele>
<time>2003-03-28T11:08:56Z</time>
<speed>0.0</speed>
</trkpt>
<trkpt lat="47.432237" lon="8.282145">
<ele>449.0</ele>
<time>2003-03-28T11:09:01Z</time>
<speed>0.4</speed>
</trkpt>
<trkpt lat="47.432239" lon="8.282119">
<ele>448.9</ele>
<time>2003-03-28T11:09:06Z</time>
<speed>0.4</speed>
</trkpt>
<trkpt lat="47.432241" lon="8.282095">
<ele>447.2</ele>
<time>2003-03-28T11:09:11Z</time>
<speed>0.6</speed>
</trkpt>
<trkpt lat="47.432244" lon="8.282055">
<ele>447.0</ele>
<time>2003-03-28T11:09:16Z</time>
<speed>0.2</speed>
</trkpt>
<trkpt lat="47.432245" lon="8.282042">
<ele>446.9</ele>
<time>2003-03-28T11:09:21Z</time>
<speed>0.3</speed>
</trkpt>
<trkpt lat="47.432257" lon="8.282044">
<ele>446.9</ele>
<time>2003-03-28T11:09:26Z</time>
<speed>0.0</speed>
</trkpt>
<trkpt lat="47.432257" lon="8.282044">
<ele>446.9</ele>
<time>2003-03-28T11:09:31Z</time>
<speed>0.0</speed>
</trkpt>
<trkpt lat="47.432257" lon="8.282044">
<ele>446.9</ele>
<time>2003-03-28T11:09:36Z</time>
<speed>0.0</speed>
</trkpt>
<trkpt lat="47.432257" lon="8.282044">
<ele>446.9</ele>
<time>2003-03-28T11:09:41Z</time>
<speed>0.0</speed>
</trkpt>
<trkpt lat="47.432257" lon="8.282044">
<ele>446.9</ele>
<time>2003-03-28T11:09:46Z</time>
<speed>0.0</speed>
</trkpt>
<trkpt lat="47.432257" lon="8.282044">
<ele>446.9</ele>
<time>2003-03-28T11:09:51Z</time>
<speed>0.0</speed>
</trkpt>
<trkpt lat="47.432257" lon="8.282044">
<ele>446.9</ele>
<time>2003-03-28T11:09:56Z</time>
<speed>0.0</speed>
</trkpt>
<trkpt lat="47.432257" lon="8.282044">
<ele>446.9</ele>
<time>2003-03-28T11:10:01Z</time>
<speed>0.0</speed>
</trkpt>
<trkpt lat="47.432257" lon="8.282044">
<ele>446.9</ele>
<time>2003-03-28T11:10:06Z</time>
<speed>0.0</speed>
</trkpt>
<trkpt lat="47.432257" lon="8.282044">
<ele>446.9</ele>
<time>2003-03-28T11:10:11Z</time>
<speed>0.0</speed>
</trkpt>
<trkpt lat="47.432257" lon="8.282044">
<ele>446.9</ele>
<time>2003-03-28T11:10:16Z</time>
<speed>0.0</speed>
</trkpt>
<trkpt lat="47.432257" lon="8.282044">
<ele>446.9</ele>
<time>2003-03-28T11:10:21Z</time>
<speed>0.0</speed>
</trkpt>
<trkpt lat="47.432257" lon="8.282044">
<ele>446.9</ele>
<time>2003-03-28T11:10:26Z</time>
<speed>0.0</speed>
</trkpt>
<trkpt lat="47.432257" lon="8.282044">
<ele>446.9</ele>
<time>2003-03-28T11:10:31Z</time>
<speed>0.0</speed>
</trkpt>
<trkpt lat="47.432257" lon="8.282044">
<ele>446.9</ele>
<time>2003-03-28T11:10:36Z</time>
<speed>0.0</speed>
</trkpt>
<trkpt lat="47.432257" lon="8.282044">
<ele>446.9</ele>
<time>2003-03-28T11:10:41Z</time>
<speed>0.0</speed>
</trkpt>
<trkpt lat="47.432257" lon="8.282044">
<ele>446.9</ele>
<time>2003-03-28T11:10:46Z</time>
<speed>0.0</speed>
</trkpt>
<trkpt lat="47.432257" lon="8.282044">
<ele>446.9</ele>
<time>2003-03-28T11:10:51Z</time>
<speed>0.0</speed>
</trkpt>
<trkpt lat="47.432257" lon="8.282044">
<ele>446.9</ele>
<time>2003-03-28T11:10:56Z</time>
<speed>0.0</speed>
</trkpt>
<trkpt lat="47.432257" lon="8.282044">
<ele>446.9</ele>
<time>2003-03-28T11:11:01Z</time>
<speed>0.0</speed>
</trkpt>
<trkpt lat="47.432257" lon="8.282044">
<ele>446.9</ele>
<time>2003-03-28T11:11:06Z</time>
<speed>0.0</speed>
</trkpt>
<trkpt lat="47.432257" lon="8.282044">
<ele>446.9</ele>
<time>2003-03-28T11:11:11Z</time>
<speed>0.0</speed>
</trkpt>
<trkpt lat="47.432257" lon="8.282044">
<ele>446.9</ele>
<time>2003-03-28T11:11:16Z</time>
<speed>0.2</speed>
</trkpt>
<trkpt lat="47.432258" lon="8.282031">
<ele>446.8</ele>
<time>2003-03-28T11:11:21Z</time>
<speed>0.0</speed>
</trkpt>
<trkpt lat="47.432258" lon="8.282031">
<ele>446.8</ele>
<time>2003-03-28T11:11:26Z</time>
<speed>0.2</speed>
</trkpt>
<trkpt lat="47.432257" lon="8.282044">
<ele>446.9</ele>
<time>2003-03-28T11:11:31Z</time>
<speed>0.3</speed>
</trkpt>
<trkpt lat="47.432252" lon="8.282029">
<ele>447.5</ele>
<time>2003-03-28T11:11:36Z</time>
<speed>0.2</speed>
</trkpt>
<trkpt lat="47.432245" lon="8.282042">
<ele>446.9</ele>
<time>2003-03-28T11:11:41Z</time>
<speed>0.2</speed>
</trkpt>
<trkpt lat="47.432252" lon="8.282029">
<ele>447.5</ele>
<time>2003-03-28T11:11:46Z</time>
<speed>0.0</speed>
</trkpt>
<trkpt lat="47.432252" lon="8.282029">
<ele>447.5</ele>
<time>2003-03-28T11:11:51Z</time>
<speed>0.0</speed>
</trkpt>
<trkpt lat="47.432252" lon="8.282029">
<ele>447.5</ele>
<time>2003-03-28T11:11:56Z</time>
<speed>0.0</speed>
</trkpt>
<trkpt lat="47.432252" lon="8.282029">
<ele>447.5</ele>
<time>2003-03-28T11:12:01Z</time>
<speed>0.3</speed>
</trkpt>
<trkpt lat="47.432265" lon="8.282031">
<ele>447.6</ele>
<time>2003-03-28T11:12:06Z</time>
<speed>0.0</speed>
</trkpt>
<trkpt lat="47.432265" lon="8.282031">
<ele>447.6</ele>
<time>2003-03-28T11:12:11Z</time>
<speed>0.0</speed>
</trkpt>
<trkpt lat="47.432265" lon="8.282031">
<ele>447.6</ele>
<time>2003-03-28T11:12:16Z</time>
<speed>0.0</speed>
</trkpt>
<trkpt lat="47.432265" lon="8.282031">
<ele>447.6</ele>
<time>2003-03-28T11:12:21Z</time>
<speed>0.0</speed>
</trkpt>
<trkpt lat="47.432265" lon="8.282031">
<ele>447.6</ele>
<time>2003-03-28T11:12:26Z</time>
<speed>0.0</speed>
</trkpt>
<trkpt lat="47.432265" lon="8.282031">
<ele>447.6</ele>
<time>2003-03-28T11:12:31Z</time>
<speed>0.0</speed>
</trkpt>
<trkpt lat="47.432265" lon="8.282031">
<ele>447.6</ele>
<time>2003-03-28T11:12:36Z</time>
<speed>0.0</speed>
</trkpt>
<trkpt lat="47.432265" lon="8.282031">
<ele>447.6</ele>
<time>2003-03-28T11:12:41Z</time>
<speed>0.0</speed>
</trkpt>
<trkpt lat="47.432265" lon="8.282031">
<ele>447.6</ele>
<time>2003-03-28T11:12:46Z</time>
<speed>0.0</speed>
</trkpt>
<trkpt lat="47.432265" lon="8.282031">
<ele>447.6</ele>
<time>2003-03-28T11:12:51Z</time>
<speed>0.0</speed>
</trkpt>
<trkpt lat="47.432265" lon="8.282031">
<ele>447.6</ele>
<time>2003-03-28T11:12:56Z</time>
<speed>0.0</speed>
</trkpt>
<trkpt lat="47.432265" lon="8.282031">
<ele>447.6</ele>
<time>2003-03-28T11:13:01Z</time>
<speed>0.0</speed>
</trkpt>
<trkpt lat="47.432265" lon="8.282031">
<ele>447.6</ele>
<time>2003-03-28T11:13:06Z</time>
<speed>0.0</speed>
</trkpt>
<trkpt lat="47.432265" lon="8.282031">
<ele>447.6</ele>
<time>2003-03-28T11:13:11Z</time>
<speed>0.1</speed>
</trkpt>
<trkpt lat="47.432271" lon="8.282033">
<ele>446.9</ele>
<time>2003-03-28T11:13:16Z</time>
<speed>0.0</speed>
</trkpt>
<trkpt lat="47.432271" lon="8.282033">
<ele>446.9</ele>
<time>2003-03-28T11:13:21Z</time>
<speed>0.0</speed>
</trkpt>
<trkpt lat="47.432271" lon="8.282033">
<ele>446.9</ele>
<time>2003-03-28T11:13:26Z</time>
<speed>0.0</speed>
</trkpt>
<trkpt lat="47.432271" lon="8.282033">
<ele>446.9</ele>
<time>2003-03-28T11:13:31Z</time>
<speed>0.0</speed>
</trkpt>
<trkpt lat="47.432271" lon="8.282033">
<ele>446.9</ele>
<time>2003-03-28T11:13:36Z</time>
<speed>0.0</speed>
</trkpt>
<trkpt lat="47.432271" lon="8.282033">
<ele>446.9</ele>
<time>2003-03-28T11:13:41Z</time>
<speed>0.0</speed>
</trkpt>
<trkpt lat="47.432271" lon="8.282033">
<ele>446.9</ele>
<time>2003-03-28T11:13:46Z</time>
<speed>0.0</speed>
</trkpt>
<trkpt lat="47.432271" lon="8.282033">
<ele>446.9</ele>
<time>2003-03-28T11:13:51Z</time>
<speed>0.0</speed>
</trkpt>
<trkpt lat="47.432271" lon="8.282033">
<ele>446.9</ele>
<time>2003-03-28T11:13:56Z</time>
<speed>0.0</speed>
</trkpt>
<trkpt lat="47.432271" lon="8.282033">
<ele>446.9</ele>
<time>2003-03-28T11:14:01Z</time>
<speed>0.0</speed>
</trkpt>
<trkpt lat="47.432271" lon="8.282033">
<ele>446.9</ele>
<time>2003-03-28T11:14:06Z</time>
<speed>0.0</speed>
</trkpt>
<trkpt lat="47.432271" lon="8.282033">
<ele>446.9</ele>
<time>2003-03-28T11:14:11Z</time>
<speed>0.0</speed>
</trkpt>
<trkpt lat="47.432271" lon="8.282033">
<ele>446.9</ele>
<time>2003-03-28T11:14:16Z</time>
<speed>0.0</speed>
</trkpt>
<trkpt lat="47.432271" lon="8.282033">
<ele>446.9</ele>
<time>2003-03-28T11:14:21Z</time>
<speed>0.0</speed>
</trkpt>
<trkpt lat="47.432271" lon="8.282033">
<ele>446.9</ele>
<time>2003-03-28T11:14:26Z</time>
<speed>0.0</speed>
</trkpt>
<trkpt lat="47.432271" lon="8.282033">
<ele>446.9</ele>
<time>2003-03-28T11:14:31Z</time>
<speed>0.0</speed>
</trkpt>
<trkpt lat="47.432271" lon="8.282033">
<ele>446.9</ele>
<time>2003-03-28T11:14:36Z</time>
<speed>0.0</speed>
</trkpt>
<trkpt lat="47.432271" lon="8.282033">
<ele>446.9</ele>
<time>2003-03-28T11:14:41Z</time>
<speed>0.0</speed>
</trkpt>
<trkpt lat="47.432271" lon="8.282033">
<ele>446.9</ele>
<time>2003-03-28T11:14:46Z</time>
<speed>0.0</speed>
</trkpt>
<trkpt lat="47.432271" lon="8.282033">
<ele>446.9</ele>
<time>2003-03-28T11:14:51Z</time>
<speed>0.3</speed>
</trkpt>
<trkpt lat="47.432284" lon="8.282035">
<ele>447.0</ele>
<time>2003-03-28T11:14:56Z</time>
<speed>0.4</speed>
</trkpt>
<trkpt lat="47.432270" lon="8.282046">
<ele>447.0</ele>
<time>2003-03-28T11:15:01Z</time>
<speed>0.3</speed>
</trkpt>
<trkpt lat="47.432257" lon="8.282044">
<ele>446.9</ele>
<time>2003-03-28T11:15:06Z</time>
<speed>0.3</speed>
</trkpt>
<trkpt lat="47.432245" lon="8.282042">
<ele>446.9</ele>
<time>2003-03-28T11:15:11Z</time>
<speed>0.0</speed>
</trkpt>
<trkpt lat="47.432245" lon="8.282042">
<ele>446.9</ele>
<time>2003-03-28T11:15:16Z</time>
<speed>0.2</speed>
</trkpt>
<trkpt lat="47.432246" lon="8.282029">
<ele>446.8</ele>
<time>2003-03-28T11:15:21Z</time>
<speed>0.1</speed>
</trkpt>
<trkpt lat="47.432252" lon="8.282029">
<ele>447.5</ele>
<time>2003-03-28T11:15:26Z</time>
<speed>0.2</speed>
</trkpt>
<trkpt lat="47.432245" lon="8.282042">
<ele>446.9</ele>
<time>2003-03-28T11:15:31Z</time>
<speed>0.6</speed>
</trkpt>
<trkpt lat="47.432271" lon="8.282033">
<ele>446.9</ele>
<time>2003-03-28T11:15:36Z</time>
<speed>0.7</speed>
</trkpt>
<trkpt lat="47.432304" lon="8.282025">
<ele>446.3</ele>
<time>2003-03-28T11:15:41Z</time>
<speed>0.9</speed>
</trkpt>
<trkpt lat="47.432344" lon="8.282007">
<ele>444.9</ele>
<time>2003-03-28T11:15:46Z</time>
<speed>0.7</speed>
</trkpt>
<trkpt lat="47.432376" lon="8.282013">
<ele>444.3</ele>
<time>2003-03-28T11:15:51Z</time>
<speed>1.0</speed>
</trkpt>
<trkpt lat="47.432420" lon="8.282020">
<ele>443.9</ele>
<time>2003-03-28T11:15:56Z</time>
<speed>0.8</speed>
</trkpt>
<trkpt lat="47.432450" lon="8.282052">
<ele>443.5</ele>
<time>2003-03-28T11:16:01Z</time>
<speed>0.7</speed>
</trkpt>
<trkpt lat="47.432474" lon="8.282082">
<ele>443.8</ele>
<time>2003-03-28T11:16:06Z</time>
<speed>0.9</speed>
</trkpt>
<trkpt lat="47.432503" lon="8.282127">
<ele>443.6</ele>
<time>2003-03-28T11:16:11Z</time>
<speed>0.9</speed>
</trkpt>
<trkpt lat="47.432518" lon="8.282184">
<ele>443.4</ele>
<time>2003-03-28T11:16:16Z</time>
<speed>0.8</speed>
</trkpt>
<trkpt lat="47.432541" lon="8.282229">
<ele>442.4</ele>
<time>2003-03-28T11:16:21Z</time>
<speed>0.8</speed>
</trkpt>
<trkpt lat="47.432564" lon="8.282274">
<ele>441.4</ele>
<time>2003-03-28T11:16:26Z</time>
<speed>0.0</speed>
</trkpt>
<trkpt lat="47.432564" lon="8.282274">
<ele>441.4</ele>
<time>2003-03-28T11:16:31Z</time>
<speed>0.2</speed>
</trkpt>
<trkpt lat="47.432565" lon="8.282261">
<ele>441.3</ele>
<time>2003-03-28T11:16:36Z</time>
<speed>0.5</speed>
</trkpt>
<trkpt lat="47.432554" lon="8.282232">
<ele>441.1</ele>
<time>2003-03-28T11:16:41Z</time>
<speed>0.9</speed>
</trkpt>
<trkpt lat="47.432539" lon="8.282176">
<ele>441.3</ele>
<time>2003-03-28T11:16:46Z</time>
<speed>0.7</speed>
</trkpt>
<trkpt lat="47.432522" lon="8.282133">
<ele>441.6</ele>
<time>2003-03-28T11:16:51Z</time>
<speed>1.0</speed>
</trkpt>
<trkpt lat="47.432486" lon="8.282099">
<ele>442.6</ele>
<time>2003-03-28T11:16:56Z</time>
<speed>1.1</speed>
</trkpt>
<trkpt lat="47.432458" lon="8.282041">
<ele>442.8</ele>
<time>2003-03-28T11:17:01Z</time>
<speed>0.8</speed>
</trkpt>
<trkpt lat="47.432428" lon="8.282009">
<ele>443.1</ele>
<time>2003-03-28T11:17:06Z</time>
<speed>1.0</speed>
</trkpt>
<trkpt lat="47.432384" lon="8.281986">
<ele>444.9</ele>
<time>2003-03-28T11:17:11Z</time>
<speed>1.3</speed>
</trkpt>
<trkpt lat="47.432326" lon="8.281990">
<ele>445.4</ele>
<time>2003-03-28T11:17:16Z</time>
<speed>0.9</speed>
</trkpt>
<trkpt lat="47.432287" lon="8.281997">
<ele>445.3</ele>
<time>2003-03-28T11:17:21Z</time>
<speed>1.3</speed>
</trkpt>
<trkpt lat="47.432229" lon="8.282001">
<ele>445.8</ele>
<time>2003-03-28T11:17:26Z</time>
<speed>1.2</speed>
</trkpt>
<trkpt lat="47.432177" lon="8.282006">
<ele>445.6</ele>
<time>2003-03-28T11:17:31Z</time>
<speed>1.1</speed>
</trkpt>
<trkpt lat="47.432131" lon="8.282025">
<ele>446.3</ele>
<time>2003-03-28T11:17:36Z</time>
<speed>1.4</speed>
</trkpt>
<trkpt lat="47.432077" lon="8.282070">
<ele>446.4</ele>
<time>2003-03-28T11:17:41Z</time>
<speed>1.3</speed>
</trkpt>
<trkpt lat="47.432023" lon="8.282101">
<ele>446.4</ele>
<time>2003-03-28T11:17:46Z</time>
<speed>1.0</speed>
</trkpt>
<trkpt lat="47.431983" lon="8.282135">
<ele>446.5</ele>
<time>2003-03-28T11:17:51Z</time>
<speed>0.0</speed>
</trkpt>
<trkpt lat="47.431983" lon="8.282135">
<ele>446.5</ele>
<time>2003-03-28T11:17:56Z</time>
<speed>0.3</speed>
</trkpt>
<trkpt lat="47.431977" lon="8.282120">
<ele>447.1</ele>
<time>2003-03-28T11:18:01Z</time>
<speed>0.5</speed>
</trkpt>
<trkpt lat="47.431966" lon="8.282092">
<ele>446.8</ele>
<time>2003-03-28T11:18:06Z</time>
<speed>0.6</speed>
</trkpt>
<trkpt lat="47.431949" lon="8.282064">
<ele>445.8</ele>
<time>2003-03-28T11:18:11Z</time>
<speed>0.6</speed>
</trkpt>
<trkpt lat="47.431933" lon="8.282036">
<ele>444.8</ele>
<time>2003-03-28T11:18:16Z</time>
<speed>0.2</speed>
</trkpt>
<trkpt lat="47.431927" lon="8.282023">
<ele>444.0</ele>
<time>2003-03-28T11:18:21Z</time>
<speed>0.2</speed>
</trkpt>
<trkpt lat="47.431928" lon="8.282009">
<ele>443.9</ele>
<time>2003-03-28T11:18:26Z</time>
<speed>0.4</speed>
</trkpt>
<trkpt lat="47.431930" lon="8.281983">
<ele>443.7</ele>
<time>2003-03-28T11:18:31Z</time>
<speed>0.3</speed>
</trkpt>
<trkpt lat="47.431918" lon="8.281981">
<ele>443.6</ele>
<time>2003-03-28T11:18:36Z</time>
<speed>0.3</speed>
</trkpt>
<trkpt lat="47.431906" lon="8.281968">
<ele>442.0</ele>
<time>2003-03-28T11:18:41Z</time>
<speed>0.4</speed>
</trkpt>
<trkpt lat="47.431914" lon="8.281942">
<ele>442.6</ele>
<time>2003-03-28T11:18:46Z</time>
<speed>0.6</speed>
</trkpt>
<trkpt lat="47.431911" lon="8.281903">
<ele>441.6</ele>
<time>2003-03-28T11:18:51Z</time>
<speed>0.8</speed>
</trkpt>
<trkpt lat="47.431889" lon="8.281861">
<ele>439.7</ele>
<time>2003-03-28T11:18:56Z</time>
<speed>0.7</speed>
</trkpt>
<trkpt lat="47.431873" lon="8.281820">
<ele>438.6</ele>
<time>2003-03-28T11:19:01Z</time>
<speed>0.8</speed>
</trkpt>
<trkpt lat="47.431851" lon="8.281779">
<ele>436.8</ele>
<time>2003-03-28T11:19:06Z</time>
<speed>0.4</speed>
</trkpt>
<trkpt lat="47.431847" lon="8.281753">
<ele>435.9</ele>
<time>2003-03-28T11:19:11Z</time>
<speed>0.9</speed>
</trkpt>
<trkpt lat="47.431832" lon="8.281698">
<ele>434.7</ele>
<time>2003-03-28T11:19:16Z</time>
<speed>1.0</speed>
</trkpt>
<trkpt lat="47.431811" lon="8.281642">
<ele>434.1</ele>
<time>2003-03-28T11:19:21Z</time>
<speed>0.7</speed>
</trkpt>
<trkpt lat="47.431795" lon="8.281601">
<ele>433.1</ele>
<time>2003-03-28T11:19:26Z</time>
<speed>0.9</speed>
</trkpt>
<trkpt lat="47.431780" lon="8.281546">
<ele>431.9</ele>
<time>2003-03-28T11:19:31Z</time>
<speed>1.0</speed>
</trkpt>
<trkpt lat="47.431753" lon="8.281490">
<ele>430.6</ele>
<time>2003-03-28T11:19:36Z</time>
<speed>0.9</speed>
</trkpt>
<trkpt lat="47.431724" lon="8.281447">
<ele>429.4</ele>
<time>2003-03-28T11:19:41Z</time>
<speed>0.8</speed>
</trkpt>
<trkpt lat="47.431695" lon="8.281417">
<ele>428.4</ele>
<time>2003-03-28T11:19:46Z</time>
<speed>0.9</speed>
</trkpt>
<trkpt lat="47.431666" lon="8.281374">
<ele>427.2</ele>
<time>2003-03-28T11:19:51Z</time>
<speed>0.1</speed>
</trkpt>
<trkpt lat="47.431660" lon="8.281374">
<ele>426.5</ele>
<time>2003-03-28T11:19:56Z</time>
<speed>0.3</speed>
</trkpt>
<trkpt lat="47.431647" lon="8.281372">
<ele>426.4</ele>
<time>2003-03-28T11:20:01Z</time>
<speed>0.7</speed>
</trkpt>
<trkpt lat="47.431617" lon="8.281355">
<ele>425.4</ele>
<time>2003-03-28T11:20:06Z</time>
<speed>0.9</speed>
</trkpt>
<trkpt lat="47.431580" lon="8.281336">
<ele>425.1</ele>
<time>2003-03-28T11:20:11Z</time>
<speed>0.0</speed>
</trkpt>
<trkpt lat="47.431580" lon="8.281336">
<ele>425.1</ele>
<time>2003-03-28T11:20:16Z</time>
<speed>0.0</speed>
</trkpt>
<trkpt lat="47.431580" lon="8.281336">
<ele>425.1</ele>
<time>2003-03-28T11:20:21Z</time>
<speed>0.5</speed>
</trkpt>
<trkpt lat="47.431566" lon="8.281360">
<ele>425.3</ele>
<time>2003-03-28T11:20:26Z</time>
<speed>0.8</speed>
</trkpt>
<trkpt lat="47.431544" lon="8.281398">
<ele>424.8</ele>
<time>2003-03-28T11:20:31Z</time>
<speed>0.9</speed>
</trkpt>
<trkpt lat="47.431521" lon="8.281448">
<ele>424.3</ele>
<time>2003-03-28T11:20:36Z</time>
<speed>1.1</speed>
</trkpt>
<trkpt lat="47.431486" lon="8.281497">
<ele>423.9</ele>
<time>2003-03-28T11:20:41Z</time>
<speed>1.0</speed>
</trkpt>
<trkpt lat="47.431457" lon="8.281546">
<ele>424.1</ele>
<time>2003-03-28T11:20:46Z</time>
<speed>1.3</speed>
</trkpt>
<trkpt lat="47.431414" lon="8.281605">
<ele>424.4</ele>
<time>2003-03-28T11:20:51Z</time>
<speed>1.0</speed>
</trkpt>
<trkpt lat="47.431385" lon="8.281654">
<ele>424.7</ele>
<time>2003-03-28T11:20:56Z</time>
<speed>1.2</speed>
</trkpt>
<trkpt lat="47.431349" lon="8.281716">
<ele>424.3</ele>
<time>2003-03-28T11:21:01Z</time>
<speed>0.4</speed>
</trkpt>
<trkpt lat="47.431341" lon="8.281740">
<ele>425.1</ele>
<time>2003-03-28T11:21:06Z</time>
<speed>0.4</speed>
</trkpt>
<trkpt lat="47.431327" lon="8.281751">
<ele>425.2</ele>
<time>2003-03-28T11:21:11Z</time>
<speed>0.0</speed>
</trkpt>
<trkpt lat="47.431327" lon="8.281751">
<ele>425.2</ele>
<time>2003-03-28T11:21:16Z</time>
<speed>0.0</speed>
</trkpt>
<trkpt lat="47.431327" lon="8.281751">
<ele>425.2</ele>
<time>2003-03-28T11:21:21Z</time>
<speed>0.0</speed>
</trkpt>
<trkpt lat="47.431327" lon="8.281751">
<ele>425.2</ele>
<time>2003-03-28T11:21:26Z</time>
<speed>0.0</speed>
</trkpt>
<trkpt lat="47.431327" lon="8.281751">
<ele>425.2</ele>
<time>2003-03-28T11:21:31Z</time>
<speed>0.0</speed>
</trkpt>
<trkpt lat="47.431327" lon="8.281751">
<ele>425.2</ele>
<time>2003-03-28T11:21:36Z</time>
<speed>0.2</speed>
</trkpt>
<trkpt lat="47.431326" lon="8.281764">
<ele>425.3</ele>
<time>2003-03-28T11:21:41Z</time>
<speed>0.0</speed>
</trkpt>
<trkpt lat="47.431326" lon="8.281764">
<ele>425.3</ele>
<time>2003-03-28T11:21:46Z</time>
<speed>0.0</speed>
</trkpt>
<trkpt lat="47.431326" lon="8.281764">
<ele>425.3</ele>
<time>2003-03-28T11:21:51Z</time>
<speed>0.2</speed>
</trkpt>
<trkpt lat="47.431325" lon="8.281778">
<ele>425.4</ele>
<time>2003-03-28T11:21:56Z</time>
<speed>0.3</speed>
</trkpt>
<trkpt lat="47.431338" lon="8.281779">
<ele>425.4</ele>
<time>2003-03-28T11:22:01Z</time>
<speed>0.1</speed>
</trkpt>
<trkpt lat="47.431344" lon="8.281781">
<ele>424.8</ele>
<time>2003-03-28T11:22:06Z</time>
<speed>0.0</speed>
</trkpt>
<trkpt lat="47.431344" lon="8.281781">
<ele>424.8</ele>
<time>2003-03-28T11:22:11Z</time>
<speed>0.0</speed>
</trkpt>
<trkpt lat="47.431344" lon="8.281781">
<ele>424.8</ele>
<time>2003-03-28T11:22:16Z</time>
<speed>0.0</speed>
</trkpt>
<trkpt lat="47.431344" lon="8.281781">
<ele>424.8</ele>
<time>2003-03-28T11:22:21Z</time>
<speed>0.0</speed>
</trkpt>
<trkpt lat="47.431344" lon="8.281781">
<ele>424.8</ele>
<time>2003-03-28T11:22:26Z</time>
<speed>0.0</speed>
</trkpt>
<trkpt lat="47.431344" lon="8.281781">
<ele>424.8</ele>
<time>2003-03-28T11:22:31Z</time>
<speed>0.0</speed>
</trkpt>
<trkpt lat="47.431344" lon="8.281781">
<ele>424.8</ele>
<time>2003-03-28T11:22:36Z</time>
<speed>0.0</speed>
</trkpt>
<trkpt lat="47.431344" lon="8.281781">
<ele>424.8</ele>
<time>2003-03-28T11:22:41Z</time>
<speed>0.0</speed>
</trkpt>
<trkpt lat="47.431344" lon="8.281781">
<ele>424.8</ele>
<time>2003-03-28T11:22:46Z</time>
<speed>1.3</speed>
</trkpt>
<trkpt lat="47.431337" lon="8.281697">
<ele>426.9</ele>
<time>2003-03-28T11:22:51Z</time>
<speed>1.1</speed>
</trkpt>
<trkpt lat="47.431367" lon="8.281635">
<ele>426.6</ele>
<time>2003-03-28T11:22:56Z</time>
<speed>1.4</speed>
</trkpt>
<trkpt lat="47.431415" lon="8.281575">
<ele>427.0</ele>
<time>2003-03-28T11:23:01Z</time>
<speed>1.3</speed>
</trkpt>
<trkpt lat="47.431458" lon="8.281515">
<ele>426.7</ele>
<time>2003-03-28T11:23:06Z</time>
<speed>1.4</speed>
</trkpt>
<trkpt lat="47.431507" lon="8.281458">
<ele>425.8</ele>
<time>2003-03-28T11:23:11Z</time>
<speed>1.5</speed>
</trkpt>
<trkpt lat="47.431551" lon="8.281383">
<ele>426.8</ele>
<time>2003-03-28T11:23:16Z</time>
<speed>1.2</speed>
</trkpt>
<trkpt lat="47.431587" lon="8.281323">
<ele>425.8</ele>
<time>2003-03-28T11:23:21Z</time>
<speed>1.2</speed>
</trkpt>
<trkpt lat="47.431624" lon="8.281263">
<ele>424.8</ele>
<time>2003-03-28T11:23:26Z</time>
<speed>1.2</speed>
</trkpt>
<trkpt lat="47.431660" lon="8.281203">
<ele>423.7</ele>
<time>2003-03-28T11:23:31Z</time>
<speed>1.3</speed>
</trkpt>
<trkpt lat="47.431691" lon="8.281128">
<ele>423.3</ele>
<time>2003-03-28T11:23:36Z</time>
<speed>1.2</speed>
</trkpt>
<trkpt lat="47.431704" lon="8.281051">
<ele>422.0</ele>
<time>2003-03-28T11:23:41Z</time>
<speed>1.2</speed>
</trkpt>
<trkpt lat="47.431715" lon="8.280973">
<ele>422.2</ele>
<time>2003-03-28T11:23:46Z</time>
<speed>1.4</speed>
</trkpt>
<trkpt lat="47.431741" lon="8.280885">
<ele>420.9</ele>
<time>2003-03-28T11:23:51Z</time>
<speed>1.0</speed>
</trkpt>
<trkpt lat="47.431759" lon="8.280821">
<ele>420.5</ele>
<time>2003-03-28T11:23:56Z</time>
<speed>1.4</speed>
</trkpt>
<trkpt lat="47.431778" lon="8.280731">
<ele>419.9</ele>
<time>2003-03-28T11:24:01Z</time>
<speed>1.2</speed>
</trkpt>
<trkpt lat="47.431790" lon="8.280652">
<ele>420.0</ele>
<time>2003-03-28T11:24:06Z</time>
<speed>1.4</speed>
</trkpt>
<trkpt lat="47.431809" lon="8.280563">
<ele>419.4</ele>
<time>2003-03-28T11:24:11Z</time>
<speed>1.2</speed>
</trkpt>
<trkpt lat="47.431821" lon="8.280486">
<ele>418.1</ele>
<time>2003-03-28T11:24:16Z</time>
<speed>1.2</speed>
</trkpt>
<trkpt lat="47.431840" lon="8.280409">
<ele>417.6</ele>
<time>2003-03-28T11:24:21Z</time>
<speed>1.4</speed>
</trkpt>
<trkpt lat="47.431859" lon="8.280317">
<ele>418.4</ele>
<time>2003-03-28T11:24:26Z</time>
<speed>1.2</speed>
</trkpt>
<trkpt lat="47.431877" lon="8.280240">
<ele>417.9</ele>
<time>2003-03-28T11:24:31Z</time>
<speed>1.5</speed>
</trkpt>
<trkpt lat="47.431902" lon="8.280150">
<ele>418.0</ele>
<time>2003-03-28T11:24:36Z</time>
<speed>1.2</speed>
</trkpt>
<trkpt lat="47.431921" lon="8.280074">
<ele>417.5</ele>
<time>2003-03-28T11:24:41Z</time>
<speed>1.2</speed>
</trkpt>
<trkpt lat="47.431939" lon="8.279997">
<ele>417.0</ele>
<time>2003-03-28T11:24:46Z</time>
<speed>1.3</speed>
</trkpt>
<trkpt lat="47.431964" lon="8.279920">
<ele>417.2</ele>
<time>2003-03-28T11:24:51Z</time>
<speed>1.0</speed>
</trkpt>
<trkpt lat="47.431981" lon="8.279856">
<ele>416.8</ele>
<time>2003-03-28T11:24:56Z</time>
<speed>1.3</speed>
</trkpt>
<trkpt lat="47.432038" lon="8.279866">
<ele>416.4</ele>
<time>2003-03-28T11:25:01Z</time>
<speed>1.6</speed>
</trkpt>
<trkpt lat="47.432099" lon="8.279917">
<ele>415.6</ele>
<time>2003-03-28T11:25:06Z</time>
<speed>1.4</speed>
</trkpt>
<trkpt lat="47.432153" lon="8.279966">
<ele>415.5</ele>
<time>2003-03-28T11:25:11Z</time>
<speed>1.3</speed>
</trkpt>
<trkpt lat="47.432208" lon="8.280001">
<ele>415.3</ele>
<time>2003-03-28T11:25:16Z</time>
<speed>1.3</speed>
</trkpt>
<trkpt lat="47.432256" lon="8.280050">
<ele>414.4</ele>
<time>2003-03-28T11:25:21Z</time>
<speed>1.2</speed>
</trkpt>
<trkpt lat="47.432305" lon="8.280084">
<ele>414.9</ele>
<time>2003-03-28T11:25:26Z</time>
<speed>1.5</speed>
</trkpt>
<trkpt lat="47.432365" lon="8.280133">
<ele>415.5</ele>
<time>2003-03-28T11:25:31Z</time>
<speed>1.3</speed>
</trkpt>
<trkpt lat="47.432414" lon="8.280182">
<ele>414.7</ele>
<time>2003-03-28T11:25:36Z</time>
<speed>1.3</speed>
</trkpt>
<trkpt lat="47.432461" lon="8.280229">
<ele>415.2</ele>
<time>2003-03-28T11:25:41Z</time>
<speed>1.2</speed>
</trkpt>
<trkpt lat="47.432510" lon="8.280265">
<ele>414.3</ele>
<time>2003-03-28T11:25:46Z</time>
<speed>1.2</speed>
</trkpt>
<trkpt lat="47.432559" lon="8.280299">
<ele>414.8</ele>
<time>2003-03-28T11:25:51Z</time>
<speed>1.3</speed>
</trkpt>
<trkpt lat="47.432607" lon="8.280347">
<ele>413.9</ele>
<time>2003-03-28T11:25:56Z</time>
<speed>1.3</speed>
</trkpt>
<trkpt lat="47.432655" lon="8.280394">
<ele>414.5</ele>
<time>2003-03-28T11:26:01Z</time>
<speed>1.2</speed>
</trkpt>
<trkpt lat="47.432704" lon="8.280430">
<ele>413.5</ele>
<time>2003-03-28T11:26:06Z</time>
<speed>1.5</speed>
</trkpt>
<trkpt lat="47.432766" lon="8.280468">
<ele>412.7</ele>
<time>2003-03-28T11:26:11Z</time>
<speed>1.3</speed>
</trkpt>
<trkpt lat="47.432821" lon="8.280504">
<ele>412.5</ele>
<time>2003-03-28T11:26:16Z</time>
<speed>1.3</speed>
</trkpt>
<trkpt lat="47.432869" lon="8.280551">
<ele>413.0</ele>
<time>2003-03-28T11:26:21Z</time>
<speed>1.2</speed>
</trkpt>
<trkpt lat="47.432918" lon="8.280586">
<ele>412.1</ele>
<time>2003-03-28T11:26:26Z</time>
<speed>1.3</speed>
</trkpt>
<trkpt lat="47.432966" lon="8.280633">
<ele>412.6</ele>
<time>2003-03-28T11:26:31Z</time>
<speed>1.3</speed>
</trkpt>
<trkpt lat="47.433013" lon="8.280680">
<ele>413.2</ele>
<time>2003-03-28T11:26:36Z</time>
<speed>1.2</speed>
</trkpt>
<trkpt lat="47.433062" lon="8.280714">
<ele>413.7</ele>
<time>2003-03-28T11:26:41Z</time>
<speed>1.2</speed>
</trkpt>
<trkpt lat="47.433111" lon="8.280748">
<ele>414.1</ele>
<time>2003-03-28T11:26:46Z</time>
<speed>1.1</speed>
</trkpt>
<trkpt lat="47.433146" lon="8.280701">
<ele>413.2</ele>
<time>2003-03-28T11:26:51Z</time>
<speed>1.3</speed>
</trkpt>
<trkpt lat="47.433171" lon="8.280625">
<ele>413.4</ele>
<time>2003-03-28T11:26:56Z</time>
<speed>1.4</speed>
</trkpt>
<trkpt lat="47.433190" lon="8.280535">
<ele>412.8</ele>
<time>2003-03-28T11:27:01Z</time>
<speed>1.2</speed>
</trkpt>
<trkpt lat="47.433202" lon="8.280456">
<ele>413.0</ele>
<time>2003-03-28T11:27:06Z</time>
<speed>1.4</speed>
</trkpt>
<trkpt lat="47.433221" lon="8.280366">
<ele>412.3</ele>
<time>2003-03-28T11:27:11Z</time>
<speed>1.4</speed>
</trkpt>
<trkpt lat="47.433240" lon="8.280274">
<ele>413.1</ele>
<time>2003-03-28T11:27:16Z</time>
<speed>1.3</speed>
</trkpt>
<trkpt lat="47.433264" lon="8.280198">
<ele>413.4</ele>
<time>2003-03-28T11:27:21Z</time>
<speed>1.4</speed>
</trkpt>
<trkpt lat="47.433277" lon="8.280106">
<ele>413.4</ele>
<time>2003-03-28T11:27:26Z</time>
<speed>1.5</speed>
</trkpt>
<trkpt lat="47.433303" lon="8.280016">
<ele>413.5</ele>
<time>2003-03-28T11:27:31Z</time>
<speed>1.2</speed>
</trkpt>
<trkpt lat="47.433320" lon="8.279937">
<ele>414.4</ele>
<time>2003-03-28T11:27:36Z</time>
<speed>1.2</speed>
</trkpt>
<trkpt lat="47.433339" lon="8.279860">
<ele>413.9</ele>
<time>2003-03-28T11:27:41Z</time>
<speed>1.2</speed>
</trkpt>
<trkpt lat="47.433357" lon="8.279784">
<ele>413.4</ele>
<time>2003-03-28T11:27:46Z</time>
<speed>1.4</speed>
</trkpt>
<trkpt lat="47.433376" lon="8.279694">
<ele>412.8</ele>
<time>2003-03-28T11:27:51Z</time>
<speed>1.3</speed>
</trkpt>
<trkpt lat="47.433401" lon="8.279617">
<ele>413.0</ele>
<time>2003-03-28T11:27:56Z</time>
<speed>1.4</speed>
</trkpt>
<trkpt lat="47.433414" lon="8.279525">
<ele>413.0</ele>
<time>2003-03-28T11:28:01Z</time>
<speed>1.5</speed>
</trkpt>
<trkpt lat="47.433439" lon="8.279435">
<ele>413.2</ele>
<time>2003-03-28T11:28:06Z</time>
<speed>1.4</speed>
</trkpt>
<trkpt lat="47.433458" lon="8.279343">
<ele>414.0</ele>
<time>2003-03-28T11:28:11Z</time>
<speed>1.2</speed>
</trkpt>
<trkpt lat="47.433476" lon="8.279266">
<ele>413.4</ele>
<time>2003-03-28T11:28:16Z</time>
<speed>1.2</speed>
</trkpt>
<trkpt lat="47.433495" lon="8.279190">
<ele>412.9</ele>
<time>2003-03-28T11:28:21Z</time>
<speed>1.5</speed>
</trkpt>
<trkpt lat="47.433527" lon="8.279102">
<ele>412.4</ele>
<time>2003-03-28T11:28:26Z</time>
<speed>1.2</speed>
</trkpt>
<trkpt lat="47.433538" lon="8.279023">
<ele>412.5</ele>
<time>2003-03-28T11:28:31Z</time>
<speed>1.5</speed>
</trkpt>
<trkpt lat="47.433564" lon="8.278933">
<ele>412.6</ele>
<time>2003-03-28T11:28:36Z</time>
<speed>1.0</speed>
</trkpt>
<trkpt lat="47.433581" lon="8.278869">
<ele>412.2</ele>
<time>2003-03-28T11:28:41Z</time>
<speed>1.2</speed>
</trkpt>
<trkpt lat="47.433599" lon="8.278791">
<ele>413.1</ele>
<time>2003-03-28T11:28:46Z</time>
<speed>1.2</speed>
</trkpt>
<trkpt lat="47.433617" lon="8.278714">
<ele>412.6</ele>
<time>2003-03-28T11:28:51Z</time>
<speed>1.2</speed>
</trkpt>
<trkpt lat="47.433636" lon="8.278637">
<ele>412.1</ele>
<time>2003-03-28T11:28:56Z</time>
<speed>1.5</speed>
</trkpt>
<trkpt lat="47.433661" lon="8.278547">
<ele>412.2</ele>
<time>2003-03-28T11:29:01Z</time>
<speed>1.2</speed>
</trkpt>
<trkpt lat="47.433680" lon="8.278470">
<ele>411.7</ele>
<time>2003-03-28T11:29:06Z</time>
<speed>1.4</speed>
</trkpt>
<trkpt lat="47.433705" lon="8.278381">
<ele>411.8</ele>
<time>2003-03-28T11:29:11Z</time>
<speed>1.4</speed>
</trkpt>
<trkpt lat="47.433718" lon="8.278289">
<ele>411.9</ele>
<time>2003-03-28T11:29:16Z</time>
<speed>1.2</speed>
</trkpt>
<trkpt lat="47.433736" lon="8.278212">
<ele>411.3</ele>
<time>2003-03-28T11:29:21Z</time>
<speed>1.4</speed>
</trkpt>
<trkpt lat="47.433755" lon="8.278122">
<ele>410.7</ele>
<time>2003-03-28T11:29:26Z</time>
<speed>1.2</speed>
</trkpt>
<trkpt lat="47.433767" lon="8.278043">
<ele>410.9</ele>
<time>2003-03-28T11:29:31Z</time>
<speed>1.5</speed>
</trkpt>
<trkpt lat="47.433793" lon="8.277953">
<ele>411.0</ele>
<time>2003-03-28T11:29:36Z</time>
<speed>1.4</speed>
</trkpt>
<trkpt lat="47.433830" lon="8.277879">
<ele>411.3</ele>
<time>2003-03-28T11:29:41Z</time>
<speed>1.4</speed>
</trkpt>
<trkpt lat="47.433893" lon="8.277890">
<ele>410.2</ele>
<time>2003-03-28T11:29:46Z</time>
<speed>1.4</speed>
</trkpt>
<trkpt lat="47.433948" lon="8.277939">
<ele>410.1</ele>
<time>2003-03-28T11:29:51Z</time>
<speed>1.5</speed>
</trkpt>
<trkpt lat="47.434001" lon="8.278003">
<ele>408.7</ele>
<time>2003-03-28T11:29:56Z</time>
<speed>1.3</speed>
</trkpt>
<trkpt lat="47.434050" lon="8.278052">
<ele>407.8</ele>
<time>2003-03-28T11:30:01Z</time>
<speed>1.4</speed>
</trkpt>
<trkpt lat="47.434104" lon="8.278101">
<ele>407.7</ele>
<time>2003-03-28T11:30:06Z</time>
<speed>1.2</speed>
</trkpt>
<trkpt lat="47.434145" lon="8.278148">
<ele>407.6</ele>
<time>2003-03-28T11:30:11Z</time>
<speed>1.4</speed>
</trkpt>
<trkpt lat="47.434200" lon="8.278196">
<ele>407.5</ele>
<time>2003-03-28T11:30:16Z</time>
<speed>1.3</speed>
</trkpt>
<trkpt lat="47.434247" lon="8.278243">
<ele>408.0</ele>
<time>2003-03-28T11:30:21Z</time>
<speed>1.3</speed>
</trkpt>
<trkpt lat="47.434295" lon="8.278292">
<ele>407.2</ele>
<time>2003-03-28T11:30:26Z</time>
<speed>1.3</speed>
</trkpt>
<trkpt lat="47.434343" lon="8.278339">
<ele>407.7</ele>
<time>2003-03-28T11:30:31Z</time>
<speed>1.4</speed>
</trkpt>
<trkpt lat="47.434397" lon="8.278388">
<ele>407.6</ele>
<time>2003-03-28T11:30:36Z</time>
<speed>1.4</speed>
</trkpt>
<trkpt lat="47.434444" lon="8.278448">
<ele>408.3</ele>
<time>2003-03-28T11:30:41Z</time>
<speed>1.3</speed>
</trkpt>
<trkpt lat="47.434492" lon="8.278497">
<ele>407.4</ele>
<time>2003-03-28T11:30:46Z</time>
<speed>1.3</speed>
</trkpt>
<trkpt lat="47.434540" lon="8.278544">
<ele>408.0</ele>
<time>2003-03-28T11:30:51Z</time>
<speed>1.1</speed>
</trkpt>
<trkpt lat="47.434581" lon="8.278589">
<ele>409.2</ele>
<time>2003-03-28T11:30:56Z</time>
<speed>1.3</speed>
</trkpt>
<trkpt lat="47.434629" lon="8.278638">
<ele>408.4</ele>
<time>2003-03-28T11:31:01Z</time>
<speed>1.4</speed>
</trkpt>
<trkpt lat="47.434684" lon="8.278687">
<ele>408.3</ele>
<time>2003-03-28T11:31:06Z</time>
<speed>1.2</speed>
</trkpt>
<trkpt lat="47.434725" lon="8.278734">
<ele>408.1</ele>
<time>2003-03-28T11:31:11Z</time>
<speed>1.3</speed>
</trkpt>
<trkpt lat="47.434773" lon="8.278781">
<ele>408.7</ele>
<time>2003-03-28T11:31:16Z</time>
<speed>1.4</speed>
</trkpt>
<trkpt lat="47.434827" lon="8.278830">
<ele>408.5</ele>
<time>2003-03-28T11:31:21Z</time>
<speed>1.5</speed>
</trkpt>
<trkpt lat="47.434880" lon="8.278892">
<ele>408.5</ele>
<time>2003-03-28T11:31:26Z</time>
<speed>1.2</speed>
</trkpt>
<trkpt lat="47.434922" lon="8.278939">
<ele>408.4</ele>
<time>2003-03-28T11:31:31Z</time>
<speed>1.3</speed>
</trkpt>
<trkpt lat="47.434970" lon="8.278986">
<ele>408.9</ele>
<time>2003-03-28T11:31:36Z</time>
<speed>1.3</speed>
</trkpt>
<trkpt lat="47.435017" lon="8.279033">
<ele>409.5</ele>
<time>2003-03-28T11:31:41Z</time>
<speed>1.1</speed>
</trkpt>
<trkpt lat="47.435060" lon="8.279067">
<ele>409.2</ele>
<time>2003-03-28T11:31:46Z</time>
<speed>1.4</speed>
</trkpt>
<trkpt lat="47.435114" lon="8.279116">
<ele>409.1</ele>
<time>2003-03-28T11:31:51Z</time>
<speed>1.3</speed>
</trkpt>
<trkpt lat="47.435155" lon="8.279176">
<ele>409.0</ele>
<time>2003-03-28T11:31:56Z</time>
<speed>1.2</speed>
</trkpt>
<trkpt lat="47.435197" lon="8.279223">
<ele>408.8</ele>
<time>2003-03-28T11:32:01Z</time>
<speed>1.3</speed>
</trkpt>
<trkpt lat="47.435244" lon="8.279270">
<ele>409.4</ele>
<time>2003-03-28T11:32:06Z</time>
<speed>1.5</speed>
</trkpt>
<trkpt lat="47.435297" lon="8.279332">
<ele>409.4</ele>
<time>2003-03-28T11:32:11Z</time>
<speed>1.2</speed>
</trkpt>
<trkpt lat="47.435339" lon="8.279379">
<ele>409.2</ele>
<time>2003-03-28T11:32:16Z</time>
<speed>1.4</speed>
</trkpt>
<trkpt lat="47.435386" lon="8.279439">
<ele>409.9</ele>
<time>2003-03-28T11:32:21Z</time>
<speed>1.1</speed>
</trkpt>
<trkpt lat="47.435427" lon="8.279484">
<ele>411.1</ele>
<time>2003-03-28T11:32:26Z</time>
<speed>1.2</speed>
</trkpt>
<trkpt lat="47.435469" lon="8.279531">
<ele>410.9</ele>
<time>2003-03-28T11:32:31Z</time>
<speed>1.3</speed>
</trkpt>
<trkpt lat="47.435524" lon="8.279567">
<ele>410.7</ele>
<time>2003-03-28T11:32:36Z</time>
<speed>1.3</speed>
</trkpt>
<trkpt lat="47.435572" lon="8.279616">
<ele>409.9</ele>
<time>2003-03-28T11:32:41Z</time>
<speed>1.3</speed>
</trkpt>
<trkpt lat="47.435620" lon="8.279663">
<ele>410.4</ele>
<time>2003-03-28T11:32:46Z</time>
<speed>1.2</speed>
</trkpt>
<trkpt lat="47.435661" lon="8.279710">
<ele>410.3</ele>
<time>2003-03-28T11:32:51Z</time>
<speed>1.3</speed>
</trkpt>
<trkpt lat="47.435709" lon="8.279758">
<ele>409.4</ele>
<time>2003-03-28T11:32:56Z</time>
<speed>1.3</speed>
</trkpt>
<trkpt lat="47.435757" lon="8.279805">
<ele>410.0</ele>
<time>2003-03-28T11:33:01Z</time>
<speed>1.2</speed>
</trkpt>
<trkpt lat="47.435799" lon="8.279852">
<ele>409.8</ele>
<time>2003-03-28T11:33:06Z</time>
<speed>1.3</speed>
</trkpt>
<trkpt lat="47.435839" lon="8.279913">
<ele>409.7</ele>
<time>2003-03-28T11:33:11Z</time>
<speed>1.0</speed>
</trkpt>
<trkpt lat="47.435874" lon="8.279958">
<ele>410.2</ele>
<time>2003-03-28T11:33:16Z</time>
<speed>1.2</speed>
</trkpt>
<trkpt lat="47.435925" lon="8.279980">
<ele>409.2</ele>
<time>2003-03-28T11:33:21Z</time>
<speed>1.1</speed>
</trkpt>
<trkpt lat="47.435960" lon="8.279932">
<ele>409.7</ele>
<time>2003-03-28T11:33:26Z</time>
<speed>1.6</speed>
</trkpt>
<trkpt lat="47.435998" lon="8.279844">
<ele>409.9</ele>
<time>2003-03-28T11:33:31Z</time>
<speed>0.7</speed>
</trkpt>
<trkpt lat="47.436019" lon="8.279806">
<ele>410.4</ele>
<time>2003-03-28T11:33:36Z</time>
<speed>1.3</speed>
</trkpt>
<trkpt lat="47.436075" lon="8.279829">
<ele>410.1</ele>
<time>2003-03-28T11:33:41Z</time>
<speed>1.2</speed>
</trkpt>
<trkpt lat="47.436117" lon="8.279876">
<ele>409.9</ele>
<time>2003-03-28T11:33:46Z</time>
<speed>1.4</speed>
</trkpt>
<trkpt lat="47.436164" lon="8.279938">
<ele>409.1</ele>
<time>2003-03-28T11:33:51Z</time>
<speed>1.3</speed>
</trkpt>
<trkpt lat="47.436205" lon="8.279998">
<ele>409.1</ele>
<time>2003-03-28T11:33:56Z</time>
<speed>1.3</speed>
</trkpt>
<trkpt lat="47.436253" lon="8.280045">
<ele>409.6</ele>
<time>2003-03-28T11:34:01Z</time>
<speed>1.2</speed>
</trkpt>
<trkpt lat="47.436294" lon="8.280092">
<ele>409.4</ele>
<time>2003-03-28T11:34:06Z</time>
<speed>1.3</speed>
</trkpt>
<trkpt lat="47.436342" lon="8.280139">
<ele>410.0</ele>
<time>2003-03-28T11:34:11Z</time>
<speed>1.4</speed>
</trkpt>
<trkpt lat="47.436389" lon="8.280199">
<ele>410.7</ele>
<time>2003-03-28T11:34:16Z</time>
<speed>1.2</speed>
</trkpt>
<trkpt lat="47.436430" lon="8.280246">
<ele>410.5</ele>
<time>2003-03-28T11:34:21Z</time>
<speed>1.4</speed>
</trkpt>
<trkpt lat="47.436485" lon="8.280295">
<ele>410.4</ele>
<time>2003-03-28T11:34:26Z</time>
<speed>1.3</speed>
</trkpt>
<trkpt lat="47.436532" lon="8.280342">
<ele>410.9</ele>
<time>2003-03-28T11:34:31Z</time>
<speed>1.3</speed>
</trkpt>
<trkpt lat="47.436580" lon="8.280391">
<ele>410.1</ele>
<time>2003-03-28T11:34:36Z</time>
<speed>1.4</speed>
</trkpt>
<trkpt lat="47.436635" lon="8.280440">
<ele>410.0</ele>
<time>2003-03-28T11:34:41Z</time>
<speed>1.4</speed>
</trkpt>
<trkpt lat="47.436682" lon="8.280502">
<ele>409.2</ele>
<time>2003-03-28T11:34:46Z</time>
<speed>1.3</speed>
</trkpt>
<trkpt lat="47.436730" lon="8.280549">
<ele>409.8</ele>
<time>2003-03-28T11:34:51Z</time>
<speed>1.4</speed>
</trkpt>
<trkpt lat="47.436784" lon="8.280598">
<ele>409.7</ele>
<time>2003-03-28T11:34:56Z</time>
<speed>1.4</speed>
</trkpt>
<trkpt lat="47.436831" lon="8.280658">
<ele>410.3</ele>
<time>2003-03-28T11:35:01Z</time>
<speed>1.3</speed>
</trkpt>
<trkpt lat="47.436879" lon="8.280707">
<ele>409.5</ele>
<time>2003-03-28T11:35:06Z</time>
<speed>1.3</speed>
</trkpt>
<trkpt lat="47.436926" lon="8.280754">
<ele>410.1</ele>
<time>2003-03-28T11:35:11Z</time>
<speed>1.2</speed>
</trkpt>
<trkpt lat="47.436968" lon="8.280801">
<ele>409.9</ele>
<time>2003-03-28T11:35:16Z</time>
<speed>1.3</speed>
</trkpt>
<trkpt lat="47.437009" lon="8.280861">
<ele>409.8</ele>
<time>2003-03-28T11:35:21Z</time>
<speed>1.5</speed>
</trkpt>
<trkpt lat="47.437069" lon="8.280911">
<ele>409.0</ele>
<time>2003-03-28T11:35:26Z</time>
<speed>1.4</speed>
</trkpt>
<trkpt lat="47.437124" lon="8.280960">
<ele>408.9</ele>
<time>2003-03-28T11:35:31Z</time>
<speed>1.3</speed>
</trkpt>
<trkpt lat="47.437171" lon="8.281007">
<ele>409.5</ele>
<time>2003-03-28T11:35:36Z</time>
<speed>1.3</speed>
</trkpt>
<trkpt lat="47.437220" lon="8.281056">
<ele>408.6</ele>
<time>2003-03-28T11:35:41Z</time>
<speed>1.2</speed>
</trkpt>
<trkpt lat="47.437260" lon="8.281114">
<ele>410.0</ele>
<time>2003-03-28T11:35:46Z</time>
<speed>1.5</speed>
</trkpt>
<trkpt lat="47.437320" lon="8.281163">
<ele>410.6</ele>
<time>2003-03-28T11:35:51Z</time>
<speed>1.3</speed>
</trkpt>
<trkpt lat="47.437368" lon="8.281210">
<ele>411.2</ele>
<time>2003-03-28T11:35:56Z</time>
<speed>1.2</speed>
</trkpt>
<trkpt lat="47.437409" lon="8.281257">
<ele>411.0</ele>
<time>2003-03-28T11:36:01Z</time>
<speed>1.4</speed>
</trkpt>
<trkpt lat="47.437456" lon="8.281317">
<ele>411.6</ele>
<time>2003-03-28T11:36:06Z</time>
<speed>1.2</speed>
</trkpt>
<trkpt lat="47.437505" lon="8.281351">
<ele>412.1</ele>
<time>2003-03-28T11:36:11Z</time>
<speed>1.3</speed>
</trkpt>
<trkpt lat="47.437553" lon="8.281400">
<ele>411.3</ele>
<time>2003-03-28T11:36:16Z</time>
<speed>1.2</speed>
</trkpt>
<trkpt lat="47.437595" lon="8.281447">
<ele>411.1</ele>
<time>2003-03-28T11:36:21Z</time>
<speed>1.5</speed>
</trkpt>
<trkpt lat="47.437648" lon="8.281509">
<ele>411.1</ele>
<time>2003-03-28T11:36:26Z</time>
<speed>1.3</speed>
</trkpt>
<trkpt lat="47.437688" lon="8.281569">
<ele>411.0</ele>
<time>2003-03-28T11:36:31Z</time>
<speed>1.4</speed>
</trkpt>
<trkpt lat="47.437743" lon="8.281618">
<ele>410.9</ele>
<time>2003-03-28T11:36:36Z</time>
<speed>1.3</speed>
</trkpt>
<trkpt lat="47.437790" lon="8.281665">
<ele>411.4</ele>
<time>2003-03-28T11:36:41Z</time>
<speed>1.3</speed>
</trkpt>
<trkpt lat="47.437839" lon="8.281714">
<ele>410.6</ele>
<time>2003-03-28T11:36:46Z</time>
<speed>1.5</speed>
</trkpt>
<trkpt lat="47.437899" lon="8.281763">
<ele>411.2</ele>
<time>2003-03-28T11:36:51Z</time>
<speed>1.3</speed>
</trkpt>
<trkpt lat="47.437947" lon="8.281812">
<ele>410.4</ele>
<time>2003-03-28T11:36:56Z</time>
<speed>1.3</speed>
</trkpt>
<trkpt lat="47.437995" lon="8.281859">
<ele>410.9</ele>
<time>2003-03-28T11:37:01Z</time>
<speed>1.6</speed>
</trkpt>
<trkpt lat="47.438056" lon="8.281910">
<ele>410.2</ele>
<time>2003-03-28T11:37:06Z</time>
<speed>1.5</speed>
</trkpt>
<trkpt lat="47.438109" lon="8.281972">
<ele>410.2</ele>
<time>2003-03-28T11:37:11Z</time>
<speed>1.5</speed>
</trkpt>
<trkpt lat="47.438162" lon="8.282034">
<ele>410.1</ele>
<time>2003-03-28T11:37:16Z</time>
<speed>1.3</speed>
</trkpt>
<trkpt lat="47.438210" lon="8.282081">
<ele>410.7</ele>
<time>2003-03-28T11:37:21Z</time>
<speed>1.3</speed>
</trkpt>
<trkpt lat="47.438251" lon="8.282141">
<ele>410.6</ele>
<time>2003-03-28T11:37:26Z</time>
<speed>1.3</speed>
</trkpt>
<trkpt lat="47.438306" lon="8.282177">
<ele>410.4</ele>
<time>2003-03-28T11:37:31Z</time>
<speed>1.5</speed>
</trkpt>
<trkpt lat="47.438359" lon="8.282239">
<ele>410.4</ele>
<time>2003-03-28T11:37:36Z</time>
<speed>1.5</speed>
</trkpt>
<trkpt lat="47.438419" lon="8.282288">
<ele>411.0</ele>
<time>2003-03-28T11:37:41Z</time>
<speed>1.2</speed>
</trkpt>
<trkpt lat="47.438461" lon="8.282335">
<ele>410.9</ele>
<time>2003-03-28T11:37:46Z</time>
<speed>1.3</speed>
</trkpt>
<trkpt lat="47.438509" lon="8.282383">
<ele>410.0</ele>
<time>2003-03-28T11:37:51Z</time>
<speed>1.5</speed>
</trkpt>
<trkpt lat="47.438562" lon="8.282445">
<ele>410.0</ele>
<time>2003-03-28T11:37:56Z</time>
<speed>1.4</speed>
</trkpt>
<trkpt lat="47.438609" lon="8.282506">
<ele>410.7</ele>
<time>2003-03-28T11:38:01Z</time>
<speed>1.4</speed>
</trkpt>
<trkpt lat="47.438663" lon="8.282554">
<ele>410.6</ele>
<time>2003-03-28T11:38:06Z</time>
<speed>1.5</speed>
</trkpt>
<trkpt lat="47.438725" lon="8.282592">
<ele>409.7</ele>
<time>2003-03-28T11:38:11Z</time>
<speed>1.4</speed>
</trkpt>
<trkpt lat="47.438779" lon="8.282641">
<ele>409.6</ele>
<time>2003-03-28T11:38:16Z</time>
<speed>1.4</speed>
</trkpt>
<trkpt lat="47.438827" lon="8.282703">
<ele>408.8</ele>
<time>2003-03-28T11:38:21Z</time>
<speed>1.3</speed>
</trkpt>
<trkpt lat="47.438874" lon="8.282750">
<ele>409.4</ele>
<time>2003-03-28T11:38:26Z</time>
<speed>1.4</speed>
</trkpt>
<trkpt lat="47.438922" lon="8.282812">
<ele>408.6</ele>
<time>2003-03-28T11:38:31Z</time>
<speed>1.4</speed>
</trkpt>
<trkpt lat="47.438976" lon="8.282861">
<ele>408.5</ele>
<time>2003-03-28T11:38:36Z</time>
<speed>1.3</speed>
</trkpt>
<trkpt lat="47.439023" lon="8.282908">
<ele>409.1</ele>
<time>2003-03-28T11:38:41Z</time>
<speed>1.4</speed>
</trkpt>
<trkpt lat="47.439078" lon="8.282957">
<ele>409.0</ele>
<time>2003-03-28T11:38:46Z</time>
<speed>1.4</speed>
</trkpt>
<trkpt lat="47.439132" lon="8.283006">
<ele>408.9</ele>
<time>2003-03-28T11:38:51Z</time>
<speed>1.5</speed>
</trkpt>
<trkpt lat="47.439185" lon="8.283068">
<ele>408.9</ele>
<time>2003-03-28T11:38:56Z</time>
<speed>1.2</speed>
</trkpt>
<trkpt lat="47.439234" lon="8.283102">
<ele>409.3</ele>
<time>2003-03-28T11:39:01Z</time>
<speed>1.4</speed>
</trkpt>
<trkpt lat="47.439288" lon="8.283151">
<ele>409.2</ele>
<time>2003-03-28T11:39:06Z</time>
<speed>1.4</speed>
</trkpt>
<trkpt lat="47.439335" lon="8.283211">
<ele>409.9</ele>
<time>2003-03-28T11:39:11Z</time>
<speed>1.2</speed>
</trkpt>
<trkpt lat="47.439376" lon="8.283258">
<ele>409.7</ele>
<time>2003-03-28T11:39:16Z</time>
<speed>1.5</speed>
</trkpt>
<trkpt lat="47.439430" lon="8.283320">
<ele>409.7</ele>
<time>2003-03-28T11:39:21Z</time>
<speed>1.4</speed>
</trkpt>
<trkpt lat="47.439484" lon="8.283369">
<ele>409.6</ele>
<time>2003-03-28T11:39:26Z</time>
<speed>1.4</speed>
</trkpt>
<trkpt lat="47.439538" lon="8.283418">
<ele>409.5</ele>
<time>2003-03-28T11:39:31Z</time>
<speed>1.4</speed>
</trkpt>
<trkpt lat="47.439592" lon="8.283466">
<ele>409.4</ele>
<time>2003-03-28T11:39:36Z</time>
<speed>1.3</speed>
</trkpt>
<trkpt lat="47.439640" lon="8.283513">
<ele>409.9</ele>
<time>2003-03-28T11:39:41Z</time>
<speed>1.5</speed>
</trkpt>
<trkpt lat="47.439693" lon="8.283575">
<ele>409.9</ele>
<time>2003-03-28T11:39:46Z</time>
<speed>1.3</speed>
</trkpt>
<trkpt lat="47.439741" lon="8.283622">
<ele>410.5</ele>
<time>2003-03-28T11:39:51Z</time>
<speed>1.3</speed>
</trkpt>
<trkpt lat="47.439789" lon="8.283671">
<ele>409.6</ele>
<time>2003-03-28T11:39:56Z</time>
<speed>1.0</speed>
</trkpt>
<trkpt lat="47.439824" lon="8.283716">
<ele>410.1</ele>
<time>2003-03-28T11:40:01Z</time>
<speed>0.9</speed>
</trkpt>
<trkpt lat="47.439853" lon="8.283762">
<ele>409.9</ele>
<time>2003-03-28T11:40:06Z</time>
<speed>0.5</speed>
</trkpt>
<trkpt lat="47.439872" lon="8.283778">
<ele>409.4</ele>
<time>2003-03-28T11:40:11Z</time>
<speed>0.8</speed>
</trkpt>
<trkpt lat="47.439908" lon="8.283795">
<ele>411.1</ele>
<time>2003-03-28T11:40:16Z</time>
<speed>1.4</speed>
</trkpt>
<trkpt lat="47.439947" lon="8.283867">
<ele>412.5</ele>
<time>2003-03-28T11:40:21Z</time>
<speed>1.0</speed>
</trkpt>
<trkpt lat="47.439982" lon="8.283912">
<ele>413.0</ele>
<time>2003-03-28T11:40:26Z</time>
<speed>1.2</speed>
</trkpt>
<trkpt lat="47.440024" lon="8.283959">
<ele>412.8</ele>
<time>2003-03-28T11:40:31Z</time>
<speed>1.7</speed>
</trkpt>
<trkpt lat="47.440091" lon="8.284010">
<ele>412.8</ele>
<time>2003-03-28T11:40:36Z</time>
<speed>1.3</speed>
</trkpt>
<trkpt lat="47.440146" lon="8.284045">
<ele>412.6</ele>
<time>2003-03-28T11:40:41Z</time>
<speed>1.4</speed>
</trkpt>
<trkpt lat="47.440200" lon="8.284094">
<ele>412.5</ele>
<time>2003-03-28T11:40:46Z</time>
<speed>1.4</speed>
</trkpt>
<trkpt lat="47.440255" lon="8.284143">
<ele>412.4</ele>
<time>2003-03-28T11:40:51Z</time>
<speed>1.2</speed>
</trkpt>
<trkpt lat="47.440304" lon="8.284179">
<ele>411.4</ele>
<time>2003-03-28T11:40:56Z</time>
<speed>1.2</speed>
</trkpt>
<trkpt lat="47.440345" lon="8.284226">
<ele>411.3</ele>
<time>2003-03-28T11:41:01Z</time>
<speed>1.4</speed>
</trkpt>
<trkpt lat="47.440392" lon="8.284286">
<ele>411.9</ele>
<time>2003-03-28T11:41:06Z</time>
<speed>1.5</speed>
</trkpt>
<trkpt lat="47.440446" lon="8.284350">
<ele>410.5</ele>
<time>2003-03-28T11:41:11Z</time>
<speed>1.3</speed>
</trkpt>
<trkpt lat="47.440494" lon="8.284399">
<ele>409.7</ele>
<time>2003-03-28T11:41:16Z</time>
<speed>1.4</speed>
</trkpt>
<trkpt lat="47.440548" lon="8.284448">
<ele>409.6</ele>
<time>2003-03-28T11:41:21Z</time>
<speed>1.5</speed>
</trkpt>
<trkpt lat="47.440609" lon="8.284497">
<ele>410.2</ele>
<time>2003-03-28T11:41:26Z</time>
<speed>1.5</speed>
</trkpt>
<trkpt lat="47.440662" lon="8.284559">
<ele>410.2</ele>
<time>2003-03-28T11:41:31Z</time>
<speed>1.6</speed>
</trkpt>
<trkpt lat="47.440723" lon="8.284610">
<ele>409.4</ele>
<time>2003-03-28T11:41:36Z</time>
<speed>1.4</speed>
</trkpt>
<trkpt lat="47.440770" lon="8.284672">
<ele>408.7</ele>
<time>2003-03-28T11:41:41Z</time>
<speed>1.5</speed>
</trkpt>
<trkpt lat="47.440830" lon="8.284721">
<ele>409.3</ele>
<time>2003-03-28T11:41:46Z</time>
<speed>1.2</speed>
</trkpt>
<trkpt lat="47.440872" lon="8.284768">
<ele>409.1</ele>
<time>2003-03-28T11:41:51Z</time>
<speed>1.4</speed>
</trkpt>
<trkpt lat="47.440926" lon="8.284816">
<ele>409.0</ele>
<time>2003-03-28T11:41:56Z</time>
<speed>1.4</speed>
</trkpt>
<trkpt lat="47.440980" lon="8.284865">
<ele>408.9</ele>
<time>2003-03-28T11:42:01Z</time>
<speed>1.3</speed>
</trkpt>
<trkpt lat="47.441028" lon="8.284912">
<ele>409.5</ele>
<time>2003-03-28T11:42:06Z</time>
<speed>1.6</speed>
</trkpt>
<trkpt lat="47.441087" lon="8.284974">
<ele>410.2</ele>
<time>2003-03-28T11:42:11Z</time>
<speed>1.2</speed>
</trkpt>
<trkpt lat="47.441136" lon="8.285010">
<ele>409.2</ele>
<time>2003-03-28T11:42:16Z</time>
<speed>1.5</speed>
</trkpt>
<trkpt lat="47.441190" lon="8.285072">
<ele>409.2</ele>
<time>2003-03-28T11:42:21Z</time>
<speed>1.3</speed>
</trkpt>
<trkpt lat="47.441237" lon="8.285119">
<ele>409.8</ele>
<time>2003-03-28T11:42:26Z</time>
<speed>1.2</speed>
</trkpt>
<trkpt lat="47.441279" lon="8.285166">
<ele>409.6</ele>
<time>2003-03-28T11:42:31Z</time>
<speed>1.4</speed>
</trkpt>
<trkpt lat="47.441333" lon="8.285215">
<ele>409.5</ele>
<time>2003-03-28T11:42:36Z</time>
<speed>1.3</speed>
</trkpt>
<trkpt lat="47.441374" lon="8.285275">
<ele>409.4</ele>
<time>2003-03-28T11:42:41Z</time>
<speed>1.3</speed>
</trkpt>
<trkpt lat="47.441422" lon="8.285322">
<ele>410.0</ele>
<time>2003-03-28T11:42:46Z</time>
<speed>1.2</speed>
</trkpt>
<trkpt lat="47.441463" lon="8.285369">
<ele>409.8</ele>
<time>2003-03-28T11:42:51Z</time>
<speed>1.3</speed>
</trkpt>
<trkpt lat="47.441511" lon="8.285416">
<ele>410.4</ele>
<time>2003-03-28T11:42:56Z</time>
<speed>1.6</speed>
</trkpt>
<trkpt lat="47.441577" lon="8.285465">
<ele>411.7</ele>
<time>2003-03-28T11:43:01Z</time>
<speed>1.3</speed>
</trkpt>
<trkpt lat="47.441618" lon="8.285525">
<ele>411.7</ele>
<time>2003-03-28T11:43:06Z</time>
<speed>1.4</speed>
</trkpt>
<trkpt lat="47.441665" lon="8.285587">
<ele>410.9</ele>
<time>2003-03-28T11:43:11Z</time>
<speed>1.4</speed>
</trkpt>
<trkpt lat="47.441719" lon="8.285636">
<ele>410.8</ele>
<time>2003-03-28T11:43:16Z</time>
<speed>0.9</speed>
</trkpt>
<trkpt lat="47.441748" lon="8.285681">
<ele>410.6</ele>
<time>2003-03-28T11:43:21Z</time>
<speed>0.4</speed>
</trkpt>
<trkpt lat="47.441767" lon="8.285683">
<ele>411.4</ele>
<time>2003-03-28T11:43:26Z</time>
<speed>0.0</speed>
</trkpt>
<trkpt lat="47.441767" lon="8.285683">
<ele>411.4</ele>
<time>2003-03-28T11:43:31Z</time>
<speed>0.1</speed>
</trkpt>
<trkpt lat="47.441761" lon="8.285681">
<ele>412.0</ele>
<time>2003-03-28T11:43:36Z</time>
<speed>0.1</speed>
</trkpt>
<trkpt lat="47.441767" lon="8.285681">
<ele>412.8</ele>
<time>2003-03-28T11:43:41Z</time>
<speed>0.0</speed>
</trkpt>
<trkpt lat="47.441767" lon="8.285681">
<ele>412.8</ele>
<time>2003-03-28T11:43:46Z</time>
<speed>0.0</speed>
</trkpt>
<trkpt lat="47.441767" lon="8.285681">
<ele>412.8</ele>
<time>2003-03-28T11:43:51Z</time>
<speed>0.0</speed>
</trkpt>
<trkpt lat="47.441767" lon="8.285681">
<ele>412.8</ele>
<time>2003-03-28T11:43:56Z</time>
<speed>0.0</speed>
</trkpt>
<trkpt lat="47.441767" lon="8.285681">
<ele>412.8</ele>
<time>2003-03-28T11:44:01Z</time>
<speed>0.0</speed>
</trkpt>
<trkpt lat="47.441767" lon="8.285681">
<ele>412.8</ele>
<time>2003-03-28T11:44:06Z</time>
<speed>0.0</speed>
</trkpt>
<trkpt lat="47.441767" lon="8.285681">
<ele>412.8</ele>
<time>2003-03-28T11:44:11Z</time>
<speed>0.0</speed>
</trkpt>
<trkpt lat="47.441767" lon="8.285681">
<ele>412.8</ele>
<time>2003-03-28T11:44:16Z</time>
<speed>0.2</speed>
</trkpt>
<trkpt lat="47.441760" lon="8.285679">
<ele>413.4</ele>
<time>2003-03-28T11:44:21Z</time>
<speed>0.0</speed>
</trkpt>
<trkpt lat="47.441760" lon="8.285679">
<ele>413.4</ele>
<time>2003-03-28T11:44:26Z</time>
<speed>0.0</speed>
</trkpt>
<trkpt lat="47.441760" lon="8.285679">
<ele>413.4</ele>
<time>2003-03-28T11:44:31Z</time>
<speed>0.2</speed>
</trkpt>
<trkpt lat="47.441767" lon="8.285666">
<ele>414.1</ele>
<time>2003-03-28T11:44:36Z</time>
<speed>0.0</speed>
</trkpt>
<trkpt lat="47.441767" lon="8.285666">
<ele>414.1</ele>
<time>2003-03-28T11:44:41Z</time>
<speed>0.0</speed>
</trkpt>
<trkpt lat="47.441767" lon="8.285666">
<ele>414.1</ele>
<time>2003-03-28T11:44:46Z</time>
<speed>0.0</speed>
</trkpt>
<trkpt lat="47.441767" lon="8.285666">
<ele>414.1</ele>
<time>2003-03-28T11:44:51Z</time>
<speed>0.0</speed>
</trkpt>
<trkpt lat="47.441767" lon="8.285666">
<ele>414.1</ele>
<time>2003-03-28T11:44:56Z</time>
<speed>0.1</speed>
</trkpt>
<trkpt lat="47.441761" lon="8.285664">
<ele>414.8</ele>
<time>2003-03-28T11:45:01Z</time>
<speed>0.0</speed>
</trkpt>
<trkpt lat="47.441761" lon="8.285664">
<ele>414.8</ele>
<time>2003-03-28T11:45:06Z</time>
<speed>0.0</speed>
</trkpt>
<trkpt lat="47.441761" lon="8.285664">
<ele>414.8</ele>
<time>2003-03-28T11:45:11Z</time>
<speed>0.0</speed>
</trkpt>
<trkpt lat="47.441761" lon="8.285664">
<ele>414.8</ele>
<time>2003-03-28T11:45:16Z</time>
<speed>0.0</speed>
</trkpt>
<trkpt lat="47.441761" lon="8.285664">
<ele>414.8</ele>
<time>2003-03-28T11:45:21Z</time>
<speed>0.0</speed>
</trkpt>
<trkpt lat="47.441761" lon="8.285664">
<ele>414.8</ele>
<time>2003-03-28T11:45:26Z</time>
<speed>0.3</speed>
</trkpt>
<trkpt lat="47.441772" lon="8.285679">
<ele>414.9</ele>
<time>2003-03-28T11:45:31Z</time>
<speed>1.0</speed>
</trkpt>
<trkpt lat="47.441807" lon="8.285724">
<ele>415.4</ele>
<time>2003-03-28T11:45:36Z</time>
<speed>1.2</speed>
</trkpt>
<trkpt lat="47.441849" lon="8.285771">
<ele>415.2</ele>
<time>2003-03-28T11:45:41Z</time>
<speed>1.2</speed>
</trkpt>
<trkpt lat="47.441891" lon="8.285818">
<ele>415.1</ele>
<time>2003-03-28T11:45:46Z</time>
<speed>1.3</speed>
</trkpt>
<trkpt lat="47.441931" lon="8.285879">
<ele>415.0</ele>
<time>2003-03-28T11:45:51Z</time>
<speed>1.3</speed>
</trkpt>
<trkpt lat="47.441979" lon="8.285926">
<ele>415.5</ele>
<time>2003-03-28T11:45:56Z</time>
<speed>1.3</speed>
</trkpt>
<trkpt lat="47.442020" lon="8.285986">
<ele>415.5</ele>
<time>2003-03-28T11:46:01Z</time>
<speed>1.3</speed>
</trkpt>
<trkpt lat="47.442068" lon="8.286035">
<ele>414.6</ele>
<time>2003-03-28T11:46:06Z</time>
<speed>1.3</speed>
</trkpt>
<trkpt lat="47.442116" lon="8.286083">
<ele>413.8</ele>
<time>2003-03-28T11:46:11Z</time>
<speed>1.3</speed>
</trkpt>
<trkpt lat="47.442164" lon="8.286130">
<ele>414.3</ele>
<time>2003-03-28T11:46:16Z</time>
<speed>1.5</speed>
</trkpt>
<trkpt lat="47.442224" lon="8.286179">
<ele>415.0</ele>
<time>2003-03-28T11:46:21Z</time>
<speed>1.3</speed>
</trkpt>
<trkpt lat="47.442279" lon="8.286215">
<ele>414.8</ele>
<time>2003-03-28T11:46:26Z</time>
<speed>1.3</speed>
</trkpt>
<trkpt lat="47.442320" lon="8.286275">
<ele>414.7</ele>
<time>2003-03-28T11:46:31Z</time>
<speed>1.3</speed>
</trkpt>
<trkpt lat="47.442368" lon="8.286324">
<ele>413.8</ele>
<time>2003-03-28T11:46:36Z</time>
<speed>1.4</speed>
</trkpt>
<trkpt lat="47.442422" lon="8.286373">
<ele>413.7</ele>
<time>2003-03-28T11:46:41Z</time>
<speed>1.5</speed>
</trkpt>
<trkpt lat="47.442483" lon="8.286409">
<ele>414.3</ele>
<time>2003-03-28T11:46:46Z</time>
<speed>1.4</speed>
</trkpt>
<trkpt lat="47.442539" lon="8.286445">
<ele>414.1</ele>
<time>2003-03-28T11:46:51Z</time>
<speed>1.5</speed>
</trkpt>
<trkpt lat="47.442599" lon="8.286494">
<ele>414.7</ele>
<time>2003-03-28T11:46:56Z</time>
<speed>1.3</speed>
</trkpt>
<trkpt lat="47.442654" lon="8.286527">
<ele>415.9</ele>
<time>2003-03-28T11:47:01Z</time>
<speed>1.3</speed>
</trkpt>
<trkpt lat="47.442710" lon="8.286550">
<ele>415.6</ele>
<time>2003-03-28T11:47:06Z</time>
<speed>1.4</speed>
</trkpt>
<trkpt lat="47.442772" lon="8.286573">
<ele>416.0</ele>
<time>2003-03-28T11:47:11Z</time>
<speed>1.6</speed>
</trkpt>
<trkpt lat="47.442841" lon="8.286597">
<ele>415.8</ele>
<time>2003-03-28T11:47:16Z</time>
<speed>0.5</speed>
</trkpt>
<trkpt lat="47.442859" lon="8.286614">
<ele>415.3</ele>
<time>2003-03-28T11:47:21Z</time>
<speed>1.3</speed>
</trkpt>
<trkpt lat="47.442915" lon="8.286637">
<ele>415.0</ele>
<time>2003-03-28T11:47:26Z</time>
<speed>1.3</speed>
</trkpt>
<trkpt lat="47.442970" lon="8.286673">
<ele>414.8</ele>
<time>2003-03-28T11:47:31Z</time>
<speed>1.3</speed>
</trkpt>
<trkpt lat="47.443027" lon="8.286695">
<ele>414.5</ele>
<time>2003-03-28T11:47:36Z</time>
<speed>1.7</speed>
</trkpt>
<trkpt lat="47.443101" lon="8.286720">
<ele>415.0</ele>
<time>2003-03-28T11:47:41Z</time>
<speed>1.3</speed>
</trkpt>
<trkpt lat="47.443158" lon="8.286743">
<ele>414.7</ele>
<time>2003-03-28T11:47:46Z</time>
<speed>1.2</speed>
</trkpt>
<trkpt lat="47.443206" lon="8.286777">
<ele>415.1</ele>
<time>2003-03-28T11:47:51Z</time>
<speed>1.6</speed>
</trkpt>
<trkpt lat="47.443275" lon="8.286799">
<ele>416.3</ele>
<time>2003-03-28T11:47:56Z</time>
<speed>1.7</speed>
</trkpt>
<trkpt lat="47.443349" lon="8.286824">
<ele>416.8</ele>
<time>2003-03-28T11:48:01Z</time>
<speed>1.4</speed>
</trkpt>
<trkpt lat="47.443405" lon="8.286860">
<ele>416.6</ele>
<time>2003-03-28T11:48:06Z</time>
<speed>1.4</speed>
</trkpt>
<trkpt lat="47.443467" lon="8.286882">
<ele>417.0</ele>
<time>2003-03-28T11:48:11Z</time>
<speed>1.3</speed>
</trkpt>
<trkpt lat="47.443524" lon="8.286892">
<ele>416.6</ele>
<time>2003-03-28T11:48:16Z</time>
<speed>1.2</speed>
</trkpt>
<trkpt lat="47.443574" lon="8.286913">
<ele>417.0</ele>
<time>2003-03-28T11:48:21Z</time>
<speed>1.3</speed>
</trkpt>
<trkpt lat="47.443631" lon="8.286922">
<ele>416.6</ele>
<time>2003-03-28T11:48:26Z</time>
<speed>1.1</speed>
</trkpt>
<trkpt lat="47.443680" lon="8.286943">
<ele>417.0</ele>
<time>2003-03-28T11:48:31Z</time>
<speed>0.5</speed>
</trkpt>
<trkpt lat="47.443699" lon="8.286960">
<ele>416.5</ele>
<time>2003-03-28T11:48:36Z</time>
<speed>1.6</speed>
</trkpt>
<trkpt lat="47.443767" lon="8.286983">
<ele>417.6</ele>
<time>2003-03-28T11:48:41Z</time>
<speed>1.6</speed>
</trkpt>
<trkpt lat="47.443837" lon="8.286994">
<ele>417.3</ele>
<time>2003-03-28T11:48:46Z</time>
<speed>1.3</speed>
</trkpt>
<trkpt lat="47.443892" lon="8.287030">
<ele>417.1</ele>
<time>2003-03-28T11:48:51Z</time>
<speed>0.9</speed>
</trkpt>
<trkpt lat="47.443929" lon="8.287049">
<ele>417.4</ele>
<time>2003-03-28T11:48:56Z</time>
<speed>1.0</speed>
</trkpt>
<trkpt lat="47.443972" lon="8.287068">
<ele>418.4</ele>
<time>2003-03-28T11:49:01Z</time>
<speed>1.4</speed>
</trkpt>
<trkpt lat="47.444034" lon="8.287090">
<ele>418.9</ele>
<time>2003-03-28T11:49:06Z</time>
<speed>1.7</speed>
</trkpt>
<trkpt lat="47.444110" lon="8.287104">
<ele>417.9</ele>
<time>2003-03-28T11:49:11Z</time>
<speed>1.6</speed>
</trkpt>
<trkpt lat="47.444180" lon="8.287115">
<ele>417.5</ele>
<time>2003-03-28T11:49:16Z</time>
<speed>1.6</speed>
</trkpt>
<trkpt lat="47.444249" lon="8.287140">
<ele>417.3</ele>
<time>2003-03-28T11:49:21Z</time>
<speed>1.8</speed>
</trkpt>
<trkpt lat="47.444331" lon="8.287153">
<ele>417.0</ele>
<time>2003-03-28T11:49:26Z</time>
<speed>1.6</speed>
</trkpt>
<trkpt lat="47.444402" lon="8.287151">
<ele>416.6</ele>
<time>2003-03-28T11:49:31Z</time>
<speed>1.0</speed>
</trkpt>
<trkpt lat="47.444446" lon="8.287157">
<ele>417.6</ele>
<time>2003-03-28T11:49:36Z</time>
<speed>1.3</speed>
</trkpt>
<trkpt lat="47.444503" lon="8.287167">
<ele>417.2</ele>
<time>2003-03-28T11:49:41Z</time>
<speed>1.0</speed>
</trkpt>
<trkpt lat="47.444546" lon="8.287186">
<ele>418.2</ele>
<time>2003-03-28T11:49:46Z</time>
<speed>1.3</speed>
</trkpt>
<trkpt lat="47.444601" lon="8.287219">
<ele>419.4</ele>
<time>2003-03-28T11:49:51Z</time>
<speed>1.6</speed>
</trkpt>
<trkpt lat="47.444669" lon="8.287257">
<ele>419.3</ele>
<time>2003-03-28T11:49:56Z</time>
<speed>0.7</speed>
</trkpt>
<trkpt lat="47.444685" lon="8.287300">
<ele>418.9</ele>
<time>2003-03-28T11:50:01Z</time>
<speed>1.6</speed>
</trkpt>
<trkpt lat="47.444744" lon="8.287362">
<ele>419.7</ele>
<time>2003-03-28T11:50:06Z</time>
<speed>1.8</speed>
</trkpt>
<trkpt lat="47.444810" lon="8.287426">
<ele>419.7</ele>
<time>2003-03-28T11:50:11Z</time>
<speed>1.9</speed>
</trkpt>
<trkpt lat="47.444882" lon="8.287490">
<ele>420.5</ele>
<time>2003-03-28T11:50:16Z</time>
<speed>1.7</speed>
</trkpt>
<trkpt lat="47.444949" lon="8.287541">
<ele>420.5</ele>
<time>2003-03-28T11:50:21Z</time>
<speed>1.0</speed>
</trkpt>
<trkpt lat="47.444957" lon="8.287607">
<ele>422.4</ele>
<time>2003-03-28T11:50:26Z</time>
<speed>1.6</speed>
</trkpt>
<trkpt lat="47.445016" lon="8.287671">
<ele>421.8</ele>
<time>2003-03-28T11:50:31Z</time>
<speed>1.2</speed>
</trkpt>
<trkpt lat="47.445051" lon="8.287729">
<ele>422.4</ele>
<time>2003-03-28T11:50:36Z</time>
<speed>1.2</speed>
</trkpt>
<trkpt lat="47.445091" lon="8.287787">
<ele>423.7</ele>
<time>2003-03-28T11:50:41Z</time>
<speed>1.1</speed>
</trkpt>
<trkpt lat="47.445099" lon="8.287856">
<ele>422.8</ele>
<time>2003-03-28T11:50:46Z</time>
<speed>1.2</speed>
</trkpt>
<trkpt lat="47.445133" lon="8.287915">
<ele>423.4</ele>
<time>2003-03-28T11:50:51Z</time>
<speed>0.8</speed>
</trkpt>
<trkpt lat="47.445142" lon="8.287969">
<ele>423.9</ele>
<time>2003-03-28T11:50:56Z</time>
<speed>1.2</speed>
</trkpt>
<trkpt lat="47.445169" lon="8.288040">
<ele>423.8</ele>
<time>2003-03-28T11:51:01Z</time>
<speed>1.1</speed>
</trkpt>
<trkpt lat="47.445197" lon="8.288099">
<ele>423.7</ele>
<time>2003-03-28T11:51:06Z</time>
<speed>0.8</speed>
</trkpt>
<trkpt lat="47.445187" lon="8.288149">
<ele>424.7</ele>
<time>2003-03-28T11:51:11Z</time>
<speed>0.7</speed>
</trkpt>
<trkpt lat="47.445203" lon="8.288192">
<ele>424.4</ele>
<time>2003-03-28T11:51:16Z</time>
<speed>1.2</speed>
</trkpt>
<trkpt lat="47.445210" lon="8.288273">
<ele>425.1</ele>
<time>2003-03-28T11:51:21Z</time>
<speed>1.2</speed>
</trkpt>
<trkpt lat="47.445198" lon="8.288352">
<ele>424.9</ele>
<time>2003-03-28T11:51:26Z</time>
<speed>1.3</speed>
</trkpt>
<trkpt lat="47.445168" lon="8.288428">
<ele>424.0</ele>
<time>2003-03-28T11:51:31Z</time>
<speed>1.2</speed>
</trkpt>
<trkpt lat="47.445149" lon="8.288505">
<ele>424.5</ele>
<time>2003-03-28T11:51:36Z</time>
<speed>1.4</speed>
</trkpt>
<trkpt lat="47.445189" lon="8.288578">
<ele>424.5</ele>
<time>2003-03-28T11:51:41Z</time>
<speed>0.9</speed>
</trkpt>
<trkpt lat="47.445204" lon="8.288633">
<ele>425.7</ele>
<time>2003-03-28T11:51:46Z</time>
<speed>1.2</speed>
</trkpt>
<trkpt lat="47.445167" lon="8.288693">
<ele>426.7</ele>
<time>2003-03-28T11:51:51Z</time>
<speed>1.4</speed>
</trkpt>
<trkpt lat="47.445118" lon="8.288751">
<ele>427.7</ele>
<time>2003-03-28T11:51:56Z</time>
<speed>2.0</speed>
</trkpt>
<trkpt lat="47.445037" lon="8.288805">
<ele>427.8</ele>
<time>2003-03-28T11:52:01Z</time>
<speed>1.2</speed>
</trkpt>
<trkpt lat="47.445001" lon="8.288865">
<ele>428.8</ele>
<time>2003-03-28T11:52:06Z</time>
<speed>1.0</speed>
</trkpt>
<trkpt lat="47.444972" lon="8.288913">
<ele>429.1</ele>
<time>2003-03-28T11:52:11Z</time>
<speed>1.3</speed>
</trkpt>
<trkpt lat="47.444924" lon="8.288960">
<ele>428.5</ele>
<time>2003-03-28T11:52:16Z</time>
<speed>1.1</speed>
</trkpt>
<trkpt lat="47.444894" lon="8.289022">
<ele>428.9</ele>
<time>2003-03-28T11:52:21Z</time>
<speed>1.2</speed>
</trkpt>
<trkpt lat="47.444858" lon="8.289084">
<ele>428.5</ele>
<time>2003-03-28T11:52:26Z</time>
<speed>1.5</speed>
</trkpt>
<trkpt lat="47.444870" lon="8.289179">
<ele>428.6</ele>
<time>2003-03-28T11:52:31Z</time>
<speed>1.4</speed>
</trkpt>
<trkpt lat="47.444864" lon="8.289273">
<ele>427.8</ele>
<time>2003-03-28T11:52:36Z</time>
<speed>0.0</speed>
</trkpt>
<trkpt lat="47.444863" lon="8.289271">
<ele>429.2</ele>
<time>2003-03-28T11:52:41Z</time>
<speed>0.6</speed>
</trkpt>
<trkpt lat="47.444838" lon="8.289267">
<ele>429.1</ele>
<time>2003-03-28T11:52:46Z</time>
<speed>0.1</speed>
</trkpt>
<trkpt lat="47.444832" lon="8.289265">
<ele>429.8</ele>
<time>2003-03-28T11:52:51Z</time>
<speed>0.2</speed>
</trkpt>
<trkpt lat="47.444833" lon="8.289252">
<ele>429.7</ele>
<time>2003-03-28T11:52:56Z</time>
<speed>0.4</speed>
</trkpt>
<trkpt lat="47.444813" lon="8.289248">
<ele>430.3</ele>
<time>2003-03-28T11:53:01Z</time>
<speed>0.1</speed>
</trkpt>
<trkpt lat="47.444807" lon="8.289247">
<ele>430.9</ele>
<time>2003-03-28T11:53:06Z</time>
<speed>0.0</speed>
</trkpt>
<trkpt lat="47.444807" lon="8.289247">
<ele>430.9</ele>
<time>2003-03-28T11:53:11Z</time>
<speed>0.0</speed>
</trkpt>
<trkpt lat="47.444807" lon="8.289247">
<ele>430.9</ele>
<time>2003-03-28T11:53:16Z</time>
<speed>0.0</speed>
</trkpt>
<trkpt lat="47.444807" lon="8.289247">
<ele>430.9</ele>
<time>2003-03-28T11:53:21Z</time>
<speed>0.0</speed>
</trkpt>
<trkpt lat="47.444807" lon="8.289247">
<ele>430.9</ele>
<time>2003-03-28T11:53:26Z</time>
<speed>0.1</speed>
</trkpt>
<trkpt lat="47.444813" lon="8.289247">
<ele>431.7</ele>
<time>2003-03-28T11:53:31Z</time>
<speed>0.0</speed>
</trkpt>
<trkpt lat="47.444813" lon="8.289247">
<ele>431.7</ele>
<time>2003-03-28T11:53:36Z</time>
<speed>0.1</speed>
</trkpt>
<trkpt lat="47.444819" lon="8.289247">
<ele>432.4</ele>
<time>2003-03-28T11:53:41Z</time>
<speed>0.0</speed>
</trkpt>
<trkpt lat="47.444819" lon="8.289247">
<ele>432.4</ele>
<time>2003-03-28T11:53:46Z</time>
<speed>0.4</speed>
</trkpt>
<trkpt lat="47.444800" lon="8.289245">
<ele>431.6</ele>
<time>2003-03-28T11:53:51Z</time>
<speed>0.7</speed>
</trkpt>
<trkpt lat="47.444768" lon="8.289252">
<ele>432.2</ele>
<time>2003-03-28T11:53:56Z</time>
<speed>0.6</speed>
</trkpt>
<trkpt lat="47.444741" lon="8.289261">
<ele>432.2</ele>
<time>2003-03-28T11:54:01Z</time>
<speed>0.7</speed>
</trkpt>
<trkpt lat="47.444726" lon="8.289299">
<ele>432.4</ele>
<time>2003-03-28T11:54:06Z</time>
<speed>0.6</speed>
</trkpt>
<trkpt lat="47.444705" lon="8.289323">
<ele>431.8</ele>
<time>2003-03-28T11:54:11Z</time>
<speed>1.2</speed>
</trkpt>
<trkpt lat="47.444653" lon="8.289342">
<ele>431.7</ele>
<time>2003-03-28T11:54:16Z</time>
<speed>1.3</speed>
</trkpt>
<trkpt lat="47.444595" lon="8.289347">
<ele>430.8</ele>
<time>2003-03-28T11:54:21Z</time>
<speed>0.8</speed>
</trkpt>
<trkpt lat="47.444567" lon="8.289383">
<ele>431.0</ele>
<time>2003-03-28T11:54:26Z</time>
<speed>1.0</speed>
</trkpt>
<trkpt lat="47.444526" lon="8.289416">
<ele>431.1</ele>
<time>2003-03-28T11:54:31Z</time>
<speed>0.8</speed>
</trkpt>
<trkpt lat="47.444498" lon="8.289452">
<ele>431.2</ele>
<time>2003-03-28T11:54:36Z</time>
<speed>1.3</speed>
</trkpt>
<trkpt lat="47.444440" lon="8.289455">
<ele>431.7</ele>
<time>2003-03-28T11:54:41Z</time>
<speed>1.3</speed>
</trkpt>
<trkpt lat="47.444386" lon="8.289485">
<ele>433.2</ele>
<time>2003-03-28T11:54:46Z</time>
<speed>1.6</speed>
</trkpt>
<trkpt lat="47.444324" lon="8.289541">
<ele>434.1</ele>
<time>2003-03-28T11:54:51Z</time>
<speed>1.4</speed>
</trkpt>
<trkpt lat="47.444269" lon="8.289584">
<ele>435.6</ele>
<time>2003-03-28T11:54:56Z</time>
<speed>1.8</speed>
</trkpt>
<trkpt lat="47.444224" lon="8.289685">
<ele>434.8</ele>
<time>2003-03-28T11:55:01Z</time>
<speed>1.3</speed>
</trkpt>
<trkpt lat="47.444176" lon="8.289730">
<ele>435.6</ele>
<time>2003-03-28T11:55:06Z</time>
<speed>1.3</speed>
</trkpt>
<trkpt lat="47.444152" lon="8.289809">
<ele>434.0</ele>
<time>2003-03-28T11:55:11Z</time>
<speed>1.0</speed>
</trkpt>
<trkpt lat="47.444141" lon="8.289874">
<ele>433.7</ele>
<time>2003-03-28T11:55:16Z</time>
<speed>1.6</speed>
</trkpt>
<trkpt lat="47.444103" lon="8.289962">
<ele>433.6</ele>
<time>2003-03-28T11:55:21Z</time>
<speed>1.2</speed>
</trkpt>
<trkpt lat="47.444067" lon="8.290024">
<ele>433.2</ele>
<time>2003-03-28T11:55:26Z</time>
<speed>1.1</speed>
</trkpt>
<trkpt lat="47.444037" lon="8.290086">
<ele>433.5</ele>
<time>2003-03-28T11:55:31Z</time>
<speed>1.4</speed>
</trkpt>
<trkpt lat="47.444000" lon="8.290161">
<ele>433.2</ele>
<time>2003-03-28T11:55:36Z</time>
<speed>0.9</speed>
</trkpt>
<trkpt lat="47.443965" lon="8.290194">
<ele>434.1</ele>
<time>2003-03-28T11:55:41Z</time>
<speed>1.7</speed>
</trkpt>
<trkpt lat="47.443909" lon="8.290266">
<ele>434.4</ele>
<time>2003-03-28T11:55:46Z</time>
<speed>1.0</speed>
</trkpt>
<trkpt lat="47.443904" lon="8.290331">
<ele>434.9</ele>
<time>2003-03-28T11:55:51Z</time>
<speed>1.6</speed>
</trkpt>
<trkpt lat="47.443854" lon="8.290404">
<ele>434.5</ele>
<time>2003-03-28T11:55:56Z</time>
<speed>2.0</speed>
</trkpt>
<trkpt lat="47.443780" lon="8.290475">
<ele>432.6</ele>
<time>2003-03-28T11:56:01Z</time>
<speed>1.8</speed>
</trkpt>
<trkpt lat="47.443723" lon="8.290561">
<ele>431.6</ele>
<time>2003-03-28T11:56:06Z</time>
<speed>1.5</speed>
</trkpt>
<trkpt lat="47.443668" lon="8.290619">
<ele>431.8</ele>
<time>2003-03-28T11:56:11Z</time>
<speed>1.7</speed>
</trkpt>
<trkpt lat="47.443612" lon="8.290692">
<ele>430.8</ele>
<time>2003-03-28T11:56:16Z</time>
<speed>1.0</speed>
</trkpt>
<trkpt lat="47.443593" lon="8.290769">
<ele>431.3</ele>
<time>2003-03-28T11:56:22Z</time>
<speed>1.9</speed>
</trkpt>
<trkpt lat="47.443573" lon="8.290889">
<ele>429.3</ele>
<time>2003-03-28T11:56:27Z</time>
<speed>1.6</speed>
</trkpt>
<trkpt lat="47.443524" lon="8.290964">
<ele>427.5</ele>
<time>2003-03-28T11:56:32Z</time>
<speed>0.8</speed>
</trkpt>
<trkpt lat="47.443496" lon="8.290999">
<ele>427.7</ele>
<time>2003-03-28T11:56:37Z</time>
<speed>0.6</speed>
</trkpt>
<trkpt lat="47.443471" lon="8.290982">
<ele>427.4</ele>
<time>2003-03-28T11:56:42Z</time>
<speed>1.2</speed>
</trkpt>
<trkpt lat="47.443415" lon="8.290975">
<ele>426.4</ele>
<time>2003-03-28T11:56:47Z</time>
<speed>1.3</speed>
</trkpt>
<trkpt lat="47.443358" lon="8.290967">
<ele>425.4</ele>
<time>2003-03-28T11:56:52Z</time>
<speed>1.5</speed>
</trkpt>
<trkpt lat="47.443289" lon="8.290958">
<ele>424.4</ele>
<time>2003-03-28T11:56:57Z</time>
<speed>1.4</speed>
</trkpt>
<trkpt lat="47.443226" lon="8.290948">
<ele>424.0</ele>
<time>2003-03-28T11:57:02Z</time>
<speed>1.8</speed>
</trkpt>
<trkpt lat="47.443143" lon="8.290950">
<ele>423.0</ele>
<time>2003-03-28T11:57:07Z</time>
<speed>1.4</speed>
</trkpt>
<trkpt lat="47.443079" lon="8.290953">
<ele>422.7</ele>
<time>2003-03-28T11:57:12Z</time>
<speed>1.0</speed>
</trkpt>
<trkpt lat="47.443033" lon="8.290957">
<ele>424.7</ele>
<time>2003-03-28T11:57:17Z</time>
<speed>0.7</speed>
</trkpt>
<trkpt lat="47.443000" lon="8.290962">
<ele>426.7</ele>
<time>2003-03-28T11:57:22Z</time>
<speed>1.2</speed>
</trkpt>
<trkpt lat="47.442988" lon="8.291041">
<ele>426.6</ele>
<time>2003-03-28T11:57:27Z</time>
<speed>1.6</speed>
</trkpt>
<trkpt lat="47.442987" lon="8.291150">
<ele>425.3</ele>
<time>2003-03-28T11:57:32Z</time>
<speed>1.2</speed>
</trkpt>
<trkpt lat="47.442988" lon="8.291230">
<ele>425.2</ele>
<time>2003-03-28T11:57:37Z</time>
<speed>1.2</speed>
</trkpt>
<trkpt lat="47.442982" lon="8.291309">
<ele>425.8</ele>
<time>2003-03-28T11:57:42Z</time>
<speed>1.3</speed>
</trkpt>
<trkpt lat="47.442958" lon="8.291386">
<ele>425.6</ele>
<time>2003-03-28T11:57:47Z</time>
<speed>1.2</speed>
</trkpt>
<trkpt lat="47.442945" lon="8.291463">
<ele>426.8</ele>
<time>2003-03-28T11:57:52Z</time>
<speed>1.9</speed>
</trkpt>
<trkpt lat="47.442887" lon="8.291560">
<ele>427.3</ele>
<time>2003-03-28T11:57:57Z</time>
<speed>1.4</speed>
</trkpt>
<trkpt lat="47.442943" lon="8.291598">
<ele>425.7</ele>
<time>2003-03-28T11:58:02Z</time>
<speed>1.0</speed>
</trkpt>
<trkpt lat="47.442945" lon="8.291665">
<ele>425.5</ele>
<time>2003-03-28T11:58:07Z</time>
<speed>1.5</speed>
</trkpt>
<trkpt lat="47.442977" lon="8.291752">
<ele>424.9</ele>
<time>2003-03-28T11:58:12Z</time>
<speed>1.6</speed>
</trkpt>
<trkpt lat="47.443037" lon="8.291816">
<ele>424.3</ele>
<time>2003-03-28T11:58:17Z</time>
<speed>1.2</speed>
</trkpt>
<trkpt lat="47.443038" lon="8.291896">
<ele>424.2</ele>
<time>2003-03-28T11:58:22Z</time>
<speed>1.1</speed>
</trkpt>
<trkpt lat="47.443052" lon="8.291966">
<ele>424.1</ele>
<time>2003-03-28T11:58:27Z</time>
<speed>1.0</speed>
</trkpt>
<trkpt lat="47.443054" lon="8.292031">
<ele>425.3</ele>
<time>2003-03-28T11:58:32Z</time>
<speed>0.9</speed>
</trkpt>
<trkpt lat="47.443063" lon="8.292086">
<ele>425.7</ele>
<time>2003-03-28T11:58:37Z</time>
<speed>1.5</speed>
</trkpt>
<trkpt lat="47.443075" lon="8.292181">
<ele>425.8</ele>
<time>2003-03-28T11:58:42Z</time>
<speed>1.3</speed>
</trkpt>
<trkpt lat="47.443089" lon="8.292264">
<ele>425.8</ele>
<time>2003-03-28T11:58:47Z</time>
<speed>1.0</speed>
</trkpt>
<trkpt lat="47.443071" lon="8.292327">
<ele>426.2</ele>
<time>2003-03-28T11:58:52Z</time>
<speed>1.2</speed>
</trkpt>
<trkpt lat="47.443078" lon="8.292408">
<ele>426.9</ele>
<time>2003-03-28T11:58:57Z</time>
<speed>0.8</speed>
</trkpt>
<trkpt lat="47.443074" lon="8.292461">
<ele>427.3</ele>
<time>2003-03-28T11:59:02Z</time>
<speed>1.1</speed>
</trkpt>
<trkpt lat="47.443044" lon="8.292522">
<ele>427.6</ele>
<time>2003-03-28T11:59:07Z</time>
<speed>1.0</speed>
</trkpt>
<trkpt lat="47.443033" lon="8.292588">
<ele>427.4</ele>
<time>2003-03-28T11:59:12Z</time>
<speed>1.3</speed>
</trkpt>
<trkpt lat="47.443047" lon="8.292672">
<ele>425.9</ele>
<time>2003-03-28T11:59:17Z</time>
<speed>1.2</speed>
</trkpt>
<trkpt lat="47.443074" lon="8.292744">
<ele>425.9</ele>
<time>2003-03-28T11:59:22Z</time>
<speed>1.1</speed>
</trkpt>
<trkpt lat="47.443102" lon="8.292802">
<ele>425.8</ele>
<time>2003-03-28T11:59:27Z</time>
<speed>1.2</speed>
</trkpt>
<trkpt lat="47.443190" lon="8.292922">
<ele>426.3</ele>
<time>2003-03-28T11:59:38Z</time>
<speed>3.9</speed>
</trkpt>
<trkpt lat="47.443030" lon="8.293021">
<ele>423.6</ele>
<time>2003-03-28T11:59:43Z</time>
<speed>2.2</speed>
</trkpt>
<trkpt lat="47.442940" lon="8.293077">
<ele>431.5</ele>
<time>2003-03-28T11:59:48Z</time>
<speed>0.3</speed>
</trkpt>
<trkpt lat="47.442934" lon="8.293060">
<ele>433.5</ele>
<time>2003-03-28T11:59:53Z</time>
<speed>0.6</speed>
</trkpt>
<trkpt lat="47.442913" lon="8.293082">
<ele>434.2</ele>
<time>2003-03-28T11:59:58Z</time>
<speed>0.8</speed>
</trkpt>
<trkpt lat="47.442891" lon="8.293120">
<ele>433.7</ele>
<time>2003-03-28T12:00:03Z</time>
<speed>0.6</speed>
</trkpt>
<trkpt lat="47.442865" lon="8.293131">
<ele>432.3</ele>
<time>2003-03-28T12:00:08Z</time>
<speed>0.1</speed>
</trkpt>
<trkpt lat="47.442871" lon="8.293131">
<ele>433.0</ele>
<time>2003-03-28T12:00:13Z</time>
<speed>0.0</speed>
</trkpt>
<trkpt lat="47.442871" lon="8.293131">
<ele>433.0</ele>
<time>2003-03-28T12:00:18Z</time>
<speed>0.0</speed>
</trkpt>
<trkpt lat="47.442871" lon="8.293131">
<ele>433.0</ele>
<time>2003-03-28T12:00:23Z</time>
<speed>0.0</speed>
</trkpt>
<trkpt lat="47.442871" lon="8.293131">
<ele>433.0</ele>
<time>2003-03-28T12:00:28Z</time>
<speed>0.3</speed>
</trkpt>
<trkpt lat="47.442877" lon="8.293146">
<ele>432.5</ele>
<time>2003-03-28T12:00:33Z</time>
<speed>0.1</speed>
</trkpt>
<trkpt lat="47.442871" lon="8.293146">
<ele>431.7</ele>
<time>2003-03-28T12:00:38Z</time>
<speed>0.0</speed>
</trkpt>
<trkpt lat="47.442871" lon="8.293146">
<ele>431.7</ele>
<time>2003-03-28T12:00:43Z</time>
<speed>0.2</speed>
</trkpt>
<trkpt lat="47.442864" lon="8.293159">
<ele>431.1</ele>
<time>2003-03-28T12:00:48Z</time>
<speed>0.0</speed>
</trkpt>
<trkpt lat="47.442864" lon="8.293159">
<ele>431.1</ele>
<time>2003-03-28T12:00:53Z</time>
<speed>0.0</speed>
</trkpt>
<trkpt lat="47.442864" lon="8.293159">
<ele>431.1</ele>
<time>2003-03-28T12:00:58Z</time>
<speed>0.0</speed>
</trkpt>
<trkpt lat="47.442864" lon="8.293159">
<ele>431.1</ele>
<time>2003-03-28T12:01:03Z</time>
<speed>0.0</speed>
</trkpt>
<trkpt lat="47.442864" lon="8.293159">
<ele>431.1</ele>
<time>2003-03-28T12:01:08Z</time>
<speed>0.0</speed>
</trkpt>
<trkpt lat="47.442864" lon="8.293159">
<ele>431.1</ele>
<time>2003-03-28T12:01:13Z</time>
<speed>0.0</speed>
</trkpt>
<trkpt lat="47.442864" lon="8.293159">
<ele>431.1</ele>
<time>2003-03-28T12:01:18Z</time>
<speed>0.0</speed>
</trkpt>
<trkpt lat="47.442864" lon="8.293159">
<ele>431.1</ele>
<time>2003-03-28T12:01:23Z</time>
<speed>0.0</speed>
</trkpt>
<trkpt lat="47.442864" lon="8.293159">
<ele>431.1</ele>
<time>2003-03-28T12:01:28Z</time>
<speed>0.4</speed>
</trkpt>
<trkpt lat="47.442883" lon="8.293161">
<ele>431.9</ele>
<time>2003-03-28T12:01:33Z</time>
<speed>0.0</speed>
</trkpt>
<trkpt lat="47.442883" lon="8.293161">
<ele>431.9</ele>
<time>2003-03-28T12:01:38Z</time>
<speed>0.1</speed>
</trkpt>
<trkpt lat="47.442889" lon="8.293161">
<ele>432.6</ele>
<time>2003-03-28T12:01:43Z</time>
<speed>0.0</speed>
</trkpt>
<trkpt lat="47.442889" lon="8.293161">
<ele>432.6</ele>
<time>2003-03-28T12:01:48Z</time>
<speed>0.2</speed>
</trkpt>
<trkpt lat="47.442896" lon="8.293150">
<ele>431.9</ele>
<time>2003-03-28T12:01:53Z</time>
<speed>0.0</speed>
</trkpt>
<trkpt lat="47.442896" lon="8.293150">
<ele>431.9</ele>
<time>2003-03-28T12:01:58Z</time>
<speed>0.1</speed>
</trkpt>
<trkpt lat="47.442890" lon="8.293150">
<ele>431.1</ele>
<time>2003-03-28T12:02:03Z</time>
<speed>0.0</speed>
</trkpt>
<trkpt lat="47.442890" lon="8.293150">
<ele>431.1</ele>
<time>2003-03-28T12:02:08Z</time>
<speed>0.0</speed>
</trkpt>
<trkpt lat="47.442890" lon="8.293150">
<ele>431.1</ele>
<time>2003-03-28T12:02:13Z</time>
<speed>0.0</speed>
</trkpt>
<trkpt lat="47.442890" lon="8.293150">
<ele>431.1</ele>
<time>2003-03-28T12:02:18Z</time>
<speed>0.0</speed>
</trkpt>
<trkpt lat="47.442890" lon="8.293150">
<ele>431.1</ele>
<time>2003-03-28T12:02:23Z</time>
<speed>0.0</speed>
</trkpt>
<trkpt lat="47.442890" lon="8.293150">
<ele>431.1</ele>
<time>2003-03-28T12:02:28Z</time>
<speed>0.2</speed>
</trkpt>
<trkpt lat="47.442895" lon="8.293163">
<ele>432.0</ele>
<time>2003-03-28T12:02:33Z</time>
<speed>0.2</speed>
</trkpt>
<trkpt lat="47.442902" lon="8.293165">
<ele>431.3</ele>
<time>2003-03-28T12:02:38Z</time>
<speed>0.1</speed>
</trkpt>
<trkpt lat="47.442908" lon="8.293165">
<ele>432.0</ele>
<time>2003-03-28T12:02:43Z</time>
<speed>0.1</speed>
</trkpt>
<trkpt lat="47.442902" lon="8.293165">
<ele>431.3</ele>
<time>2003-03-28T12:02:48Z</time>
<speed>0.2</speed>
</trkpt>
<trkpt lat="47.442895" lon="8.293163">
<ele>432.0</ele>
<time>2003-03-28T12:02:53Z</time>
<speed>0.2</speed>
</trkpt>
<trkpt lat="47.442902" lon="8.293165">
<ele>431.3</ele>
<time>2003-03-28T12:02:58Z</time>
<speed>0.0</speed>
</trkpt>
<trkpt lat="47.442902" lon="8.293165">
<ele>431.3</ele>
<time>2003-03-28T12:03:03Z</time>
<speed>0.4</speed>
</trkpt>
<trkpt lat="47.442888" lon="8.293176">
<ele>431.3</ele>
<time>2003-03-28T12:03:08Z</time>
<speed>0.4</speed>
</trkpt>
<trkpt lat="47.442886" lon="8.293202">
<ele>431.5</ele>
<time>2003-03-28T12:03:13Z</time>
<speed>0.9</speed>
</trkpt>
<trkpt lat="47.442895" lon="8.293257">
<ele>432.0</ele>
<time>2003-03-28T12:03:18Z</time>
<speed>0.9</speed>
</trkpt>
<trkpt lat="47.442910" lon="8.293311">
<ele>433.2</ele>
<time>2003-03-28T12:03:23Z</time>
<speed>0.7</speed>
</trkpt>
<trkpt lat="47.442888" lon="8.293347">
<ele>434.1</ele>
<time>2003-03-28T12:03:28Z</time>
<speed>0.9</speed>
</trkpt>
<trkpt lat="47.442853" lon="8.293380">
<ele>434.9</ele>
<time>2003-03-28T12:03:33Z</time>
<speed>1.0</speed>
</trkpt>
<trkpt lat="47.442808" lon="8.293386">
<ele>435.4</ele>
<time>2003-03-28T12:03:38Z</time>
<speed>0.7</speed>
</trkpt>
<trkpt lat="47.442776" lon="8.293380">
<ele>436.0</ele>
<time>2003-03-28T12:03:43Z</time>
<speed>0.8</speed>
</trkpt>
<trkpt lat="47.442753" lon="8.293335">
<ele>437.0</ele>
<time>2003-03-28T12:03:48Z</time>
<speed>0.7</speed>
</trkpt>
<trkpt lat="47.442729" lon="8.293303">
<ele>438.0</ele>
<time>2003-03-28T12:03:53Z</time>
<speed>1.2</speed>
</trkpt>
<trkpt lat="47.442681" lon="8.293269">
<ele>437.6</ele>
<time>2003-03-28T12:03:58Z</time>
<speed>0.7</speed>
</trkpt>
<trkpt lat="47.442650" lon="8.293250">
<ele>438.0</ele>
<time>2003-03-28T12:04:03Z</time>
<speed>0.5</speed>
</trkpt>
<trkpt lat="47.442630" lon="8.293244">
<ele>440.0</ele>
<time>2003-03-28T12:04:08Z</time>
<speed>0.6</speed>
</trkpt>
<trkpt lat="47.442604" lon="8.293239">
<ele>441.3</ele>
<time>2003-03-28T12:04:13Z</time>
<speed>0.3</speed>
</trkpt>
<trkpt lat="47.442591" lon="8.293250">
<ele>441.3</ele>
<time>2003-03-28T12:04:18Z</time>
<speed>0.2</speed>
</trkpt>
<trkpt lat="47.442583" lon="8.293261">
<ele>442.1</ele>
<time>2003-03-28T12:04:23Z</time>
<speed>0.8</speed>
</trkpt>
<trkpt lat="47.442555" lon="8.293297">
<ele>442.2</ele>
<time>2003-03-28T12:04:28Z</time>
<speed>1.7</speed>
</trkpt>
<trkpt lat="47.442483" lon="8.293325">
<ele>442.9</ele>
<time>2003-03-28T12:04:33Z</time>
<speed>1.6</speed>
</trkpt>
<trkpt lat="47.442421" lon="8.293382">
<ele>442.4</ele>
<time>2003-03-28T12:04:38Z</time>
<speed>1.0</speed>
</trkpt>
<trkpt lat="47.442392" lon="8.293431">
<ele>442.6</ele>
<time>2003-03-28T12:04:43Z</time>
<speed>1.0</speed>
</trkpt>
<trkpt lat="47.442351" lon="8.293465">
<ele>442.7</ele>
<time>2003-03-28T12:04:48Z</time>
<speed>1.9</speed>
</trkpt>
<trkpt lat="47.442267" lon="8.293478">
<ele>443.2</ele>
<time>2003-03-28T12:04:53Z</time>
<speed>1.1</speed>
</trkpt>
<trkpt lat="47.442221" lon="8.293496">
<ele>443.8</ele>
<time>2003-03-28T12:04:58Z</time>
<speed>2.0</speed>
</trkpt>
<trkpt lat="47.442130" lon="8.293509">
<ele>443.5</ele>
<time>2003-03-28T12:05:03Z</time>
<speed>0.9</speed>
</trkpt>
<trkpt lat="47.442090" lon="8.293528">
<ele>444.9</ele>
<time>2003-03-28T12:05:08Z</time>
<speed>1.5</speed>
</trkpt>
<trkpt lat="47.442023" lon="8.293554">
<ele>447.7</ele>
<time>2003-03-28T12:05:13Z</time>
<speed>0.9</speed>
</trkpt>
<trkpt lat="47.441988" lon="8.293587">
<ele>448.5</ele>
<time>2003-03-28T12:05:18Z</time>
<speed>0.6</speed>
</trkpt>
<trkpt lat="47.441972" lon="8.293623">
<ele>450.2</ele>
<time>2003-03-28T12:05:23Z</time>
<speed>1.2</speed>
</trkpt>
<trkpt lat="47.441925" lon="8.293656">
<ele>449.5</ele>
<time>2003-03-28T12:05:28Z</time>
<speed>1.1</speed>
</trkpt>
<trkpt lat="47.441890" lon="8.293703">
<ele>450.4</ele>
<time>2003-03-28T12:05:33Z</time>
<speed>1.3</speed>
</trkpt>
<trkpt lat="47.441842" lon="8.293750">
<ele>449.9</ele>
<time>2003-03-28T12:05:38Z</time>
<speed>1.9</speed>
</trkpt>
<trkpt lat="47.441767" lon="8.293804">
<ele>450.7</ele>
<time>2003-03-28T12:05:43Z</time>
<speed>1.3</speed>
</trkpt>
<trkpt lat="47.441719" lon="8.293849">
<ele>451.6</ele>
<time>2003-03-28T12:05:48Z</time>
<speed>1.3</speed>
</trkpt>
<trkpt lat="47.441665" lon="8.293879">
<ele>453.0</ele>
<time>2003-03-28T12:05:53Z</time>
<speed>1.3</speed>
</trkpt>
<trkpt lat="47.441612" lon="8.293910">
<ele>453.0</ele>
<time>2003-03-28T12:05:58Z</time>
<speed>1.4</speed>
</trkpt>
<trkpt lat="47.441552" lon="8.293940">
<ele>453.7</ele>
<time>2003-03-28T12:06:03Z</time>
<speed>0.7</speed>
</trkpt>
<trkpt lat="47.441525" lon="8.293962">
<ele>453.8</ele>
<time>2003-03-28T12:06:08Z</time>
<speed>1.6</speed>
</trkpt>
<trkpt lat="47.441458" lon="8.293992">
<ele>453.7</ele>
<time>2003-03-28T12:06:13Z</time>
<speed>1.3</speed>
</trkpt>
<trkpt lat="47.441411" lon="8.294039">
<ele>453.2</ele>
<time>2003-03-28T12:06:18Z</time>
<speed>1.5</speed>
</trkpt>
<trkpt lat="47.441350" lon="8.294084">
<ele>452.6</ele>
<time>2003-03-28T12:06:23Z</time>
<speed>0.8</speed>
</trkpt>
<trkpt lat="47.441316" lon="8.294104">
<ele>453.3</ele>
<time>2003-03-28T12:06:28Z</time>
<speed>1.8</speed>
</trkpt>
<trkpt lat="47.441243" lon="8.294162">
<ele>451.3</ele>
<time>2003-03-28T12:06:33Z</time>
<speed>1.4</speed>
</trkpt>
<trkpt lat="47.441194" lon="8.294222">
<ele>450.9</ele>
<time>2003-03-28T12:06:38Z</time>
<speed>1.2</speed>
</trkpt>
<trkpt lat="47.441158" lon="8.294284">
<ele>450.5</ele>
<time>2003-03-28T12:06:43Z</time>
<speed>1.3</speed>
</trkpt>
<trkpt lat="47.441105" lon="8.294316">
<ele>450.5</ele>
<time>2003-03-28T12:06:48Z</time>
<speed>1.0</speed>
</trkpt>
<trkpt lat="47.441064" lon="8.294349">
<ele>450.6</ele>
<time>2003-03-28T12:06:53Z</time>
<speed>1.6</speed>
</trkpt>
<trkpt lat="47.440992" lon="8.294364">
<ele>451.1</ele>
<time>2003-03-28T12:06:58Z</time>
<speed>0.9</speed>
</trkpt>
<trkpt lat="47.440957" lon="8.294396">
<ele>453.4</ele>
<time>2003-03-28T12:07:03Z</time>
<speed>1.3</speed>
</trkpt>
<trkpt lat="47.440898" lon="8.294412">
<ele>454.0</ele>
<time>2003-03-28T12:07:08Z</time>
<speed>1.3</speed>
</trkpt>
<trkpt lat="47.440839" lon="8.294429">
<ele>454.5</ele>
<time>2003-03-28T12:07:13Z</time>
<speed>0.9</speed>
</trkpt>
<trkpt lat="47.440799" lon="8.294448">
<ele>455.9</ele>
<time>2003-03-28T12:07:18Z</time>
<speed>1.5</speed>
</trkpt>
<trkpt lat="47.440733" lon="8.294462">
<ele>457.2</ele>
<time>2003-03-28T12:07:23Z</time>
<speed>0.7</speed>
</trkpt>
<trkpt lat="47.440700" lon="8.294470">
<ele>457.8</ele>
<time>2003-03-28T12:07:28Z</time>
<speed>1.3</speed>
</trkpt>
<trkpt lat="47.440641" lon="8.294486">
<ele>458.4</ele>
<time>2003-03-28T12:07:33Z</time>
<speed>1.1</speed>
</trkpt>
<trkpt lat="47.440590" lon="8.294477">
<ele>459.6</ele>
<time>2003-03-28T12:07:38Z</time>
<speed>1.1</speed>
</trkpt>
<trkpt lat="47.440540" lon="8.294469">
<ele>459.3</ele>
<time>2003-03-28T12:07:43Z</time>
<speed>0.7</speed>
</trkpt>
<trkpt lat="47.440508" lon="8.294463">
<ele>459.8</ele>
<time>2003-03-28T12:07:48Z</time>
<speed>1.3</speed>
</trkpt>
<trkpt lat="47.440449" lon="8.294480">
<ele>460.4</ele>
<time>2003-03-28T12:07:53Z</time>
<speed>1.9</speed>
</trkpt>
<trkpt lat="47.440370" lon="8.294523">
<ele>459.0</ele>
<time>2003-03-28T12:07:58Z</time>
<speed>1.2</speed>
</trkpt>
<trkpt lat="47.440317" lon="8.294542">
<ele>458.9</ele>
<time>2003-03-28T12:08:03Z</time>
<speed>1.1</speed>
</trkpt>
<trkpt lat="47.440270" lon="8.294573">
<ele>459.7</ele>
<time>2003-03-28T12:08:08Z</time>
<speed>1.3</speed>
</trkpt>
<trkpt lat="47.440211" lon="8.294592">
<ele>458.9</ele>
<time>2003-03-28T12:08:13Z</time>
<speed>0.6</speed>
</trkpt>
<trkpt lat="47.440190" lon="8.294614">
<ele>459.7</ele>
<time>2003-03-28T12:08:18Z</time>
<speed>1.5</speed>
</trkpt>
<trkpt lat="47.440124" lon="8.294644">
<ele>459.6</ele>
<time>2003-03-28T12:08:23Z</time>
<speed>1.8</speed>
</trkpt>
<trkpt lat="47.440045" lon="8.294672">
<ele>459.5</ele>
<time>2003-03-28T12:08:28Z</time>
<speed>1.2</speed>
</trkpt>
<trkpt lat="47.439993" lon="8.294691">
<ele>459.5</ele>
<time>2003-03-28T12:08:33Z</time>
<speed>1.2</speed>
</trkpt>
<trkpt lat="47.439946" lon="8.294724">
<ele>458.8</ele>
<time>2003-03-28T12:08:38Z</time>
<speed>1.1</speed>
</trkpt>
<trkpt lat="47.439895" lon="8.294730">
<ele>458.6</ele>
<time>2003-03-28T12:08:43Z</time>
<speed>1.4</speed>
</trkpt>
<trkpt lat="47.439830" lon="8.294733">
<ele>458.4</ele>
<time>2003-03-28T12:08:48Z</time>
<speed>0.9</speed>
</trkpt>
<trkpt lat="47.439791" lon="8.294754">
<ele>458.4</ele>
<time>2003-03-28T12:08:53Z</time>
<speed>1.4</speed>
</trkpt>
<trkpt lat="47.439731" lon="8.294784">
<ele>459.1</ele>
<time>2003-03-28T12:08:58Z</time>
<speed>1.2</speed>
</trkpt>
<trkpt lat="47.439678" lon="8.294800">
<ele>460.4</ele>
<time>2003-03-28T12:09:03Z</time>
<speed>1.4</speed>
</trkpt>
<trkpt lat="47.439618" lon="8.294830">
<ele>461.1</ele>
<time>2003-03-28T12:09:08Z</time>
<speed>0.9</speed>
</trkpt>
<trkpt lat="47.439578" lon="8.294850">
<ele>461.1</ele>
<time>2003-03-28T12:09:13Z</time>
<speed>2.2</speed>
</trkpt>
<trkpt lat="47.439481" lon="8.294863">
<ele>460.1</ele>
<time>2003-03-28T12:09:18Z</time>
<speed>1.0</speed>
</trkpt>
<trkpt lat="47.439436" lon="8.294869">
<ele>460.7</ele>
<time>2003-03-28T12:09:23Z</time>
<speed>0.9</speed>
</trkpt>
<trkpt lat="47.439396" lon="8.294889">
<ele>460.7</ele>
<time>2003-03-28T12:09:28Z</time>
<speed>1.9</speed>
</trkpt>
<trkpt lat="47.439311" lon="8.294915">
<ele>461.2</ele>
<time>2003-03-28T12:09:33Z</time>
<speed>1.3</speed>
</trkpt>
<trkpt lat="47.439252" lon="8.294932">
<ele>461.8</ele>
<time>2003-03-28T12:09:38Z</time>
<speed>1.4</speed>
</trkpt>
<trkpt lat="47.439189" lon="8.294924">
<ele>460.1</ele>
<time>2003-03-28T12:09:43Z</time>
<speed>0.8</speed>
</trkpt>
<trkpt lat="47.439172" lon="8.294879">
<ele>461.8</ele>
<time>2003-03-28T12:09:48Z</time>
<speed>0.8</speed>
</trkpt>
<trkpt lat="47.439201" lon="8.294846">
<ele>460.2</ele>
<time>2003-03-28T12:09:53Z</time>
<speed>0.6</speed>
</trkpt>
<trkpt lat="47.439192" lon="8.294806">
<ele>458.4</ele>
<time>2003-03-28T12:09:58Z</time>
<speed>0.8</speed>
</trkpt>
<trkpt lat="47.439190" lon="8.294756">
<ele>455.9</ele>
<time>2003-03-28T12:10:03Z</time>
<speed>0.6</speed>
</trkpt>
<trkpt lat="47.439181" lon="8.294716">
<ele>454.2</ele>
<time>2003-03-28T12:10:08Z</time>
<speed>0.8</speed>
</trkpt>
<trkpt lat="47.439191" lon="8.294664">
<ele>454.5</ele>
<time>2003-03-28T12:10:13Z</time>
<speed>0.8</speed>
</trkpt>
<trkpt lat="47.439188" lon="8.294609">
<ele>454.8</ele>
<time>2003-03-28T12:10:18Z</time>
<speed>1.1</speed>
</trkpt>
<trkpt lat="47.439179" lon="8.294540">
<ele>455.6</ele>
<time>2003-03-28T12:10:23Z</time>
<speed>1.2</speed>
</trkpt>
<trkpt lat="47.439179" lon="8.294459">
<ele>455.7</ele>
<time>2003-03-28T12:10:28Z</time>
<speed>1.2</speed>
</trkpt>
<trkpt lat="47.439184" lon="8.294379">
<ele>456.5</ele>
<time>2003-03-28T12:10:33Z</time>
<speed>1.2</speed>
</trkpt>
<trkpt lat="47.439190" lon="8.294300">
<ele>455.9</ele>
<time>2003-03-28T12:10:38Z</time>
<speed>1.2</speed>
</trkpt>
<trkpt lat="47.439189" lon="8.294221">
<ele>454.6</ele>
<time>2003-03-28T12:10:43Z</time>
<speed>1.1</speed>
</trkpt>
<trkpt lat="47.439175" lon="8.294152">
<ele>454.7</ele>
<time>2003-03-28T12:10:48Z</time>
<speed>1.3</speed>
</trkpt>
<trkpt lat="47.439156" lon="8.294073">
<ele>451.2</ele>
<time>2003-03-28T12:10:53Z</time>
<speed>1.2</speed>
</trkpt>
<trkpt lat="47.439143" lon="8.293993">
<ele>449.8</ele>
<time>2003-03-28T12:10:58Z</time>
<speed>1.0</speed>
</trkpt>
<trkpt lat="47.439135" lon="8.293925">
<ele>449.3</ele>
<time>2003-03-28T12:11:03Z</time>
<speed>1.2</speed>
</trkpt>
<trkpt lat="47.439141" lon="8.293846">
<ele>448.7</ele>
<time>2003-03-28T12:11:08Z</time>
<speed>1.2</speed>
</trkpt>
<trkpt lat="47.439141" lon="8.293768">
<ele>447.4</ele>
<time>2003-03-28T12:11:13Z</time>
<speed>1.4</speed>
</trkpt>
<trkpt lat="47.439141" lon="8.293676">
<ele>445.9</ele>
<time>2003-03-28T12:11:18Z</time>
<speed>1.2</speed>
</trkpt>
<trkpt lat="47.439141" lon="8.293597">
<ele>444.6</ele>
<time>2003-03-28T12:11:23Z</time>
<speed>1.2</speed>
</trkpt>
<trkpt lat="47.439141" lon="8.293519">
<ele>443.3</ele>
<time>2003-03-28T12:11:28Z</time>
<speed>1.4</speed>
</trkpt>
<trkpt lat="47.439135" lon="8.293425">
<ele>442.5</ele>
<time>2003-03-28T12:11:33Z</time>
<speed>0.9</speed>
</trkpt>
<trkpt lat="47.439120" lon="8.293370">
<ele>441.3</ele>
<time>2003-03-28T12:11:38Z</time>
<speed>0.8</speed>
</trkpt>
<trkpt lat="47.439124" lon="8.293320">
<ele>439.6</ele>
<time>2003-03-28T12:11:43Z</time>
<speed>0.6</speed>
</trkpt>
<trkpt lat="47.439121" lon="8.293280">
<ele>438.5</ele>
<time>2003-03-28T12:11:48Z</time>
<speed>0.0</speed>
</trkpt>
<trkpt lat="47.439121" lon="8.293280">
<ele>438.5</ele>
<time>2003-03-28T12:11:53Z</time>
<speed>0.6</speed>
</trkpt>
<trkpt lat="47.439124" lon="8.293243">
<ele>436.8</ele>
<time>2003-03-28T12:11:58Z</time>
<speed>1.1</speed>
</trkpt>
<trkpt lat="47.439110" lon="8.293174">
<ele>436.9</ele>
<time>2003-03-28T12:12:03Z</time>
<speed>1.0</speed>
</trkpt>
<trkpt lat="47.439102" lon="8.293106">
<ele>436.4</ele>
<time>2003-03-28T12:12:08Z</time>
<speed>1.2</speed>
</trkpt>
<trkpt lat="47.439101" lon="8.293026">
<ele>436.5</ele>
<time>2003-03-28T12:12:13Z</time>
<speed>1.0</speed>
</trkpt>
<trkpt lat="47.439100" lon="8.292960">
<ele>435.2</ele>
<time>2003-03-28T12:12:18Z</time>
<speed>1.6</speed>
</trkpt>
<trkpt lat="47.439101" lon="8.292853">
<ele>435.1</ele>
<time>2003-03-28T12:12:23Z</time>
<speed>1.4</speed>
</trkpt>
<trkpt lat="47.439101" lon="8.292759">
<ele>435.1</ele>
<time>2003-03-28T12:12:28Z</time>
<speed>1.0</speed>
</trkpt>
<trkpt lat="47.439100" lon="8.292694">
<ele>433.9</ele>
<time>2003-03-28T12:12:33Z</time>
<speed>1.2</speed>
</trkpt>
<trkpt lat="47.439099" lon="8.292615">
<ele>432.6</ele>
<time>2003-03-28T12:12:38Z</time>
<speed>1.5</speed>
</trkpt>
<trkpt lat="47.439093" lon="8.292519">
<ele>433.2</ele>
<time>2003-03-28T12:12:43Z</time>
<speed>1.4</speed>
</trkpt>
<trkpt lat="47.439099" lon="8.292426">
<ele>434.0</ele>
<time>2003-03-28T12:12:48Z</time>
<speed>1.2</speed>
</trkpt>
<trkpt lat="47.439105" lon="8.292347">
<ele>433.4</ele>
<time>2003-03-28T12:12:53Z</time>
<speed>1.3</speed>
</trkpt>
<trkpt lat="47.439092" lon="8.292266">
<ele>432.0</ele>
<time>2003-03-28T12:12:58Z</time>
<speed>0.7</speed>
</trkpt>
<trkpt lat="47.439097" lon="8.292218">
<ele>428.8</ele>
<time>2003-03-28T12:13:03Z</time>
<speed>1.0</speed>
</trkpt>
<trkpt lat="47.439095" lon="8.292152">
<ele>427.5</ele>
<time>2003-03-28T12:13:08Z</time>
<speed>1.1</speed>
</trkpt>
<trkpt lat="47.439119" lon="8.292090">
<ele>426.5</ele>
<time>2003-03-28T12:13:13Z</time>
<speed>1.8</speed>
</trkpt>
<trkpt lat="47.439177" lon="8.292006">
<ele>426.0</ele>
<time>2003-03-28T12:13:18Z</time>
<speed>1.1</speed>
</trkpt>
<trkpt lat="47.439168" lon="8.291937">
<ele>426.9</ele>
<time>2003-03-28T12:13:23Z</time>
<speed>0.7</speed>
</trkpt>
<trkpt lat="47.439137" lon="8.291918">
<ele>427.3</ele>
<time>2003-03-28T12:13:28Z</time>
<speed>0.8</speed>
</trkpt>
<trkpt lat="47.439115" lon="8.291873">
<ele>428.3</ele>
<time>2003-03-28T12:13:33Z</time>
<speed>1.6</speed>
</trkpt>
<trkpt lat="47.439063" lon="8.291800">
<ele>426.8</ele>
<time>2003-03-28T12:13:38Z</time>
<speed>1.2</speed>
</trkpt>
<trkpt lat="47.439056" lon="8.291719">
<ele>426.2</ele>
<time>2003-03-28T12:13:43Z</time>
<speed>1.3</speed>
</trkpt>
<trkpt lat="47.439036" lon="8.291636">
<ele>425.4</ele>
<time>2003-03-28T12:13:48Z</time>
<speed>1.4</speed>
</trkpt>
<trkpt lat="47.439037" lon="8.291545">
<ele>424.0</ele>
<time>2003-03-28T12:13:53Z</time>
<speed>1.2</speed>
</trkpt>
<trkpt lat="47.439055" lon="8.291468">
<ele>423.5</ele>
<time>2003-03-28T12:13:58Z</time>
<speed>1.4</speed>
</trkpt>
<trkpt lat="47.439055" lon="8.291372">
<ele>424.9</ele>
<time>2003-03-28T12:14:03Z</time>
<speed>1.2</speed>
</trkpt>
<trkpt lat="47.439028" lon="8.291301">
<ele>424.9</ele>
<time>2003-03-28T12:14:08Z</time>
<speed>1.3</speed>
</trkpt>
<trkpt lat="47.438987" lon="8.291241">
<ele>425.0</ele>
<time>2003-03-28T12:14:13Z</time>
<speed>1.2</speed>
</trkpt>
<trkpt lat="47.438986" lon="8.291160">
<ele>425.1</ele>
<time>2003-03-28T12:14:18Z</time>
<speed>1.5</speed>
</trkpt>
<trkpt lat="47.439018" lon="8.291072">
<ele>424.6</ele>
<time>2003-03-28T12:14:23Z</time>
<speed>1.9</speed>
</trkpt>
<trkpt lat="47.439052" lon="8.290958">
<ele>423.8</ele>
<time>2003-03-28T12:14:28Z</time>
<speed>1.2</speed>
</trkpt>
<trkpt lat="47.439051" lon="8.290875">
<ele>425.3</ele>
<time>2003-03-28T12:14:33Z</time>
<speed>1.8</speed>
</trkpt>
<trkpt lat="47.439059" lon="8.290755">
<ele>425.8</ele>
<time>2003-03-28T12:14:38Z</time>
<speed>1.6</speed>
</trkpt>
<trkpt lat="47.439079" lon="8.290652">
<ele>425.1</ele>
<time>2003-03-28T12:14:43Z</time>
<speed>1.0</speed>
</trkpt>
<trkpt lat="47.439091" lon="8.290591">
<ele>422.6</ele>
<time>2003-03-28T12:14:48Z</time>
<speed>1.4</speed>
</trkpt>
<trkpt lat="47.439098" lon="8.290499">
<ele>421.9</ele>
<time>2003-03-28T12:14:53Z</time>
<speed>1.2</speed>
</trkpt>
<trkpt lat="47.439103" lon="8.290420">
<ele>421.3</ele>
<time>2003-03-28T12:14:58Z</time>
<speed>1.4</speed>
</trkpt>
<trkpt lat="47.439123" lon="8.290330">
<ele>420.7</ele>
<time>2003-03-28T12:15:03Z</time>
<speed>1.5</speed>
</trkpt>
<trkpt lat="47.439116" lon="8.290234">
<ele>421.3</ele>
<time>2003-03-28T12:15:08Z</time>
<speed>1.2</speed>
</trkpt>
<trkpt lat="47.439122" lon="8.290156">
<ele>420.7</ele>
<time>2003-03-28T12:15:13Z</time>
<speed>1.5</speed>
</trkpt>
<trkpt lat="47.439116" lon="8.290060">
<ele>421.4</ele>
<time>2003-03-28T12:15:18Z</time>
<speed>1.4</speed>
</trkpt>
<trkpt lat="47.439116" lon="8.289966">
<ele>421.4</ele>
<time>2003-03-28T12:15:23Z</time>
<speed>1.2</speed>
</trkpt>
<trkpt lat="47.439128" lon="8.289888">
<ele>421.5</ele>
<time>2003-03-28T12:15:28Z</time>
<speed>1.5</speed>
</trkpt>
<trkpt lat="47.439153" lon="8.289798">
<ele>421.7</ele>
<time>2003-03-28T12:15:33Z</time>
<speed>1.4</speed>
</trkpt>
<trkpt lat="47.439166" lon="8.289706">
<ele>421.7</ele>
<time>2003-03-28T12:15:38Z</time>
<speed>1.3</speed>
</trkpt>
<trkpt lat="47.439190" lon="8.289629">
<ele>421.9</ele>
<time>2003-03-28T12:15:43Z</time>
<speed>1.4</speed>
</trkpt>
<trkpt lat="47.439203" lon="8.289537">
<ele>422.0</ele>
<time>2003-03-28T12:15:48Z</time>
<speed>1.2</speed>
</trkpt>
<trkpt lat="47.439209" lon="8.289459">
<ele>421.4</ele>
<time>2003-03-28T12:15:53Z</time>
<speed>1.2</speed>
</trkpt>
<trkpt lat="47.439208" lon="8.289378">
<ele>421.5</ele>
<time>2003-03-28T12:15:58Z</time>
<speed>1.4</speed>
</trkpt>
<trkpt lat="47.439221" lon="8.289286">
<ele>421.5</ele>
<time>2003-03-28T12:16:03Z</time>
<speed>1.2</speed>
</trkpt>
<trkpt lat="47.439239" lon="8.289209">
<ele>421.0</ele>
<time>2003-03-28T12:16:08Z</time>
<speed>1.6</speed>
</trkpt>
<trkpt lat="47.439284" lon="8.289123">
<ele>420.5</ele>
<time>2003-03-28T12:16:13Z</time>
<speed>1.2</speed>
</trkpt>
<trkpt lat="47.439320" lon="8.289063">
<ele>419.5</ele>
<time>2003-03-28T12:16:18Z</time>
<speed>1.7</speed>
</trkpt>
<trkpt lat="47.439359" lon="8.288962">
<ele>419.6</ele>
<time>2003-03-28T12:16:23Z</time>
<speed>1.4</speed>
</trkpt>
<trkpt lat="47.439396" lon="8.288885">
<ele>421.3</ele>
<time>2003-03-28T12:16:28Z</time>
<speed>0.9</speed>
</trkpt>
<trkpt lat="47.439430" lon="8.288850">
<ele>421.9</ele>
<time>2003-03-28T12:16:33Z</time>
<speed>1.0</speed>
</trkpt>
<trkpt lat="47.439459" lon="8.288801">
<ele>421.6</ele>
<time>2003-03-28T12:16:38Z</time>
<speed>0.8</speed>
</trkpt>
<trkpt lat="47.439463" lon="8.288747">
<ele>422.6</ele>
<time>2003-03-28T12:16:43Z</time>
<speed>0.7</speed>
</trkpt>
<trkpt lat="47.439446" lon="8.288704">
<ele>423.0</ele>
<time>2003-03-28T12:16:48Z</time>
<speed>0.4</speed>
</trkpt>
<trkpt lat="47.439465" lon="8.288706">
<ele>423.8</ele>
<time>2003-03-28T12:16:53Z</time>
<speed>0.0</speed>
</trkpt>
<trkpt lat="47.439465" lon="8.288706">
<ele>423.8</ele>
<time>2003-03-28T12:16:58Z</time>
<speed>0.2</speed>
</trkpt>
<trkpt lat="47.439472" lon="8.288708">
<ele>423.1</ele>
<time>2003-03-28T12:17:03Z</time>
<speed>0.0</speed>
</trkpt>
<trkpt lat="47.439472" lon="8.288708">
<ele>423.1</ele>
<time>2003-03-28T12:17:08Z</time>
<speed>0.0</speed>
</trkpt>
<trkpt lat="47.439472" lon="8.288708">
<ele>423.1</ele>
<time>2003-03-28T12:17:13Z</time>
<speed>0.0</speed>
</trkpt>
<trkpt lat="47.439472" lon="8.288708">
<ele>423.1</ele>
<time>2003-03-28T12:17:18Z</time>
<speed>0.3</speed>
</trkpt>
<trkpt lat="47.439466" lon="8.288693">
<ele>423.7</ele>
<time>2003-03-28T12:17:23Z</time>
<speed>0.2</speed>
</trkpt>
<trkpt lat="47.439467" lon="8.288679">
<ele>423.6</ele>
<time>2003-03-28T12:17:28Z</time>
<speed>0.0</speed>
</trkpt>
<trkpt lat="47.439467" lon="8.288679">
<ele>423.6</ele>
<time>2003-03-28T12:17:33Z</time>
<speed>0.3</speed>
</trkpt>
<trkpt lat="47.439461" lon="8.288664">
<ele>424.1</ele>
<time>2003-03-28T12:17:38Z</time>
<speed>0.1</speed>
</trkpt>
<trkpt lat="47.439455" lon="8.288662">
<ele>424.8</ele>
<time>2003-03-28T12:17:43Z</time>
<speed>1.0</speed>
</trkpt>
<trkpt lat="47.439414" lon="8.288696">
<ele>424.9</ele>
<time>2003-03-28T12:17:48Z</time>
<speed>1.0</speed>
</trkpt>
<trkpt lat="47.439369" lon="8.288703">
<ele>424.1</ele>
<time>2003-03-28T12:17:53Z</time>
<speed>0.4</speed>
</trkpt>
<trkpt lat="47.439355" lon="8.288715">
<ele>424.1</ele>
<time>2003-03-28T12:17:58Z</time>
<speed>0.6</speed>
</trkpt>
<trkpt lat="47.439330" lon="8.288711">
<ele>423.9</ele>
<time>2003-03-28T12:18:03Z</time>
<speed>0.3</speed>
</trkpt>
<trkpt lat="47.439317" lon="8.288709">
<ele>423.9</ele>
<time>2003-03-28T12:18:08Z</time>
<speed>0.4</speed>
</trkpt>
<trkpt lat="47.439316" lon="8.288735">
<ele>424.1</ele>
<time>2003-03-28T12:18:13Z</time>
<speed>0.2</speed>
</trkpt>
<trkpt lat="47.439308" lon="8.288746">
<ele>424.8</ele>
<time>2003-03-28T12:18:18Z</time>
<speed>0.7</speed>
</trkpt>
<trkpt lat="47.439293" lon="8.288784">
<ele>425.1</ele>
<time>2003-03-28T12:18:23Z</time>
<speed>0.4</speed>
</trkpt>
<trkpt lat="47.439285" lon="8.288810">
<ele>424.5</ele>
<time>2003-03-28T12:18:28Z</time>
<speed>0.6</speed>
</trkpt>
<trkpt lat="47.439310" lon="8.288814">
<ele>424.7</ele>
<time>2003-03-28T12:18:33Z</time>
<speed>0.6</speed>
</trkpt>
<trkpt lat="47.439336" lon="8.288805">
<ele>424.7</ele>
<time>2003-03-28T12:18:38Z</time>
<speed>0.4</speed>
</trkpt>
<trkpt lat="47.439328" lon="8.288831">
<ele>424.2</ele>
<time>2003-03-28T12:18:43Z</time>
<speed>0.2</speed>
</trkpt>
<trkpt lat="47.439327" lon="8.288844">
<ele>424.3</ele>
<time>2003-03-28T12:18:48Z</time>
<speed>0.3</speed>
</trkpt>
<trkpt lat="47.439340" lon="8.288846">
<ele>424.3</ele>
<time>2003-03-28T12:18:53Z</time>
<speed>0.5</speed>
</trkpt>
<trkpt lat="47.439354" lon="8.288822">
<ele>424.2</ele>
<time>2003-03-28T12:18:58Z</time>
<speed>0.3</speed>
</trkpt>
<trkpt lat="47.439367" lon="8.288823">
<ele>424.3</ele>
<time>2003-03-28T12:19:03Z</time>
<speed>0.7</speed>
</trkpt>
<trkpt lat="47.439399" lon="8.288829">
<ele>423.7</ele>
<time>2003-03-28T12:19:08Z</time>
<speed>0.1</speed>
</trkpt>
<trkpt lat="47.439405" lon="8.288831">
<ele>423.1</ele>
<time>2003-03-28T12:19:13Z</time>
<speed>0.3</speed>
</trkpt>
<trkpt lat="47.439392" lon="8.288842">
<ele>423.1</ele>
<time>2003-03-28T12:19:18Z</time>
<speed>0.4</speed>
</trkpt>
<trkpt lat="47.439378" lon="8.288854">
<ele>423.1</ele>
<time>2003-03-28T12:19:23Z</time>
<speed>0.3</speed>
</trkpt>
<trkpt lat="47.439366" lon="8.288852">
<ele>423.1</ele>
<time>2003-03-28T12:19:28Z</time>
<speed>0.8</speed>
</trkpt>
<trkpt lat="47.439332" lon="8.288872">
<ele>423.8</ele>
<time>2003-03-28T12:19:33Z</time>
<speed>0.6</speed>
</trkpt>
<trkpt lat="47.439306" lon="8.288881">
<ele>423.7</ele>
<time>2003-03-28T12:19:38Z</time>
<speed>0.7</speed>
</trkpt>
<trkpt lat="47.439278" lon="8.288904">
<ele>423.8</ele>
<time>2003-03-28T12:19:43Z</time>
<speed>0.3</speed>
</trkpt>
<trkpt lat="47.439266" lon="8.288902">
<ele>423.7</ele>
<time>2003-03-28T12:19:48Z</time>
<speed>0.0</speed>
</trkpt>
<trkpt lat="47.439266" lon="8.288902">
<ele>423.7</ele>
<time>2003-03-28T12:19:53Z</time>
<speed>0.8</speed>
</trkpt>
<trkpt lat="47.439294" lon="8.288866">
<ele>423.6</ele>
<time>2003-03-28T12:19:58Z</time>
<speed>0.0</speed>
</trkpt>
<trkpt lat="47.439294" lon="8.288866">
<ele>423.6</ele>
<time>2003-03-28T12:20:03Z</time>
<speed>0.9</speed>
</trkpt>
<trkpt lat="47.439333" lon="8.288859">
<ele>423.7</ele>
<time>2003-03-28T12:20:08Z</time>
<speed>0.5</speed>
</trkpt>
<trkpt lat="47.439351" lon="8.288874">
<ele>424.6</ele>
<time>2003-03-28T12:20:13Z</time>
<speed>0.6</speed>
</trkpt>
<trkpt lat="47.439372" lon="8.288852">
<ele>423.8</ele>
<time>2003-03-28T12:20:18Z</time>
<speed>0.3</speed>
</trkpt>
<trkpt lat="47.439384" lon="8.288854">
<ele>423.9</ele>
<time>2003-03-28T12:20:23Z</time>
<speed>0.3</speed>
</trkpt>
<trkpt lat="47.439391" lon="8.288840">
<ele>424.5</ele>
<time>2003-03-28T12:20:28Z</time>
<speed>0.6</speed>
</trkpt>
<trkpt lat="47.439400" lon="8.288801">
<ele>424.9</ele>
<time>2003-03-28T12:20:33Z</time>
<speed>0.6</speed>
</trkpt>
<trkpt lat="47.439374" lon="8.288810">
<ele>424.9</ele>
<time>2003-03-28T12:20:38Z</time>
<speed>0.0</speed>
</trkpt>
<trkpt lat="47.439374" lon="8.288810">
<ele>424.9</ele>
<time>2003-03-28T12:20:43Z</time>
<speed>0.4</speed>
</trkpt>
<trkpt lat="47.439388" lon="8.288799">
<ele>424.9</ele>
<time>2003-03-28T12:20:48Z</time>
<speed>0.3</speed>
</trkpt>
<trkpt lat="47.439375" lon="8.288797">
<ele>424.8</ele>
<time>2003-03-28T12:20:53Z</time>
<speed>0.1</speed>
</trkpt>
<trkpt lat="47.439381" lon="8.288797">
<ele>425.5</ele>
<time>2003-03-28T12:20:58Z</time>
<speed>0.8</speed>
</trkpt>
<trkpt lat="47.439415" lon="8.288777">
<ele>424.8</ele>
<time>2003-03-28T12:21:03Z</time>
<speed>0.2</speed>
</trkpt>
<trkpt lat="47.439422" lon="8.288764">
<ele>425.4</ele>
<time>2003-03-28T12:21:08Z</time>
<speed>0.3</speed>
</trkpt>
<trkpt lat="47.439434" lon="8.288779">
<ele>425.6</ele>
<time>2003-03-28T12:21:13Z</time>
<speed>0.3</speed>
</trkpt>
<trkpt lat="47.439428" lon="8.288764">
<ele>426.2</ele>
<time>2003-03-28T12:21:18Z</time>
<speed>0.2</speed>
</trkpt>
<trkpt lat="47.439421" lon="8.288777">
<ele>425.5</ele>
<time>2003-03-28T12:21:23Z</time>
<speed>0.5</speed>
</trkpt>
<trkpt lat="47.439403" lon="8.288760">
<ele>426.1</ele>
<time>2003-03-28T12:21:28Z</time>
<speed>0.4</speed>
</trkpt>
<trkpt lat="47.439394" lon="8.288784">
<ele>426.9</ele>
<time>2003-03-28T12:21:33Z</time>
<speed>0.3</speed>
</trkpt>
<trkpt lat="47.439382" lon="8.288782">
<ele>426.8</ele>
<time>2003-03-28T12:21:38Z</time>
<speed>0.5</speed>
</trkpt>
<trkpt lat="47.439401" lon="8.288771">
<ele>427.6</ele>
<time>2003-03-28T12:21:43Z</time>
<speed>0.1</speed>
</trkpt>
<trkpt lat="47.439395" lon="8.288769">
<ele>428.2</ele>
<time>2003-03-28T12:21:48Z</time>
<speed>0.3</speed>
</trkpt>
<trkpt lat="47.439407" lon="8.288771">
<ele>428.3</ele>
<time>2003-03-28T12:21:53Z</time>
<speed>0.7</speed>
</trkpt>
<trkpt lat="47.439434" lon="8.288749">
<ele>428.2</ele>
<time>2003-03-28T12:21:58Z</time>
<speed>0.3</speed>
</trkpt>
<trkpt lat="47.439421" lon="8.288760">
<ele>428.3</ele>
<time>2003-03-28T12:22:03Z</time>
<speed>0.2</speed>
</trkpt>
<trkpt lat="47.439414" lon="8.288773">
<ele>427.6</ele>
<time>2003-03-28T12:22:08Z</time>
<speed>0.2</speed>
</trkpt>
<trkpt lat="47.439415" lon="8.288760">
<ele>427.5</ele>
<time>2003-03-28T12:22:13Z</time>
<speed>0.2</speed>
</trkpt>
<trkpt lat="47.439414" lon="8.288773">
<ele>427.6</ele>
<time>2003-03-28T12:22:18Z</time>
<speed>0.4</speed>
</trkpt>
<trkpt lat="47.439395" lon="8.288771">
<ele>426.8</ele>
<time>2003-03-28T12:22:23Z</time>
<speed>0.3</speed>
</trkpt>
<trkpt lat="47.439407" lon="8.288786">
<ele>427.0</ele>
<time>2003-03-28T12:22:28Z</time>
<speed>0.8</speed>
</trkpt>
<trkpt lat="47.439369" lon="8.288780">
<ele>426.8</ele>
<time>2003-03-28T12:22:33Z</time>
<speed>0.8</speed>
</trkpt>
<trkpt lat="47.439331" lon="8.288775">
<ele>426.6</ele>
<time>2003-03-28T12:22:38Z</time>
<speed>0.1</speed>
</trkpt>
<trkpt lat="47.439337" lon="8.288775">
<ele>427.3</ele>
<time>2003-03-28T12:22:43Z</time>
<speed>0.5</speed>
</trkpt>
<trkpt lat="47.439357" lon="8.288765">
<ele>426.6</ele>
<time>2003-03-28T12:22:48Z</time>
<speed>0.2</speed>
</trkpt>
<trkpt lat="47.439356" lon="8.288778">
<ele>426.7</ele>
<time>2003-03-28T12:22:53Z</time>
<speed>0.1</speed>
</trkpt>
<trkpt lat="47.439350" lon="8.288776">
<ele>427.4</ele>
<time>2003-03-28T12:22:58Z</time>
<speed>0.6</speed>
</trkpt>
<trkpt lat="47.439323" lon="8.288786">
<ele>427.3</ele>
<time>2003-03-28T12:23:03Z</time>
<speed>1.1</speed>
</trkpt>
<trkpt lat="47.439273" lon="8.288778">
<ele>427.1</ele>
<time>2003-03-28T12:23:08Z</time>
<speed>1.5</speed>
</trkpt>
<trkpt lat="47.439207" lon="8.288808">
<ele>427.0</ele>
<time>2003-03-28T12:23:13Z</time>
<speed>0.2</speed>
</trkpt>
<trkpt lat="47.439199" lon="8.288819">
<ele>427.8</ele>
<time>2003-03-28T12:23:18Z</time>
<speed>1.1</speed>
</trkpt>
<trkpt lat="47.439246" lon="8.288801">
<ele>427.1</ele>
<time>2003-03-28T12:23:23Z</time>
<speed>0.6</speed>
</trkpt>
<trkpt lat="47.439255" lon="8.288842">
<ele>427.5</ele>
<time>2003-03-28T12:23:28Z</time>
<speed>1.0</speed>
</trkpt>
<trkpt lat="47.439300" lon="8.288849">
<ele>427.0</ele>
<time>2003-03-28T12:23:33Z</time>
<speed>0.4</speed>
</trkpt>
<trkpt lat="47.439286" lon="8.288861">
<ele>427.1</ele>
<time>2003-03-28T12:23:38Z</time>
<speed>0.9</speed>
</trkpt>
<trkpt lat="47.439325" lon="8.288853">
<ele>427.2</ele>
<time>2003-03-28T12:23:43Z</time>
<speed>0.8</speed>
</trkpt>
<trkpt lat="47.439363" lon="8.288859">
<ele>427.4</ele>
<time>2003-03-28T12:23:48Z</time>
<speed>0.8</speed>
</trkpt>
<trkpt lat="47.439401" lon="8.288865">
<ele>427.6</ele>
<time>2003-03-28T12:23:53Z</time>
<speed>0.9</speed>
</trkpt>
<trkpt lat="47.439440" lon="8.288857">
<ele>427.7</ele>
<time>2003-03-28T12:23:58Z</time>
<speed>0.6</speed>
</trkpt>
<trkpt lat="47.439465" lon="8.288861">
<ele>427.8</ele>
<time>2003-03-28T12:24:03Z</time>
<speed>0.2</speed>
</trkpt>
<trkpt lat="47.439464" lon="8.288872">
<ele>429.3</ele>
<time>2003-03-28T12:24:08Z</time>
<speed>0.4</speed>
</trkpt>
<trkpt lat="47.439450" lon="8.288884">
<ele>429.3</ele>
<time>2003-03-28T12:24:13Z</time>
<speed>1.0</speed>
</trkpt>
<trkpt lat="47.439405" lon="8.288889">
<ele>429.9</ele>
<time>2003-03-28T12:24:18Z</time>
<speed>1.0</speed>
</trkpt>
<trkpt lat="47.439360" lon="8.288896">
<ele>429.1</ele>
<time>2003-03-28T12:24:23Z</time>
<speed>0.5</speed>
</trkpt>
<trkpt lat="47.439334" lon="8.288906">
<ele>429.0</ele>
<time>2003-03-28T12:24:29Z</time>
<speed>0.0</speed>
</trkpt>
<trkpt lat="47.439334" lon="8.288906">
<ele>429.0</ele>
<time>2003-03-28T12:24:34Z</time>
<speed>0.2</speed>
</trkpt>
<trkpt lat="47.439326" lon="8.288917">
<ele>429.8</ele>
<time>2003-03-28T12:24:39Z</time>
<speed>0.2</speed>
</trkpt>
<trkpt lat="47.439319" lon="8.288930">
<ele>429.2</ele>
<time>2003-03-28T12:24:44Z</time>
<speed>0.2</speed>
</trkpt>
<trkpt lat="47.439326" lon="8.288917">
<ele>429.8</ele>
<time>2003-03-28T12:24:49Z</time>
<speed>0.3</speed>
</trkpt>
<trkpt lat="47.439314" lon="8.288902">
<ele>429.6</ele>
<time>2003-03-28T12:24:54Z</time>
<speed>0.2</speed>
</trkpt>
<trkpt lat="47.439315" lon="8.288889">
<ele>429.5</ele>
<time>2003-03-28T12:24:59Z</time>
<speed>0.1</speed>
</trkpt>
<trkpt lat="47.439321" lon="8.288889">
<ele>430.3</ele>
<time>2003-03-28T12:25:04Z</time>
<speed>0.1</speed>
</trkpt>
<trkpt lat="47.439315" lon="8.288887">
<ele>430.9</ele>
<time>2003-03-28T12:25:09Z</time>
<speed>0.4</speed>
</trkpt>
<trkpt lat="47.439296" lon="8.288883">
<ele>431.5</ele>
<time>2003-03-28T12:25:14Z</time>
<speed>0.9</speed>
</trkpt>
<trkpt lat="47.439256" lon="8.288889">
<ele>432.8</ele>
<time>2003-03-28T12:25:19Z</time>
<speed>0.4</speed>
</trkpt>
<trkpt lat="47.439237" lon="8.288885">
<ele>433.4</ele>
<time>2003-03-28T12:25:24Z</time>
<speed>0.4</speed>
</trkpt>
<trkpt lat="47.439218" lon="8.288881">
<ele>434.0</ele>
<time>2003-03-28T12:25:29Z</time>
<speed>0.3</speed>
</trkpt>
<trkpt lat="47.439204" lon="8.288890">
<ele>435.5</ele>
<time>2003-03-28T12:25:34Z</time>
<speed>0.0</speed>
</trkpt>
<trkpt lat="47.439204" lon="8.288890">
<ele>435.5</ele>
<time>2003-03-28T12:25:39Z</time>
<speed>0.3</speed>
</trkpt>
<trkpt lat="47.439191" lon="8.288888">
<ele>435.4</ele>
<time>2003-03-28T12:25:44Z</time>
<speed>0.5</speed>
</trkpt>
<trkpt lat="47.439173" lon="8.288871">
<ele>435.9</ele>
<time>2003-03-28T12:25:49Z</time>
<speed>0.7</speed>
</trkpt>
<trkpt lat="47.439141" lon="8.288866">
<ele>436.5</ele>
<time>2003-03-28T12:25:54Z</time>
<speed>0.5</speed>
</trkpt>
<trkpt lat="47.439121" lon="8.288875">
<ele>437.2</ele>
<time>2003-03-28T12:25:59Z</time>
<speed>0.2</speed>
</trkpt>
<trkpt lat="47.439128" lon="8.288862">
<ele>437.8</ele>
<time>2003-03-28T12:26:04Z</time>
<speed>0.2</speed>
</trkpt>
<trkpt lat="47.439141" lon="8.288864">
<ele>437.9</ele>
<time>2003-03-28T12:26:10Z</time>
<speed>0.3</speed>
</trkpt>
<trkpt lat="47.439135" lon="8.288849">
<ele>438.4</ele>
<time>2003-03-28T12:26:15Z</time>
<speed>0.3</speed>
</trkpt>
<trkpt lat="47.439148" lon="8.288836">
<ele>439.8</ele>
<time>2003-03-28T12:26:20Z</time>
<speed>0.3</speed>
</trkpt>
<trkpt lat="47.439155" lon="8.288822">
<ele>440.4</ele>
<time>2003-03-28T12:26:25Z</time>
<speed>0.3</speed>
</trkpt>
<trkpt lat="47.439167" lon="8.288837">
<ele>440.6</ele>
<time>2003-03-28T12:26:30Z</time>
<speed>0.2</speed>
</trkpt>
<trkpt lat="47.439174" lon="8.288824">
<ele>441.3</ele>
<time>2003-03-28T12:26:35Z</time>
<speed>0.9</speed>
</trkpt>
<trkpt lat="47.439139" lon="8.288858">
<ele>442.1</ele>
<time>2003-03-28T12:26:40Z</time>
<speed>0.4</speed>
</trkpt>
<trkpt lat="47.439137" lon="8.288884">
<ele>442.3</ele>
<time>2003-03-28T12:26:45Z</time>
<speed>1.1</speed>
</trkpt>
<trkpt lat="47.439091" lon="8.288903">
<ele>442.9</ele>
<time>2003-03-28T12:26:50Z</time>
<speed>0.9</speed>
</trkpt>
<trkpt lat="47.439088" lon="8.288846">
<ele>444.6</ele>
<time>2003-03-28T12:26:55Z</time>
<speed>0.3</speed>
</trkpt>
<trkpt lat="47.439082" lon="8.288831">
<ele>445.2</ele>
<time>2003-03-28T12:27:00Z</time>
<speed>0.3</speed>
</trkpt>
<trkpt lat="47.439077" lon="8.288816">
<ele>445.8</ele>
<time>2003-03-28T12:27:05Z</time>
<speed>0.9</speed>
</trkpt>
<trkpt lat="47.439037" lon="8.288837">
<ele>445.8</ele>
<time>2003-03-28T12:27:10Z</time>
<speed>0.7</speed>
</trkpt>
<trkpt lat="47.439052" lon="8.288799">
<ele>445.5</ele>
<time>2003-03-28T12:27:15Z</time>
<speed>0.2</speed>
</trkpt>
<trkpt lat="47.439053" lon="8.288786">
<ele>445.4</ele>
<time>2003-03-28T12:27:20Z</time>
<speed>0.7</speed>
</trkpt>
<trkpt lat="47.439069" lon="8.288749">
<ele>445.2</ele>
<time>2003-03-28T12:27:25Z</time>
<speed>0.2</speed>
</trkpt>
<trkpt lat="47.439069" lon="8.288734">
<ele>446.5</ele>
<time>2003-03-28T12:27:30Z</time>
<speed>0.2</speed>
</trkpt>
<trkpt lat="47.439062" lon="8.288747">
<ele>445.9</ele>
<time>2003-03-28T12:27:35Z</time>
<speed>0.2</speed>
</trkpt>
<trkpt lat="47.439070" lon="8.288736">
<ele>445.1</ele>
<time>2003-03-28T12:27:40Z</time>
<speed>0.4</speed>
</trkpt>
<trkpt lat="47.439062" lon="8.288762">
<ele>444.6</ele>
<time>2003-03-28T12:27:45Z</time>
<speed>0.4</speed>
</trkpt>
<trkpt lat="47.439048" lon="8.288773">
<ele>444.6</ele>
<time>2003-03-28T12:27:50Z</time>
<speed>0.8</speed>
</trkpt>
<trkpt lat="47.439015" lon="8.288796">
<ele>443.9</ele>
<time>2003-03-28T12:27:55Z</time>
<speed>1.3</speed>
</trkpt>
<trkpt lat="47.438957" lon="8.288801">
<ele>443.0</ele>
<time>2003-03-28T12:28:00Z</time>
<speed>0.8</speed>
</trkpt>
<trkpt lat="47.438924" lon="8.288824">
<ele>442.3</ele>
<time>2003-03-28T12:28:05Z</time>
<speed>0.0</speed>
</trkpt>
<trkpt lat="47.438924" lon="8.288824">
<ele>442.3</ele>
<time>2003-03-28T12:28:11Z</time>
<speed>0.5</speed>
</trkpt>
<trkpt lat="47.438942" lon="8.288840">
<ele>441.8</ele>
<time>2003-03-28T12:28:16Z</time>
<speed>0.5</speed>
</trkpt>
<trkpt lat="47.438960" lon="8.288857">
<ele>441.3</ele>
<time>2003-03-28T12:28:21Z</time>
<speed>0.4</speed>
</trkpt>
<trkpt lat="47.438965" lon="8.288886">
<ele>440.9</ele>
<time>2003-03-28T12:28:27Z</time>
<speed>0.6</speed>
</trkpt>
<trkpt lat="47.438991" lon="8.288876">
<ele>440.9</ele>
<time>2003-03-28T12:28:32Z</time>
<speed>0.7</speed>
</trkpt>
<trkpt lat="47.439024" lon="8.288869">
<ele>440.3</ele>
<time>2003-03-28T12:28:37Z</time>
<speed>0.3</speed>
</trkpt>
<trkpt lat="47.439037" lon="8.288871">
<ele>440.3</ele>
<time>2003-03-28T12:28:42Z</time>
<speed>0.1</speed>
</trkpt>
<trkpt lat="47.439043" lon="8.288873">
<ele>439.7</ele>
<time>2003-03-28T12:28:47Z</time>
<speed>0.5</speed>
</trkpt>
<trkpt lat="47.439054" lon="8.288901">
<ele>439.9</ele>
<time>2003-03-28T12:28:52Z</time>
<speed>0.5</speed>
</trkpt>
<trkpt lat="47.439065" lon="8.288931">
<ele>438.8</ele>
<time>2003-03-28T12:28:57Z</time>
<speed>0.5</speed>
</trkpt>
<trkpt lat="47.439046" lon="8.288942">
<ele>438.1</ele>
<time>2003-03-28T12:29:02Z</time>
<speed>0.6</speed>
</trkpt>
<trkpt lat="47.439048" lon="8.288903">
<ele>437.8</ele>
<time>2003-03-28T12:29:07Z</time>
<speed>0.2</speed>
</trkpt>
<trkpt lat="47.439049" lon="8.288890">
<ele>437.7</ele>
<time>2003-03-28T12:29:12Z</time>
<speed>0.6</speed>
</trkpt>
<trkpt lat="47.439076" lon="8.288880">
<ele>437.7</ele>
<time>2003-03-28T12:29:17Z</time>
<speed>0.8</speed>
</trkpt>
<trkpt lat="47.439054" lon="8.288918">
<ele>437.2</ele>
<time>2003-03-28T12:29:22Z</time>
<speed>0.6</speed>
</trkpt>
<trkpt lat="47.439033" lon="8.288940">
<ele>438.0</ele>
<time>2003-03-28T12:29:27Z</time>
<speed>0.8</speed>
</trkpt>
<trkpt lat="47.439061" lon="8.288905">
<ele>437.8</ele>
<time>2003-03-28T12:29:32Z</time>
<speed>0.5</speed>
</trkpt>
<trkpt lat="47.439076" lon="8.288880">
<ele>437.7</ele>
<time>2003-03-28T12:29:37Z</time>
<speed>0.9</speed>
</trkpt>
<trkpt lat="47.439115" lon="8.288860">
<ele>437.7</ele>
<time>2003-03-28T12:29:42Z</time>
<speed>0.3</speed>
</trkpt>
<trkpt lat="47.439128" lon="8.288862">
<ele>437.8</ele>
<time>2003-03-28T12:29:47Z</time>
<speed>0.3</speed>
</trkpt>
<trkpt lat="47.439134" lon="8.288877">
<ele>437.2</ele>
<time>2003-03-28T12:29:52Z</time>
<speed>0.6</speed>
</trkpt>
<trkpt lat="47.439113" lon="8.288899">
<ele>438.0</ele>
<time>2003-03-28T12:29:57Z</time>
<speed>0.6</speed>
</trkpt>
<trkpt lat="47.439091" lon="8.288922">
<ele>438.8</ele>
<time>2003-03-28T12:30:02Z</time>
<speed>0.2</speed>
</trkpt>
<trkpt lat="47.439098" lon="8.288924">
<ele>438.1</ele>
<time>2003-03-28T12:30:07Z</time>
<speed>0.4</speed>
</trkpt>
<trkpt lat="47.439117" lon="8.288925">
<ele>438.9</ele>
<time>2003-03-28T12:30:12Z</time>
<speed>0.5</speed>
</trkpt>
<trkpt lat="47.439131" lon="8.288901">
<ele>438.8</ele>
<time>2003-03-28T12:30:17Z</time>
<speed>0.2</speed>
</trkpt>
<trkpt lat="47.439138" lon="8.288888">
<ele>439.5</ele>
<time>2003-03-28T12:30:22Z</time>
<speed>0.7</speed>
</trkpt>
<trkpt lat="47.439166" lon="8.288866">
<ele>439.4</ele>
<time>2003-03-28T12:30:27Z</time>
<speed>0.2</speed>
</trkpt>
<trkpt lat="47.439165" lon="8.288879">
<ele>439.5</ele>
<time>2003-03-28T12:30:32Z</time>
<speed>0.6</speed>
</trkpt>
<trkpt lat="47.439191" lon="8.288869">
<ele>439.5</ele>
<time>2003-03-28T12:30:37Z</time>
<speed>0.2</speed>
</trkpt>
<trkpt lat="47.439198" lon="8.288856">
<ele>440.2</ele>
<time>2003-03-28T12:30:42Z</time>
<speed>0.3</speed>
</trkpt>
<trkpt lat="47.439210" lon="8.288858">
<ele>440.2</ele>
<time>2003-03-28T12:30:47Z</time>
<speed>0.3</speed>
</trkpt>
<trkpt lat="47.439205" lon="8.288843">
<ele>440.8</ele>
<time>2003-03-28T12:30:52Z</time>
<speed>0.4</speed>
</trkpt>
<trkpt lat="47.439213" lon="8.288817">
<ele>441.4</ele>
<time>2003-03-28T12:30:57Z</time>
<speed>0.5</speed>
</trkpt>
<trkpt lat="47.439195" lon="8.288800">
<ele>441.9</ele>
<time>2003-03-28T12:31:02Z</time>
<speed>0.0</speed>
</trkpt>
<trkpt lat="47.439195" lon="8.288800">
<ele>441.9</ele>
<time>2003-03-28T12:31:07Z</time>
<speed>1.0</speed>
</trkpt>
<trkpt lat="47.439240" lon="8.288793">
<ele>442.7</ele>
<time>2003-03-28T12:31:12Z</time>
<speed>0.6</speed>
</trkpt>
<trkpt lat="47.439265" lon="8.288796">
<ele>442.8</ele>
<time>2003-03-28T12:31:17Z</time>
<speed>0.8</speed>
</trkpt>
<trkpt lat="47.439232" lon="8.288819">
<ele>442.2</ele>
<time>2003-03-28T12:31:22Z</time>
<speed>0.2</speed>
</trkpt>
<trkpt lat="47.439224" lon="8.288830">
<ele>442.9</ele>
<time>2003-03-28T12:31:27Z</time>
<speed>0.8</speed>
</trkpt>
<trkpt lat="47.439191" lon="8.288852">
<ele>442.2</ele>
<time>2003-03-28T12:31:32Z</time>
<speed>0.5</speed>
</trkpt>
<trkpt lat="47.439211" lon="8.288843">
<ele>441.5</ele>
<time>2003-03-28T12:31:37Z</time>
<speed>0.4</speed>
</trkpt>
<trkpt lat="47.439225" lon="8.288832">
<ele>441.5</ele>
<time>2003-03-28T12:31:42Z</time>
<speed>0.3</speed>
</trkpt>
<trkpt lat="47.439212" lon="8.288830">
<ele>441.5</ele>
<time>2003-03-28T12:31:47Z</time>
<speed>0.6</speed>
</trkpt>
<trkpt lat="47.439203" lon="8.288869">
<ele>441.0</ele>
<time>2003-03-28T12:31:52Z</time>
<speed>0.3</speed>
</trkpt>
<trkpt lat="47.439191" lon="8.288854">
<ele>440.8</ele>
<time>2003-03-28T12:31:57Z</time>
<speed>1.0</speed>
</trkpt>
<trkpt lat="47.439193" lon="8.288922">
<ele>440.7</ele>
<time>2003-03-28T12:32:02Z</time>
<speed>0.5</speed>
</trkpt>
<trkpt lat="47.439211" lon="8.288939">
<ele>440.2</ele>
<time>2003-03-28T12:32:07Z</time>
<speed>0.3</speed>
</trkpt>
<trkpt lat="47.439217" lon="8.288954">
<ele>439.6</ele>
<time>2003-03-28T12:32:12Z</time>
<speed>0.3</speed>
</trkpt>
</trkseg>
</trk>
</gpx>
